<?xml version="1.0" encoding="UTF-8" standalone="no" ?>
<gpx xmlns="http://www.topografix.com/GPX/1/1" xmlns:xsi="http://www.w3.org/2001/XMLSchema-instance" xsi:schemaLocation="http://www.topografix.com/GPX/1/1 http://www.topografix.com/GPX/1/1/gpx.xsd" version="1.1" creator="VisuGPX - https://www.visugpx.com">
  <metadata>
    <name>Morbier,Les Marais,Le Glacier,Le tour des lacs des Mortes.</name>
  </metadata>
  <trk>
    <name><![CDATA[Morbier,Les Marais,Le Glacier,Le tour des lacs des Mortes._1]]></name>
    <trkseg>
      <trkpt lat="46.58578" lon="6.06069">
        <ele>1076.7</ele>
        <time>2019-08-13T06:46:17Z</time>
      </trkpt>
      <trkpt lat="46.58581" lon="6.06075">
        <ele>1076.8</ele>
        <time>2019-08-13T06:46:23Z</time>
      </trkpt>
      <trkpt lat="46.58585" lon="6.06079">
        <ele>1077.2</ele>
        <time>2019-08-13T06:46:27Z</time>
      </trkpt>
      <trkpt lat="46.58598" lon="6.06074">
        <ele>1078.3</ele>
        <time>2019-08-13T06:46:41Z</time>
      </trkpt>
      <trkpt lat="46.58602" lon="6.0607">
        <ele>1078.3</ele>
        <time>2019-08-13T06:46:46Z</time>
      </trkpt>
      <trkpt lat="46.58605" lon="6.06064">
        <ele>1078.7</ele>
        <time>2019-08-13T06:46:52Z</time>
      </trkpt>
      <trkpt lat="46.58609" lon="6.06061">
        <ele>1078.9</ele>
        <time>2019-08-13T06:46:56Z</time>
      </trkpt>
      <trkpt lat="46.58614" lon="6.06059">
        <ele>1079.1</ele>
        <time>2019-08-13T06:46:59Z</time>
      </trkpt>
      <trkpt lat="46.58619" lon="6.06058">
        <ele>1079.8</ele>
        <time>2019-08-13T06:47:05Z</time>
      </trkpt>
      <trkpt lat="46.5863" lon="6.06061">
        <ele>1084</ele>
        <time>2019-08-13T06:47:23Z</time>
      </trkpt>
      <trkpt lat="46.58636" lon="6.06063">
        <ele>1085.7</ele>
        <time>2019-08-13T06:47:32Z</time>
      </trkpt>
      <trkpt lat="46.58641" lon="6.06066">
        <ele>1086.3</ele>
        <time>2019-08-13T06:47:35Z</time>
      </trkpt>
      <trkpt lat="46.58645" lon="6.06069">
        <ele>1087.9</ele>
        <time>2019-08-13T06:47:43Z</time>
      </trkpt>
      <trkpt lat="46.5865" lon="6.06069">
        <ele>1089.3</ele>
        <time>2019-08-13T06:47:51Z</time>
      </trkpt>
      <trkpt lat="46.58664" lon="6.06074">
        <ele>1091.3</ele>
        <time>2019-08-13T06:48:09Z</time>
      </trkpt>
      <trkpt lat="46.58669" lon="6.06073">
        <ele>1091.7</ele>
        <time>2019-08-13T06:48:15Z</time>
      </trkpt>
      <trkpt lat="46.58674" lon="6.06074">
        <ele>1092.2</ele>
        <time>2019-08-13T06:48:21Z</time>
      </trkpt>
      <trkpt lat="46.5868" lon="6.06076">
        <ele>1092.6</ele>
        <time>2019-08-13T06:48:26Z</time>
      </trkpt>
      <trkpt lat="46.58685" lon="6.06079">
        <ele>1092.6</ele>
        <time>2019-08-13T06:48:28Z</time>
      </trkpt>
      <trkpt lat="46.58697" lon="6.06085">
        <ele>1092.6</ele>
        <time>2019-08-13T06:48:38Z</time>
      </trkpt>
      <trkpt lat="46.58716" lon="6.061">
        <ele>1095.6</ele>
        <time>2019-08-13T06:48:55Z</time>
      </trkpt>
      <trkpt lat="46.5872" lon="6.06105">
        <ele>1096.4</ele>
        <time>2019-08-13T06:48:59Z</time>
      </trkpt>
      <trkpt lat="46.58724" lon="6.06108">
        <ele>1097.9</ele>
        <time>2019-08-13T06:49:04Z</time>
      </trkpt>
      <trkpt lat="46.5873" lon="6.0611">
        <ele>1099.8</ele>
        <time>2019-08-13T06:49:09Z</time>
      </trkpt>
      <trkpt lat="46.58735" lon="6.06121">
        <ele>1103.9</ele>
        <time>2019-08-13T06:49:22Z</time>
      </trkpt>
      <trkpt lat="46.58736" lon="6.06129">
        <ele>1103.8</ele>
        <time>2019-08-13T06:49:27Z</time>
      </trkpt>
      <trkpt lat="46.58736" lon="6.06136">
        <ele>1103.7</ele>
        <time>2019-08-13T06:49:30Z</time>
      </trkpt>
      <trkpt lat="46.58737" lon="6.06142">
        <ele>1103.2</ele>
        <time>2019-08-13T06:49:35Z</time>
      </trkpt>
      <trkpt lat="46.5874" lon="6.06149">
        <ele>1102.8</ele>
        <time>2019-08-13T06:49:39Z</time>
      </trkpt>
      <trkpt lat="46.58744" lon="6.06154">
        <ele>1102.6</ele>
        <time>2019-08-13T06:49:42Z</time>
      </trkpt>
      <trkpt lat="46.58747" lon="6.0616">
        <ele>1102.1</ele>
        <time>2019-08-13T06:49:49Z</time>
      </trkpt>
      <trkpt lat="46.58751" lon="6.06166">
        <ele>1101.9</ele>
        <time>2019-08-13T06:49:55Z</time>
      </trkpt>
      <trkpt lat="46.58754" lon="6.06172">
        <ele>1101.7</ele>
        <time>2019-08-13T06:49:58Z</time>
      </trkpt>
      <trkpt lat="46.58757" lon="6.06178">
        <ele>1101.4</ele>
        <time>2019-08-13T06:50:02Z</time>
      </trkpt>
      <trkpt lat="46.58759" lon="6.06185">
        <ele>1101.1</ele>
        <time>2019-08-13T06:50:07Z</time>
      </trkpt>
      <trkpt lat="46.58762" lon="6.06198">
        <ele>1100.8</ele>
        <time>2019-08-13T06:50:20Z</time>
      </trkpt>
      <trkpt lat="46.58767" lon="6.06203">
        <ele>1100.6</ele>
        <time>2019-08-13T06:50:26Z</time>
      </trkpt>
      <trkpt lat="46.58776" lon="6.06211">
        <ele>1101</ele>
        <time>2019-08-13T06:50:40Z</time>
      </trkpt>
      <trkpt lat="46.58779" lon="6.06215">
        <ele>1101.6</ele>
        <time>2019-08-13T06:50:46Z</time>
      </trkpt>
      <trkpt lat="46.58782" lon="6.06221">
        <ele>1103.1</ele>
        <time>2019-08-13T06:50:55Z</time>
      </trkpt>
      <trkpt lat="46.58789" lon="6.06226">
        <ele>1106.9</ele>
        <time>2019-08-13T06:51:07Z</time>
      </trkpt>
      <trkpt lat="46.58794" lon="6.06228">
        <ele>1108.4</ele>
        <time>2019-08-13T06:51:15Z</time>
      </trkpt>
      <trkpt lat="46.58812" lon="6.06241">
        <ele>1111.4</ele>
        <time>2019-08-13T06:51:39Z</time>
      </trkpt>
      <trkpt lat="46.58824" lon="6.06249">
        <ele>1113.8</ele>
        <time>2019-08-13T06:51:56Z</time>
      </trkpt>
      <trkpt lat="46.58831" lon="6.06259">
        <ele>1115.2</ele>
        <time>2019-08-13T06:52:10Z</time>
      </trkpt>
      <trkpt lat="46.58836" lon="6.06263">
        <ele>1115.5</ele>
        <time>2019-08-13T06:52:15Z</time>
      </trkpt>
      <trkpt lat="46.58846" lon="6.06269">
        <ele>1115.5</ele>
        <time>2019-08-13T06:52:29Z</time>
      </trkpt>
      <trkpt lat="46.58851" lon="6.06272">
        <ele>1115.6</ele>
        <time>2019-08-13T06:52:34Z</time>
      </trkpt>
      <trkpt lat="46.58856" lon="6.06274">
        <ele>1115.6</ele>
        <time>2019-08-13T06:52:42Z</time>
      </trkpt>
      <trkpt lat="46.58868" lon="6.06281">
        <ele>1116.9</ele>
        <time>2019-08-13T06:53:07Z</time>
      </trkpt>
      <trkpt lat="46.58873" lon="6.06285">
        <ele>1117.1</ele>
        <time>2019-08-13T06:53:09Z</time>
      </trkpt>
      <trkpt lat="46.58894" lon="6.06293">
        <ele>1118.7</ele>
        <time>2019-08-13T06:53:17Z</time>
      </trkpt>
      <trkpt lat="46.58898" lon="6.06292">
        <ele>1119.7</ele>
        <time>2019-08-13T06:53:23Z</time>
      </trkpt>
      <trkpt lat="46.58914" lon="6.06291">
        <ele>1118.3</ele>
        <time>2019-08-13T06:53:51Z</time>
      </trkpt>
      <trkpt lat="46.58945" lon="6.06292">
        <ele>1122.6</ele>
        <time>2019-08-13T06:54:16Z</time>
      </trkpt>
      <trkpt lat="46.58949" lon="6.06294">
        <ele>1122.9</ele>
        <time>2019-08-13T06:54:21Z</time>
      </trkpt>
      <trkpt lat="46.58954" lon="6.06296">
        <ele>1123.2</ele>
        <time>2019-08-13T06:54:26Z</time>
      </trkpt>
      <trkpt lat="46.58979" lon="6.06295">
        <ele>1124</ele>
        <time>2019-08-13T06:55:01Z</time>
      </trkpt>
      <trkpt lat="46.58983" lon="6.06296">
        <ele>1123.7</ele>
        <time>2019-08-13T06:55:06Z</time>
      </trkpt>
      <trkpt lat="46.58989" lon="6.06297">
        <ele>1122.8</ele>
        <time>2019-08-13T06:55:15Z</time>
      </trkpt>
      <trkpt lat="46.58994" lon="6.063">
        <ele>1122.5</ele>
        <time>2019-08-13T06:55:17Z</time>
      </trkpt>
      <trkpt lat="46.58998" lon="6.06303">
        <ele>1122.2</ele>
        <time>2019-08-13T06:55:19Z</time>
      </trkpt>
      <trkpt lat="46.59004" lon="6.06302">
        <ele>1121.9</ele>
        <time>2019-08-13T06:55:22Z</time>
      </trkpt>
      <trkpt lat="46.5901" lon="6.06303">
        <ele>1121.7</ele>
        <time>2019-08-13T06:55:24Z</time>
      </trkpt>
      <trkpt lat="46.59017" lon="6.06303">
        <ele>1121.3</ele>
        <time>2019-08-13T06:55:28Z</time>
      </trkpt>
      <trkpt lat="46.59021" lon="6.06304">
        <ele>1121.3</ele>
        <time>2019-08-13T06:55:34Z</time>
      </trkpt>
      <trkpt lat="46.59027" lon="6.06312">
        <ele>1122.1</ele>
        <time>2019-08-13T06:55:52Z</time>
      </trkpt>
      <trkpt lat="46.59032" lon="6.06325">
        <ele>1120.5</ele>
        <time>2019-08-13T06:56:02Z</time>
      </trkpt>
      <trkpt lat="46.59034" lon="6.06331">
        <ele>1120.3</ele>
        <time>2019-08-13T06:56:05Z</time>
      </trkpt>
      <trkpt lat="46.59037" lon="6.06337">
        <ele>1120.1</ele>
        <time>2019-08-13T06:56:12Z</time>
      </trkpt>
      <trkpt lat="46.5904" lon="6.06342">
        <ele>1120</ele>
        <time>2019-08-13T06:56:15Z</time>
      </trkpt>
      <trkpt lat="46.59044" lon="6.06348">
        <ele>1119.8</ele>
        <time>2019-08-13T06:56:19Z</time>
      </trkpt>
      <trkpt lat="46.59047" lon="6.06353">
        <ele>1119.4</ele>
        <time>2019-08-13T06:56:22Z</time>
      </trkpt>
      <trkpt lat="46.5905" lon="6.0636">
        <ele>1118.8</ele>
        <time>2019-08-13T06:56:25Z</time>
      </trkpt>
      <trkpt lat="46.59052" lon="6.06367">
        <ele>1117.7</ele>
        <time>2019-08-13T06:56:31Z</time>
      </trkpt>
      <trkpt lat="46.59054" lon="6.06373">
        <ele>1117</ele>
        <time>2019-08-13T06:56:36Z</time>
      </trkpt>
      <trkpt lat="46.59057" lon="6.0638">
        <ele>1115.6</ele>
        <time>2019-08-13T06:56:46Z</time>
      </trkpt>
      <trkpt lat="46.59059" lon="6.06387">
        <ele>1114.9</ele>
        <time>2019-08-13T06:56:52Z</time>
      </trkpt>
      <trkpt lat="46.59063" lon="6.06394">
        <ele>1114.8</ele>
        <time>2019-08-13T06:56:59Z</time>
      </trkpt>
      <trkpt lat="46.59073" lon="6.0641">
        <ele>1114.4</ele>
        <time>2019-08-13T06:57:14Z</time>
      </trkpt>
      <trkpt lat="46.59077" lon="6.06414">
        <ele>1114.3</ele>
        <time>2019-08-13T06:57:18Z</time>
      </trkpt>
      <trkpt lat="46.59082" lon="6.06418">
        <ele>1114</ele>
        <time>2019-08-13T06:57:24Z</time>
      </trkpt>
      <trkpt lat="46.59085" lon="6.06424">
        <ele>1113.8</ele>
        <time>2019-08-13T06:57:30Z</time>
      </trkpt>
      <trkpt lat="46.5909" lon="6.06426">
        <ele>1113.7</ele>
        <time>2019-08-13T06:57:33Z</time>
      </trkpt>
      <trkpt lat="46.59093" lon="6.06431">
        <ele>1113.6</ele>
        <time>2019-08-13T06:57:39Z</time>
      </trkpt>
      <trkpt lat="46.59098" lon="6.06435">
        <ele>1113.5</ele>
        <time>2019-08-13T06:57:45Z</time>
      </trkpt>
      <trkpt lat="46.59107" lon="6.06443">
        <ele>1113.9</ele>
        <time>2019-08-13T06:58:01Z</time>
      </trkpt>
      <trkpt lat="46.59111" lon="6.06448">
        <ele>1113.9</ele>
        <time>2019-08-13T06:58:04Z</time>
      </trkpt>
      <trkpt lat="46.59117" lon="6.0645">
        <ele>1114.1</ele>
        <time>2019-08-13T06:58:07Z</time>
      </trkpt>
      <trkpt lat="46.59122" lon="6.06454">
        <ele>1114.4</ele>
        <time>2019-08-13T06:58:10Z</time>
      </trkpt>
      <trkpt lat="46.59127" lon="6.06459">
        <ele>1114.6</ele>
        <time>2019-08-13T06:58:13Z</time>
      </trkpt>
      <trkpt lat="46.59131" lon="6.06464">
        <ele>1114.8</ele>
        <time>2019-08-13T06:58:17Z</time>
      </trkpt>
      <trkpt lat="46.59134" lon="6.0647">
        <ele>1114.9</ele>
        <time>2019-08-13T06:58:22Z</time>
      </trkpt>
      <trkpt lat="46.59141" lon="6.06493">
        <ele>1114</ele>
        <time>2019-08-13T06:58:34Z</time>
      </trkpt>
      <trkpt lat="46.59143" lon="6.06499">
        <ele>1113.5</ele>
        <time>2019-08-13T06:58:38Z</time>
      </trkpt>
      <trkpt lat="46.59144" lon="6.06506">
        <ele>1112.4</ele>
        <time>2019-08-13T06:58:44Z</time>
      </trkpt>
      <trkpt lat="46.59146" lon="6.06513">
        <ele>1110.6</ele>
        <time>2019-08-13T06:58:50Z</time>
      </trkpt>
      <trkpt lat="46.59147" lon="6.0652">
        <ele>1109</ele>
        <time>2019-08-13T06:58:54Z</time>
      </trkpt>
      <trkpt lat="46.5915" lon="6.06527">
        <ele>1107.3</ele>
        <time>2019-08-13T06:58:58Z</time>
      </trkpt>
      <trkpt lat="46.59153" lon="6.06532">
        <ele>1105.3</ele>
        <time>2019-08-13T06:59:03Z</time>
      </trkpt>
      <trkpt lat="46.59154" lon="6.0654">
        <ele>1103.3</ele>
        <time>2019-08-13T06:59:09Z</time>
      </trkpt>
      <trkpt lat="46.59156" lon="6.06547">
        <ele>1101.9</ele>
        <time>2019-08-13T06:59:13Z</time>
      </trkpt>
      <trkpt lat="46.59157" lon="6.06555">
        <ele>1100.4</ele>
        <time>2019-08-13T06:59:18Z</time>
      </trkpt>
      <trkpt lat="46.59159" lon="6.06561">
        <ele>1099</ele>
        <time>2019-08-13T06:59:24Z</time>
      </trkpt>
      <trkpt lat="46.59163" lon="6.06563">
        <ele>1098.3</ele>
        <time>2019-08-13T06:59:31Z</time>
      </trkpt>
      <trkpt lat="46.59168" lon="6.06565">
        <ele>1098.5</ele>
        <time>2019-08-13T06:59:38Z</time>
      </trkpt>
      <trkpt lat="46.59173" lon="6.06565">
        <ele>1099.1</ele>
        <time>2019-08-13T06:59:43Z</time>
      </trkpt>
      <trkpt lat="46.59177" lon="6.06564">
        <ele>1100.2</ele>
        <time>2019-08-13T06:59:48Z</time>
      </trkpt>
      <trkpt lat="46.59182" lon="6.06565">
        <ele>1102.6</ele>
        <time>2019-08-13T06:59:55Z</time>
      </trkpt>
      <trkpt lat="46.59192" lon="6.06567">
        <ele>1111.5</ele>
        <time>2019-08-13T07:00:10Z</time>
      </trkpt>
      <trkpt lat="46.59202" lon="6.06576">
        <ele>1119.8</ele>
        <time>2019-08-13T07:00:25Z</time>
      </trkpt>
      <trkpt lat="46.59206" lon="6.06583">
        <ele>1121.7</ele>
        <time>2019-08-13T07:00:31Z</time>
      </trkpt>
      <trkpt lat="46.59209" lon="6.06589">
        <ele>1123.1</ele>
        <time>2019-08-13T07:00:36Z</time>
      </trkpt>
      <trkpt lat="46.59213" lon="6.06595">
        <ele>1124.4</ele>
        <time>2019-08-13T07:00:41Z</time>
      </trkpt>
      <trkpt lat="46.59228" lon="6.06611">
        <ele>1128.6</ele>
        <time>2019-08-13T07:00:58Z</time>
      </trkpt>
      <trkpt lat="46.59264" lon="6.06644">
        <ele>1138.2</ele>
        <time>2019-08-13T07:01:46Z</time>
      </trkpt>
      <trkpt lat="46.5928" lon="6.06654">
        <ele>1139.8</ele>
        <time>2019-08-13T07:02:11Z</time>
      </trkpt>
      <trkpt lat="46.59284" lon="6.06657">
        <ele>1136.7</ele>
        <time>2019-08-13T07:02:23Z</time>
      </trkpt>
      <trkpt lat="46.59289" lon="6.06659">
        <ele>1135.7</ele>
        <time>2019-08-13T07:02:27Z</time>
      </trkpt>
      <trkpt lat="46.59294" lon="6.06659">
        <ele>1134.8</ele>
        <time>2019-08-13T07:02:31Z</time>
      </trkpt>
      <trkpt lat="46.59299" lon="6.0666">
        <ele>1133.5</ele>
        <time>2019-08-13T07:02:39Z</time>
      </trkpt>
      <trkpt lat="46.59304" lon="6.06661">
        <ele>1132.9</ele>
        <time>2019-08-13T07:02:45Z</time>
      </trkpt>
      <trkpt lat="46.5932" lon="6.06654">
        <ele>1129.6</ele>
        <time>2019-08-13T07:03:05Z</time>
      </trkpt>
      <trkpt lat="46.59324" lon="6.06651">
        <ele>1128.5</ele>
        <time>2019-08-13T07:03:10Z</time>
      </trkpt>
      <trkpt lat="46.59329" lon="6.06648">
        <ele>1126.9</ele>
        <time>2019-08-13T07:03:16Z</time>
      </trkpt>
      <trkpt lat="46.59334" lon="6.06648">
        <ele>1125.7</ele>
        <time>2019-08-13T07:03:21Z</time>
      </trkpt>
      <trkpt lat="46.59339" lon="6.06647">
        <ele>1124.4</ele>
        <time>2019-08-13T07:03:27Z</time>
      </trkpt>
      <trkpt lat="46.59349" lon="6.06649">
        <ele>1122.7</ele>
        <time>2019-08-13T07:03:40Z</time>
      </trkpt>
      <trkpt lat="46.59354" lon="6.0665">
        <ele>1122.8</ele>
        <time>2019-08-13T07:03:48Z</time>
      </trkpt>
      <trkpt lat="46.59359" lon="6.06651">
        <ele>1123.3</ele>
        <time>2019-08-13T07:03:55Z</time>
      </trkpt>
      <trkpt lat="46.59364" lon="6.06654">
        <ele>1123.7</ele>
        <time>2019-08-13T07:04:00Z</time>
      </trkpt>
      <trkpt lat="46.59374" lon="6.06667">
        <ele>1122.5</ele>
        <time>2019-08-13T07:05:48Z</time>
      </trkpt>
      <trkpt lat="46.59378" lon="6.0667">
        <ele>1123</ele>
        <time>2019-08-13T07:05:53Z</time>
      </trkpt>
      <trkpt lat="46.59383" lon="6.06671">
        <ele>1123.7</ele>
        <time>2019-08-13T07:05:58Z</time>
      </trkpt>
      <trkpt lat="46.59388" lon="6.06672">
        <ele>1124.1</ele>
        <time>2019-08-13T07:06:03Z</time>
      </trkpt>
      <trkpt lat="46.59393" lon="6.06676">
        <ele>1124.6</ele>
        <time>2019-08-13T07:06:11Z</time>
      </trkpt>
      <trkpt lat="46.59395" lon="6.06682">
        <ele>1125.5</ele>
        <time>2019-08-13T07:06:19Z</time>
      </trkpt>
      <trkpt lat="46.59399" lon="6.06687">
        <ele>1126.7</ele>
        <time>2019-08-13T07:06:29Z</time>
      </trkpt>
      <trkpt lat="46.59413" lon="6.067">
        <ele>1128.2</ele>
        <time>2019-08-13T07:06:40Z</time>
      </trkpt>
      <trkpt lat="46.59415" lon="6.06719">
        <ele>1129.2</ele>
        <time>2019-08-13T07:06:52Z</time>
      </trkpt>
      <trkpt lat="46.59416" lon="6.06725">
        <ele>1129.1</ele>
        <time>2019-08-13T07:06:57Z</time>
      </trkpt>
      <trkpt lat="46.59418" lon="6.06732">
        <ele>1128.9</ele>
        <time>2019-08-13T07:07:03Z</time>
      </trkpt>
      <trkpt lat="46.5942" lon="6.06738">
        <ele>1129.6</ele>
        <time>2019-08-13T07:07:10Z</time>
      </trkpt>
      <trkpt lat="46.59419" lon="6.06745">
        <ele>1130.5</ele>
        <time>2019-08-13T07:07:16Z</time>
      </trkpt>
      <trkpt lat="46.59419" lon="6.06754">
        <ele>1131.8</ele>
        <time>2019-08-13T07:07:24Z</time>
      </trkpt>
      <trkpt lat="46.59413" lon="6.06771">
        <ele>1130.4</ele>
        <time>2019-08-13T07:07:34Z</time>
      </trkpt>
      <trkpt lat="46.59415" lon="6.0678">
        <ele>1129.6</ele>
        <time>2019-08-13T07:07:37Z</time>
      </trkpt>
      <trkpt lat="46.59415" lon="6.06798">
        <ele>1124.6</ele>
        <time>2019-08-13T07:07:50Z</time>
      </trkpt>
      <trkpt lat="46.59416" lon="6.06807">
        <ele>1123.8</ele>
        <time>2019-08-13T07:07:56Z</time>
      </trkpt>
      <trkpt lat="46.59416" lon="6.06813">
        <ele>1123</ele>
        <time>2019-08-13T07:08:01Z</time>
      </trkpt>
      <trkpt lat="46.59425" lon="6.06839">
        <ele>1120.8</ele>
        <time>2019-08-13T07:08:49Z</time>
      </trkpt>
      <trkpt lat="46.59431" lon="6.06844">
        <ele>1120.8</ele>
        <time>2019-08-13T07:08:52Z</time>
      </trkpt>
      <trkpt lat="46.59437" lon="6.0685">
        <ele>1120.8</ele>
        <time>2019-08-13T07:08:54Z</time>
      </trkpt>
      <trkpt lat="46.59443" lon="6.06856">
        <ele>1120.8</ele>
        <time>2019-08-13T07:08:56Z</time>
      </trkpt>
      <trkpt lat="46.59448" lon="6.06858">
        <ele>1120.7</ele>
        <time>2019-08-13T07:08:58Z</time>
      </trkpt>
      <trkpt lat="46.59453" lon="6.0686">
        <ele>1120.2</ele>
        <time>2019-08-13T07:09:03Z</time>
      </trkpt>
      <trkpt lat="46.59458" lon="6.06858">
        <ele>1119.5</ele>
        <time>2019-08-13T07:09:09Z</time>
      </trkpt>
      <trkpt lat="46.59463" lon="6.06857">
        <ele>1118.6</ele>
        <time>2019-08-13T07:09:16Z</time>
      </trkpt>
      <trkpt lat="46.59467" lon="6.06852">
        <ele>1117.4</ele>
        <time>2019-08-13T07:09:22Z</time>
      </trkpt>
      <trkpt lat="46.59471" lon="6.06848">
        <ele>1115.4</ele>
        <time>2019-08-13T07:09:30Z</time>
      </trkpt>
      <trkpt lat="46.59475" lon="6.06843">
        <ele>1114.4</ele>
        <time>2019-08-13T07:09:37Z</time>
      </trkpt>
      <trkpt lat="46.59478" lon="6.06838">
        <ele>1113.8</ele>
        <time>2019-08-13T07:09:40Z</time>
      </trkpt>
      <trkpt lat="46.59482" lon="6.06833">
        <ele>1113</ele>
        <time>2019-08-13T07:09:44Z</time>
      </trkpt>
      <trkpt lat="46.59487" lon="6.06831">
        <ele>1111.8</ele>
        <time>2019-08-13T07:09:50Z</time>
      </trkpt>
      <trkpt lat="46.59492" lon="6.06829">
        <ele>1110.7</ele>
        <time>2019-08-13T07:09:55Z</time>
      </trkpt>
      <trkpt lat="46.59497" lon="6.06828">
        <ele>1109.6</ele>
        <time>2019-08-13T07:10:00Z</time>
      </trkpt>
      <trkpt lat="46.59501" lon="6.06821">
        <ele>1108.7</ele>
        <time>2019-08-13T07:10:04Z</time>
      </trkpt>
      <trkpt lat="46.59503" lon="6.06814">
        <ele>1107.5</ele>
        <time>2019-08-13T07:10:11Z</time>
      </trkpt>
      <trkpt lat="46.59507" lon="6.06813">
        <ele>1106.7</ele>
        <time>2019-08-13T07:10:19Z</time>
      </trkpt>
      <trkpt lat="46.59511" lon="6.06808">
        <ele>1106.1</ele>
        <time>2019-08-13T07:10:26Z</time>
      </trkpt>
      <trkpt lat="46.59516" lon="6.06805">
        <ele>1105.8</ele>
        <time>2019-08-13T07:10:37Z</time>
      </trkpt>
      <trkpt lat="46.5952" lon="6.06802">
        <ele>1105.8</ele>
        <time>2019-08-13T07:10:42Z</time>
      </trkpt>
      <trkpt lat="46.59537" lon="6.06782">
        <ele>1105.7</ele>
        <time>2019-08-13T07:10:58Z</time>
      </trkpt>
      <trkpt lat="46.59548" lon="6.06774">
        <ele>1105.5</ele>
        <time>2019-08-13T07:11:16Z</time>
      </trkpt>
      <trkpt lat="46.59552" lon="6.0677">
        <ele>1105.4</ele>
        <time>2019-08-13T07:11:21Z</time>
      </trkpt>
      <trkpt lat="46.59556" lon="6.06762">
        <ele>1105.3</ele>
        <time>2019-08-13T07:11:25Z</time>
      </trkpt>
      <trkpt lat="46.59569" lon="6.06753">
        <ele>1104</ele>
        <time>2019-08-13T07:11:40Z</time>
      </trkpt>
      <trkpt lat="46.59572" lon="6.06748">
        <ele>1103.7</ele>
        <time>2019-08-13T07:11:48Z</time>
      </trkpt>
      <trkpt lat="46.59576" lon="6.06741">
        <ele>1103.6</ele>
        <time>2019-08-13T07:11:53Z</time>
      </trkpt>
      <trkpt lat="46.59584" lon="6.06722">
        <ele>1102.4</ele>
        <time>2019-08-13T07:12:07Z</time>
      </trkpt>
      <trkpt lat="46.59592" lon="6.06716">
        <ele>1099.7</ele>
        <time>2019-08-13T07:12:24Z</time>
      </trkpt>
      <trkpt lat="46.59597" lon="6.06713">
        <ele>1099.9</ele>
        <time>2019-08-13T07:12:27Z</time>
      </trkpt>
      <trkpt lat="46.59605" lon="6.06707">
        <ele>1102</ele>
        <time>2019-08-13T07:12:41Z</time>
      </trkpt>
      <trkpt lat="46.5961" lon="6.06704">
        <ele>1102.4</ele>
        <time>2019-08-13T07:12:46Z</time>
      </trkpt>
      <trkpt lat="46.59615" lon="6.06704">
        <ele>1102.8</ele>
        <time>2019-08-13T07:12:51Z</time>
      </trkpt>
      <trkpt lat="46.59627" lon="6.06719">
        <ele>1105.2</ele>
        <time>2019-08-13T07:13:14Z</time>
      </trkpt>
      <trkpt lat="46.5963" lon="6.06723">
        <ele>1105.8</ele>
        <time>2019-08-13T07:13:22Z</time>
      </trkpt>
      <trkpt lat="46.59641" lon="6.06759">
        <ele>1110.9</ele>
        <time>2019-08-13T07:13:50Z</time>
      </trkpt>
      <trkpt lat="46.59644" lon="6.06773">
        <ele>1113.6</ele>
        <time>2019-08-13T07:14:01Z</time>
      </trkpt>
      <trkpt lat="46.59644" lon="6.0678">
        <ele>1114</ele>
        <time>2019-08-13T07:14:06Z</time>
      </trkpt>
      <trkpt lat="46.59644" lon="6.06787">
        <ele>1113.4</ele>
        <time>2019-08-13T07:14:15Z</time>
      </trkpt>
      <trkpt lat="46.59644" lon="6.06795">
        <ele>1112.7</ele>
        <time>2019-08-13T07:14:20Z</time>
      </trkpt>
      <trkpt lat="46.59645" lon="6.06803">
        <ele>1112.3</ele>
        <time>2019-08-13T07:14:23Z</time>
      </trkpt>
      <trkpt lat="46.59645" lon="6.0681">
        <ele>1111.7</ele>
        <time>2019-08-13T07:14:31Z</time>
      </trkpt>
      <trkpt lat="46.59645" lon="6.06818">
        <ele>1111.5</ele>
        <time>2019-08-13T07:14:35Z</time>
      </trkpt>
      <trkpt lat="46.59644" lon="6.06826">
        <ele>1111.2</ele>
        <time>2019-08-13T07:14:39Z</time>
      </trkpt>
      <trkpt lat="46.59643" lon="6.06832">
        <ele>1110.4</ele>
        <time>2019-08-13T07:14:44Z</time>
      </trkpt>
      <trkpt lat="46.5964" lon="6.06838">
        <ele>1109.2</ele>
        <time>2019-08-13T07:14:49Z</time>
      </trkpt>
      <trkpt lat="46.59638" lon="6.06844">
        <ele>1107.8</ele>
        <time>2019-08-13T07:14:54Z</time>
      </trkpt>
      <trkpt lat="46.59635" lon="6.0685">
        <ele>1103.3</ele>
        <time>2019-08-13T07:15:08Z</time>
      </trkpt>
      <trkpt lat="46.59632" lon="6.06864">
        <ele>1097.7</ele>
        <time>2019-08-13T07:15:21Z</time>
      </trkpt>
      <trkpt lat="46.59631" lon="6.06872">
        <ele>1097.1</ele>
        <time>2019-08-13T07:15:25Z</time>
      </trkpt>
      <trkpt lat="46.59631" lon="6.06879">
        <ele>1096.4</ele>
        <time>2019-08-13T07:15:30Z</time>
      </trkpt>
      <trkpt lat="46.59632" lon="6.06887">
        <ele>1095.8</ele>
        <time>2019-08-13T07:15:37Z</time>
      </trkpt>
      <trkpt lat="46.59631" lon="6.06894">
        <ele>1095.5</ele>
        <time>2019-08-13T07:15:42Z</time>
      </trkpt>
      <trkpt lat="46.59638" lon="6.06907">
        <ele>1094.1</ele>
        <time>2019-08-13T07:16:03Z</time>
      </trkpt>
      <trkpt lat="46.59654" lon="6.06915">
        <ele>1091.8</ele>
        <time>2019-08-13T07:16:17Z</time>
      </trkpt>
      <trkpt lat="46.59659" lon="6.06914">
        <ele>1090.6</ele>
        <time>2019-08-13T07:16:26Z</time>
      </trkpt>
      <trkpt lat="46.59664" lon="6.06916">
        <ele>1089.4</ele>
        <time>2019-08-13T07:16:33Z</time>
      </trkpt>
      <trkpt lat="46.59669" lon="6.06914">
        <ele>1088.4</ele>
        <time>2019-08-13T07:16:39Z</time>
      </trkpt>
      <trkpt lat="46.59674" lon="6.06913">
        <ele>1087.6</ele>
        <time>2019-08-13T07:16:44Z</time>
      </trkpt>
      <trkpt lat="46.59678" lon="6.06914">
        <ele>1087.1</ele>
        <time>2019-08-13T07:16:48Z</time>
      </trkpt>
      <trkpt lat="46.59683" lon="6.06915">
        <ele>1086.8</ele>
        <time>2019-08-13T07:16:51Z</time>
      </trkpt>
      <trkpt lat="46.59687" lon="6.06916">
        <ele>1086.6</ele>
        <time>2019-08-13T07:16:57Z</time>
      </trkpt>
      <trkpt lat="46.59697" lon="6.06925">
        <ele>1087</ele>
        <time>2019-08-13T07:17:10Z</time>
      </trkpt>
      <trkpt lat="46.59701" lon="6.06929">
        <ele>1087.1</ele>
        <time>2019-08-13T07:17:13Z</time>
      </trkpt>
      <trkpt lat="46.5971" lon="6.06936">
        <ele>1086.6</ele>
        <time>2019-08-13T07:17:27Z</time>
      </trkpt>
      <trkpt lat="46.5972" lon="6.06944">
        <ele>1086</ele>
        <time>2019-08-13T07:17:39Z</time>
      </trkpt>
      <trkpt lat="46.59724" lon="6.06947">
        <ele>1086.3</ele>
        <time>2019-08-13T07:17:46Z</time>
      </trkpt>
      <trkpt lat="46.59728" lon="6.06949">
        <ele>1086.6</ele>
        <time>2019-08-13T07:17:50Z</time>
      </trkpt>
      <trkpt lat="46.59733" lon="6.06953">
        <ele>1086.7</ele>
        <time>2019-08-13T07:17:55Z</time>
      </trkpt>
      <trkpt lat="46.59737" lon="6.06957">
        <ele>1086.6</ele>
        <time>2019-08-13T07:18:00Z</time>
      </trkpt>
      <trkpt lat="46.59742" lon="6.06959">
        <ele>1086.1</ele>
        <time>2019-08-13T07:18:06Z</time>
      </trkpt>
      <trkpt lat="46.59747" lon="6.06962">
        <ele>1085.1</ele>
        <time>2019-08-13T07:18:13Z</time>
      </trkpt>
      <trkpt lat="46.59751" lon="6.06963">
        <ele>1084.6</ele>
        <time>2019-08-13T07:18:22Z</time>
      </trkpt>
      <trkpt lat="46.59756" lon="6.06966">
        <ele>1084.9</ele>
        <time>2019-08-13T07:18:34Z</time>
      </trkpt>
      <trkpt lat="46.5976" lon="6.06971">
        <ele>1085.1</ele>
        <time>2019-08-13T07:18:39Z</time>
      </trkpt>
      <trkpt lat="46.59765" lon="6.06974">
        <ele>1085.1</ele>
        <time>2019-08-13T07:18:44Z</time>
      </trkpt>
      <trkpt lat="46.59769" lon="6.06978">
        <ele>1085.2</ele>
        <time>2019-08-13T07:18:49Z</time>
      </trkpt>
      <trkpt lat="46.59773" lon="6.06982">
        <ele>1085</ele>
        <time>2019-08-13T07:18:56Z</time>
      </trkpt>
      <trkpt lat="46.59777" lon="6.06985">
        <ele>1084.7</ele>
        <time>2019-08-13T07:19:02Z</time>
      </trkpt>
      <trkpt lat="46.59781" lon="6.06987">
        <ele>1084.1</ele>
        <time>2019-08-13T07:19:17Z</time>
      </trkpt>
      <trkpt lat="46.59785" lon="6.0699">
        <ele>1082.1</ele>
        <time>2019-08-13T07:19:33Z</time>
      </trkpt>
      <trkpt lat="46.59784" lon="6.07">
        <ele>1075.5</ele>
        <time>2019-08-13T07:26:10Z</time>
      </trkpt>
      <trkpt lat="46.59783" lon="6.07006">
        <ele>1075.8</ele>
        <time>2019-08-13T07:26:13Z</time>
      </trkpt>
      <trkpt lat="46.5978" lon="6.07013">
        <ele>1076.3</ele>
        <time>2019-08-13T07:26:17Z</time>
      </trkpt>
      <trkpt lat="46.59777" lon="6.0702">
        <ele>1077</ele>
        <time>2019-08-13T07:26:22Z</time>
      </trkpt>
      <trkpt lat="46.59774" lon="6.07025">
        <ele>1077.6</ele>
        <time>2019-08-13T07:26:26Z</time>
      </trkpt>
      <trkpt lat="46.5977" lon="6.0703">
        <ele>1078.1</ele>
        <time>2019-08-13T07:26:30Z</time>
      </trkpt>
      <trkpt lat="46.59767" lon="6.07036">
        <ele>1078.7</ele>
        <time>2019-08-13T07:26:34Z</time>
      </trkpt>
      <trkpt lat="46.59763" lon="6.07041">
        <ele>1079.6</ele>
        <time>2019-08-13T07:26:39Z</time>
      </trkpt>
      <trkpt lat="46.5976" lon="6.07047">
        <ele>1080.5</ele>
        <time>2019-08-13T07:26:44Z</time>
      </trkpt>
      <trkpt lat="46.59756" lon="6.07052">
        <ele>1081.4</ele>
        <time>2019-08-13T07:26:50Z</time>
      </trkpt>
      <trkpt lat="46.59753" lon="6.07056">
        <ele>1082.2</ele>
        <time>2019-08-13T07:26:56Z</time>
      </trkpt>
      <trkpt lat="46.59748" lon="6.07061">
        <ele>1082.8</ele>
        <time>2019-08-13T07:27:01Z</time>
      </trkpt>
      <trkpt lat="46.59745" lon="6.07065">
        <ele>1083.4</ele>
        <time>2019-08-13T07:27:06Z</time>
      </trkpt>
      <trkpt lat="46.59741" lon="6.0707">
        <ele>1083.9</ele>
        <time>2019-08-13T07:27:12Z</time>
      </trkpt>
      <trkpt lat="46.59737" lon="6.07076">
        <ele>1084.2</ele>
        <time>2019-08-13T07:27:18Z</time>
      </trkpt>
      <trkpt lat="46.59734" lon="6.07081">
        <ele>1084.5</ele>
        <time>2019-08-13T07:27:23Z</time>
      </trkpt>
      <trkpt lat="46.5973" lon="6.07087">
        <ele>1084.7</ele>
        <time>2019-08-13T07:27:28Z</time>
      </trkpt>
      <trkpt lat="46.59727" lon="6.07091">
        <ele>1084.7</ele>
        <time>2019-08-13T07:27:33Z</time>
      </trkpt>
      <trkpt lat="46.59724" lon="6.07096">
        <ele>1084.9</ele>
        <time>2019-08-13T07:27:38Z</time>
      </trkpt>
      <trkpt lat="46.5972" lon="6.071">
        <ele>1085.2</ele>
        <time>2019-08-13T07:27:44Z</time>
      </trkpt>
      <trkpt lat="46.59716" lon="6.07105">
        <ele>1085.6</ele>
        <time>2019-08-13T07:27:51Z</time>
      </trkpt>
      <trkpt lat="46.59712" lon="6.07109">
        <ele>1086.1</ele>
        <time>2019-08-13T07:27:57Z</time>
      </trkpt>
      <trkpt lat="46.59708" lon="6.07114">
        <ele>1086.6</ele>
        <time>2019-08-13T07:28:02Z</time>
      </trkpt>
      <trkpt lat="46.59704" lon="6.07119">
        <ele>1087.2</ele>
        <time>2019-08-13T07:28:09Z</time>
      </trkpt>
      <trkpt lat="46.59701" lon="6.07124">
        <ele>1087.8</ele>
        <time>2019-08-13T07:28:15Z</time>
      </trkpt>
      <trkpt lat="46.59698" lon="6.07129">
        <ele>1088.1</ele>
        <time>2019-08-13T07:28:21Z</time>
      </trkpt>
      <trkpt lat="46.59696" lon="6.07135">
        <ele>1088.6</ele>
        <time>2019-08-13T07:28:28Z</time>
      </trkpt>
      <trkpt lat="46.59693" lon="6.07141">
        <ele>1089.2</ele>
        <time>2019-08-13T07:28:35Z</time>
      </trkpt>
      <trkpt lat="46.5969" lon="6.07147">
        <ele>1089.7</ele>
        <time>2019-08-13T07:28:41Z</time>
      </trkpt>
      <trkpt lat="46.59688" lon="6.07153">
        <ele>1090.1</ele>
        <time>2019-08-13T07:28:46Z</time>
      </trkpt>
      <trkpt lat="46.59685" lon="6.07159">
        <ele>1090.4</ele>
        <time>2019-08-13T07:28:58Z</time>
      </trkpt>
      <trkpt lat="46.59682" lon="6.07164">
        <ele>1091.1</ele>
        <time>2019-08-13T07:29:14Z</time>
      </trkpt>
      <trkpt lat="46.59679" lon="6.07169">
        <ele>1091.7</ele>
        <time>2019-08-13T07:29:20Z</time>
      </trkpt>
      <trkpt lat="46.59676" lon="6.07175">
        <ele>1092.1</ele>
        <time>2019-08-13T07:29:24Z</time>
      </trkpt>
      <trkpt lat="46.59674" lon="6.0718">
        <ele>1092.3</ele>
        <time>2019-08-13T07:29:28Z</time>
      </trkpt>
      <trkpt lat="46.59671" lon="6.07187">
        <ele>1092.9</ele>
        <time>2019-08-13T07:29:34Z</time>
      </trkpt>
      <trkpt lat="46.59669" lon="6.07193">
        <ele>1093.8</ele>
        <time>2019-08-13T07:29:42Z</time>
      </trkpt>
      <trkpt lat="46.59666" lon="6.07199">
        <ele>1094.3</ele>
        <time>2019-08-13T07:29:46Z</time>
      </trkpt>
      <trkpt lat="46.59663" lon="6.07204">
        <ele>1094.9</ele>
        <time>2019-08-13T07:29:52Z</time>
      </trkpt>
      <trkpt lat="46.59659" lon="6.0721">
        <ele>1095.6</ele>
        <time>2019-08-13T07:29:58Z</time>
      </trkpt>
      <trkpt lat="46.59658" lon="6.07216">
        <ele>1096.4</ele>
        <time>2019-08-13T07:30:04Z</time>
      </trkpt>
      <trkpt lat="46.59656" lon="6.07222">
        <ele>1096.9</ele>
        <time>2019-08-13T07:30:08Z</time>
      </trkpt>
      <trkpt lat="46.59654" lon="6.07228">
        <ele>1097.5</ele>
        <time>2019-08-13T07:30:13Z</time>
      </trkpt>
      <trkpt lat="46.59651" lon="6.07235">
        <ele>1097.9</ele>
        <time>2019-08-13T07:30:18Z</time>
      </trkpt>
      <trkpt lat="46.59649" lon="6.07241">
        <ele>1098.5</ele>
        <time>2019-08-13T07:30:24Z</time>
      </trkpt>
      <trkpt lat="46.59646" lon="6.07247">
        <ele>1099.4</ele>
        <time>2019-08-13T07:30:30Z</time>
      </trkpt>
      <trkpt lat="46.59643" lon="6.07253">
        <ele>1100.2</ele>
        <time>2019-08-13T07:30:36Z</time>
      </trkpt>
      <trkpt lat="46.59641" lon="6.07261">
        <ele>1100.8</ele>
        <time>2019-08-13T07:30:42Z</time>
      </trkpt>
      <trkpt lat="46.59638" lon="6.07266">
        <ele>1101</ele>
        <time>2019-08-13T07:30:47Z</time>
      </trkpt>
      <trkpt lat="46.59636" lon="6.07273">
        <ele>1101.6</ele>
        <time>2019-08-13T07:30:55Z</time>
      </trkpt>
      <trkpt lat="46.59633" lon="6.07279">
        <ele>1102.4</ele>
        <time>2019-08-13T07:31:03Z</time>
      </trkpt>
      <trkpt lat="46.5963" lon="6.07285">
        <ele>1102.8</ele>
        <time>2019-08-13T07:31:09Z</time>
      </trkpt>
      <trkpt lat="46.59627" lon="6.07291">
        <ele>1103</ele>
        <time>2019-08-13T07:31:14Z</time>
      </trkpt>
      <trkpt lat="46.59625" lon="6.07297">
        <ele>1103.3</ele>
        <time>2019-08-13T07:31:20Z</time>
      </trkpt>
      <trkpt lat="46.59622" lon="6.07302">
        <ele>1103.7</ele>
        <time>2019-08-13T07:31:31Z</time>
      </trkpt>
      <trkpt lat="46.59621" lon="6.07309">
        <ele>1103.7</ele>
        <time>2019-08-13T07:31:54Z</time>
      </trkpt>
      <trkpt lat="46.59618" lon="6.07315">
        <ele>1103.6</ele>
        <time>2019-08-13T07:32:00Z</time>
      </trkpt>
      <trkpt lat="46.59615" lon="6.07321">
        <ele>1103.4</ele>
        <time>2019-08-13T07:32:04Z</time>
      </trkpt>
      <trkpt lat="46.59612" lon="6.07326">
        <ele>1103.3</ele>
        <time>2019-08-13T07:32:09Z</time>
      </trkpt>
      <trkpt lat="46.5961" lon="6.07332">
        <ele>1103.5</ele>
        <time>2019-08-13T07:32:14Z</time>
      </trkpt>
      <trkpt lat="46.59607" lon="6.07338">
        <ele>1103.9</ele>
        <time>2019-08-13T07:32:19Z</time>
      </trkpt>
      <trkpt lat="46.59605" lon="6.07344">
        <ele>1104.1</ele>
        <time>2019-08-13T07:32:24Z</time>
      </trkpt>
      <trkpt lat="46.59604" lon="6.0735">
        <ele>1104.4</ele>
        <time>2019-08-13T07:32:31Z</time>
      </trkpt>
      <trkpt lat="46.59602" lon="6.07357">
        <ele>1104.6</ele>
        <time>2019-08-13T07:32:36Z</time>
      </trkpt>
      <trkpt lat="46.59599" lon="6.07362">
        <ele>1104.8</ele>
        <time>2019-08-13T07:32:41Z</time>
      </trkpt>
      <trkpt lat="46.59596" lon="6.07367">
        <ele>1104.9</ele>
        <time>2019-08-13T07:32:46Z</time>
      </trkpt>
      <trkpt lat="46.59592" lon="6.07373">
        <ele>1104.8</ele>
        <time>2019-08-13T07:32:50Z</time>
      </trkpt>
      <trkpt lat="46.59588" lon="6.07378">
        <ele>1104.8</ele>
        <time>2019-08-13T07:32:55Z</time>
      </trkpt>
      <trkpt lat="46.59585" lon="6.07383">
        <ele>1105.2</ele>
        <time>2019-08-13T07:33:00Z</time>
      </trkpt>
      <trkpt lat="46.59582" lon="6.07389">
        <ele>1106</ele>
        <time>2019-08-13T07:33:07Z</time>
      </trkpt>
      <trkpt lat="46.59578" lon="6.07393">
        <ele>1106.5</ele>
        <time>2019-08-13T07:33:13Z</time>
      </trkpt>
      <trkpt lat="46.59574" lon="6.07398">
        <ele>1106.9</ele>
        <time>2019-08-13T07:33:18Z</time>
      </trkpt>
      <trkpt lat="46.59571" lon="6.07404">
        <ele>1107.2</ele>
        <time>2019-08-13T07:33:23Z</time>
      </trkpt>
      <trkpt lat="46.5957" lon="6.07411">
        <ele>1107.7</ele>
        <time>2019-08-13T07:33:28Z</time>
      </trkpt>
      <trkpt lat="46.59568" lon="6.07418">
        <ele>1108.1</ele>
        <time>2019-08-13T07:33:33Z</time>
      </trkpt>
      <trkpt lat="46.59567" lon="6.07425">
        <ele>1108.5</ele>
        <time>2019-08-13T07:33:38Z</time>
      </trkpt>
      <trkpt lat="46.59568" lon="6.07431">
        <ele>1108.5</ele>
        <time>2019-08-13T07:33:46Z</time>
      </trkpt>
      <trkpt lat="46.59571" lon="6.07439">
        <ele>1108</ele>
        <time>2019-08-13T07:34:13Z</time>
      </trkpt>
      <trkpt lat="46.59575" lon="6.07438">
        <ele>1107.7</ele>
        <time>2019-08-13T07:34:18Z</time>
      </trkpt>
      <trkpt lat="46.5958" lon="6.0744">
        <ele>1107.8</ele>
        <time>2019-08-13T07:34:26Z</time>
      </trkpt>
      <trkpt lat="46.59585" lon="6.07441">
        <ele>1108.1</ele>
        <time>2019-08-13T07:34:32Z</time>
      </trkpt>
      <trkpt lat="46.59591" lon="6.07441">
        <ele>1108.3</ele>
        <time>2019-08-13T07:34:37Z</time>
      </trkpt>
      <trkpt lat="46.59596" lon="6.07442">
        <ele>1108.5</ele>
        <time>2019-08-13T07:34:42Z</time>
      </trkpt>
      <trkpt lat="46.596" lon="6.07444">
        <ele>1108.5</ele>
        <time>2019-08-13T07:34:48Z</time>
      </trkpt>
      <trkpt lat="46.59604" lon="6.07448">
        <ele>1108.2</ele>
        <time>2019-08-13T07:34:55Z</time>
      </trkpt>
      <trkpt lat="46.59608" lon="6.07453">
        <ele>1107.8</ele>
        <time>2019-08-13T07:35:00Z</time>
      </trkpt>
      <trkpt lat="46.59612" lon="6.07457">
        <ele>1107.6</ele>
        <time>2019-08-13T07:35:05Z</time>
      </trkpt>
      <trkpt lat="46.59621" lon="6.07468">
        <ele>1106.4</ele>
        <time>2019-08-13T07:35:18Z</time>
      </trkpt>
      <trkpt lat="46.59625" lon="6.07472">
        <ele>1105.8</ele>
        <time>2019-08-13T07:35:23Z</time>
      </trkpt>
      <trkpt lat="46.59629" lon="6.07475">
        <ele>1105.2</ele>
        <time>2019-08-13T07:35:28Z</time>
      </trkpt>
      <trkpt lat="46.59633" lon="6.07478">
        <ele>1104.5</ele>
        <time>2019-08-13T07:35:33Z</time>
      </trkpt>
      <trkpt lat="46.59638" lon="6.07481">
        <ele>1103.6</ele>
        <time>2019-08-13T07:35:39Z</time>
      </trkpt>
      <trkpt lat="46.59641" lon="6.07485">
        <ele>1103</ele>
        <time>2019-08-13T07:35:43Z</time>
      </trkpt>
      <trkpt lat="46.59645" lon="6.07488">
        <ele>1102.4</ele>
        <time>2019-08-13T07:35:47Z</time>
      </trkpt>
      <trkpt lat="46.5965" lon="6.07493">
        <ele>1101.4</ele>
        <time>2019-08-13T07:35:53Z</time>
      </trkpt>
      <trkpt lat="46.59653" lon="6.07498">
        <ele>1100.8</ele>
        <time>2019-08-13T07:35:57Z</time>
      </trkpt>
      <trkpt lat="46.59654" lon="6.07505">
        <ele>1100</ele>
        <time>2019-08-13T07:36:02Z</time>
      </trkpt>
      <trkpt lat="46.59651" lon="6.07511">
        <ele>1098</ele>
        <time>2019-08-13T07:36:14Z</time>
      </trkpt>
      <trkpt lat="46.59649" lon="6.07517">
        <ele>1097.1</ele>
        <time>2019-08-13T07:36:21Z</time>
      </trkpt>
      <trkpt lat="46.59646" lon="6.07523">
        <ele>1096.6</ele>
        <time>2019-08-13T07:36:26Z</time>
      </trkpt>
      <trkpt lat="46.59643" lon="6.07529">
        <ele>1096</ele>
        <time>2019-08-13T07:36:31Z</time>
      </trkpt>
      <trkpt lat="46.59641" lon="6.07535">
        <ele>1095.6</ele>
        <time>2019-08-13T07:36:35Z</time>
      </trkpt>
      <trkpt lat="46.59638" lon="6.07541">
        <ele>1095.1</ele>
        <time>2019-08-13T07:36:42Z</time>
      </trkpt>
      <trkpt lat="46.59635" lon="6.07548">
        <ele>1094.9</ele>
        <time>2019-08-13T07:36:48Z</time>
      </trkpt>
      <trkpt lat="46.59633" lon="6.07554">
        <ele>1094.8</ele>
        <time>2019-08-13T07:36:52Z</time>
      </trkpt>
      <trkpt lat="46.59631" lon="6.0756">
        <ele>1094.7</ele>
        <time>2019-08-13T07:36:58Z</time>
      </trkpt>
      <trkpt lat="46.59629" lon="6.07567">
        <ele>1094.6</ele>
        <time>2019-08-13T07:37:04Z</time>
      </trkpt>
      <trkpt lat="46.59626" lon="6.07572">
        <ele>1094.6</ele>
        <time>2019-08-13T07:37:10Z</time>
      </trkpt>
      <trkpt lat="46.59623" lon="6.07578">
        <ele>1094.7</ele>
        <time>2019-08-13T07:37:14Z</time>
      </trkpt>
      <trkpt lat="46.5962" lon="6.07584">
        <ele>1094.9</ele>
        <time>2019-08-13T07:37:19Z</time>
      </trkpt>
      <trkpt lat="46.59617" lon="6.07591">
        <ele>1095.2</ele>
        <time>2019-08-13T07:37:24Z</time>
      </trkpt>
      <trkpt lat="46.59613" lon="6.07596">
        <ele>1095.8</ele>
        <time>2019-08-13T07:37:30Z</time>
      </trkpt>
      <trkpt lat="46.59609" lon="6.07599">
        <ele>1096.5</ele>
        <time>2019-08-13T07:37:37Z</time>
      </trkpt>
      <trkpt lat="46.59605" lon="6.07602">
        <ele>1097.2</ele>
        <time>2019-08-13T07:37:48Z</time>
      </trkpt>
      <trkpt lat="46.59602" lon="6.07609">
        <ele>1097.6</ele>
        <time>2019-08-13T07:37:56Z</time>
      </trkpt>
      <trkpt lat="46.59599" lon="6.07614">
        <ele>1097.8</ele>
        <time>2019-08-13T07:38:01Z</time>
      </trkpt>
      <trkpt lat="46.59596" lon="6.0762">
        <ele>1097.9</ele>
        <time>2019-08-13T07:38:06Z</time>
      </trkpt>
      <trkpt lat="46.59592" lon="6.07626">
        <ele>1098</ele>
        <time>2019-08-13T07:38:12Z</time>
      </trkpt>
      <trkpt lat="46.59589" lon="6.0763">
        <ele>1098.2</ele>
        <time>2019-08-13T07:38:17Z</time>
      </trkpt>
      <trkpt lat="46.59585" lon="6.07636">
        <ele>1098.7</ele>
        <time>2019-08-13T07:38:23Z</time>
      </trkpt>
      <trkpt lat="46.59582" lon="6.07642">
        <ele>1099.2</ele>
        <time>2019-08-13T07:38:28Z</time>
      </trkpt>
      <trkpt lat="46.59579" lon="6.07647">
        <ele>1099.9</ele>
        <time>2019-08-13T07:38:34Z</time>
      </trkpt>
      <trkpt lat="46.59575" lon="6.07651">
        <ele>1100.7</ele>
        <time>2019-08-13T07:38:40Z</time>
      </trkpt>
      <trkpt lat="46.59571" lon="6.07655">
        <ele>1101.5</ele>
        <time>2019-08-13T07:38:46Z</time>
      </trkpt>
      <trkpt lat="46.59567" lon="6.07661">
        <ele>1102.1</ele>
        <time>2019-08-13T07:38:51Z</time>
      </trkpt>
      <trkpt lat="46.59563" lon="6.07667">
        <ele>1102.6</ele>
        <time>2019-08-13T07:38:56Z</time>
      </trkpt>
      <trkpt lat="46.59561" lon="6.07673">
        <ele>1103.4</ele>
        <time>2019-08-13T07:39:04Z</time>
      </trkpt>
      <trkpt lat="46.59561" lon="6.07679">
        <ele>1104.3</ele>
        <time>2019-08-13T07:39:21Z</time>
      </trkpt>
      <trkpt lat="46.59563" lon="6.07673">
        <ele>1104.6</ele>
        <time>2019-08-13T07:39:37Z</time>
      </trkpt>
      <trkpt lat="46.59558" lon="6.07677">
        <ele>1105.8</ele>
        <time>2019-08-13T07:40:53Z</time>
      </trkpt>
      <trkpt lat="46.59556" lon="6.07683">
        <ele>1106.2</ele>
        <time>2019-08-13T07:40:57Z</time>
      </trkpt>
      <trkpt lat="46.59554" lon="6.07691">
        <ele>1106.9</ele>
        <time>2019-08-13T07:41:02Z</time>
      </trkpt>
      <trkpt lat="46.59553" lon="6.07697">
        <ele>1107.4</ele>
        <time>2019-08-13T07:41:08Z</time>
      </trkpt>
      <trkpt lat="46.59551" lon="6.07704">
        <ele>1107.6</ele>
        <time>2019-08-13T07:41:13Z</time>
      </trkpt>
      <trkpt lat="46.5955" lon="6.07711">
        <ele>1107.8</ele>
        <time>2019-08-13T07:41:18Z</time>
      </trkpt>
      <trkpt lat="46.59549" lon="6.07717">
        <ele>1108</ele>
        <time>2019-08-13T07:41:22Z</time>
      </trkpt>
      <trkpt lat="46.59546" lon="6.07724">
        <ele>1108.1</ele>
        <time>2019-08-13T07:41:27Z</time>
      </trkpt>
      <trkpt lat="46.59544" lon="6.0773">
        <ele>1108.1</ele>
        <time>2019-08-13T07:41:32Z</time>
      </trkpt>
      <trkpt lat="46.59543" lon="6.07738">
        <ele>1108.3</ele>
        <time>2019-08-13T07:41:37Z</time>
      </trkpt>
      <trkpt lat="46.5954" lon="6.07744">
        <ele>1108.3</ele>
        <time>2019-08-13T07:41:42Z</time>
      </trkpt>
      <trkpt lat="46.59538" lon="6.07751">
        <ele>1108.3</ele>
        <time>2019-08-13T07:41:47Z</time>
      </trkpt>
      <trkpt lat="46.59535" lon="6.07758">
        <ele>1108.3</ele>
        <time>2019-08-13T07:41:51Z</time>
      </trkpt>
      <trkpt lat="46.59533" lon="6.07764">
        <ele>1108.3</ele>
        <time>2019-08-13T07:41:56Z</time>
      </trkpt>
      <trkpt lat="46.59532" lon="6.07771">
        <ele>1108.4</ele>
        <time>2019-08-13T07:42:01Z</time>
      </trkpt>
      <trkpt lat="46.59529" lon="6.07777">
        <ele>1108.3</ele>
        <time>2019-08-13T07:42:06Z</time>
      </trkpt>
      <trkpt lat="46.59527" lon="6.07783">
        <ele>1107.8</ele>
        <time>2019-08-13T07:42:12Z</time>
      </trkpt>
      <trkpt lat="46.59525" lon="6.07789">
        <ele>1107.4</ele>
        <time>2019-08-13T07:42:17Z</time>
      </trkpt>
      <trkpt lat="46.59523" lon="6.07797">
        <ele>1107.2</ele>
        <time>2019-08-13T07:42:21Z</time>
      </trkpt>
      <trkpt lat="46.59521" lon="6.07803">
        <ele>1107</ele>
        <time>2019-08-13T07:42:25Z</time>
      </trkpt>
      <trkpt lat="46.59513" lon="6.07828">
        <ele>1104.8</ele>
        <time>2019-08-13T07:42:51Z</time>
      </trkpt>
      <trkpt lat="46.59511" lon="6.07835">
        <ele>1104.1</ele>
        <time>2019-08-13T07:42:56Z</time>
      </trkpt>
      <trkpt lat="46.59509" lon="6.07842">
        <ele>1102.8</ele>
        <time>2019-08-13T07:43:03Z</time>
      </trkpt>
      <trkpt lat="46.59508" lon="6.07849">
        <ele>1101.6</ele>
        <time>2019-08-13T07:43:09Z</time>
      </trkpt>
      <trkpt lat="46.59507" lon="6.07855">
        <ele>1100</ele>
        <time>2019-08-13T07:43:16Z</time>
      </trkpt>
      <trkpt lat="46.59505" lon="6.07863">
        <ele>1099.2</ele>
        <time>2019-08-13T07:43:21Z</time>
      </trkpt>
      <trkpt lat="46.59504" lon="6.07869">
        <ele>1098.7</ele>
        <time>2019-08-13T07:43:25Z</time>
      </trkpt>
      <trkpt lat="46.59503" lon="6.07897">
        <ele>1097.7</ele>
        <time>2019-08-13T07:43:46Z</time>
      </trkpt>
      <trkpt lat="46.595" lon="6.07904">
        <ele>1097.8</ele>
        <time>2019-08-13T07:43:51Z</time>
      </trkpt>
      <trkpt lat="46.59495" lon="6.07908">
        <ele>1097.7</ele>
        <time>2019-08-13T07:43:54Z</time>
      </trkpt>
      <trkpt lat="46.59491" lon="6.07911">
        <ele>1097.4</ele>
        <time>2019-08-13T07:43:58Z</time>
      </trkpt>
      <trkpt lat="46.59486" lon="6.0791">
        <ele>1097.2</ele>
        <time>2019-08-13T07:44:01Z</time>
      </trkpt>
      <trkpt lat="46.5948" lon="6.07911">
        <ele>1096.9</ele>
        <time>2019-08-13T07:44:05Z</time>
      </trkpt>
      <trkpt lat="46.59476" lon="6.07912">
        <ele>1095.8</ele>
        <time>2019-08-13T07:44:16Z</time>
      </trkpt>
      <trkpt lat="46.5947" lon="6.07914">
        <ele>1095.8</ele>
        <time>2019-08-13T07:44:18Z</time>
      </trkpt>
      <trkpt lat="46.59466" lon="6.07915">
        <ele>1095.7</ele>
        <time>2019-08-13T07:44:23Z</time>
      </trkpt>
      <trkpt lat="46.59461" lon="6.07913">
        <ele>1095.7</ele>
        <time>2019-08-13T07:44:28Z</time>
      </trkpt>
      <trkpt lat="46.59453" lon="6.07912">
        <ele>1095.7</ele>
        <time>2019-08-13T07:44:31Z</time>
      </trkpt>
      <trkpt lat="46.59448" lon="6.07913">
        <ele>1095.6</ele>
        <time>2019-08-13T07:44:35Z</time>
      </trkpt>
      <trkpt lat="46.59444" lon="6.07916">
        <ele>1095.3</ele>
        <time>2019-08-13T07:44:41Z</time>
      </trkpt>
      <trkpt lat="46.59425" lon="6.07923">
        <ele>1096</ele>
        <time>2019-08-13T07:45:03Z</time>
      </trkpt>
      <trkpt lat="46.59421" lon="6.07921">
        <ele>1096.4</ele>
        <time>2019-08-13T07:45:07Z</time>
      </trkpt>
      <trkpt lat="46.59415" lon="6.07919">
        <ele>1096.5</ele>
        <time>2019-08-13T07:45:11Z</time>
      </trkpt>
      <trkpt lat="46.59411" lon="6.07915">
        <ele>1096.4</ele>
        <time>2019-08-13T07:45:17Z</time>
      </trkpt>
      <trkpt lat="46.59408" lon="6.0791">
        <ele>1095.9</ele>
        <time>2019-08-13T07:45:25Z</time>
      </trkpt>
      <trkpt lat="46.59404" lon="6.07905">
        <ele>1095.7</ele>
        <time>2019-08-13T07:45:33Z</time>
      </trkpt>
      <trkpt lat="46.59389" lon="6.079">
        <ele>1096.4</ele>
        <time>2019-08-13T07:45:48Z</time>
      </trkpt>
      <trkpt lat="46.59385" lon="6.07897">
        <ele>1097.1</ele>
        <time>2019-08-13T07:45:56Z</time>
      </trkpt>
      <trkpt lat="46.5937" lon="6.07891">
        <ele>1099.3</ele>
        <time>2019-08-13T07:46:19Z</time>
      </trkpt>
      <trkpt lat="46.5936" lon="6.07879">
        <ele>1099.9</ele>
        <time>2019-08-13T07:46:31Z</time>
      </trkpt>
      <trkpt lat="46.59356" lon="6.07872">
        <ele>1099.8</ele>
        <time>2019-08-13T07:46:35Z</time>
      </trkpt>
      <trkpt lat="46.59354" lon="6.07865">
        <ele>1099.6</ele>
        <time>2019-08-13T07:46:39Z</time>
      </trkpt>
      <trkpt lat="46.59351" lon="6.0786">
        <ele>1099.5</ele>
        <time>2019-08-13T07:46:45Z</time>
      </trkpt>
      <trkpt lat="46.59344" lon="6.07855">
        <ele>1098.9</ele>
        <time>2019-08-13T07:46:51Z</time>
      </trkpt>
      <trkpt lat="46.5934" lon="6.0785">
        <ele>1098.3</ele>
        <time>2019-08-13T07:46:56Z</time>
      </trkpt>
      <trkpt lat="46.59336" lon="6.07844">
        <ele>1096.9</ele>
        <time>2019-08-13T07:47:08Z</time>
      </trkpt>
      <trkpt lat="46.59331" lon="6.07839">
        <ele>1096.5</ele>
        <time>2019-08-13T07:47:10Z</time>
      </trkpt>
      <trkpt lat="46.59328" lon="6.07835">
        <ele>1095.8</ele>
        <time>2019-08-13T07:47:14Z</time>
      </trkpt>
      <trkpt lat="46.59324" lon="6.0783">
        <ele>1095.6</ele>
        <time>2019-08-13T07:47:16Z</time>
      </trkpt>
      <trkpt lat="46.5932" lon="6.07827">
        <ele>1095.4</ele>
        <time>2019-08-13T07:47:18Z</time>
      </trkpt>
      <trkpt lat="46.59315" lon="6.07824">
        <ele>1094.7</ele>
        <time>2019-08-13T07:47:26Z</time>
      </trkpt>
      <trkpt lat="46.59302" lon="6.0782">
        <ele>1091</ele>
        <time>2019-08-13T07:47:53Z</time>
      </trkpt>
      <trkpt lat="46.59296" lon="6.07818">
        <ele>1090.4</ele>
        <time>2019-08-13T07:48:02Z</time>
      </trkpt>
      <trkpt lat="46.59289" lon="6.07818">
        <ele>1090.3</ele>
        <time>2019-08-13T07:48:06Z</time>
      </trkpt>
      <trkpt lat="46.59284" lon="6.07817">
        <ele>1090.3</ele>
        <time>2019-08-13T07:48:08Z</time>
      </trkpt>
      <trkpt lat="46.5928" lon="6.07816">
        <ele>1090.3</ele>
        <time>2019-08-13T07:48:12Z</time>
      </trkpt>
      <trkpt lat="46.59275" lon="6.07816">
        <ele>1090.3</ele>
        <time>2019-08-13T07:48:20Z</time>
      </trkpt>
      <trkpt lat="46.59272" lon="6.07821">
        <ele>1090.4</ele>
        <time>2019-08-13T07:48:27Z</time>
      </trkpt>
      <trkpt lat="46.59267" lon="6.07826">
        <ele>1090.5</ele>
        <time>2019-08-13T07:48:29Z</time>
      </trkpt>
      <trkpt lat="46.59263" lon="6.07829">
        <ele>1090.7</ele>
        <time>2019-08-13T07:48:33Z</time>
      </trkpt>
      <trkpt lat="46.59261" lon="6.07836">
        <ele>1091.4</ele>
        <time>2019-08-13T07:48:44Z</time>
      </trkpt>
      <trkpt lat="46.59258" lon="6.07842">
        <ele>1091.5</ele>
        <time>2019-08-13T07:48:49Z</time>
      </trkpt>
      <trkpt lat="46.59258" lon="6.0785">
        <ele>1091.1</ele>
        <time>2019-08-13T07:48:56Z</time>
      </trkpt>
      <trkpt lat="46.59257" lon="6.07858">
        <ele>1090.9</ele>
        <time>2019-08-13T07:49:00Z</time>
      </trkpt>
      <trkpt lat="46.59254" lon="6.07864">
        <ele>1090.3</ele>
        <time>2019-08-13T07:49:09Z</time>
      </trkpt>
      <trkpt lat="46.59251" lon="6.07869">
        <ele>1090.2</ele>
        <time>2019-08-13T07:49:15Z</time>
      </trkpt>
      <trkpt lat="46.59246" lon="6.07874">
        <ele>1090.2</ele>
        <time>2019-08-13T07:49:18Z</time>
      </trkpt>
      <trkpt lat="46.59243" lon="6.07879">
        <ele>1090.2</ele>
        <time>2019-08-13T07:49:22Z</time>
      </trkpt>
      <trkpt lat="46.59241" lon="6.07885">
        <ele>1090.2</ele>
        <time>2019-08-13T07:49:32Z</time>
      </trkpt>
      <trkpt lat="46.59238" lon="6.07891">
        <ele>1090.2</ele>
        <time>2019-08-13T07:49:36Z</time>
      </trkpt>
      <trkpt lat="46.59236" lon="6.07896">
        <ele>1090.5</ele>
        <time>2019-08-13T07:49:42Z</time>
      </trkpt>
      <trkpt lat="46.59234" lon="6.07903">
        <ele>1090.8</ele>
        <time>2019-08-13T07:49:46Z</time>
      </trkpt>
      <trkpt lat="46.59233" lon="6.0791">
        <ele>1091.2</ele>
        <time>2019-08-13T07:49:52Z</time>
      </trkpt>
      <trkpt lat="46.59231" lon="6.0794">
        <ele>1094.3</ele>
        <time>2019-08-13T07:50:26Z</time>
      </trkpt>
      <trkpt lat="46.59229" lon="6.07948">
        <ele>1094.4</ele>
        <time>2019-08-13T07:50:29Z</time>
      </trkpt>
      <trkpt lat="46.59225" lon="6.07972">
        <ele>1095.6</ele>
        <time>2019-08-13T07:50:50Z</time>
      </trkpt>
      <trkpt lat="46.59226" lon="6.0798">
        <ele>1095.5</ele>
        <time>2019-08-13T07:50:53Z</time>
      </trkpt>
      <trkpt lat="46.59226" lon="6.07998">
        <ele>1094.3</ele>
        <time>2019-08-13T07:51:10Z</time>
      </trkpt>
      <trkpt lat="46.59227" lon="6.08007">
        <ele>1094.1</ele>
        <time>2019-08-13T07:51:12Z</time>
      </trkpt>
      <trkpt lat="46.59229" lon="6.08016">
        <ele>1094</ele>
        <time>2019-08-13T07:51:14Z</time>
      </trkpt>
      <trkpt lat="46.59231" lon="6.08023">
        <ele>1093.8</ele>
        <time>2019-08-13T07:51:17Z</time>
      </trkpt>
      <trkpt lat="46.5923" lon="6.0803">
        <ele>1093.8</ele>
        <time>2019-08-13T07:51:22Z</time>
      </trkpt>
      <trkpt lat="46.59227" lon="6.08036">
        <ele>1094.3</ele>
        <time>2019-08-13T07:51:31Z</time>
      </trkpt>
      <trkpt lat="46.59225" lon="6.08041">
        <ele>1094.8</ele>
        <time>2019-08-13T07:51:40Z</time>
      </trkpt>
      <trkpt lat="46.59218" lon="6.08057">
        <ele>1095.6</ele>
        <time>2019-08-13T07:51:51Z</time>
      </trkpt>
      <trkpt lat="46.59218" lon="6.08065">
        <ele>1095.4</ele>
        <time>2019-08-13T07:51:54Z</time>
      </trkpt>
      <trkpt lat="46.59217" lon="6.08072">
        <ele>1094.7</ele>
        <time>2019-08-13T07:52:00Z</time>
      </trkpt>
      <trkpt lat="46.59214" lon="6.08078">
        <ele>1093.9</ele>
        <time>2019-08-13T07:52:08Z</time>
      </trkpt>
      <trkpt lat="46.59212" lon="6.08084">
        <ele>1093.9</ele>
        <time>2019-08-13T07:52:14Z</time>
      </trkpt>
      <trkpt lat="46.5921" lon="6.08091">
        <ele>1094</ele>
        <time>2019-08-13T07:52:18Z</time>
      </trkpt>
      <trkpt lat="46.59207" lon="6.08098">
        <ele>1094</ele>
        <time>2019-08-13T07:52:28Z</time>
      </trkpt>
      <trkpt lat="46.59204" lon="6.08104">
        <ele>1093.5</ele>
        <time>2019-08-13T07:52:34Z</time>
      </trkpt>
      <trkpt lat="46.59203" lon="6.0811">
        <ele>1092.2</ele>
        <time>2019-08-13T07:52:43Z</time>
      </trkpt>
      <trkpt lat="46.59201" lon="6.08116">
        <ele>1091.7</ele>
        <time>2019-08-13T07:52:47Z</time>
      </trkpt>
      <trkpt lat="46.59197" lon="6.08121">
        <ele>1091.1</ele>
        <time>2019-08-13T07:52:54Z</time>
      </trkpt>
      <trkpt lat="46.59195" lon="6.08128">
        <ele>1090.9</ele>
        <time>2019-08-13T07:52:58Z</time>
      </trkpt>
      <trkpt lat="46.59193" lon="6.08134">
        <ele>1090.9</ele>
        <time>2019-08-13T07:53:01Z</time>
      </trkpt>
      <trkpt lat="46.59192" lon="6.0814">
        <ele>1090.6</ele>
        <time>2019-08-13T07:53:05Z</time>
      </trkpt>
      <trkpt lat="46.59192" lon="6.08147">
        <ele>1090.3</ele>
        <time>2019-08-13T07:53:08Z</time>
      </trkpt>
      <trkpt lat="46.59191" lon="6.08154">
        <ele>1090</ele>
        <time>2019-08-13T07:53:11Z</time>
      </trkpt>
      <trkpt lat="46.5919" lon="6.08161">
        <ele>1089.7</ele>
        <time>2019-08-13T07:53:21Z</time>
      </trkpt>
      <trkpt lat="46.59189" lon="6.08168">
        <ele>1089.5</ele>
        <time>2019-08-13T07:53:25Z</time>
      </trkpt>
      <trkpt lat="46.59188" lon="6.08175">
        <ele>1089.3</ele>
        <time>2019-08-13T07:53:29Z</time>
      </trkpt>
      <trkpt lat="46.59196" lon="6.08189">
        <ele>1092.5</ele>
        <time>2019-08-13T07:57:26Z</time>
      </trkpt>
      <trkpt lat="46.59195" lon="6.08196">
        <ele>1092.7</ele>
        <time>2019-08-13T07:57:29Z</time>
      </trkpt>
      <trkpt lat="46.59196" lon="6.08202">
        <ele>1092.9</ele>
        <time>2019-08-13T07:57:33Z</time>
      </trkpt>
      <trkpt lat="46.59198" lon="6.08208">
        <ele>1092.9</ele>
        <time>2019-08-13T07:57:44Z</time>
      </trkpt>
      <trkpt lat="46.59203" lon="6.0821">
        <ele>1093.1</ele>
        <time>2019-08-13T07:57:52Z</time>
      </trkpt>
      <trkpt lat="46.59209" lon="6.08207">
        <ele>1093</ele>
        <time>2019-08-13T07:57:55Z</time>
      </trkpt>
      <trkpt lat="46.59213" lon="6.08206">
        <ele>1093</ele>
        <time>2019-08-13T07:57:57Z</time>
      </trkpt>
      <trkpt lat="46.59219" lon="6.08205">
        <ele>1092.7</ele>
        <time>2019-08-13T07:58:04Z</time>
      </trkpt>
      <trkpt lat="46.59222" lon="6.0821">
        <ele>1092.9</ele>
        <time>2019-08-13T07:58:12Z</time>
      </trkpt>
      <trkpt lat="46.59224" lon="6.08218">
        <ele>1092.8</ele>
        <time>2019-08-13T07:58:16Z</time>
      </trkpt>
      <trkpt lat="46.59226" lon="6.08226">
        <ele>1092.8</ele>
        <time>2019-08-13T07:58:21Z</time>
      </trkpt>
      <trkpt lat="46.59228" lon="6.08235">
        <ele>1092.8</ele>
        <time>2019-08-13T07:58:24Z</time>
      </trkpt>
      <trkpt lat="46.5923" lon="6.08241">
        <ele>1092.9</ele>
        <time>2019-08-13T07:58:28Z</time>
      </trkpt>
      <trkpt lat="46.59233" lon="6.08247">
        <ele>1092.8</ele>
        <time>2019-08-13T07:58:32Z</time>
      </trkpt>
      <trkpt lat="46.59234" lon="6.08254">
        <ele>1091.5</ele>
        <time>2019-08-13T07:58:41Z</time>
      </trkpt>
      <trkpt lat="46.59235" lon="6.08261">
        <ele>1089.8</ele>
        <time>2019-08-13T07:58:50Z</time>
      </trkpt>
      <trkpt lat="46.5924" lon="6.08267">
        <ele>1089.1</ele>
        <time>2019-08-13T07:58:55Z</time>
      </trkpt>
      <trkpt lat="46.59244" lon="6.08272">
        <ele>1088.7</ele>
        <time>2019-08-13T07:58:58Z</time>
      </trkpt>
      <trkpt lat="46.59242" lon="6.08279">
        <ele>1088</ele>
        <time>2019-08-13T07:59:04Z</time>
      </trkpt>
      <trkpt lat="46.59242" lon="6.08287">
        <ele>1087.8</ele>
        <time>2019-08-13T07:59:10Z</time>
      </trkpt>
      <trkpt lat="46.59243" lon="6.08294">
        <ele>1087.9</ele>
        <time>2019-08-13T07:59:15Z</time>
      </trkpt>
      <trkpt lat="46.59243" lon="6.08303">
        <ele>1087.8</ele>
        <time>2019-08-13T07:59:18Z</time>
      </trkpt>
      <trkpt lat="46.59245" lon="6.0831">
        <ele>1087.6</ele>
        <time>2019-08-13T07:59:24Z</time>
      </trkpt>
      <trkpt lat="46.59247" lon="6.08317">
        <ele>1087.4</ele>
        <time>2019-08-13T07:59:27Z</time>
      </trkpt>
      <trkpt lat="46.5925" lon="6.08323">
        <ele>1087.1</ele>
        <time>2019-08-13T07:59:32Z</time>
      </trkpt>
      <trkpt lat="46.59251" lon="6.08331">
        <ele>1087.6</ele>
        <time>2019-08-13T07:59:41Z</time>
      </trkpt>
      <trkpt lat="46.59252" lon="6.08339">
        <ele>1088</ele>
        <time>2019-08-13T07:59:47Z</time>
      </trkpt>
      <trkpt lat="46.59253" lon="6.08348">
        <ele>1088.4</ele>
        <time>2019-08-13T07:59:52Z</time>
      </trkpt>
      <trkpt lat="46.59254" lon="6.08357">
        <ele>1088.9</ele>
        <time>2019-08-13T07:59:56Z</time>
      </trkpt>
      <trkpt lat="46.59253" lon="6.08365">
        <ele>1089.3</ele>
        <time>2019-08-13T08:00:01Z</time>
      </trkpt>
      <trkpt lat="46.59251" lon="6.08371">
        <ele>1089.7</ele>
        <time>2019-08-13T08:00:08Z</time>
      </trkpt>
      <trkpt lat="46.59252" lon="6.08378">
        <ele>1089.9</ele>
        <time>2019-08-13T08:00:16Z</time>
      </trkpt>
      <trkpt lat="46.59251" lon="6.08385">
        <ele>1090.1</ele>
        <time>2019-08-13T08:00:23Z</time>
      </trkpt>
      <trkpt lat="46.59251" lon="6.08394">
        <ele>1089.2</ele>
        <time>2019-08-13T08:00:35Z</time>
      </trkpt>
      <trkpt lat="46.59249" lon="6.08399">
        <ele>1087.9</ele>
        <time>2019-08-13T08:00:42Z</time>
      </trkpt>
      <trkpt lat="46.59246" lon="6.08411">
        <ele>1086.3</ele>
        <time>2019-08-13T08:00:50Z</time>
      </trkpt>
      <trkpt lat="46.59247" lon="6.08418">
        <ele>1086.2</ele>
        <time>2019-08-13T08:00:56Z</time>
      </trkpt>
      <trkpt lat="46.59241" lon="6.08431">
        <ele>1087.1</ele>
        <time>2019-08-13T08:01:16Z</time>
      </trkpt>
      <trkpt lat="46.59238" lon="6.0844">
        <ele>1087.3</ele>
        <time>2019-08-13T08:01:18Z</time>
      </trkpt>
      <trkpt lat="46.59237" lon="6.08449">
        <ele>1087.5</ele>
        <time>2019-08-13T08:01:21Z</time>
      </trkpt>
      <trkpt lat="46.59236" lon="6.08456">
        <ele>1087.7</ele>
        <time>2019-08-13T08:01:24Z</time>
      </trkpt>
      <trkpt lat="46.59234" lon="6.08462">
        <ele>1087.9</ele>
        <time>2019-08-13T08:01:30Z</time>
      </trkpt>
      <trkpt lat="46.59232" lon="6.08469">
        <ele>1087.9</ele>
        <time>2019-08-13T08:01:36Z</time>
      </trkpt>
      <trkpt lat="46.59229" lon="6.08475">
        <ele>1087.8</ele>
        <time>2019-08-13T08:01:40Z</time>
      </trkpt>
      <trkpt lat="46.59229" lon="6.08482">
        <ele>1087.5</ele>
        <time>2019-08-13T08:01:45Z</time>
      </trkpt>
      <trkpt lat="46.59228" lon="6.08492">
        <ele>1087.3</ele>
        <time>2019-08-13T08:01:49Z</time>
      </trkpt>
      <trkpt lat="46.59227" lon="6.08499">
        <ele>1087.4</ele>
        <time>2019-08-13T08:01:55Z</time>
      </trkpt>
      <trkpt lat="46.59226" lon="6.08505">
        <ele>1088.4</ele>
        <time>2019-08-13T08:02:06Z</time>
      </trkpt>
      <trkpt lat="46.59219" lon="6.08518">
        <ele>1090.7</ele>
        <time>2019-08-13T08:02:22Z</time>
      </trkpt>
      <trkpt lat="46.59216" lon="6.08525">
        <ele>1091.1</ele>
        <time>2019-08-13T08:02:25Z</time>
      </trkpt>
      <trkpt lat="46.59214" lon="6.08531">
        <ele>1091.8</ele>
        <time>2019-08-13T08:02:30Z</time>
      </trkpt>
      <trkpt lat="46.59213" lon="6.08538">
        <ele>1092.9</ele>
        <time>2019-08-13T08:02:42Z</time>
      </trkpt>
      <trkpt lat="46.59215" lon="6.08547">
        <ele>1093.1</ele>
        <time>2019-08-13T08:02:44Z</time>
      </trkpt>
      <trkpt lat="46.59217" lon="6.08555">
        <ele>1093.4</ele>
        <time>2019-08-13T08:02:46Z</time>
      </trkpt>
      <trkpt lat="46.59215" lon="6.08563">
        <ele>1093.7</ele>
        <time>2019-08-13T08:02:49Z</time>
      </trkpt>
      <trkpt lat="46.59213" lon="6.08569">
        <ele>1095</ele>
        <time>2019-08-13T08:03:01Z</time>
      </trkpt>
      <trkpt lat="46.5921" lon="6.08576">
        <ele>1095.1</ele>
        <time>2019-08-13T08:03:05Z</time>
      </trkpt>
      <trkpt lat="46.59208" lon="6.08582">
        <ele>1094.8</ele>
        <time>2019-08-13T08:03:09Z</time>
      </trkpt>
      <trkpt lat="46.59206" lon="6.08588">
        <ele>1093.6</ele>
        <time>2019-08-13T08:03:17Z</time>
      </trkpt>
      <trkpt lat="46.59202" lon="6.08595">
        <ele>1093.2</ele>
        <time>2019-08-13T08:03:20Z</time>
      </trkpt>
      <trkpt lat="46.59199" lon="6.08601">
        <ele>1093</ele>
        <time>2019-08-13T08:03:22Z</time>
      </trkpt>
      <trkpt lat="46.59197" lon="6.08608">
        <ele>1092.8</ele>
        <time>2019-08-13T08:03:26Z</time>
      </trkpt>
      <trkpt lat="46.59198" lon="6.08614">
        <ele>1092.4</ele>
        <time>2019-08-13T08:03:34Z</time>
      </trkpt>
      <trkpt lat="46.59198" lon="6.08627">
        <ele>1092.3</ele>
        <time>2019-08-13T08:03:40Z</time>
      </trkpt>
      <trkpt lat="46.59197" lon="6.08633">
        <ele>1092.6</ele>
        <time>2019-08-13T08:03:43Z</time>
      </trkpt>
      <trkpt lat="46.59194" lon="6.08639">
        <ele>1093.2</ele>
        <time>2019-08-13T08:03:48Z</time>
      </trkpt>
      <trkpt lat="46.59191" lon="6.08657">
        <ele>1094.7</ele>
        <time>2019-08-13T08:04:00Z</time>
      </trkpt>
      <trkpt lat="46.59191" lon="6.08665">
        <ele>1095</ele>
        <time>2019-08-13T08:04:05Z</time>
      </trkpt>
      <trkpt lat="46.59192" lon="6.08672">
        <ele>1095.1</ele>
        <time>2019-08-13T08:04:10Z</time>
      </trkpt>
      <trkpt lat="46.5919" lon="6.08678">
        <ele>1095.8</ele>
        <time>2019-08-13T08:04:18Z</time>
      </trkpt>
      <trkpt lat="46.59189" lon="6.08685">
        <ele>1099</ele>
        <time>2019-08-13T08:04:48Z</time>
      </trkpt>
      <trkpt lat="46.59186" lon="6.0869">
        <ele>1099.2</ele>
        <time>2019-08-13T08:04:55Z</time>
      </trkpt>
      <trkpt lat="46.59185" lon="6.08697">
        <ele>1098.4</ele>
        <time>2019-08-13T08:05:03Z</time>
      </trkpt>
      <trkpt lat="46.59186" lon="6.08705">
        <ele>1097.8</ele>
        <time>2019-08-13T08:05:08Z</time>
      </trkpt>
      <trkpt lat="46.59178" lon="6.08728">
        <ele>1095.1</ele>
        <time>2019-08-13T08:05:21Z</time>
      </trkpt>
      <trkpt lat="46.59177" lon="6.08735">
        <ele>1094.4</ele>
        <time>2019-08-13T08:05:28Z</time>
      </trkpt>
      <trkpt lat="46.59176" lon="6.08751">
        <ele>1094</ele>
        <time>2019-08-13T08:05:40Z</time>
      </trkpt>
      <trkpt lat="46.5917" lon="6.08773">
        <ele>1095.1</ele>
        <time>2019-08-13T08:05:53Z</time>
      </trkpt>
      <trkpt lat="46.59168" lon="6.08781">
        <ele>1095.3</ele>
        <time>2019-08-13T08:06:00Z</time>
      </trkpt>
      <trkpt lat="46.59167" lon="6.08789">
        <ele>1095.4</ele>
        <time>2019-08-13T08:06:03Z</time>
      </trkpt>
      <trkpt lat="46.59165" lon="6.08795">
        <ele>1095.3</ele>
        <time>2019-08-13T08:06:09Z</time>
      </trkpt>
      <trkpt lat="46.59162" lon="6.08802">
        <ele>1094.8</ele>
        <time>2019-08-13T08:06:16Z</time>
      </trkpt>
      <trkpt lat="46.5916" lon="6.08808">
        <ele>1094.4</ele>
        <time>2019-08-13T08:06:20Z</time>
      </trkpt>
      <trkpt lat="46.59156" lon="6.08813">
        <ele>1094</ele>
        <time>2019-08-13T08:06:25Z</time>
      </trkpt>
      <trkpt lat="46.59151" lon="6.08814">
        <ele>1093.5</ele>
        <time>2019-08-13T08:06:30Z</time>
      </trkpt>
      <trkpt lat="46.59147" lon="6.08816">
        <ele>1092.4</ele>
        <time>2019-08-13T08:06:38Z</time>
      </trkpt>
      <trkpt lat="46.59145" lon="6.08822">
        <ele>1090.7</ele>
        <time>2019-08-13T08:06:48Z</time>
      </trkpt>
      <trkpt lat="46.59143" lon="6.0883">
        <ele>1089.7</ele>
        <time>2019-08-13T08:06:54Z</time>
      </trkpt>
      <trkpt lat="46.59141" lon="6.08837">
        <ele>1089.4</ele>
        <time>2019-08-13T08:06:57Z</time>
      </trkpt>
      <trkpt lat="46.59137" lon="6.08841">
        <ele>1088.8</ele>
        <time>2019-08-13T08:07:02Z</time>
      </trkpt>
      <trkpt lat="46.59131" lon="6.0885">
        <ele>1090.2</ele>
        <time>2019-08-13T08:07:42Z</time>
      </trkpt>
      <trkpt lat="46.59131" lon="6.08856">
        <ele>1089.4</ele>
        <time>2019-08-13T08:07:58Z</time>
      </trkpt>
      <trkpt lat="46.59131" lon="6.08865">
        <ele>1088.6</ele>
        <time>2019-08-13T08:08:08Z</time>
      </trkpt>
      <trkpt lat="46.59133" lon="6.08872">
        <ele>1088.6</ele>
        <time>2019-08-13T08:08:10Z</time>
      </trkpt>
      <trkpt lat="46.59135" lon="6.08878">
        <ele>1088.7</ele>
        <time>2019-08-13T08:08:14Z</time>
      </trkpt>
      <trkpt lat="46.59139" lon="6.08884">
        <ele>1088.9</ele>
        <time>2019-08-13T08:08:18Z</time>
      </trkpt>
      <trkpt lat="46.59142" lon="6.0889">
        <ele>1089.3</ele>
        <time>2019-08-13T08:08:23Z</time>
      </trkpt>
      <trkpt lat="46.59146" lon="6.08894">
        <ele>1089.8</ele>
        <time>2019-08-13T08:08:33Z</time>
      </trkpt>
      <trkpt lat="46.59149" lon="6.08899">
        <ele>1090.3</ele>
        <time>2019-08-13T08:08:39Z</time>
      </trkpt>
      <trkpt lat="46.59153" lon="6.08903">
        <ele>1090.6</ele>
        <time>2019-08-13T08:08:42Z</time>
      </trkpt>
      <trkpt lat="46.59154" lon="6.0891">
        <ele>1091.1</ele>
        <time>2019-08-13T08:08:48Z</time>
      </trkpt>
      <trkpt lat="46.59152" lon="6.08917">
        <ele>1090.9</ele>
        <time>2019-08-13T08:08:54Z</time>
      </trkpt>
      <trkpt lat="46.5915" lon="6.08923">
        <ele>1090</ele>
        <time>2019-08-13T08:09:00Z</time>
      </trkpt>
      <trkpt lat="46.59149" lon="6.08929">
        <ele>1088.8</ele>
        <time>2019-08-13T08:09:06Z</time>
      </trkpt>
      <trkpt lat="46.59147" lon="6.08943">
        <ele>1084.4</ele>
        <time>2019-08-13T08:09:19Z</time>
      </trkpt>
      <trkpt lat="46.59148" lon="6.0895">
        <ele>1083.7</ele>
        <time>2019-08-13T08:09:22Z</time>
      </trkpt>
      <trkpt lat="46.59148" lon="6.08957">
        <ele>1082.8</ele>
        <time>2019-08-13T08:09:26Z</time>
      </trkpt>
      <trkpt lat="46.59151" lon="6.08963">
        <ele>1081.8</ele>
        <time>2019-08-13T08:09:32Z</time>
      </trkpt>
      <trkpt lat="46.59153" lon="6.08969">
        <ele>1081.6</ele>
        <time>2019-08-13T08:09:35Z</time>
      </trkpt>
      <trkpt lat="46.59157" lon="6.08974">
        <ele>1081.6</ele>
        <time>2019-08-13T08:09:40Z</time>
      </trkpt>
      <trkpt lat="46.59161" lon="6.08978">
        <ele>1082</ele>
        <time>2019-08-13T08:09:47Z</time>
      </trkpt>
      <trkpt lat="46.59161" lon="6.08984">
        <ele>1081.8</ele>
        <time>2019-08-13T08:09:59Z</time>
      </trkpt>
      <trkpt lat="46.59165" lon="6.08986">
        <ele>1081.6</ele>
        <time>2019-08-13T08:10:05Z</time>
      </trkpt>
      <trkpt lat="46.59172" lon="6.08994">
        <ele>1081.4</ele>
        <time>2019-08-13T08:10:17Z</time>
      </trkpt>
      <trkpt lat="46.59176" lon="6.08997">
        <ele>1081.4</ele>
        <time>2019-08-13T08:10:22Z</time>
      </trkpt>
      <trkpt lat="46.5918" lon="6.09002">
        <ele>1081.2</ele>
        <time>2019-08-13T08:10:27Z</time>
      </trkpt>
      <trkpt lat="46.59183" lon="6.09007">
        <ele>1081</ele>
        <time>2019-08-13T08:10:31Z</time>
      </trkpt>
      <trkpt lat="46.59186" lon="6.09013">
        <ele>1080.6</ele>
        <time>2019-08-13T08:10:36Z</time>
      </trkpt>
      <trkpt lat="46.5919" lon="6.09018">
        <ele>1080.3</ele>
        <time>2019-08-13T08:10:40Z</time>
      </trkpt>
      <trkpt lat="46.59194" lon="6.09023">
        <ele>1079.9</ele>
        <time>2019-08-13T08:10:44Z</time>
      </trkpt>
      <trkpt lat="46.59198" lon="6.09026">
        <ele>1079.5</ele>
        <time>2019-08-13T08:10:48Z</time>
      </trkpt>
      <trkpt lat="46.59203" lon="6.09027">
        <ele>1078.9</ele>
        <time>2019-08-13T08:10:54Z</time>
      </trkpt>
      <trkpt lat="46.59207" lon="6.09029">
        <ele>1077.7</ele>
        <time>2019-08-13T08:11:01Z</time>
      </trkpt>
      <trkpt lat="46.59212" lon="6.0903">
        <ele>1076.6</ele>
        <time>2019-08-13T08:11:07Z</time>
      </trkpt>
      <trkpt lat="46.59217" lon="6.09031">
        <ele>1075.9</ele>
        <time>2019-08-13T08:11:13Z</time>
      </trkpt>
      <trkpt lat="46.5922" lon="6.09035">
        <ele>1075.2</ele>
        <time>2019-08-13T08:11:30Z</time>
      </trkpt>
      <trkpt lat="46.59225" lon="6.09037">
        <ele>1075.1</ele>
        <time>2019-08-13T08:11:34Z</time>
      </trkpt>
      <trkpt lat="46.59229" lon="6.0904">
        <ele>1075.1</ele>
        <time>2019-08-13T08:11:37Z</time>
      </trkpt>
      <trkpt lat="46.59233" lon="6.09043">
        <ele>1074.9</ele>
        <time>2019-08-13T08:11:41Z</time>
      </trkpt>
      <trkpt lat="46.59238" lon="6.09047">
        <ele>1074.7</ele>
        <time>2019-08-13T08:11:45Z</time>
      </trkpt>
      <trkpt lat="46.59242" lon="6.0905">
        <ele>1074.6</ele>
        <time>2019-08-13T08:11:49Z</time>
      </trkpt>
      <trkpt lat="46.59245" lon="6.09055">
        <ele>1074.3</ele>
        <time>2019-08-13T08:11:54Z</time>
      </trkpt>
      <trkpt lat="46.59249" lon="6.0906">
        <ele>1074</ele>
        <time>2019-08-13T08:11:59Z</time>
      </trkpt>
      <trkpt lat="46.59252" lon="6.09066">
        <ele>1073.6</ele>
        <time>2019-08-13T08:12:04Z</time>
      </trkpt>
      <trkpt lat="46.59255" lon="6.09072">
        <ele>1073.2</ele>
        <time>2019-08-13T08:12:09Z</time>
      </trkpt>
      <trkpt lat="46.59257" lon="6.09074">
        <ele>1071.7</ele>
        <time>2019-08-13T08:12:57Z</time>
      </trkpt>
      <trkpt lat="46.5926" lon="6.0908">
        <ele>1071.4</ele>
        <time>2019-08-13T08:13:02Z</time>
      </trkpt>
      <trkpt lat="46.59263" lon="6.09085">
        <ele>1071.1</ele>
        <time>2019-08-13T08:13:06Z</time>
      </trkpt>
      <trkpt lat="46.59266" lon="6.0909">
        <ele>1070.8</ele>
        <time>2019-08-13T08:13:10Z</time>
      </trkpt>
      <trkpt lat="46.5927" lon="6.09095">
        <ele>1070.8</ele>
        <time>2019-08-13T08:13:14Z</time>
      </trkpt>
      <trkpt lat="46.59275" lon="6.09098">
        <ele>1070.8</ele>
        <time>2019-08-13T08:13:18Z</time>
      </trkpt>
      <trkpt lat="46.59278" lon="6.09103">
        <ele>1071</ele>
        <time>2019-08-13T08:13:22Z</time>
      </trkpt>
      <trkpt lat="46.5928" lon="6.09109">
        <ele>1071.1</ele>
        <time>2019-08-13T08:13:26Z</time>
      </trkpt>
      <trkpt lat="46.59282" lon="6.09117">
        <ele>1071.5</ele>
        <time>2019-08-13T08:13:31Z</time>
      </trkpt>
      <trkpt lat="46.59283" lon="6.09123">
        <ele>1072</ele>
        <time>2019-08-13T08:13:36Z</time>
      </trkpt>
      <trkpt lat="46.59285" lon="6.0913">
        <ele>1072.4</ele>
        <time>2019-08-13T08:13:42Z</time>
      </trkpt>
      <trkpt lat="46.59288" lon="6.09137">
        <ele>1072.5</ele>
        <time>2019-08-13T08:13:47Z</time>
      </trkpt>
      <trkpt lat="46.59291" lon="6.09142">
        <ele>1072.6</ele>
        <time>2019-08-13T08:13:51Z</time>
      </trkpt>
      <trkpt lat="46.59296" lon="6.09147">
        <ele>1072.7</ele>
        <time>2019-08-13T08:13:55Z</time>
      </trkpt>
      <trkpt lat="46.59302" lon="6.09165">
        <ele>1073.6</ele>
        <time>2019-08-13T08:14:10Z</time>
      </trkpt>
      <trkpt lat="46.59304" lon="6.09171">
        <ele>1074</ele>
        <time>2019-08-13T08:14:14Z</time>
      </trkpt>
      <trkpt lat="46.59306" lon="6.09177">
        <ele>1074.3</ele>
        <time>2019-08-13T08:14:19Z</time>
      </trkpt>
      <trkpt lat="46.59309" lon="6.09183">
        <ele>1074.4</ele>
        <time>2019-08-13T08:14:25Z</time>
      </trkpt>
      <trkpt lat="46.59311" lon="6.09191">
        <ele>1074.4</ele>
        <time>2019-08-13T08:14:31Z</time>
      </trkpt>
      <trkpt lat="46.59313" lon="6.09198">
        <ele>1074.4</ele>
        <time>2019-08-13T08:14:35Z</time>
      </trkpt>
      <trkpt lat="46.59315" lon="6.09204">
        <ele>1074.7</ele>
        <time>2019-08-13T08:14:40Z</time>
      </trkpt>
      <trkpt lat="46.59316" lon="6.09212">
        <ele>1075.2</ele>
        <time>2019-08-13T08:14:47Z</time>
      </trkpt>
      <trkpt lat="46.59318" lon="6.09218">
        <ele>1075.5</ele>
        <time>2019-08-13T08:14:53Z</time>
      </trkpt>
      <trkpt lat="46.59319" lon="6.09225">
        <ele>1075.9</ele>
        <time>2019-08-13T08:15:00Z</time>
      </trkpt>
      <trkpt lat="46.5932" lon="6.09231">
        <ele>1076.4</ele>
        <time>2019-08-13T08:15:07Z</time>
      </trkpt>
      <trkpt lat="46.59321" lon="6.09238">
        <ele>1076.6</ele>
        <time>2019-08-13T08:15:12Z</time>
      </trkpt>
      <trkpt lat="46.59321" lon="6.09245">
        <ele>1076.7</ele>
        <time>2019-08-13T08:15:18Z</time>
      </trkpt>
      <trkpt lat="46.59322" lon="6.09252">
        <ele>1076.9</ele>
        <time>2019-08-13T08:15:23Z</time>
      </trkpt>
      <trkpt lat="46.59323" lon="6.09259">
        <ele>1077.2</ele>
        <time>2019-08-13T08:15:28Z</time>
      </trkpt>
      <trkpt lat="46.59325" lon="6.09265">
        <ele>1077.4</ele>
        <time>2019-08-13T08:15:34Z</time>
      </trkpt>
      <trkpt lat="46.59326" lon="6.09273">
        <ele>1077.4</ele>
        <time>2019-08-13T08:15:40Z</time>
      </trkpt>
      <trkpt lat="46.59329" lon="6.09279">
        <ele>1077.5</ele>
        <time>2019-08-13T08:15:44Z</time>
      </trkpt>
      <trkpt lat="46.5933" lon="6.09286">
        <ele>1077.5</ele>
        <time>2019-08-13T08:15:52Z</time>
      </trkpt>
      <trkpt lat="46.59331" lon="6.09293">
        <ele>1077.6</ele>
        <time>2019-08-13T08:15:58Z</time>
      </trkpt>
      <trkpt lat="46.59334" lon="6.09298">
        <ele>1077.5</ele>
        <time>2019-08-13T08:16:02Z</time>
      </trkpt>
      <trkpt lat="46.59336" lon="6.09305">
        <ele>1077.3</ele>
        <time>2019-08-13T08:16:08Z</time>
      </trkpt>
      <trkpt lat="46.59335" lon="6.09312">
        <ele>1077.3</ele>
        <time>2019-08-13T08:16:14Z</time>
      </trkpt>
      <trkpt lat="46.59334" lon="6.0932">
        <ele>1077.3</ele>
        <time>2019-08-13T08:16:18Z</time>
      </trkpt>
      <trkpt lat="46.59335" lon="6.09327">
        <ele>1077.1</ele>
        <time>2019-08-13T08:16:24Z</time>
      </trkpt>
      <trkpt lat="46.59337" lon="6.09334">
        <ele>1076.6</ele>
        <time>2019-08-13T08:16:30Z</time>
      </trkpt>
      <trkpt lat="46.59338" lon="6.09342">
        <ele>1076.1</ele>
        <time>2019-08-13T08:16:40Z</time>
      </trkpt>
      <trkpt lat="46.59338" lon="6.09349">
        <ele>1075.8</ele>
        <time>2019-08-13T08:16:44Z</time>
      </trkpt>
      <trkpt lat="46.59336" lon="6.09356">
        <ele>1075.6</ele>
        <time>2019-08-13T08:16:49Z</time>
      </trkpt>
      <trkpt lat="46.59334" lon="6.09362">
        <ele>1075.6</ele>
        <time>2019-08-13T08:16:54Z</time>
      </trkpt>
      <trkpt lat="46.59334" lon="6.09369">
        <ele>1075.7</ele>
        <time>2019-08-13T08:16:59Z</time>
      </trkpt>
      <trkpt lat="46.59332" lon="6.09375">
        <ele>1075.8</ele>
        <time>2019-08-13T08:17:04Z</time>
      </trkpt>
      <trkpt lat="46.59331" lon="6.09382">
        <ele>1076</ele>
        <time>2019-08-13T08:17:09Z</time>
      </trkpt>
      <trkpt lat="46.59329" lon="6.09389">
        <ele>1076.3</ele>
        <time>2019-08-13T08:17:15Z</time>
      </trkpt>
      <trkpt lat="46.59329" lon="6.09396">
        <ele>1076.5</ele>
        <time>2019-08-13T08:17:20Z</time>
      </trkpt>
      <trkpt lat="46.59328" lon="6.09403">
        <ele>1076.5</ele>
        <time>2019-08-13T08:17:24Z</time>
      </trkpt>
      <trkpt lat="46.59327" lon="6.0941">
        <ele>1076.2</ele>
        <time>2019-08-13T08:17:29Z</time>
      </trkpt>
      <trkpt lat="46.59325" lon="6.09417">
        <ele>1075.8</ele>
        <time>2019-08-13T08:17:36Z</time>
      </trkpt>
      <trkpt lat="46.59323" lon="6.09422">
        <ele>1075.6</ele>
        <time>2019-08-13T08:17:41Z</time>
      </trkpt>
      <trkpt lat="46.59319" lon="6.09428">
        <ele>1075.4</ele>
        <time>2019-08-13T08:17:45Z</time>
      </trkpt>
      <trkpt lat="46.59319" lon="6.09436">
        <ele>1075.4</ele>
        <time>2019-08-13T08:17:49Z</time>
      </trkpt>
      <trkpt lat="46.59313" lon="6.09456">
        <ele>1075.2</ele>
        <time>2019-08-13T08:18:02Z</time>
      </trkpt>
      <trkpt lat="46.59311" lon="6.09462">
        <ele>1075.5</ele>
        <time>2019-08-13T08:18:06Z</time>
      </trkpt>
      <trkpt lat="46.5931" lon="6.09469">
        <ele>1076</ele>
        <time>2019-08-13T08:18:12Z</time>
      </trkpt>
      <trkpt lat="46.59308" lon="6.09476">
        <ele>1076.8</ele>
        <time>2019-08-13T08:18:17Z</time>
      </trkpt>
      <trkpt lat="46.59306" lon="6.09482">
        <ele>1077.4</ele>
        <time>2019-08-13T08:18:21Z</time>
      </trkpt>
      <trkpt lat="46.59303" lon="6.09488">
        <ele>1078</ele>
        <time>2019-08-13T08:18:25Z</time>
      </trkpt>
      <trkpt lat="46.59302" lon="6.09495">
        <ele>1078.7</ele>
        <time>2019-08-13T08:18:30Z</time>
      </trkpt>
      <trkpt lat="46.59301" lon="6.09502">
        <ele>1079.5</ele>
        <time>2019-08-13T08:18:35Z</time>
      </trkpt>
      <trkpt lat="46.59299" lon="6.09509">
        <ele>1080.9</ele>
        <time>2019-08-13T08:18:42Z</time>
      </trkpt>
      <trkpt lat="46.59297" lon="6.09515">
        <ele>1081.5</ele>
        <time>2019-08-13T08:18:46Z</time>
      </trkpt>
      <trkpt lat="46.59296" lon="6.09523">
        <ele>1081.9</ele>
        <time>2019-08-13T08:18:51Z</time>
      </trkpt>
      <trkpt lat="46.59295" lon="6.09529">
        <ele>1082</ele>
        <time>2019-08-13T08:18:57Z</time>
      </trkpt>
      <trkpt lat="46.59293" lon="6.09536">
        <ele>1081.6</ele>
        <time>2019-08-13T08:19:02Z</time>
      </trkpt>
      <trkpt lat="46.59292" lon="6.09542">
        <ele>1081.1</ele>
        <time>2019-08-13T08:19:08Z</time>
      </trkpt>
      <trkpt lat="46.59284" lon="6.09547">
        <ele>1079.5</ele>
        <time>2019-08-13T08:19:32Z</time>
      </trkpt>
      <trkpt lat="46.59273" lon="6.09572">
        <ele>1080.7</ele>
        <time>2019-08-13T08:21:11Z</time>
      </trkpt>
      <trkpt lat="46.5927" lon="6.09578">
        <ele>1081.4</ele>
        <time>2019-08-13T08:21:18Z</time>
      </trkpt>
      <trkpt lat="46.5927" lon="6.09585">
        <ele>1082.1</ele>
        <time>2019-08-13T08:21:23Z</time>
      </trkpt>
      <trkpt lat="46.59271" lon="6.09592">
        <ele>1082.4</ele>
        <time>2019-08-13T08:21:25Z</time>
      </trkpt>
      <trkpt lat="46.59272" lon="6.09599">
        <ele>1082.7</ele>
        <time>2019-08-13T08:21:27Z</time>
      </trkpt>
      <trkpt lat="46.59272" lon="6.09607">
        <ele>1083.1</ele>
        <time>2019-08-13T08:21:30Z</time>
      </trkpt>
      <trkpt lat="46.59269" lon="6.09612">
        <ele>1084</ele>
        <time>2019-08-13T08:21:36Z</time>
      </trkpt>
      <trkpt lat="46.59265" lon="6.09616">
        <ele>1085.7</ele>
        <time>2019-08-13T08:21:44Z</time>
      </trkpt>
      <trkpt lat="46.59259" lon="6.09622">
        <ele>1087.2</ele>
        <time>2019-08-13T08:21:51Z</time>
      </trkpt>
      <trkpt lat="46.59255" lon="6.09625">
        <ele>1088.2</ele>
        <time>2019-08-13T08:21:56Z</time>
      </trkpt>
      <trkpt lat="46.5925" lon="6.09631">
        <ele>1088.9</ele>
        <time>2019-08-13T08:21:59Z</time>
      </trkpt>
      <trkpt lat="46.59245" lon="6.09632">
        <ele>1089.4</ele>
        <time>2019-08-13T08:22:02Z</time>
      </trkpt>
      <trkpt lat="46.5924" lon="6.09633">
        <ele>1089.9</ele>
        <time>2019-08-13T08:22:05Z</time>
      </trkpt>
      <trkpt lat="46.59235" lon="6.0965">
        <ele>1092.4</ele>
        <time>2019-08-13T08:22:29Z</time>
      </trkpt>
      <trkpt lat="46.59231" lon="6.09654">
        <ele>1092.3</ele>
        <time>2019-08-13T08:22:34Z</time>
      </trkpt>
      <trkpt lat="46.59221" lon="6.09669">
        <ele>1092.7</ele>
        <time>2019-08-13T08:22:49Z</time>
      </trkpt>
      <trkpt lat="46.59209" lon="6.09693">
        <ele>1094.9</ele>
        <time>2019-08-13T08:23:02Z</time>
      </trkpt>
      <trkpt lat="46.59205" lon="6.09696">
        <ele>1095.1</ele>
        <time>2019-08-13T08:23:05Z</time>
      </trkpt>
      <trkpt lat="46.592" lon="6.09701">
        <ele>1095.6</ele>
        <time>2019-08-13T08:23:11Z</time>
      </trkpt>
      <trkpt lat="46.59196" lon="6.09705">
        <ele>1095.9</ele>
        <time>2019-08-13T08:23:15Z</time>
      </trkpt>
      <trkpt lat="46.59195" lon="6.09712">
        <ele>1096.3</ele>
        <time>2019-08-13T08:23:23Z</time>
      </trkpt>
      <trkpt lat="46.59191" lon="6.09717">
        <ele>1096.6</ele>
        <time>2019-08-13T08:23:29Z</time>
      </trkpt>
      <trkpt lat="46.59187" lon="6.09724">
        <ele>1096.8</ele>
        <time>2019-08-13T08:23:36Z</time>
      </trkpt>
      <trkpt lat="46.59179" lon="6.09733">
        <ele>1097.9</ele>
        <time>2019-08-13T08:23:45Z</time>
      </trkpt>
      <trkpt lat="46.59176" lon="6.09738">
        <ele>1098.2</ele>
        <time>2019-08-13T08:23:52Z</time>
      </trkpt>
      <trkpt lat="46.59171" lon="6.09741">
        <ele>1098.3</ele>
        <time>2019-08-13T08:23:58Z</time>
      </trkpt>
      <trkpt lat="46.59168" lon="6.09748">
        <ele>1098.3</ele>
        <time>2019-08-13T08:24:07Z</time>
      </trkpt>
      <trkpt lat="46.59165" lon="6.09753">
        <ele>1098.4</ele>
        <time>2019-08-13T08:24:18Z</time>
      </trkpt>
      <trkpt lat="46.59163" lon="6.0976">
        <ele>1098.6</ele>
        <time>2019-08-13T08:24:30Z</time>
      </trkpt>
      <trkpt lat="46.59154" lon="6.09774">
        <ele>1100.3</ele>
        <time>2019-08-13T08:24:47Z</time>
      </trkpt>
      <trkpt lat="46.5915" lon="6.0978">
        <ele>1100.7</ele>
        <time>2019-08-13T08:24:51Z</time>
      </trkpt>
      <trkpt lat="46.59145" lon="6.09786">
        <ele>1101.5</ele>
        <time>2019-08-13T08:24:58Z</time>
      </trkpt>
      <trkpt lat="46.59141" lon="6.0979">
        <ele>1101.8</ele>
        <time>2019-08-13T08:25:01Z</time>
      </trkpt>
      <trkpt lat="46.59138" lon="6.09795">
        <ele>1102.3</ele>
        <time>2019-08-13T08:25:06Z</time>
      </trkpt>
      <trkpt lat="46.59135" lon="6.09799">
        <ele>1103.7</ele>
        <time>2019-08-13T08:25:17Z</time>
      </trkpt>
      <trkpt lat="46.59131" lon="6.09804">
        <ele>1103.9</ele>
        <time>2019-08-13T08:25:19Z</time>
      </trkpt>
      <trkpt lat="46.59129" lon="6.0981">
        <ele>1104.4</ele>
        <time>2019-08-13T08:25:24Z</time>
      </trkpt>
      <trkpt lat="46.59126" lon="6.09815">
        <ele>1104.8</ele>
        <time>2019-08-13T08:25:30Z</time>
      </trkpt>
      <trkpt lat="46.59123" lon="6.09821">
        <ele>1104.9</ele>
        <time>2019-08-13T08:25:34Z</time>
      </trkpt>
      <trkpt lat="46.59122" lon="6.09827">
        <ele>1104.9</ele>
        <time>2019-08-13T08:25:38Z</time>
      </trkpt>
      <trkpt lat="46.59119" lon="6.09834">
        <ele>1104.7</ele>
        <time>2019-08-13T08:25:42Z</time>
      </trkpt>
      <trkpt lat="46.59116" lon="6.09841">
        <ele>1104.3</ele>
        <time>2019-08-13T08:25:45Z</time>
      </trkpt>
      <trkpt lat="46.59112" lon="6.09845">
        <ele>1102.8</ele>
        <time>2019-08-13T08:25:52Z</time>
      </trkpt>
      <trkpt lat="46.59104" lon="6.09851">
        <ele>1099.5</ele>
        <time>2019-08-13T08:26:03Z</time>
      </trkpt>
      <trkpt lat="46.59095" lon="6.09862">
        <ele>1097.7</ele>
        <time>2019-08-13T08:27:02Z</time>
      </trkpt>
      <trkpt lat="46.59094" lon="6.09868">
        <ele>1097.8</ele>
        <time>2019-08-13T08:27:07Z</time>
      </trkpt>
      <trkpt lat="46.59096" lon="6.09874">
        <ele>1098</ele>
        <time>2019-08-13T08:27:12Z</time>
      </trkpt>
      <trkpt lat="46.591" lon="6.0988">
        <ele>1098.3</ele>
        <time>2019-08-13T08:27:15Z</time>
      </trkpt>
      <trkpt lat="46.59104" lon="6.09885">
        <ele>1098.5</ele>
        <time>2019-08-13T08:27:19Z</time>
      </trkpt>
      <trkpt lat="46.59108" lon="6.09889">
        <ele>1098.5</ele>
        <time>2019-08-13T08:27:25Z</time>
      </trkpt>
      <trkpt lat="46.59109" lon="6.09896">
        <ele>1098</ele>
        <time>2019-08-13T08:27:31Z</time>
      </trkpt>
      <trkpt lat="46.59111" lon="6.09902">
        <ele>1097.6</ele>
        <time>2019-08-13T08:27:35Z</time>
      </trkpt>
      <trkpt lat="46.59112" lon="6.09915">
        <ele>1098.6</ele>
        <time>2019-08-13T08:27:48Z</time>
      </trkpt>
      <trkpt lat="46.5911" lon="6.09922">
        <ele>1099.5</ele>
        <time>2019-08-13T08:27:52Z</time>
      </trkpt>
      <trkpt lat="46.59111" lon="6.09928">
        <ele>1100.8</ele>
        <time>2019-08-13T08:27:57Z</time>
      </trkpt>
      <trkpt lat="46.59115" lon="6.09935">
        <ele>1101.7</ele>
        <time>2019-08-13T08:28:00Z</time>
      </trkpt>
      <trkpt lat="46.59116" lon="6.09941">
        <ele>1103.2</ele>
        <time>2019-08-13T08:28:06Z</time>
      </trkpt>
      <trkpt lat="46.59115" lon="6.09948">
        <ele>1104.1</ele>
        <time>2019-08-13T08:28:16Z</time>
      </trkpt>
      <trkpt lat="46.59119" lon="6.09954">
        <ele>1103.9</ele>
        <time>2019-08-13T08:28:23Z</time>
      </trkpt>
      <trkpt lat="46.59121" lon="6.0996">
        <ele>1104</ele>
        <time>2019-08-13T08:28:28Z</time>
      </trkpt>
      <trkpt lat="46.59127" lon="6.0998">
        <ele>1104.3</ele>
        <time>2019-08-13T08:28:45Z</time>
      </trkpt>
      <trkpt lat="46.59132" lon="6.09981">
        <ele>1104.1</ele>
        <time>2019-08-13T08:28:52Z</time>
      </trkpt>
      <trkpt lat="46.59132" lon="6.10003">
        <ele>1103.1</ele>
        <time>2019-08-13T08:29:36Z</time>
      </trkpt>
      <trkpt lat="46.59129" lon="6.10008">
        <ele>1101.7</ele>
        <time>2019-08-13T08:29:45Z</time>
      </trkpt>
      <trkpt lat="46.59129" lon="6.10015">
        <ele>1101</ele>
        <time>2019-08-13T08:29:54Z</time>
      </trkpt>
      <trkpt lat="46.59128" lon="6.10022">
        <ele>1101.6</ele>
        <time>2019-08-13T08:30:02Z</time>
      </trkpt>
      <trkpt lat="46.59128" lon="6.10028">
        <ele>1103.1</ele>
        <time>2019-08-13T08:30:13Z</time>
      </trkpt>
      <trkpt lat="46.59127" lon="6.10035">
        <ele>1104.9</ele>
        <time>2019-08-13T08:30:26Z</time>
      </trkpt>
      <trkpt lat="46.59123" lon="6.10074">
        <ele>1108.7</ele>
        <time>2019-08-13T08:31:04Z</time>
      </trkpt>
      <trkpt lat="46.59116" lon="6.10086">
        <ele>1108.5</ele>
        <time>2019-08-13T08:31:23Z</time>
      </trkpt>
      <trkpt lat="46.59115" lon="6.10101">
        <ele>1106.5</ele>
        <time>2019-08-13T08:31:49Z</time>
      </trkpt>
      <trkpt lat="46.59114" lon="6.10109">
        <ele>1106.7</ele>
        <time>2019-08-13T08:31:52Z</time>
      </trkpt>
      <trkpt lat="46.59111" lon="6.10119">
        <ele>1106.8</ele>
        <time>2019-08-13T08:31:55Z</time>
      </trkpt>
      <trkpt lat="46.59107" lon="6.10125">
        <ele>1106.9</ele>
        <time>2019-08-13T08:31:58Z</time>
      </trkpt>
      <trkpt lat="46.59104" lon="6.10131">
        <ele>1106.9</ele>
        <time>2019-08-13T08:32:03Z</time>
      </trkpt>
      <trkpt lat="46.59101" lon="6.10151">
        <ele>1108.4</ele>
        <time>2019-08-13T08:32:19Z</time>
      </trkpt>
      <trkpt lat="46.59101" lon="6.10158">
        <ele>1109.4</ele>
        <time>2019-08-13T08:32:27Z</time>
      </trkpt>
      <trkpt lat="46.59097" lon="6.10164">
        <ele>1110</ele>
        <time>2019-08-13T08:32:32Z</time>
      </trkpt>
      <trkpt lat="46.59093" lon="6.10168">
        <ele>1110.3</ele>
        <time>2019-08-13T08:32:40Z</time>
      </trkpt>
      <trkpt lat="46.59089" lon="6.10173">
        <ele>1110.2</ele>
        <time>2019-08-13T08:32:45Z</time>
      </trkpt>
      <trkpt lat="46.59087" lon="6.10181">
        <ele>1110.2</ele>
        <time>2019-08-13T08:32:48Z</time>
      </trkpt>
      <trkpt lat="46.59076" lon="6.10189">
        <ele>1110.1</ele>
        <time>2019-08-13T08:33:09Z</time>
      </trkpt>
      <trkpt lat="46.59074" lon="6.10196">
        <ele>1110.5</ele>
        <time>2019-08-13T08:33:18Z</time>
      </trkpt>
      <trkpt lat="46.59067" lon="6.10202">
        <ele>1111.5</ele>
        <time>2019-08-13T08:33:31Z</time>
      </trkpt>
      <trkpt lat="46.59056" lon="6.10205">
        <ele>1112.9</ele>
        <time>2019-08-13T08:33:40Z</time>
      </trkpt>
      <trkpt lat="46.5905" lon="6.10204">
        <ele>1113.5</ele>
        <time>2019-08-13T08:33:44Z</time>
      </trkpt>
      <trkpt lat="46.59046" lon="6.10203">
        <ele>1114.1</ele>
        <time>2019-08-13T08:33:48Z</time>
      </trkpt>
      <trkpt lat="46.59041" lon="6.10204">
        <ele>1114.8</ele>
        <time>2019-08-13T08:33:56Z</time>
      </trkpt>
      <trkpt lat="46.59036" lon="6.10204">
        <ele>1114.3</ele>
        <time>2019-08-13T08:34:09Z</time>
      </trkpt>
      <trkpt lat="46.59029" lon="6.10202">
        <ele>1114</ele>
        <time>2019-08-13T08:34:12Z</time>
      </trkpt>
      <trkpt lat="46.59025" lon="6.10205">
        <ele>1113.7</ele>
        <time>2019-08-13T08:34:15Z</time>
      </trkpt>
      <trkpt lat="46.59021" lon="6.10209">
        <ele>1113.3</ele>
        <time>2019-08-13T08:34:20Z</time>
      </trkpt>
      <trkpt lat="46.59016" lon="6.1021">
        <ele>1113.1</ele>
        <time>2019-08-13T08:34:26Z</time>
      </trkpt>
      <trkpt lat="46.59005" lon="6.10207">
        <ele>1109.4</ele>
        <time>2019-08-13T08:35:03Z</time>
      </trkpt>
      <trkpt lat="46.59001" lon="6.10205">
        <ele>1108.9</ele>
        <time>2019-08-13T08:35:10Z</time>
      </trkpt>
      <trkpt lat="46.58997" lon="6.10206">
        <ele>1108.6</ele>
        <time>2019-08-13T08:35:20Z</time>
      </trkpt>
      <trkpt lat="46.58996" lon="6.10213">
        <ele>1108</ele>
        <time>2019-08-13T08:35:40Z</time>
      </trkpt>
      <trkpt lat="46.58992" lon="6.10222">
        <ele>1107.5</ele>
        <time>2019-08-13T08:35:52Z</time>
      </trkpt>
      <trkpt lat="46.5899" lon="6.10228">
        <ele>1106.5</ele>
        <time>2019-08-13T08:36:05Z</time>
      </trkpt>
      <trkpt lat="46.58988" lon="6.10234">
        <ele>1106.2</ele>
        <time>2019-08-13T08:36:09Z</time>
      </trkpt>
      <trkpt lat="46.58985" lon="6.10241">
        <ele>1106.2</ele>
        <time>2019-08-13T08:36:17Z</time>
      </trkpt>
      <trkpt lat="46.58981" lon="6.10246">
        <ele>1106.1</ele>
        <time>2019-08-13T08:36:21Z</time>
      </trkpt>
      <trkpt lat="46.58978" lon="6.10253">
        <ele>1105.9</ele>
        <time>2019-08-13T08:36:25Z</time>
      </trkpt>
      <trkpt lat="46.58977" lon="6.10259">
        <ele>1105.8</ele>
        <time>2019-08-13T08:36:27Z</time>
      </trkpt>
      <trkpt lat="46.58975" lon="6.10265">
        <ele>1105.6</ele>
        <time>2019-08-13T08:36:29Z</time>
      </trkpt>
      <trkpt lat="46.58972" lon="6.10271">
        <ele>1105.6</ele>
        <time>2019-08-13T08:36:33Z</time>
      </trkpt>
      <trkpt lat="46.58969" lon="6.10277">
        <ele>1105.3</ele>
        <time>2019-08-13T08:36:38Z</time>
      </trkpt>
      <trkpt lat="46.58966" lon="6.10283">
        <ele>1104.9</ele>
        <time>2019-08-13T08:36:43Z</time>
      </trkpt>
      <trkpt lat="46.58964" lon="6.1029">
        <ele>1104.4</ele>
        <time>2019-08-13T08:36:48Z</time>
      </trkpt>
      <trkpt lat="46.58962" lon="6.10297">
        <ele>1104</ele>
        <time>2019-08-13T08:36:54Z</time>
      </trkpt>
      <trkpt lat="46.5896" lon="6.10305">
        <ele>1103.6</ele>
        <time>2019-08-13T08:36:59Z</time>
      </trkpt>
      <trkpt lat="46.58956" lon="6.10311">
        <ele>1103.4</ele>
        <time>2019-08-13T08:37:03Z</time>
      </trkpt>
      <trkpt lat="46.58953" lon="6.10316">
        <ele>1103.3</ele>
        <time>2019-08-13T08:37:07Z</time>
      </trkpt>
      <trkpt lat="46.58952" lon="6.10323">
        <ele>1103.1</ele>
        <time>2019-08-13T08:37:12Z</time>
      </trkpt>
      <trkpt lat="46.58952" lon="6.1033">
        <ele>1102.9</ele>
        <time>2019-08-13T08:37:17Z</time>
      </trkpt>
      <trkpt lat="46.58952" lon="6.10337">
        <ele>1103</ele>
        <time>2019-08-13T08:37:23Z</time>
      </trkpt>
      <trkpt lat="46.58949" lon="6.10344">
        <ele>1103.5</ele>
        <time>2019-08-13T08:37:30Z</time>
      </trkpt>
      <trkpt lat="46.58947" lon="6.10353">
        <ele>1103.8</ele>
        <time>2019-08-13T08:37:35Z</time>
      </trkpt>
      <trkpt lat="46.58944" lon="6.10359">
        <ele>1103.8</ele>
        <time>2019-08-13T08:37:39Z</time>
      </trkpt>
      <trkpt lat="46.58938" lon="6.10364">
        <ele>1102.6</ele>
        <time>2019-08-13T08:37:47Z</time>
      </trkpt>
      <trkpt lat="46.58942" lon="6.10368">
        <ele>1100.6</ele>
        <time>2019-08-13T08:38:01Z</time>
      </trkpt>
      <trkpt lat="46.58947" lon="6.10372">
        <ele>1100</ele>
        <time>2019-08-13T08:38:07Z</time>
      </trkpt>
      <trkpt lat="46.5895" lon="6.10377">
        <ele>1098.6</ele>
        <time>2019-08-13T08:38:19Z</time>
      </trkpt>
      <trkpt lat="46.58954" lon="6.10381">
        <ele>1097.8</ele>
        <time>2019-08-13T08:38:25Z</time>
      </trkpt>
      <trkpt lat="46.58959" lon="6.10384">
        <ele>1097</ele>
        <time>2019-08-13T08:38:30Z</time>
      </trkpt>
      <trkpt lat="46.58963" lon="6.10388">
        <ele>1095.9</ele>
        <time>2019-08-13T08:38:36Z</time>
      </trkpt>
      <trkpt lat="46.58965" lon="6.10394">
        <ele>1095</ele>
        <time>2019-08-13T08:38:41Z</time>
      </trkpt>
      <trkpt lat="46.58967" lon="6.10401">
        <ele>1094.7</ele>
        <time>2019-08-13T08:38:45Z</time>
      </trkpt>
      <trkpt lat="46.58967" lon="6.10407">
        <ele>1094.7</ele>
        <time>2019-08-13T08:38:48Z</time>
      </trkpt>
      <trkpt lat="46.58967" lon="6.10415">
        <ele>1094.8</ele>
        <time>2019-08-13T08:38:52Z</time>
      </trkpt>
      <trkpt lat="46.58965" lon="6.10422">
        <ele>1095.4</ele>
        <time>2019-08-13T08:38:59Z</time>
      </trkpt>
      <trkpt lat="46.58961" lon="6.10428">
        <ele>1096.4</ele>
        <time>2019-08-13T08:39:06Z</time>
      </trkpt>
      <trkpt lat="46.58959" lon="6.10433">
        <ele>1097.2</ele>
        <time>2019-08-13T08:39:17Z</time>
      </trkpt>
      <trkpt lat="46.58961" lon="6.1044">
        <ele>1097.4</ele>
        <time>2019-08-13T08:39:23Z</time>
      </trkpt>
      <trkpt lat="46.58964" lon="6.10444">
        <ele>1097.5</ele>
        <time>2019-08-13T08:39:58Z</time>
      </trkpt>
      <trkpt lat="46.58959" lon="6.10446">
        <ele>1097.3</ele>
        <time>2019-08-13T08:40:10Z</time>
      </trkpt>
      <trkpt lat="46.58957" lon="6.10452">
        <ele>1096.9</ele>
        <time>2019-08-13T08:40:17Z</time>
      </trkpt>
      <trkpt lat="46.5896" lon="6.10458">
        <ele>1096.5</ele>
        <time>2019-08-13T08:40:25Z</time>
      </trkpt>
      <trkpt lat="46.58962" lon="6.10452">
        <ele>1096.3</ele>
        <time>2019-08-13T08:40:38Z</time>
      </trkpt>
      <trkpt lat="46.58958" lon="6.10448">
        <ele>1096.2</ele>
        <time>2019-08-13T08:40:43Z</time>
      </trkpt>
      <trkpt lat="46.58954" lon="6.10444">
        <ele>1096.2</ele>
        <time>2019-08-13T08:40:46Z</time>
      </trkpt>
      <trkpt lat="46.58948" lon="6.10442">
        <ele>1096.2</ele>
        <time>2019-08-13T08:40:50Z</time>
      </trkpt>
      <trkpt lat="46.58942" lon="6.10441">
        <ele>1095.9</ele>
        <time>2019-08-13T08:40:56Z</time>
      </trkpt>
      <trkpt lat="46.58938" lon="6.10439">
        <ele>1096</ele>
        <time>2019-08-13T08:41:03Z</time>
      </trkpt>
      <trkpt lat="46.58933" lon="6.10442">
        <ele>1095.9</ele>
        <time>2019-08-13T08:41:15Z</time>
      </trkpt>
      <trkpt lat="46.58932" lon="6.1045">
        <ele>1095.9</ele>
        <time>2019-08-13T08:41:21Z</time>
      </trkpt>
      <trkpt lat="46.58931" lon="6.10457">
        <ele>1096.3</ele>
        <time>2019-08-13T08:41:49Z</time>
      </trkpt>
      <trkpt lat="46.5893" lon="6.10464">
        <ele>1096.6</ele>
        <time>2019-08-13T08:41:56Z</time>
      </trkpt>
      <trkpt lat="46.58933" lon="6.10471">
        <ele>1096.9</ele>
        <time>2019-08-13T08:42:01Z</time>
      </trkpt>
      <trkpt lat="46.58936" lon="6.10477">
        <ele>1097.2</ele>
        <time>2019-08-13T08:42:05Z</time>
      </trkpt>
      <trkpt lat="46.58939" lon="6.10483">
        <ele>1097.3</ele>
        <time>2019-08-13T08:42:11Z</time>
      </trkpt>
      <trkpt lat="46.58942" lon="6.10489">
        <ele>1097.1</ele>
        <time>2019-08-13T08:42:16Z</time>
      </trkpt>
      <trkpt lat="46.58944" lon="6.10495">
        <ele>1096.8</ele>
        <time>2019-08-13T08:42:20Z</time>
      </trkpt>
      <trkpt lat="46.58947" lon="6.10502">
        <ele>1096.4</ele>
        <time>2019-08-13T08:42:25Z</time>
      </trkpt>
      <trkpt lat="46.58948" lon="6.10508">
        <ele>1096.3</ele>
        <time>2019-08-13T08:42:30Z</time>
      </trkpt>
      <trkpt lat="46.58947" lon="6.10515">
        <ele>1096.2</ele>
        <time>2019-08-13T08:42:36Z</time>
      </trkpt>
      <trkpt lat="46.58946" lon="6.10522">
        <ele>1095.8</ele>
        <time>2019-08-13T08:42:40Z</time>
      </trkpt>
      <trkpt lat="46.58945" lon="6.10528">
        <ele>1095.3</ele>
        <time>2019-08-13T08:42:45Z</time>
      </trkpt>
      <trkpt lat="46.58944" lon="6.10535">
        <ele>1094.9</ele>
        <time>2019-08-13T08:42:50Z</time>
      </trkpt>
      <trkpt lat="46.58943" lon="6.10541">
        <ele>1093.9</ele>
        <time>2019-08-13T08:42:57Z</time>
      </trkpt>
      <trkpt lat="46.58941" lon="6.10548">
        <ele>1093</ele>
        <time>2019-08-13T08:43:02Z</time>
      </trkpt>
      <trkpt lat="46.5894" lon="6.10555">
        <ele>1091.7</ele>
        <time>2019-08-13T08:43:09Z</time>
      </trkpt>
      <trkpt lat="46.58938" lon="6.10563">
        <ele>1090.8</ele>
        <time>2019-08-13T08:43:14Z</time>
      </trkpt>
      <trkpt lat="46.58936" lon="6.10569">
        <ele>1090.2</ele>
        <time>2019-08-13T08:43:18Z</time>
      </trkpt>
      <trkpt lat="46.58933" lon="6.10574">
        <ele>1089.3</ele>
        <time>2019-08-13T08:43:24Z</time>
      </trkpt>
      <trkpt lat="46.58929" lon="6.10579">
        <ele>1088.1</ele>
        <time>2019-08-13T08:43:30Z</time>
      </trkpt>
      <trkpt lat="46.58926" lon="6.10583">
        <ele>1087.3</ele>
        <time>2019-08-13T08:43:35Z</time>
      </trkpt>
      <trkpt lat="46.58922" lon="6.10587">
        <ele>1086.3</ele>
        <time>2019-08-13T08:43:41Z</time>
      </trkpt>
      <trkpt lat="46.58918" lon="6.10591">
        <ele>1084.8</ele>
        <time>2019-08-13T08:43:49Z</time>
      </trkpt>
      <trkpt lat="46.58915" lon="6.10596">
        <ele>1084</ele>
        <time>2019-08-13T08:43:53Z</time>
      </trkpt>
      <trkpt lat="46.58912" lon="6.10602">
        <ele>1083.4</ele>
        <time>2019-08-13T08:43:57Z</time>
      </trkpt>
      <trkpt lat="46.58909" lon="6.10607">
        <ele>1082.8</ele>
        <time>2019-08-13T08:44:01Z</time>
      </trkpt>
      <trkpt lat="46.58906" lon="6.10612">
        <ele>1082</ele>
        <time>2019-08-13T08:44:06Z</time>
      </trkpt>
      <trkpt lat="46.58903" lon="6.10619">
        <ele>1081.3</ele>
        <time>2019-08-13T08:44:11Z</time>
      </trkpt>
      <trkpt lat="46.58899" lon="6.10625">
        <ele>1080.7</ele>
        <time>2019-08-13T08:44:16Z</time>
      </trkpt>
      <trkpt lat="46.58897" lon="6.1063">
        <ele>1080.2</ele>
        <time>2019-08-13T08:44:20Z</time>
      </trkpt>
      <trkpt lat="46.58894" lon="6.10637">
        <ele>1079.9</ele>
        <time>2019-08-13T08:44:24Z</time>
      </trkpt>
      <trkpt lat="46.58891" lon="6.10642">
        <ele>1079.7</ele>
        <time>2019-08-13T08:44:27Z</time>
      </trkpt>
      <trkpt lat="46.58888" lon="6.10651">
        <ele>1079.7</ele>
        <time>2019-08-13T08:44:31Z</time>
      </trkpt>
      <trkpt lat="46.58885" lon="6.10657">
        <ele>1079.7</ele>
        <time>2019-08-13T08:44:33Z</time>
      </trkpt>
      <trkpt lat="46.58883" lon="6.10663">
        <ele>1080</ele>
        <time>2019-08-13T08:44:36Z</time>
      </trkpt>
      <trkpt lat="46.58882" lon="6.1067">
        <ele>1080.5</ele>
        <time>2019-08-13T08:44:40Z</time>
      </trkpt>
      <trkpt lat="46.58881" lon="6.10677">
        <ele>1081.5</ele>
        <time>2019-08-13T08:44:46Z</time>
      </trkpt>
      <trkpt lat="46.58878" lon="6.10683">
        <ele>1082.4</ele>
        <time>2019-08-13T08:44:52Z</time>
      </trkpt>
      <trkpt lat="46.58874" lon="6.10688">
        <ele>1083</ele>
        <time>2019-08-13T08:44:57Z</time>
      </trkpt>
      <trkpt lat="46.58871" lon="6.10693">
        <ele>1083.5</ele>
        <time>2019-08-13T08:45:01Z</time>
      </trkpt>
      <trkpt lat="46.58868" lon="6.10699">
        <ele>1084</ele>
        <time>2019-08-13T08:45:06Z</time>
      </trkpt>
      <trkpt lat="46.58866" lon="6.10705">
        <ele>1084.7</ele>
        <time>2019-08-13T08:45:12Z</time>
      </trkpt>
      <trkpt lat="46.58862" lon="6.10709">
        <ele>1085</ele>
        <time>2019-08-13T08:45:18Z</time>
      </trkpt>
      <trkpt lat="46.58857" lon="6.10711">
        <ele>1085.1</ele>
        <time>2019-08-13T08:45:23Z</time>
      </trkpt>
      <trkpt lat="46.58852" lon="6.10711">
        <ele>1085.2</ele>
        <time>2019-08-13T08:45:29Z</time>
      </trkpt>
      <trkpt lat="46.58847" lon="6.10711">
        <ele>1085.4</ele>
        <time>2019-08-13T08:45:35Z</time>
      </trkpt>
      <trkpt lat="46.58841" lon="6.1071">
        <ele>1085.7</ele>
        <time>2019-08-13T08:45:40Z</time>
      </trkpt>
      <trkpt lat="46.58836" lon="6.10709">
        <ele>1085.9</ele>
        <time>2019-08-13T08:45:44Z</time>
      </trkpt>
      <trkpt lat="46.58831" lon="6.10709">
        <ele>1086.3</ele>
        <time>2019-08-13T08:45:53Z</time>
      </trkpt>
      <trkpt lat="46.58827" lon="6.10711">
        <ele>1086.4</ele>
        <time>2019-08-13T08:46:00Z</time>
      </trkpt>
      <trkpt lat="46.58821" lon="6.10715">
        <ele>1086.3</ele>
        <time>2019-08-13T08:46:05Z</time>
      </trkpt>
      <trkpt lat="46.58817" lon="6.10718">
        <ele>1086.2</ele>
        <time>2019-08-13T08:46:08Z</time>
      </trkpt>
      <trkpt lat="46.58813" lon="6.10721">
        <ele>1086</ele>
        <time>2019-08-13T08:46:12Z</time>
      </trkpt>
      <trkpt lat="46.58809" lon="6.10727">
        <ele>1085.7</ele>
        <time>2019-08-13T08:46:18Z</time>
      </trkpt>
      <trkpt lat="46.58806" lon="6.10732">
        <ele>1085.5</ele>
        <time>2019-08-13T08:46:24Z</time>
      </trkpt>
      <trkpt lat="46.58803" lon="6.10737">
        <ele>1085.2</ele>
        <time>2019-08-13T08:46:30Z</time>
      </trkpt>
      <trkpt lat="46.58801" lon="6.10744">
        <ele>1084.9</ele>
        <time>2019-08-13T08:46:35Z</time>
      </trkpt>
      <trkpt lat="46.588" lon="6.10751">
        <ele>1084.7</ele>
        <time>2019-08-13T08:46:39Z</time>
      </trkpt>
      <trkpt lat="46.58798" lon="6.10757">
        <ele>1084.5</ele>
        <time>2019-08-13T08:46:42Z</time>
      </trkpt>
      <trkpt lat="46.58796" lon="6.10764">
        <ele>1084.5</ele>
        <time>2019-08-13T08:46:45Z</time>
      </trkpt>
      <trkpt lat="46.58794" lon="6.10773">
        <ele>1084.6</ele>
        <time>2019-08-13T08:46:48Z</time>
      </trkpt>
      <trkpt lat="46.58791" lon="6.10781">
        <ele>1085</ele>
        <time>2019-08-13T08:46:51Z</time>
      </trkpt>
      <trkpt lat="46.5879" lon="6.10788">
        <ele>1085.4</ele>
        <time>2019-08-13T08:46:54Z</time>
      </trkpt>
      <trkpt lat="46.58789" lon="6.10795">
        <ele>1085.8</ele>
        <time>2019-08-13T08:46:57Z</time>
      </trkpt>
      <trkpt lat="46.58788" lon="6.10802">
        <ele>1086.5</ele>
        <time>2019-08-13T08:47:01Z</time>
      </trkpt>
      <trkpt lat="46.58786" lon="6.10809">
        <ele>1087.1</ele>
        <time>2019-08-13T08:47:06Z</time>
      </trkpt>
      <trkpt lat="46.58786" lon="6.10817">
        <ele>1087.7</ele>
        <time>2019-08-13T08:47:11Z</time>
      </trkpt>
      <trkpt lat="46.58785" lon="6.10825">
        <ele>1088.5</ele>
        <time>2019-08-13T08:47:16Z</time>
      </trkpt>
      <trkpt lat="46.58784" lon="6.10832">
        <ele>1089.4</ele>
        <time>2019-08-13T08:47:21Z</time>
      </trkpt>
      <trkpt lat="46.58784" lon="6.1084">
        <ele>1090.2</ele>
        <time>2019-08-13T08:47:26Z</time>
      </trkpt>
      <trkpt lat="46.58783" lon="6.10848">
        <ele>1090.8</ele>
        <time>2019-08-13T08:47:31Z</time>
      </trkpt>
      <trkpt lat="46.58781" lon="6.10855">
        <ele>1091.3</ele>
        <time>2019-08-13T08:47:36Z</time>
      </trkpt>
      <trkpt lat="46.58781" lon="6.10863">
        <ele>1091.8</ele>
        <time>2019-08-13T08:47:42Z</time>
      </trkpt>
      <trkpt lat="46.5878" lon="6.1087">
        <ele>1092.1</ele>
        <time>2019-08-13T08:47:47Z</time>
      </trkpt>
      <trkpt lat="46.58779" lon="6.10877">
        <ele>1092.3</ele>
        <time>2019-08-13T08:47:53Z</time>
      </trkpt>
      <trkpt lat="46.58778" lon="6.10885">
        <ele>1092.5</ele>
        <time>2019-08-13T08:47:58Z</time>
      </trkpt>
      <trkpt lat="46.58777" lon="6.10892">
        <ele>1092.9</ele>
        <time>2019-08-13T08:48:03Z</time>
      </trkpt>
      <trkpt lat="46.58776" lon="6.10898">
        <ele>1093.5</ele>
        <time>2019-08-13T08:48:08Z</time>
      </trkpt>
      <trkpt lat="46.58775" lon="6.10905">
        <ele>1093.9</ele>
        <time>2019-08-13T08:48:12Z</time>
      </trkpt>
      <trkpt lat="46.58775" lon="6.10912">
        <ele>1094.3</ele>
        <time>2019-08-13T08:48:16Z</time>
      </trkpt>
      <trkpt lat="46.58774" lon="6.10919">
        <ele>1094.8</ele>
        <time>2019-08-13T08:48:21Z</time>
      </trkpt>
      <trkpt lat="46.58773" lon="6.10926">
        <ele>1095.1</ele>
        <time>2019-08-13T08:48:25Z</time>
      </trkpt>
      <trkpt lat="46.58771" lon="6.10933">
        <ele>1095.4</ele>
        <time>2019-08-13T08:48:30Z</time>
      </trkpt>
      <trkpt lat="46.58769" lon="6.1094">
        <ele>1095.7</ele>
        <time>2019-08-13T08:48:35Z</time>
      </trkpt>
      <trkpt lat="46.58768" lon="6.10946">
        <ele>1095.9</ele>
        <time>2019-08-13T08:48:40Z</time>
      </trkpt>
      <trkpt lat="46.58766" lon="6.10954">
        <ele>1096.2</ele>
        <time>2019-08-13T08:48:45Z</time>
      </trkpt>
      <trkpt lat="46.58765" lon="6.1096">
        <ele>1096.4</ele>
        <time>2019-08-13T08:48:50Z</time>
      </trkpt>
      <trkpt lat="46.58763" lon="6.10966">
        <ele>1096.5</ele>
        <time>2019-08-13T08:48:55Z</time>
      </trkpt>
      <trkpt lat="46.58761" lon="6.10973">
        <ele>1096.4</ele>
        <time>2019-08-13T08:49:00Z</time>
      </trkpt>
      <trkpt lat="46.58759" lon="6.1098">
        <ele>1096.3</ele>
        <time>2019-08-13T08:49:06Z</time>
      </trkpt>
      <trkpt lat="46.58756" lon="6.10986">
        <ele>1096.3</ele>
        <time>2019-08-13T08:49:10Z</time>
      </trkpt>
      <trkpt lat="46.58754" lon="6.10993">
        <ele>1096.5</ele>
        <time>2019-08-13T08:49:14Z</time>
      </trkpt>
      <trkpt lat="46.58751" lon="6.11">
        <ele>1096.7</ele>
        <time>2019-08-13T08:49:19Z</time>
      </trkpt>
      <trkpt lat="46.58748" lon="6.11006">
        <ele>1097</ele>
        <time>2019-08-13T08:49:25Z</time>
      </trkpt>
      <trkpt lat="46.58747" lon="6.11013">
        <ele>1097.1</ele>
        <time>2019-08-13T08:49:29Z</time>
      </trkpt>
      <trkpt lat="46.58747" lon="6.11019">
        <ele>1097.3</ele>
        <time>2019-08-13T08:49:33Z</time>
      </trkpt>
      <trkpt lat="46.58746" lon="6.11027">
        <ele>1097.5</ele>
        <time>2019-08-13T08:49:39Z</time>
      </trkpt>
      <trkpt lat="46.58746" lon="6.11034">
        <ele>1097.6</ele>
        <time>2019-08-13T08:49:44Z</time>
      </trkpt>
      <trkpt lat="46.58746" lon="6.11042">
        <ele>1097.5</ele>
        <time>2019-08-13T08:49:50Z</time>
      </trkpt>
      <trkpt lat="46.58744" lon="6.11048">
        <ele>1097.4</ele>
        <time>2019-08-13T08:49:53Z</time>
      </trkpt>
      <trkpt lat="46.58743" lon="6.11055">
        <ele>1097.4</ele>
        <time>2019-08-13T08:49:57Z</time>
      </trkpt>
      <trkpt lat="46.58742" lon="6.11062">
        <ele>1097.2</ele>
        <time>2019-08-13T08:50:02Z</time>
      </trkpt>
      <trkpt lat="46.5874" lon="6.11069">
        <ele>1097</ele>
        <time>2019-08-13T08:50:06Z</time>
      </trkpt>
      <trkpt lat="46.58737" lon="6.11076">
        <ele>1096.8</ele>
        <time>2019-08-13T08:50:10Z</time>
      </trkpt>
      <trkpt lat="46.58734" lon="6.11081">
        <ele>1096.7</ele>
        <time>2019-08-13T08:50:14Z</time>
      </trkpt>
      <trkpt lat="46.58731" lon="6.11087">
        <ele>1096.7</ele>
        <time>2019-08-13T08:50:19Z</time>
      </trkpt>
      <trkpt lat="46.5873" lon="6.11093">
        <ele>1096.8</ele>
        <time>2019-08-13T08:50:25Z</time>
      </trkpt>
      <trkpt lat="46.58728" lon="6.111">
        <ele>1096.6</ele>
        <time>2019-08-13T08:50:31Z</time>
      </trkpt>
      <trkpt lat="46.58726" lon="6.11108">
        <ele>1096</ele>
        <time>2019-08-13T08:50:37Z</time>
      </trkpt>
      <trkpt lat="46.58724" lon="6.11115">
        <ele>1095.5</ele>
        <time>2019-08-13T08:50:42Z</time>
      </trkpt>
      <trkpt lat="46.58722" lon="6.11122">
        <ele>1095.2</ele>
        <time>2019-08-13T08:50:46Z</time>
      </trkpt>
      <trkpt lat="46.58721" lon="6.11128">
        <ele>1094.9</ele>
        <time>2019-08-13T08:50:50Z</time>
      </trkpt>
      <trkpt lat="46.5872" lon="6.11135">
        <ele>1094.5</ele>
        <time>2019-08-13T08:50:54Z</time>
      </trkpt>
      <trkpt lat="46.5872" lon="6.11142">
        <ele>1094.2</ele>
        <time>2019-08-13T08:50:58Z</time>
      </trkpt>
      <trkpt lat="46.58721" lon="6.11149">
        <ele>1093.9</ele>
        <time>2019-08-13T08:51:02Z</time>
      </trkpt>
      <trkpt lat="46.58721" lon="6.11157">
        <ele>1093.4</ele>
        <time>2019-08-13T08:51:08Z</time>
      </trkpt>
      <trkpt lat="46.58723" lon="6.11165">
        <ele>1092.8</ele>
        <time>2019-08-13T08:51:13Z</time>
      </trkpt>
      <trkpt lat="46.58725" lon="6.11172">
        <ele>1092.4</ele>
        <time>2019-08-13T08:51:18Z</time>
      </trkpt>
      <trkpt lat="46.58727" lon="6.11179">
        <ele>1092.1</ele>
        <time>2019-08-13T08:51:22Z</time>
      </trkpt>
      <trkpt lat="46.5873" lon="6.11184">
        <ele>1092.1</ele>
        <time>2019-08-13T08:51:27Z</time>
      </trkpt>
      <trkpt lat="46.58732" lon="6.11189">
        <ele>1092</ele>
        <time>2019-08-13T08:51:32Z</time>
      </trkpt>
      <trkpt lat="46.58736" lon="6.11195">
        <ele>1092.1</ele>
        <time>2019-08-13T08:51:37Z</time>
      </trkpt>
      <trkpt lat="46.58739" lon="6.11201">
        <ele>1092.2</ele>
        <time>2019-08-13T08:51:43Z</time>
      </trkpt>
      <trkpt lat="46.58742" lon="6.11206">
        <ele>1092.5</ele>
        <time>2019-08-13T08:51:47Z</time>
      </trkpt>
      <trkpt lat="46.58746" lon="6.11211">
        <ele>1092.7</ele>
        <time>2019-08-13T08:51:52Z</time>
      </trkpt>
      <trkpt lat="46.5875" lon="6.11215">
        <ele>1092.9</ele>
        <time>2019-08-13T08:51:57Z</time>
      </trkpt>
      <trkpt lat="46.58753" lon="6.11221">
        <ele>1092.9</ele>
        <time>2019-08-13T08:52:02Z</time>
      </trkpt>
      <trkpt lat="46.58755" lon="6.11227">
        <ele>1092.9</ele>
        <time>2019-08-13T08:52:07Z</time>
      </trkpt>
      <trkpt lat="46.58758" lon="6.11233">
        <ele>1092.8</ele>
        <time>2019-08-13T08:52:12Z</time>
      </trkpt>
      <trkpt lat="46.58763" lon="6.11238">
        <ele>1092.5</ele>
        <time>2019-08-13T08:52:18Z</time>
      </trkpt>
      <trkpt lat="46.58768" lon="6.11243">
        <ele>1092.5</ele>
        <time>2019-08-13T08:52:23Z</time>
      </trkpt>
      <trkpt lat="46.58771" lon="6.11248">
        <ele>1092.3</ele>
        <time>2019-08-13T08:52:28Z</time>
      </trkpt>
      <trkpt lat="46.58774" lon="6.11253">
        <ele>1092.3</ele>
        <time>2019-08-13T08:52:33Z</time>
      </trkpt>
      <trkpt lat="46.58777" lon="6.11259">
        <ele>1092.2</ele>
        <time>2019-08-13T08:52:38Z</time>
      </trkpt>
      <trkpt lat="46.5878" lon="6.11264">
        <ele>1092.2</ele>
        <time>2019-08-13T08:52:42Z</time>
      </trkpt>
      <trkpt lat="46.58783" lon="6.1127">
        <ele>1092</ele>
        <time>2019-08-13T08:52:47Z</time>
      </trkpt>
      <trkpt lat="46.58785" lon="6.11276">
        <ele>1092.1</ele>
        <time>2019-08-13T08:52:51Z</time>
      </trkpt>
      <trkpt lat="46.58789" lon="6.11284">
        <ele>1092.4</ele>
        <time>2019-08-13T08:53:05Z</time>
      </trkpt>
      <trkpt lat="46.58792" lon="6.11289">
        <ele>1092.5</ele>
        <time>2019-08-13T08:53:12Z</time>
      </trkpt>
      <trkpt lat="46.58795" lon="6.11295">
        <ele>1092.6</ele>
        <time>2019-08-13T08:53:18Z</time>
      </trkpt>
      <trkpt lat="46.588" lon="6.113">
        <ele>1092.6</ele>
        <time>2019-08-13T08:53:22Z</time>
      </trkpt>
      <trkpt lat="46.58804" lon="6.11304">
        <ele>1092.4</ele>
        <time>2019-08-13T08:53:26Z</time>
      </trkpt>
      <trkpt lat="46.58807" lon="6.1131">
        <ele>1092.1</ele>
        <time>2019-08-13T08:53:32Z</time>
      </trkpt>
      <trkpt lat="46.5881" lon="6.11316">
        <ele>1092</ele>
        <time>2019-08-13T08:53:38Z</time>
      </trkpt>
      <trkpt lat="46.58814" lon="6.11321">
        <ele>1092.1</ele>
        <time>2019-08-13T08:53:44Z</time>
      </trkpt>
      <trkpt lat="46.58818" lon="6.11326">
        <ele>1092.2</ele>
        <time>2019-08-13T08:53:51Z</time>
      </trkpt>
      <trkpt lat="46.58822" lon="6.1133">
        <ele>1092.1</ele>
        <time>2019-08-13T08:53:55Z</time>
      </trkpt>
      <trkpt lat="46.58825" lon="6.11335">
        <ele>1092.1</ele>
        <time>2019-08-13T08:53:59Z</time>
      </trkpt>
      <trkpt lat="46.5883" lon="6.1134">
        <ele>1091.9</ele>
        <time>2019-08-13T08:54:04Z</time>
      </trkpt>
      <trkpt lat="46.58834" lon="6.11343">
        <ele>1091.7</ele>
        <time>2019-08-13T08:54:08Z</time>
      </trkpt>
      <trkpt lat="46.58839" lon="6.11346">
        <ele>1091.6</ele>
        <time>2019-08-13T08:54:12Z</time>
      </trkpt>
      <trkpt lat="46.58843" lon="6.1135">
        <ele>1091.7</ele>
        <time>2019-08-13T08:54:18Z</time>
      </trkpt>
      <trkpt lat="46.58847" lon="6.11354">
        <ele>1091.8</ele>
        <time>2019-08-13T08:54:23Z</time>
      </trkpt>
      <trkpt lat="46.58852" lon="6.11358">
        <ele>1091.7</ele>
        <time>2019-08-13T08:54:28Z</time>
      </trkpt>
      <trkpt lat="46.58857" lon="6.11361">
        <ele>1091.4</ele>
        <time>2019-08-13T08:54:33Z</time>
      </trkpt>
      <trkpt lat="46.58862" lon="6.11363">
        <ele>1091.2</ele>
        <time>2019-08-13T08:54:37Z</time>
      </trkpt>
      <trkpt lat="46.58867" lon="6.11366">
        <ele>1090.9</ele>
        <time>2019-08-13T08:54:42Z</time>
      </trkpt>
      <trkpt lat="46.58871" lon="6.11371">
        <ele>1090.5</ele>
        <time>2019-08-13T08:54:47Z</time>
      </trkpt>
      <trkpt lat="46.58874" lon="6.11376">
        <ele>1089.7</ele>
        <time>2019-08-13T08:54:53Z</time>
      </trkpt>
      <trkpt lat="46.58877" lon="6.11381">
        <ele>1089.1</ele>
        <time>2019-08-13T08:54:58Z</time>
      </trkpt>
      <trkpt lat="46.58882" lon="6.11383">
        <ele>1089</ele>
        <time>2019-08-13T08:55:02Z</time>
      </trkpt>
      <trkpt lat="46.58887" lon="6.11387">
        <ele>1088.8</ele>
        <time>2019-08-13T08:55:06Z</time>
      </trkpt>
      <trkpt lat="46.58891" lon="6.11389">
        <ele>1088.7</ele>
        <time>2019-08-13T08:55:11Z</time>
      </trkpt>
      <trkpt lat="46.58896" lon="6.11392">
        <ele>1088.7</ele>
        <time>2019-08-13T08:55:16Z</time>
      </trkpt>
      <trkpt lat="46.58902" lon="6.11395">
        <ele>1088.6</ele>
        <time>2019-08-13T08:55:20Z</time>
      </trkpt>
      <trkpt lat="46.58907" lon="6.11397">
        <ele>1088.5</ele>
        <time>2019-08-13T08:55:23Z</time>
      </trkpt>
      <trkpt lat="46.58912" lon="6.11398">
        <ele>1088.5</ele>
        <time>2019-08-13T08:55:27Z</time>
      </trkpt>
      <trkpt lat="46.58917" lon="6.114">
        <ele>1088.6</ele>
        <time>2019-08-13T08:55:32Z</time>
      </trkpt>
      <trkpt lat="46.58922" lon="6.11402">
        <ele>1088.9</ele>
        <time>2019-08-13T08:55:37Z</time>
      </trkpt>
      <trkpt lat="46.58926" lon="6.11405">
        <ele>1089.2</ele>
        <time>2019-08-13T08:55:42Z</time>
      </trkpt>
      <trkpt lat="46.58931" lon="6.11407">
        <ele>1089.4</ele>
        <time>2019-08-13T08:55:48Z</time>
      </trkpt>
      <trkpt lat="46.58935" lon="6.11408">
        <ele>1089.3</ele>
        <time>2019-08-13T08:55:52Z</time>
      </trkpt>
      <trkpt lat="46.5894" lon="6.1141">
        <ele>1089.2</ele>
        <time>2019-08-13T08:55:57Z</time>
      </trkpt>
      <trkpt lat="46.58945" lon="6.11413">
        <ele>1089</ele>
        <time>2019-08-13T08:56:02Z</time>
      </trkpt>
      <trkpt lat="46.58948" lon="6.11419">
        <ele>1088.7</ele>
        <time>2019-08-13T08:56:09Z</time>
      </trkpt>
      <trkpt lat="46.58951" lon="6.11424">
        <ele>1088.7</ele>
        <time>2019-08-13T08:56:13Z</time>
      </trkpt>
      <trkpt lat="46.58956" lon="6.11429">
        <ele>1088.7</ele>
        <time>2019-08-13T08:56:18Z</time>
      </trkpt>
      <trkpt lat="46.5896" lon="6.11433">
        <ele>1088.9</ele>
        <time>2019-08-13T08:56:22Z</time>
      </trkpt>
      <trkpt lat="46.58964" lon="6.11436">
        <ele>1089.1</ele>
        <time>2019-08-13T08:56:25Z</time>
      </trkpt>
      <trkpt lat="46.58969" lon="6.1144">
        <ele>1089.4</ele>
        <time>2019-08-13T08:56:30Z</time>
      </trkpt>
      <trkpt lat="46.58973" lon="6.11445">
        <ele>1089.5</ele>
        <time>2019-08-13T08:56:35Z</time>
      </trkpt>
      <trkpt lat="46.58977" lon="6.11449">
        <ele>1089.9</ele>
        <time>2019-08-13T08:56:45Z</time>
      </trkpt>
      <trkpt lat="46.58982" lon="6.11452">
        <ele>1090.1</ele>
        <time>2019-08-13T08:56:57Z</time>
      </trkpt>
      <trkpt lat="46.58986" lon="6.11455">
        <ele>1089.7</ele>
        <time>2019-08-13T08:57:02Z</time>
      </trkpt>
      <trkpt lat="46.58989" lon="6.1146">
        <ele>1089.4</ele>
        <time>2019-08-13T08:57:08Z</time>
      </trkpt>
      <trkpt lat="46.58993" lon="6.11466">
        <ele>1089.3</ele>
        <time>2019-08-13T08:57:14Z</time>
      </trkpt>
      <trkpt lat="46.58997" lon="6.11469">
        <ele>1089.1</ele>
        <time>2019-08-13T08:57:18Z</time>
      </trkpt>
      <trkpt lat="46.59004" lon="6.11476">
        <ele>1089</ele>
        <time>2019-08-13T08:57:43Z</time>
      </trkpt>
      <trkpt lat="46.59008" lon="6.11479">
        <ele>1089.1</ele>
        <time>2019-08-13T08:57:49Z</time>
      </trkpt>
      <trkpt lat="46.59013" lon="6.11483">
        <ele>1088.9</ele>
        <time>2019-08-13T08:57:54Z</time>
      </trkpt>
      <trkpt lat="46.59017" lon="6.11487">
        <ele>1088.9</ele>
        <time>2019-08-13T08:57:59Z</time>
      </trkpt>
      <trkpt lat="46.59021" lon="6.11489">
        <ele>1088.9</ele>
        <time>2019-08-13T08:58:03Z</time>
      </trkpt>
      <trkpt lat="46.59025" lon="6.11494">
        <ele>1088.7</ele>
        <time>2019-08-13T08:58:08Z</time>
      </trkpt>
      <trkpt lat="46.5903" lon="6.11497">
        <ele>1088.2</ele>
        <time>2019-08-13T08:58:14Z</time>
      </trkpt>
      <trkpt lat="46.59034" lon="6.115">
        <ele>1087.4</ele>
        <time>2019-08-13T08:58:20Z</time>
      </trkpt>
      <trkpt lat="46.59039" lon="6.11503">
        <ele>1086.6</ele>
        <time>2019-08-13T08:58:26Z</time>
      </trkpt>
      <trkpt lat="46.59043" lon="6.11506">
        <ele>1086.1</ele>
        <time>2019-08-13T08:58:31Z</time>
      </trkpt>
      <trkpt lat="46.59047" lon="6.11509">
        <ele>1085.9</ele>
        <time>2019-08-13T08:58:35Z</time>
      </trkpt>
      <trkpt lat="46.59051" lon="6.11513">
        <ele>1085.7</ele>
        <time>2019-08-13T08:58:39Z</time>
      </trkpt>
      <trkpt lat="46.59055" lon="6.11517">
        <ele>1085.7</ele>
        <time>2019-08-13T08:58:44Z</time>
      </trkpt>
      <trkpt lat="46.59059" lon="6.11522">
        <ele>1085.6</ele>
        <time>2019-08-13T08:58:48Z</time>
      </trkpt>
      <trkpt lat="46.59062" lon="6.11527">
        <ele>1085.3</ele>
        <time>2019-08-13T08:58:53Z</time>
      </trkpt>
      <trkpt lat="46.59066" lon="6.11532">
        <ele>1084.9</ele>
        <time>2019-08-13T08:58:58Z</time>
      </trkpt>
      <trkpt lat="46.5907" lon="6.11537">
        <ele>1084.9</ele>
        <time>2019-08-13T08:59:02Z</time>
      </trkpt>
      <trkpt lat="46.59073" lon="6.11542">
        <ele>1084.9</ele>
        <time>2019-08-13T08:59:07Z</time>
      </trkpt>
      <trkpt lat="46.59076" lon="6.11548">
        <ele>1085</ele>
        <time>2019-08-13T08:59:12Z</time>
      </trkpt>
      <trkpt lat="46.59079" lon="6.11553">
        <ele>1085.3</ele>
        <time>2019-08-13T08:59:19Z</time>
      </trkpt>
      <trkpt lat="46.59083" lon="6.11558">
        <ele>1085.7</ele>
        <time>2019-08-13T08:59:26Z</time>
      </trkpt>
      <trkpt lat="46.59087" lon="6.11562">
        <ele>1085.8</ele>
        <time>2019-08-13T08:59:31Z</time>
      </trkpt>
      <trkpt lat="46.59091" lon="6.11567">
        <ele>1085.9</ele>
        <time>2019-08-13T08:59:36Z</time>
      </trkpt>
      <trkpt lat="46.59093" lon="6.11572">
        <ele>1086.2</ele>
        <time>2019-08-13T08:59:41Z</time>
      </trkpt>
      <trkpt lat="46.59097" lon="6.11578">
        <ele>1086.4</ele>
        <time>2019-08-13T08:59:47Z</time>
      </trkpt>
      <trkpt lat="46.59101" lon="6.11582">
        <ele>1086.6</ele>
        <time>2019-08-13T08:59:51Z</time>
      </trkpt>
      <trkpt lat="46.59105" lon="6.11588">
        <ele>1086.7</ele>
        <time>2019-08-13T08:59:55Z</time>
      </trkpt>
      <trkpt lat="46.59109" lon="6.11592">
        <ele>1086.9</ele>
        <time>2019-08-13T09:00:00Z</time>
      </trkpt>
      <trkpt lat="46.59112" lon="6.11597">
        <ele>1087.1</ele>
        <time>2019-08-13T09:00:05Z</time>
      </trkpt>
      <trkpt lat="46.59115" lon="6.11602">
        <ele>1087.4</ele>
        <time>2019-08-13T09:00:09Z</time>
      </trkpt>
      <trkpt lat="46.59118" lon="6.11608">
        <ele>1087.7</ele>
        <time>2019-08-13T09:00:14Z</time>
      </trkpt>
      <trkpt lat="46.5912" lon="6.11615">
        <ele>1087.9</ele>
        <time>2019-08-13T09:00:20Z</time>
      </trkpt>
      <trkpt lat="46.59124" lon="6.1162">
        <ele>1088.3</ele>
        <time>2019-08-13T09:00:25Z</time>
      </trkpt>
      <trkpt lat="46.59127" lon="6.11626">
        <ele>1088.7</ele>
        <time>2019-08-13T09:00:29Z</time>
      </trkpt>
      <trkpt lat="46.5913" lon="6.11633">
        <ele>1089.1</ele>
        <time>2019-08-13T09:00:34Z</time>
      </trkpt>
      <trkpt lat="46.59133" lon="6.11639">
        <ele>1089.5</ele>
        <time>2019-08-13T09:00:38Z</time>
      </trkpt>
      <trkpt lat="46.59136" lon="6.11645">
        <ele>1089.9</ele>
        <time>2019-08-13T09:00:42Z</time>
      </trkpt>
      <trkpt lat="46.5914" lon="6.1165">
        <ele>1090.3</ele>
        <time>2019-08-13T09:00:47Z</time>
      </trkpt>
      <trkpt lat="46.59143" lon="6.11656">
        <ele>1090.6</ele>
        <time>2019-08-13T09:00:52Z</time>
      </trkpt>
      <trkpt lat="46.59145" lon="6.11663">
        <ele>1090.8</ele>
        <time>2019-08-13T09:00:57Z</time>
      </trkpt>
      <trkpt lat="46.59146" lon="6.1167">
        <ele>1091</ele>
        <time>2019-08-13T09:01:02Z</time>
      </trkpt>
      <trkpt lat="46.59147" lon="6.11677">
        <ele>1091.4</ele>
        <time>2019-08-13T09:01:07Z</time>
      </trkpt>
      <trkpt lat="46.5915" lon="6.11682">
        <ele>1092.8</ele>
        <time>2019-08-13T09:01:16Z</time>
      </trkpt>
      <trkpt lat="46.59153" lon="6.11688">
        <ele>1093.9</ele>
        <time>2019-08-13T09:01:23Z</time>
      </trkpt>
      <trkpt lat="46.59155" lon="6.11694">
        <ele>1094.7</ele>
        <time>2019-08-13T09:01:29Z</time>
      </trkpt>
      <trkpt lat="46.59157" lon="6.11701">
        <ele>1095.1</ele>
        <time>2019-08-13T09:01:35Z</time>
      </trkpt>
      <trkpt lat="46.59159" lon="6.11707">
        <ele>1095.4</ele>
        <time>2019-08-13T09:01:41Z</time>
      </trkpt>
      <trkpt lat="46.59161" lon="6.11714">
        <ele>1095.6</ele>
        <time>2019-08-13T09:01:47Z</time>
      </trkpt>
      <trkpt lat="46.59164" lon="6.1172">
        <ele>1095.6</ele>
        <time>2019-08-13T09:01:51Z</time>
      </trkpt>
      <trkpt lat="46.59166" lon="6.11727">
        <ele>1095.8</ele>
        <time>2019-08-13T09:01:56Z</time>
      </trkpt>
      <trkpt lat="46.59168" lon="6.11734">
        <ele>1095.8</ele>
        <time>2019-08-13T09:02:00Z</time>
      </trkpt>
      <trkpt lat="46.5917" lon="6.11741">
        <ele>1095.9</ele>
        <time>2019-08-13T09:02:04Z</time>
      </trkpt>
      <trkpt lat="46.59172" lon="6.11747">
        <ele>1095.9</ele>
        <time>2019-08-13T09:02:09Z</time>
      </trkpt>
      <trkpt lat="46.59176" lon="6.11752">
        <ele>1095.9</ele>
        <time>2019-08-13T09:02:15Z</time>
      </trkpt>
      <trkpt lat="46.59178" lon="6.11758">
        <ele>1095.9</ele>
        <time>2019-08-13T09:02:20Z</time>
      </trkpt>
      <trkpt lat="46.59181" lon="6.11764">
        <ele>1095.9</ele>
        <time>2019-08-13T09:02:26Z</time>
      </trkpt>
      <trkpt lat="46.59184" lon="6.11769">
        <ele>1095.7</ele>
        <time>2019-08-13T09:02:33Z</time>
      </trkpt>
      <trkpt lat="46.59188" lon="6.11774">
        <ele>1095.7</ele>
        <time>2019-08-13T09:02:39Z</time>
      </trkpt>
      <trkpt lat="46.59193" lon="6.11778">
        <ele>1095.6</ele>
        <time>2019-08-13T09:02:43Z</time>
      </trkpt>
      <trkpt lat="46.59197" lon="6.11783">
        <ele>1095.6</ele>
        <time>2019-08-13T09:02:48Z</time>
      </trkpt>
      <trkpt lat="46.59201" lon="6.11787">
        <ele>1095.5</ele>
        <time>2019-08-13T09:02:54Z</time>
      </trkpt>
      <trkpt lat="46.59205" lon="6.11793">
        <ele>1095.3</ele>
        <time>2019-08-13T09:03:00Z</time>
      </trkpt>
      <trkpt lat="46.59207" lon="6.11799">
        <ele>1095.1</ele>
        <time>2019-08-13T09:03:05Z</time>
      </trkpt>
      <trkpt lat="46.59212" lon="6.11803">
        <ele>1094.6</ele>
        <time>2019-08-13T09:03:13Z</time>
      </trkpt>
      <trkpt lat="46.59215" lon="6.11808">
        <ele>1094.6</ele>
        <time>2019-08-13T09:03:18Z</time>
      </trkpt>
      <trkpt lat="46.59213" lon="6.11815">
        <ele>1096.4</ele>
        <time>2019-08-13T09:03:43Z</time>
      </trkpt>
      <trkpt lat="46.5921" lon="6.1182">
        <ele>1097.1</ele>
        <time>2019-08-13T09:03:51Z</time>
      </trkpt>
      <trkpt lat="46.59206" lon="6.11824">
        <ele>1097.7</ele>
        <time>2019-08-13T09:04:00Z</time>
      </trkpt>
      <trkpt lat="46.59203" lon="6.11831">
        <ele>1097.9</ele>
        <time>2019-08-13T09:04:05Z</time>
      </trkpt>
      <trkpt lat="46.59201" lon="6.11837">
        <ele>1098.1</ele>
        <time>2019-08-13T09:04:10Z</time>
      </trkpt>
      <trkpt lat="46.592" lon="6.11845">
        <ele>1098.1</ele>
        <time>2019-08-13T09:04:14Z</time>
      </trkpt>
      <trkpt lat="46.59199" lon="6.11851">
        <ele>1098.2</ele>
        <time>2019-08-13T09:04:20Z</time>
      </trkpt>
      <trkpt lat="46.59196" lon="6.11859">
        <ele>1098.4</ele>
        <time>2019-08-13T09:04:30Z</time>
      </trkpt>
      <trkpt lat="46.59193" lon="6.11866">
        <ele>1098.6</ele>
        <time>2019-08-13T09:04:33Z</time>
      </trkpt>
      <trkpt lat="46.5919" lon="6.11871">
        <ele>1099.2</ele>
        <time>2019-08-13T09:04:40Z</time>
      </trkpt>
      <trkpt lat="46.59183" lon="6.11878">
        <ele>1101</ele>
        <time>2019-08-13T09:04:50Z</time>
      </trkpt>
      <trkpt lat="46.5918" lon="6.11885">
        <ele>1101.9</ele>
        <time>2019-08-13T09:04:55Z</time>
      </trkpt>
      <trkpt lat="46.59173" lon="6.11903">
        <ele>1106.6</ele>
        <time>2019-08-13T09:05:20Z</time>
      </trkpt>
      <trkpt lat="46.59168" lon="6.11913">
        <ele>1108.7</ele>
        <time>2019-08-13T09:05:31Z</time>
      </trkpt>
      <trkpt lat="46.59165" lon="6.11918">
        <ele>1110.1</ele>
        <time>2019-08-13T09:05:38Z</time>
      </trkpt>
      <trkpt lat="46.59149" lon="6.11936">
        <ele>1116.1</ele>
        <time>2019-08-13T09:06:15Z</time>
      </trkpt>
      <trkpt lat="46.59145" lon="6.11938">
        <ele>1116.6</ele>
        <time>2019-08-13T09:06:22Z</time>
      </trkpt>
      <trkpt lat="46.59139" lon="6.11949">
        <ele>1117.4</ele>
        <time>2019-08-13T09:06:39Z</time>
      </trkpt>
      <trkpt lat="46.59135" lon="6.11954">
        <ele>1118.8</ele>
        <time>2019-08-13T09:06:48Z</time>
      </trkpt>
      <trkpt lat="46.5913" lon="6.1196">
        <ele>1119.3</ele>
        <time>2019-08-13T09:06:50Z</time>
      </trkpt>
      <trkpt lat="46.59123" lon="6.11958">
        <ele>1120.8</ele>
        <time>2019-08-13T09:08:36Z</time>
      </trkpt>
      <trkpt lat="46.59123" lon="6.11951">
        <ele>1120.9</ele>
        <time>2019-08-13T09:10:10Z</time>
      </trkpt>
      <trkpt lat="46.59118" lon="6.11949">
        <ele>1120.8</ele>
        <time>2019-08-13T09:10:14Z</time>
      </trkpt>
      <trkpt lat="46.59113" lon="6.11948">
        <ele>1120.9</ele>
        <time>2019-08-13T09:10:19Z</time>
      </trkpt>
      <trkpt lat="46.59108" lon="6.11945">
        <ele>1120.7</ele>
        <time>2019-08-13T09:10:25Z</time>
      </trkpt>
      <trkpt lat="46.59105" lon="6.11941">
        <ele>1120.4</ele>
        <time>2019-08-13T09:10:31Z</time>
      </trkpt>
      <trkpt lat="46.591" lon="6.11936">
        <ele>1120</ele>
        <time>2019-08-13T09:10:38Z</time>
      </trkpt>
      <trkpt lat="46.59097" lon="6.1193">
        <ele>1119.7</ele>
        <time>2019-08-13T09:10:43Z</time>
      </trkpt>
      <trkpt lat="46.59094" lon="6.11924">
        <ele>1119.4</ele>
        <time>2019-08-13T09:10:48Z</time>
      </trkpt>
      <trkpt lat="46.59091" lon="6.11919">
        <ele>1119.3</ele>
        <time>2019-08-13T09:10:53Z</time>
      </trkpt>
      <trkpt lat="46.59087" lon="6.11914">
        <ele>1119.3</ele>
        <time>2019-08-13T09:10:58Z</time>
      </trkpt>
      <trkpt lat="46.59084" lon="6.11908">
        <ele>1119.3</ele>
        <time>2019-08-13T09:11:02Z</time>
      </trkpt>
      <trkpt lat="46.59081" lon="6.11902">
        <ele>1119.3</ele>
        <time>2019-08-13T09:11:07Z</time>
      </trkpt>
      <trkpt lat="46.59077" lon="6.11899">
        <ele>1119.5</ele>
        <time>2019-08-13T09:11:11Z</time>
      </trkpt>
      <trkpt lat="46.59073" lon="6.11894">
        <ele>1120</ele>
        <time>2019-08-13T09:11:16Z</time>
      </trkpt>
      <trkpt lat="46.59068" lon="6.11889">
        <ele>1120.2</ele>
        <time>2019-08-13T09:11:21Z</time>
      </trkpt>
      <trkpt lat="46.59064" lon="6.11886">
        <ele>1120.2</ele>
        <time>2019-08-13T09:11:27Z</time>
      </trkpt>
      <trkpt lat="46.5906" lon="6.11882">
        <ele>1120.3</ele>
        <time>2019-08-13T09:11:31Z</time>
      </trkpt>
      <trkpt lat="46.59056" lon="6.11879">
        <ele>1120.5</ele>
        <time>2019-08-13T09:11:35Z</time>
      </trkpt>
      <trkpt lat="46.59051" lon="6.11877">
        <ele>1121</ele>
        <time>2019-08-13T09:11:41Z</time>
      </trkpt>
      <trkpt lat="46.59045" lon="6.11872">
        <ele>1122.4</ele>
        <time>2019-08-13T09:12:17Z</time>
      </trkpt>
      <trkpt lat="46.59042" lon="6.11865">
        <ele>1121.8</ele>
        <time>2019-08-13T09:12:26Z</time>
      </trkpt>
      <trkpt lat="46.59038" lon="6.11863">
        <ele>1121.7</ele>
        <time>2019-08-13T09:12:51Z</time>
      </trkpt>
      <trkpt lat="46.59033" lon="6.11861">
        <ele>1121.9</ele>
        <time>2019-08-13T09:12:55Z</time>
      </trkpt>
      <trkpt lat="46.59029" lon="6.11858">
        <ele>1122.1</ele>
        <time>2019-08-13T09:12:59Z</time>
      </trkpt>
      <trkpt lat="46.59024" lon="6.11856">
        <ele>1122.3</ele>
        <time>2019-08-13T09:13:03Z</time>
      </trkpt>
      <trkpt lat="46.59019" lon="6.11855">
        <ele>1122.5</ele>
        <time>2019-08-13T09:13:08Z</time>
      </trkpt>
      <trkpt lat="46.59014" lon="6.11856">
        <ele>1122.8</ele>
        <time>2019-08-13T09:13:12Z</time>
      </trkpt>
      <trkpt lat="46.59009" lon="6.11855">
        <ele>1123.2</ele>
        <time>2019-08-13T09:13:16Z</time>
      </trkpt>
      <trkpt lat="46.59004" lon="6.11853">
        <ele>1123.7</ele>
        <time>2019-08-13T09:13:21Z</time>
      </trkpt>
      <trkpt lat="46.59" lon="6.11852">
        <ele>1124</ele>
        <time>2019-08-13T09:13:25Z</time>
      </trkpt>
      <trkpt lat="46.58995" lon="6.1185">
        <ele>1124.4</ele>
        <time>2019-08-13T09:13:29Z</time>
      </trkpt>
      <trkpt lat="46.5899" lon="6.11847">
        <ele>1125.4</ele>
        <time>2019-08-13T09:13:35Z</time>
      </trkpt>
      <trkpt lat="46.58987" lon="6.11842">
        <ele>1126.1</ele>
        <time>2019-08-13T09:13:42Z</time>
      </trkpt>
      <trkpt lat="46.58983" lon="6.11838">
        <ele>1126.6</ele>
        <time>2019-08-13T09:13:48Z</time>
      </trkpt>
      <trkpt lat="46.58978" lon="6.11834">
        <ele>1127.2</ele>
        <time>2019-08-13T09:13:55Z</time>
      </trkpt>
      <trkpt lat="46.58974" lon="6.11831">
        <ele>1127.6</ele>
        <time>2019-08-13T09:14:01Z</time>
      </trkpt>
      <trkpt lat="46.5897" lon="6.11827">
        <ele>1127.6</ele>
        <time>2019-08-13T09:14:07Z</time>
      </trkpt>
      <trkpt lat="46.58966" lon="6.11826">
        <ele>1127.6</ele>
        <time>2019-08-13T09:14:12Z</time>
      </trkpt>
      <trkpt lat="46.58961" lon="6.11824">
        <ele>1127.8</ele>
        <time>2019-08-13T09:14:16Z</time>
      </trkpt>
      <trkpt lat="46.58957" lon="6.11824">
        <ele>1128.3</ele>
        <time>2019-08-13T09:14:24Z</time>
      </trkpt>
      <trkpt lat="46.58947" lon="6.11819">
        <ele>1131.3</ele>
        <time>2019-08-13T09:14:48Z</time>
      </trkpt>
      <trkpt lat="46.58943" lon="6.11816">
        <ele>1131.9</ele>
        <time>2019-08-13T09:14:55Z</time>
      </trkpt>
      <trkpt lat="46.58938" lon="6.11814">
        <ele>1132</ele>
        <time>2019-08-13T09:14:59Z</time>
      </trkpt>
      <trkpt lat="46.58934" lon="6.11812">
        <ele>1131.8</ele>
        <time>2019-08-13T09:15:05Z</time>
      </trkpt>
      <trkpt lat="46.5893" lon="6.11804">
        <ele>1131.4</ele>
        <time>2019-08-13T09:15:59Z</time>
      </trkpt>
      <trkpt lat="46.58926" lon="6.11802">
        <ele>1131.9</ele>
        <time>2019-08-13T09:16:14Z</time>
      </trkpt>
      <trkpt lat="46.58921" lon="6.11802">
        <ele>1132.6</ele>
        <time>2019-08-13T09:16:25Z</time>
      </trkpt>
      <trkpt lat="46.58917" lon="6.11802">
        <ele>1132.9</ele>
        <time>2019-08-13T09:16:32Z</time>
      </trkpt>
      <trkpt lat="46.58907" lon="6.118">
        <ele>1133.7</ele>
        <time>2019-08-13T09:17:31Z</time>
      </trkpt>
      <trkpt lat="46.58902" lon="6.11799">
        <ele>1133.6</ele>
        <time>2019-08-13T09:17:35Z</time>
      </trkpt>
      <trkpt lat="46.58897" lon="6.11799">
        <ele>1133.4</ele>
        <time>2019-08-13T09:17:41Z</time>
      </trkpt>
      <trkpt lat="46.58892" lon="6.11802">
        <ele>1133.5</ele>
        <time>2019-08-13T09:17:48Z</time>
      </trkpt>
      <trkpt lat="46.5889" lon="6.11807">
        <ele>1133.9</ele>
        <time>2019-08-13T09:17:54Z</time>
      </trkpt>
      <trkpt lat="46.58881" lon="6.11822">
        <ele>1136.2</ele>
        <time>2019-08-13T09:18:10Z</time>
      </trkpt>
      <trkpt lat="46.58876" lon="6.11825">
        <ele>1136.5</ele>
        <time>2019-08-13T09:18:16Z</time>
      </trkpt>
      <trkpt lat="46.58872" lon="6.11829">
        <ele>1136.7</ele>
        <time>2019-08-13T09:18:21Z</time>
      </trkpt>
      <trkpt lat="46.58868" lon="6.11831">
        <ele>1137.1</ele>
        <time>2019-08-13T09:18:30Z</time>
      </trkpt>
      <trkpt lat="46.58863" lon="6.11833">
        <ele>1137.7</ele>
        <time>2019-08-13T09:18:36Z</time>
      </trkpt>
      <trkpt lat="46.58859" lon="6.11836">
        <ele>1138.3</ele>
        <time>2019-08-13T09:18:43Z</time>
      </trkpt>
      <trkpt lat="46.58854" lon="6.11839">
        <ele>1138.8</ele>
        <time>2019-08-13T09:18:49Z</time>
      </trkpt>
      <trkpt lat="46.58849" lon="6.11839">
        <ele>1139</ele>
        <time>2019-08-13T09:18:55Z</time>
      </trkpt>
      <trkpt lat="46.58845" lon="6.11839">
        <ele>1139.2</ele>
        <time>2019-08-13T09:19:10Z</time>
      </trkpt>
      <trkpt lat="46.5884" lon="6.11837">
        <ele>1140</ele>
        <time>2019-08-13T09:19:25Z</time>
      </trkpt>
      <trkpt lat="46.58835" lon="6.11836">
        <ele>1140.3</ele>
        <time>2019-08-13T09:19:31Z</time>
      </trkpt>
      <trkpt lat="46.5883" lon="6.11836">
        <ele>1140.6</ele>
        <time>2019-08-13T09:19:37Z</time>
      </trkpt>
      <trkpt lat="46.58826" lon="6.11838">
        <ele>1141.1</ele>
        <time>2019-08-13T09:19:42Z</time>
      </trkpt>
      <trkpt lat="46.58821" lon="6.1184">
        <ele>1141.8</ele>
        <time>2019-08-13T09:19:47Z</time>
      </trkpt>
      <trkpt lat="46.58817" lon="6.1184">
        <ele>1142.9</ele>
        <time>2019-08-13T09:19:53Z</time>
      </trkpt>
      <trkpt lat="46.58806" lon="6.1184">
        <ele>1143.1</ele>
        <time>2019-08-13T09:20:18Z</time>
      </trkpt>
      <trkpt lat="46.58802" lon="6.11843">
        <ele>1143.5</ele>
        <time>2019-08-13T09:20:25Z</time>
      </trkpt>
      <trkpt lat="46.58797" lon="6.11847">
        <ele>1144.7</ele>
        <time>2019-08-13T09:20:32Z</time>
      </trkpt>
      <trkpt lat="46.58793" lon="6.11851">
        <ele>1145.8</ele>
        <time>2019-08-13T09:20:38Z</time>
      </trkpt>
      <trkpt lat="46.58779" lon="6.11853">
        <ele>1146</ele>
        <time>2019-08-13T09:20:57Z</time>
      </trkpt>
      <trkpt lat="46.58774" lon="6.11852">
        <ele>1145</ele>
        <time>2019-08-13T09:21:06Z</time>
      </trkpt>
      <trkpt lat="46.58761" lon="6.11846">
        <ele>1143.4</ele>
        <time>2019-08-13T09:21:17Z</time>
      </trkpt>
      <trkpt lat="46.58757" lon="6.11843">
        <ele>1143.1</ele>
        <time>2019-08-13T09:21:24Z</time>
      </trkpt>
      <trkpt lat="46.58749" lon="6.11844">
        <ele>1142</ele>
        <time>2019-08-13T09:21:39Z</time>
      </trkpt>
      <trkpt lat="46.58744" lon="6.11841">
        <ele>1141.9</ele>
        <time>2019-08-13T09:21:44Z</time>
      </trkpt>
      <trkpt lat="46.58738" lon="6.11839">
        <ele>1141.8</ele>
        <time>2019-08-13T09:21:49Z</time>
      </trkpt>
      <trkpt lat="46.58735" lon="6.11834">
        <ele>1141.7</ele>
        <time>2019-08-13T09:21:52Z</time>
      </trkpt>
      <trkpt lat="46.5873" lon="6.11828">
        <ele>1142</ele>
        <time>2019-08-13T09:22:00Z</time>
      </trkpt>
      <trkpt lat="46.58725" lon="6.11824">
        <ele>1142.2</ele>
        <time>2019-08-13T09:22:02Z</time>
      </trkpt>
      <trkpt lat="46.58721" lon="6.11821">
        <ele>1142.6</ele>
        <time>2019-08-13T09:22:05Z</time>
      </trkpt>
      <trkpt lat="46.58718" lon="6.11816">
        <ele>1143.2</ele>
        <time>2019-08-13T09:22:09Z</time>
      </trkpt>
      <trkpt lat="46.58714" lon="6.11812">
        <ele>1143.9</ele>
        <time>2019-08-13T09:22:15Z</time>
      </trkpt>
      <trkpt lat="46.58709" lon="6.1181">
        <ele>1145.4</ele>
        <time>2019-08-13T09:22:25Z</time>
      </trkpt>
      <trkpt lat="46.58704" lon="6.1181">
        <ele>1147</ele>
        <time>2019-08-13T09:22:34Z</time>
      </trkpt>
      <trkpt lat="46.58699" lon="6.11809">
        <ele>1148.2</ele>
        <time>2019-08-13T09:22:40Z</time>
      </trkpt>
      <trkpt lat="46.58695" lon="6.1181">
        <ele>1148.6</ele>
        <time>2019-08-13T09:22:47Z</time>
      </trkpt>
      <trkpt lat="46.5869" lon="6.11811">
        <ele>1148.4</ele>
        <time>2019-08-13T09:22:54Z</time>
      </trkpt>
      <trkpt lat="46.58685" lon="6.11808">
        <ele>1148.3</ele>
        <time>2019-08-13T09:22:56Z</time>
      </trkpt>
      <trkpt lat="46.58674" lon="6.11803">
        <ele>1149.4</ele>
        <time>2019-08-13T09:23:10Z</time>
      </trkpt>
      <trkpt lat="46.5867" lon="6.11806">
        <ele>1150.2</ele>
        <time>2019-08-13T09:23:18Z</time>
      </trkpt>
      <trkpt lat="46.58665" lon="6.11805">
        <ele>1151.1</ele>
        <time>2019-08-13T09:23:24Z</time>
      </trkpt>
      <trkpt lat="46.5866" lon="6.11803">
        <ele>1151.5</ele>
        <time>2019-08-13T09:23:29Z</time>
      </trkpt>
      <trkpt lat="46.58654" lon="6.11798">
        <ele>1152</ele>
        <time>2019-08-13T09:23:37Z</time>
      </trkpt>
      <trkpt lat="46.58641" lon="6.11791">
        <ele>1152</ele>
        <time>2019-08-13T09:24:03Z</time>
      </trkpt>
      <trkpt lat="46.58637" lon="6.11787">
        <ele>1152.3</ele>
        <time>2019-08-13T09:24:06Z</time>
      </trkpt>
      <trkpt lat="46.58632" lon="6.11786">
        <ele>1153.2</ele>
        <time>2019-08-13T09:24:15Z</time>
      </trkpt>
      <trkpt lat="46.58627" lon="6.11783">
        <ele>1154</ele>
        <time>2019-08-13T09:24:23Z</time>
      </trkpt>
      <trkpt lat="46.58623" lon="6.1178">
        <ele>1154.1</ele>
        <time>2019-08-13T09:24:25Z</time>
      </trkpt>
      <trkpt lat="46.58619" lon="6.11777">
        <ele>1154.3</ele>
        <time>2019-08-13T09:24:28Z</time>
      </trkpt>
      <trkpt lat="46.58615" lon="6.11773">
        <ele>1154.5</ele>
        <time>2019-08-13T09:24:31Z</time>
      </trkpt>
      <trkpt lat="46.5861" lon="6.1177">
        <ele>1154.5</ele>
        <time>2019-08-13T09:24:35Z</time>
      </trkpt>
      <trkpt lat="46.58606" lon="6.11766">
        <ele>1154.2</ele>
        <time>2019-08-13T09:24:43Z</time>
      </trkpt>
      <trkpt lat="46.58602" lon="6.11762">
        <ele>1154.3</ele>
        <time>2019-08-13T09:24:50Z</time>
      </trkpt>
      <trkpt lat="46.58598" lon="6.11758">
        <ele>1154.7</ele>
        <time>2019-08-13T09:24:53Z</time>
      </trkpt>
      <trkpt lat="46.58595" lon="6.11754">
        <ele>1155.5</ele>
        <time>2019-08-13T09:25:02Z</time>
      </trkpt>
      <trkpt lat="46.58589" lon="6.11753">
        <ele>1156.4</ele>
        <time>2019-08-13T09:25:19Z</time>
      </trkpt>
      <trkpt lat="46.58584" lon="6.11752">
        <ele>1156.9</ele>
        <time>2019-08-13T09:25:26Z</time>
      </trkpt>
      <trkpt lat="46.5858" lon="6.11749">
        <ele>1157.2</ele>
        <time>2019-08-13T09:25:30Z</time>
      </trkpt>
      <trkpt lat="46.58575" lon="6.11747">
        <ele>1157.6</ele>
        <time>2019-08-13T09:25:35Z</time>
      </trkpt>
      <trkpt lat="46.58569" lon="6.11746">
        <ele>1157.7</ele>
        <time>2019-08-13T09:25:37Z</time>
      </trkpt>
      <trkpt lat="46.58567" lon="6.11741">
        <ele>1158</ele>
        <time>2019-08-13T09:25:40Z</time>
      </trkpt>
      <trkpt lat="46.58562" lon="6.11738">
        <ele>1159</ele>
        <time>2019-08-13T09:25:58Z</time>
      </trkpt>
      <trkpt lat="46.58557" lon="6.11735">
        <ele>1160.4</ele>
        <time>2019-08-13T09:26:10Z</time>
      </trkpt>
      <trkpt lat="46.58543" lon="6.11729">
        <ele>1164.3</ele>
        <time>2019-08-13T09:26:27Z</time>
      </trkpt>
      <trkpt lat="46.58539" lon="6.11725">
        <ele>1165</ele>
        <time>2019-08-13T09:26:34Z</time>
      </trkpt>
      <trkpt lat="46.58535" lon="6.1172">
        <ele>1165</ele>
        <time>2019-08-13T09:26:40Z</time>
      </trkpt>
      <trkpt lat="46.5853" lon="6.11716">
        <ele>1164.9</ele>
        <time>2019-08-13T09:26:44Z</time>
      </trkpt>
      <trkpt lat="46.58525" lon="6.11712">
        <ele>1164.6</ele>
        <time>2019-08-13T09:26:48Z</time>
      </trkpt>
      <trkpt lat="46.58521" lon="6.11711">
        <ele>1163.9</ele>
        <time>2019-08-13T09:26:54Z</time>
      </trkpt>
      <trkpt lat="46.58517" lon="6.11714">
        <ele>1162.9</ele>
        <time>2019-08-13T09:27:01Z</time>
      </trkpt>
      <trkpt lat="46.58511" lon="6.11711">
        <ele>1162</ele>
        <time>2019-08-13T09:27:08Z</time>
      </trkpt>
      <trkpt lat="46.58509" lon="6.11701">
        <ele>1158.9</ele>
        <time>2019-08-13T09:27:35Z</time>
      </trkpt>
      <trkpt lat="46.58502" lon="6.11691">
        <ele>1158</ele>
        <time>2019-08-13T09:28:06Z</time>
      </trkpt>
      <trkpt lat="46.58499" lon="6.11685">
        <ele>1159.1</ele>
        <time>2019-08-13T09:28:23Z</time>
      </trkpt>
      <trkpt lat="46.58496" lon="6.1168">
        <ele>1159.1</ele>
        <time>2019-08-13T09:28:29Z</time>
      </trkpt>
      <trkpt lat="46.58491" lon="6.11676">
        <ele>1158.8</ele>
        <time>2019-08-13T09:28:35Z</time>
      </trkpt>
      <trkpt lat="46.58486" lon="6.11672">
        <ele>1158.4</ele>
        <time>2019-08-13T09:28:39Z</time>
      </trkpt>
      <trkpt lat="46.58481" lon="6.11671">
        <ele>1157.7</ele>
        <time>2019-08-13T09:28:44Z</time>
      </trkpt>
      <trkpt lat="46.58479" lon="6.11665">
        <ele>1157</ele>
        <time>2019-08-13T09:28:50Z</time>
      </trkpt>
      <trkpt lat="46.58476" lon="6.11659">
        <ele>1156.4</ele>
        <time>2019-08-13T09:28:56Z</time>
      </trkpt>
      <trkpt lat="46.58473" lon="6.11653">
        <ele>1156.2</ele>
        <time>2019-08-13T09:29:00Z</time>
      </trkpt>
      <trkpt lat="46.5847" lon="6.11647">
        <ele>1155.9</ele>
        <time>2019-08-13T09:29:04Z</time>
      </trkpt>
      <trkpt lat="46.58466" lon="6.11643">
        <ele>1155.6</ele>
        <time>2019-08-13T09:29:10Z</time>
      </trkpt>
      <trkpt lat="46.58462" lon="6.11639">
        <ele>1155.6</ele>
        <time>2019-08-13T09:29:17Z</time>
      </trkpt>
      <trkpt lat="46.58458" lon="6.11635">
        <ele>1156.1</ele>
        <time>2019-08-13T09:29:25Z</time>
      </trkpt>
      <trkpt lat="46.58454" lon="6.11632">
        <ele>1156.5</ele>
        <time>2019-08-13T09:29:30Z</time>
      </trkpt>
      <trkpt lat="46.5845" lon="6.11628">
        <ele>1156.8</ele>
        <time>2019-08-13T09:29:34Z</time>
      </trkpt>
      <trkpt lat="46.58447" lon="6.11623">
        <ele>1157.1</ele>
        <time>2019-08-13T09:29:39Z</time>
      </trkpt>
      <trkpt lat="46.58444" lon="6.11619">
        <ele>1157.5</ele>
        <time>2019-08-13T09:29:44Z</time>
      </trkpt>
      <trkpt lat="46.58438" lon="6.11616">
        <ele>1157.8</ele>
        <time>2019-08-13T09:29:49Z</time>
      </trkpt>
      <trkpt lat="46.58434" lon="6.11613">
        <ele>1158.1</ele>
        <time>2019-08-13T09:29:54Z</time>
      </trkpt>
      <trkpt lat="46.5843" lon="6.11609">
        <ele>1158.2</ele>
        <time>2019-08-13T09:30:01Z</time>
      </trkpt>
      <trkpt lat="46.58429" lon="6.11602">
        <ele>1158.3</ele>
        <time>2019-08-13T09:30:08Z</time>
      </trkpt>
      <trkpt lat="46.58425" lon="6.11597">
        <ele>1159.3</ele>
        <time>2019-08-13T09:30:16Z</time>
      </trkpt>
      <trkpt lat="46.58422" lon="6.11591">
        <ele>1159.8</ele>
        <time>2019-08-13T09:30:20Z</time>
      </trkpt>
      <trkpt lat="46.58419" lon="6.11584">
        <ele>1160.3</ele>
        <time>2019-08-13T09:30:27Z</time>
      </trkpt>
      <trkpt lat="46.58415" lon="6.11579">
        <ele>1160.4</ele>
        <time>2019-08-13T09:30:35Z</time>
      </trkpt>
      <trkpt lat="46.58412" lon="6.11575">
        <ele>1160</ele>
        <time>2019-08-13T09:30:45Z</time>
      </trkpt>
      <trkpt lat="46.58408" lon="6.11572">
        <ele>1159.7</ele>
        <time>2019-08-13T09:30:52Z</time>
      </trkpt>
      <trkpt lat="46.58403" lon="6.11573">
        <ele>1160.1</ele>
        <time>2019-08-13T09:31:09Z</time>
      </trkpt>
      <trkpt lat="46.584" lon="6.11568">
        <ele>1161.6</ele>
        <time>2019-08-13T09:31:20Z</time>
      </trkpt>
      <trkpt lat="46.58396" lon="6.11564">
        <ele>1161.9</ele>
        <time>2019-08-13T09:31:29Z</time>
      </trkpt>
      <trkpt lat="46.58387" lon="6.11563">
        <ele>1160.8</ele>
        <time>2019-08-13T09:31:58Z</time>
      </trkpt>
      <trkpt lat="46.58383" lon="6.1156">
        <ele>1160.9</ele>
        <time>2019-08-13T09:32:01Z</time>
      </trkpt>
      <trkpt lat="46.58374" lon="6.11554">
        <ele>1164</ele>
        <time>2019-08-13T09:32:32Z</time>
      </trkpt>
      <trkpt lat="46.5837" lon="6.11552">
        <ele>1166.2</ele>
        <time>2019-08-13T09:32:57Z</time>
      </trkpt>
      <trkpt lat="46.58366" lon="6.11544">
        <ele>1166.4</ele>
        <time>2019-08-13T09:33:01Z</time>
      </trkpt>
      <trkpt lat="46.58361" lon="6.11536">
        <ele>1166.6</ele>
        <time>2019-08-13T09:33:03Z</time>
      </trkpt>
      <trkpt lat="46.58352" lon="6.11523">
        <ele>1167.5</ele>
        <time>2019-08-13T09:33:24Z</time>
      </trkpt>
      <trkpt lat="46.58346" lon="6.11515">
        <ele>1169.9</ele>
        <time>2019-08-13T09:33:40Z</time>
      </trkpt>
      <trkpt lat="46.58342" lon="6.11512">
        <ele>1170.3</ele>
        <time>2019-08-13T09:33:43Z</time>
      </trkpt>
      <trkpt lat="46.58338" lon="6.11507">
        <ele>1171.7</ele>
        <time>2019-08-13T09:33:56Z</time>
      </trkpt>
      <trkpt lat="46.58334" lon="6.11501">
        <ele>1173.1</ele>
        <time>2019-08-13T09:34:05Z</time>
      </trkpt>
      <trkpt lat="46.58328" lon="6.11499">
        <ele>1173.4</ele>
        <time>2019-08-13T09:34:07Z</time>
      </trkpt>
      <trkpt lat="46.58324" lon="6.11497">
        <ele>1173.8</ele>
        <time>2019-08-13T09:34:10Z</time>
      </trkpt>
      <trkpt lat="46.5832" lon="6.11492">
        <ele>1174.6</ele>
        <time>2019-08-13T09:34:21Z</time>
      </trkpt>
      <trkpt lat="46.58317" lon="6.11484">
        <ele>1175</ele>
        <time>2019-08-13T09:34:30Z</time>
      </trkpt>
      <trkpt lat="46.58313" lon="6.11477">
        <ele>1175</ele>
        <time>2019-08-13T09:34:33Z</time>
      </trkpt>
      <trkpt lat="46.5831" lon="6.1147">
        <ele>1174.9</ele>
        <time>2019-08-13T09:34:36Z</time>
      </trkpt>
      <trkpt lat="46.58307" lon="6.11464">
        <ele>1174.7</ele>
        <time>2019-08-13T09:34:41Z</time>
      </trkpt>
      <trkpt lat="46.58304" lon="6.11458">
        <ele>1174.7</ele>
        <time>2019-08-13T09:34:49Z</time>
      </trkpt>
      <trkpt lat="46.58302" lon="6.11452">
        <ele>1175.1</ele>
        <time>2019-08-13T09:34:57Z</time>
      </trkpt>
      <trkpt lat="46.58297" lon="6.11449">
        <ele>1175.5</ele>
        <time>2019-08-13T09:35:04Z</time>
      </trkpt>
      <trkpt lat="46.58293" lon="6.11446">
        <ele>1175.6</ele>
        <time>2019-08-13T09:35:12Z</time>
      </trkpt>
      <trkpt lat="46.58289" lon="6.11442">
        <ele>1175.7</ele>
        <time>2019-08-13T09:35:26Z</time>
      </trkpt>
      <trkpt lat="46.58284" lon="6.11432">
        <ele>1176.1</ele>
        <time>2019-08-13T09:35:56Z</time>
      </trkpt>
      <trkpt lat="46.58281" lon="6.11426">
        <ele>1176</ele>
        <time>2019-08-13T09:35:59Z</time>
      </trkpt>
      <trkpt lat="46.58278" lon="6.1142">
        <ele>1175.5</ele>
        <time>2019-08-13T09:36:04Z</time>
      </trkpt>
      <trkpt lat="46.58274" lon="6.11415">
        <ele>1174.7</ele>
        <time>2019-08-13T09:36:11Z</time>
      </trkpt>
      <trkpt lat="46.58267" lon="6.11406">
        <ele>1172.8</ele>
        <time>2019-08-13T09:36:25Z</time>
      </trkpt>
      <trkpt lat="46.58265" lon="6.114">
        <ele>1172.7</ele>
        <time>2019-08-13T09:36:30Z</time>
      </trkpt>
      <trkpt lat="46.58261" lon="6.11396">
        <ele>1172.8</ele>
        <time>2019-08-13T09:36:32Z</time>
      </trkpt>
      <trkpt lat="46.58255" lon="6.1139">
        <ele>1173</ele>
        <time>2019-08-13T09:36:35Z</time>
      </trkpt>
      <trkpt lat="46.58253" lon="6.11384">
        <ele>1173.2</ele>
        <time>2019-08-13T09:36:37Z</time>
      </trkpt>
      <trkpt lat="46.58252" lon="6.11378">
        <ele>1173.6</ele>
        <time>2019-08-13T09:36:41Z</time>
      </trkpt>
      <trkpt lat="46.5825" lon="6.1137">
        <ele>1174</ele>
        <time>2019-08-13T09:36:45Z</time>
      </trkpt>
      <trkpt lat="46.58249" lon="6.11364">
        <ele>1174.3</ele>
        <time>2019-08-13T09:36:49Z</time>
      </trkpt>
      <trkpt lat="46.58245" lon="6.11359">
        <ele>1174.2</ele>
        <time>2019-08-13T09:36:56Z</time>
      </trkpt>
      <trkpt lat="46.58241" lon="6.11355">
        <ele>1173.7</ele>
        <time>2019-08-13T09:37:11Z</time>
      </trkpt>
      <trkpt lat="46.58239" lon="6.1135">
        <ele>1174.2</ele>
        <time>2019-08-13T09:37:20Z</time>
      </trkpt>
      <trkpt lat="46.58234" lon="6.11347">
        <ele>1174.3</ele>
        <time>2019-08-13T09:37:29Z</time>
      </trkpt>
      <trkpt lat="46.5823" lon="6.11345">
        <ele>1173.7</ele>
        <time>2019-08-13T09:37:53Z</time>
      </trkpt>
      <trkpt lat="46.58214" lon="6.11335">
        <ele>1175.4</ele>
        <time>2019-08-13T09:38:34Z</time>
      </trkpt>
      <trkpt lat="46.58211" lon="6.1133">
        <ele>1175.3</ele>
        <time>2019-08-13T09:38:39Z</time>
      </trkpt>
      <trkpt lat="46.58208" lon="6.11325">
        <ele>1175.3</ele>
        <time>2019-08-13T09:38:48Z</time>
      </trkpt>
      <trkpt lat="46.58205" lon="6.11318">
        <ele>1175.2</ele>
        <time>2019-08-13T09:38:53Z</time>
      </trkpt>
      <trkpt lat="46.58201" lon="6.11312">
        <ele>1175.2</ele>
        <time>2019-08-13T09:38:55Z</time>
      </trkpt>
      <trkpt lat="46.58194" lon="6.113">
        <ele>1175.6</ele>
        <time>2019-08-13T09:39:09Z</time>
      </trkpt>
      <trkpt lat="46.58191" lon="6.11295">
        <ele>1176.3</ele>
        <time>2019-08-13T09:39:14Z</time>
      </trkpt>
      <trkpt lat="46.58188" lon="6.1129">
        <ele>1177.1</ele>
        <time>2019-08-13T09:39:19Z</time>
      </trkpt>
      <trkpt lat="46.58185" lon="6.11284">
        <ele>1177.6</ele>
        <time>2019-08-13T09:39:24Z</time>
      </trkpt>
      <trkpt lat="46.58183" lon="6.11277">
        <ele>1177.9</ele>
        <time>2019-08-13T09:39:29Z</time>
      </trkpt>
      <trkpt lat="46.58181" lon="6.11271">
        <ele>1178</ele>
        <time>2019-08-13T09:39:33Z</time>
      </trkpt>
      <trkpt lat="46.58179" lon="6.11265">
        <ele>1178.2</ele>
        <time>2019-08-13T09:39:40Z</time>
      </trkpt>
      <trkpt lat="46.58177" lon="6.11259">
        <ele>1178.2</ele>
        <time>2019-08-13T09:39:49Z</time>
      </trkpt>
      <trkpt lat="46.58173" lon="6.11254">
        <ele>1178.1</ele>
        <time>2019-08-13T09:39:55Z</time>
      </trkpt>
      <trkpt lat="46.58168" lon="6.1125">
        <ele>1178.3</ele>
        <time>2019-08-13T09:39:58Z</time>
      </trkpt>
      <trkpt lat="46.58164" lon="6.11246">
        <ele>1179.6</ele>
        <time>2019-08-13T09:40:06Z</time>
      </trkpt>
      <trkpt lat="46.5816" lon="6.11244">
        <ele>1180.7</ele>
        <time>2019-08-13T09:40:13Z</time>
      </trkpt>
      <trkpt lat="46.58156" lon="6.11239">
        <ele>1182.1</ele>
        <time>2019-08-13T09:40:21Z</time>
      </trkpt>
      <trkpt lat="46.58153" lon="6.11233">
        <ele>1183.4</ele>
        <time>2019-08-13T09:40:27Z</time>
      </trkpt>
      <trkpt lat="46.58151" lon="6.11227">
        <ele>1184.8</ele>
        <time>2019-08-13T09:40:34Z</time>
      </trkpt>
      <trkpt lat="46.58147" lon="6.11223">
        <ele>1186.4</ele>
        <time>2019-08-13T09:40:43Z</time>
      </trkpt>
      <trkpt lat="46.58142" lon="6.11217">
        <ele>1186.8</ele>
        <time>2019-08-13T09:40:47Z</time>
      </trkpt>
      <trkpt lat="46.58139" lon="6.11211">
        <ele>1187</ele>
        <time>2019-08-13T09:40:51Z</time>
      </trkpt>
      <trkpt lat="46.58136" lon="6.11206">
        <ele>1187.8</ele>
        <time>2019-08-13T09:40:58Z</time>
      </trkpt>
      <trkpt lat="46.58132" lon="6.112">
        <ele>1188.6</ele>
        <time>2019-08-13T09:41:05Z</time>
      </trkpt>
      <trkpt lat="46.58129" lon="6.11195">
        <ele>1188.6</ele>
        <time>2019-08-13T09:41:15Z</time>
      </trkpt>
      <trkpt lat="46.58126" lon="6.11189">
        <ele>1188.5</ele>
        <time>2019-08-13T09:41:19Z</time>
      </trkpt>
      <trkpt lat="46.58121" lon="6.11186">
        <ele>1188.3</ele>
        <time>2019-08-13T09:41:24Z</time>
      </trkpt>
      <trkpt lat="46.58118" lon="6.11181">
        <ele>1188.2</ele>
        <time>2019-08-13T09:41:31Z</time>
      </trkpt>
      <trkpt lat="46.58115" lon="6.11175">
        <ele>1188.3</ele>
        <time>2019-08-13T09:41:37Z</time>
      </trkpt>
      <trkpt lat="46.58111" lon="6.11172">
        <ele>1188.8</ele>
        <time>2019-08-13T09:41:47Z</time>
      </trkpt>
      <trkpt lat="46.58107" lon="6.11168">
        <ele>1189.3</ele>
        <time>2019-08-13T09:41:55Z</time>
      </trkpt>
      <trkpt lat="46.58102" lon="6.11166">
        <ele>1189.2</ele>
        <time>2019-08-13T09:42:02Z</time>
      </trkpt>
      <trkpt lat="46.581" lon="6.1116">
        <ele>1189</ele>
        <time>2019-08-13T09:42:09Z</time>
      </trkpt>
      <trkpt lat="46.58097" lon="6.11156">
        <ele>1188.9</ele>
        <time>2019-08-13T09:42:18Z</time>
      </trkpt>
      <trkpt lat="46.58092" lon="6.11153">
        <ele>1188.9</ele>
        <time>2019-08-13T09:42:27Z</time>
      </trkpt>
      <trkpt lat="46.58087" lon="6.1115">
        <ele>1188.7</ele>
        <time>2019-08-13T09:42:33Z</time>
      </trkpt>
      <trkpt lat="46.58083" lon="6.11146">
        <ele>1188.5</ele>
        <time>2019-08-13T09:42:36Z</time>
      </trkpt>
      <trkpt lat="46.5808" lon="6.11141">
        <ele>1188.2</ele>
        <time>2019-08-13T09:42:40Z</time>
      </trkpt>
      <trkpt lat="46.58078" lon="6.11135">
        <ele>1187.6</ele>
        <time>2019-08-13T09:42:47Z</time>
      </trkpt>
      <trkpt lat="46.58074" lon="6.1113">
        <ele>1185.9</ele>
        <time>2019-08-13T09:43:00Z</time>
      </trkpt>
      <trkpt lat="46.5807" lon="6.11125">
        <ele>1185</ele>
        <time>2019-08-13T09:43:12Z</time>
      </trkpt>
      <trkpt lat="46.58065" lon="6.11122">
        <ele>1183.4</ele>
        <time>2019-08-13T09:43:22Z</time>
      </trkpt>
      <trkpt lat="46.58062" lon="6.11116">
        <ele>1182.7</ele>
        <time>2019-08-13T09:43:26Z</time>
      </trkpt>
      <trkpt lat="46.58059" lon="6.11111">
        <ele>1181.6</ele>
        <time>2019-08-13T09:43:32Z</time>
      </trkpt>
      <trkpt lat="46.58057" lon="6.11105">
        <ele>1180</ele>
        <time>2019-08-13T09:43:47Z</time>
      </trkpt>
      <trkpt lat="46.58056" lon="6.11098">
        <ele>1179.2</ele>
        <time>2019-08-13T09:43:58Z</time>
      </trkpt>
      <trkpt lat="46.58055" lon="6.11081">
        <ele>1180.9</ele>
        <time>2019-08-13T09:45:17Z</time>
      </trkpt>
      <trkpt lat="46.58054" lon="6.11074">
        <ele>1179.8</ele>
        <time>2019-08-13T09:45:24Z</time>
      </trkpt>
      <trkpt lat="46.58054" lon="6.11067">
        <ele>1179.5</ele>
        <time>2019-08-13T09:45:29Z</time>
      </trkpt>
      <trkpt lat="46.58059" lon="6.11059">
        <ele>1177.8</ele>
        <time>2019-08-13T09:45:49Z</time>
      </trkpt>
      <trkpt lat="46.58063" lon="6.11054">
        <ele>1176.3</ele>
        <time>2019-08-13T09:45:58Z</time>
      </trkpt>
      <trkpt lat="46.58064" lon="6.11047">
        <ele>1175.9</ele>
        <time>2019-08-13T09:46:02Z</time>
      </trkpt>
      <trkpt lat="46.58067" lon="6.11041">
        <ele>1175.8</ele>
        <time>2019-08-13T09:46:10Z</time>
      </trkpt>
      <trkpt lat="46.58067" lon="6.11033">
        <ele>1175.9</ele>
        <time>2019-08-13T09:46:14Z</time>
      </trkpt>
      <trkpt lat="46.58069" lon="6.11026">
        <ele>1176.2</ele>
        <time>2019-08-13T09:46:32Z</time>
      </trkpt>
      <trkpt lat="46.58073" lon="6.11022">
        <ele>1175.8</ele>
        <time>2019-08-13T09:46:37Z</time>
      </trkpt>
      <trkpt lat="46.58082" lon="6.11017">
        <ele>1170.1</ele>
        <time>2019-08-13T09:47:01Z</time>
      </trkpt>
      <trkpt lat="46.58086" lon="6.11014">
        <ele>1169.4</ele>
        <time>2019-08-13T09:47:04Z</time>
      </trkpt>
      <trkpt lat="46.5809" lon="6.11008">
        <ele>1168.4</ele>
        <time>2019-08-13T09:47:10Z</time>
      </trkpt>
      <trkpt lat="46.58094" lon="6.11005">
        <ele>1167.3</ele>
        <time>2019-08-13T09:47:21Z</time>
      </trkpt>
      <trkpt lat="46.58095" lon="6.10997">
        <ele>1166.9</ele>
        <time>2019-08-13T09:47:28Z</time>
      </trkpt>
      <trkpt lat="46.58098" lon="6.10991">
        <ele>1166.7</ele>
        <time>2019-08-13T09:47:34Z</time>
      </trkpt>
      <trkpt lat="46.58098" lon="6.10984">
        <ele>1164.6</ele>
        <time>2019-08-13T09:47:47Z</time>
      </trkpt>
      <trkpt lat="46.58101" lon="6.10977">
        <ele>1163.2</ele>
        <time>2019-08-13T09:47:53Z</time>
      </trkpt>
      <trkpt lat="46.58103" lon="6.10969">
        <ele>1162.5</ele>
        <time>2019-08-13T09:47:56Z</time>
      </trkpt>
      <trkpt lat="46.58102" lon="6.10963">
        <ele>1161.8</ele>
        <time>2019-08-13T09:47:59Z</time>
      </trkpt>
      <trkpt lat="46.58101" lon="6.10956">
        <ele>1161.4</ele>
        <time>2019-08-13T09:48:01Z</time>
      </trkpt>
      <trkpt lat="46.581" lon="6.10949">
        <ele>1160.3</ele>
        <time>2019-08-13T09:48:05Z</time>
      </trkpt>
      <trkpt lat="46.58099" lon="6.10943">
        <ele>1158.2</ele>
        <time>2019-08-13T09:48:12Z</time>
      </trkpt>
      <trkpt lat="46.58099" lon="6.10935">
        <ele>1155.4</ele>
        <time>2019-08-13T09:48:21Z</time>
      </trkpt>
      <trkpt lat="46.58103" lon="6.10931">
        <ele>1153.8</ele>
        <time>2019-08-13T09:48:29Z</time>
      </trkpt>
      <trkpt lat="46.58109" lon="6.10925">
        <ele>1148.7</ele>
        <time>2019-08-13T09:48:54Z</time>
      </trkpt>
      <trkpt lat="46.58104" lon="6.10923">
        <ele>1143.5</ele>
        <time>2019-08-13T09:49:16Z</time>
      </trkpt>
      <trkpt lat="46.58102" lon="6.10918">
        <ele>1143</ele>
        <time>2019-08-13T09:49:19Z</time>
      </trkpt>
      <trkpt lat="46.58099" lon="6.10911">
        <ele>1142.8</ele>
        <time>2019-08-13T09:49:21Z</time>
      </trkpt>
      <trkpt lat="46.58097" lon="6.10903">
        <ele>1142.6</ele>
        <time>2019-08-13T09:49:24Z</time>
      </trkpt>
      <trkpt lat="46.58096" lon="6.10896">
        <ele>1142.7</ele>
        <time>2019-08-13T09:49:27Z</time>
      </trkpt>
      <trkpt lat="46.58094" lon="6.10889">
        <ele>1143</ele>
        <time>2019-08-13T09:49:31Z</time>
      </trkpt>
      <trkpt lat="46.58092" lon="6.10883">
        <ele>1143.5</ele>
        <time>2019-08-13T09:49:37Z</time>
      </trkpt>
      <trkpt lat="46.58088" lon="6.10878">
        <ele>1143.9</ele>
        <time>2019-08-13T09:49:42Z</time>
      </trkpt>
      <trkpt lat="46.58085" lon="6.10872">
        <ele>1144.1</ele>
        <time>2019-08-13T09:49:47Z</time>
      </trkpt>
      <trkpt lat="46.58082" lon="6.10867">
        <ele>1144.2</ele>
        <time>2019-08-13T09:49:50Z</time>
      </trkpt>
      <trkpt lat="46.5808" lon="6.1086">
        <ele>1144.3</ele>
        <time>2019-08-13T09:49:53Z</time>
      </trkpt>
      <trkpt lat="46.58077" lon="6.10855">
        <ele>1144.4</ele>
        <time>2019-08-13T09:49:58Z</time>
      </trkpt>
      <trkpt lat="46.58075" lon="6.10848">
        <ele>1144.4</ele>
        <time>2019-08-13T09:50:03Z</time>
      </trkpt>
      <trkpt lat="46.58071" lon="6.10843">
        <ele>1144.2</ele>
        <time>2019-08-13T09:50:07Z</time>
      </trkpt>
      <trkpt lat="46.58068" lon="6.10838">
        <ele>1143.7</ele>
        <time>2019-08-13T09:50:13Z</time>
      </trkpt>
      <trkpt lat="46.58065" lon="6.10832">
        <ele>1143.3</ele>
        <time>2019-08-13T09:50:19Z</time>
      </trkpt>
      <trkpt lat="46.58062" lon="6.10827">
        <ele>1143.2</ele>
        <time>2019-08-13T09:50:25Z</time>
      </trkpt>
      <trkpt lat="46.58059" lon="6.10821">
        <ele>1143.2</ele>
        <time>2019-08-13T09:50:30Z</time>
      </trkpt>
      <trkpt lat="46.58056" lon="6.10816">
        <ele>1142.9</ele>
        <time>2019-08-13T09:50:34Z</time>
      </trkpt>
      <trkpt lat="46.58052" lon="6.10812">
        <ele>1142.7</ele>
        <time>2019-08-13T09:50:39Z</time>
      </trkpt>
      <trkpt lat="46.58048" lon="6.10809">
        <ele>1142.7</ele>
        <time>2019-08-13T09:50:47Z</time>
      </trkpt>
      <trkpt lat="46.58045" lon="6.10803">
        <ele>1142.3</ele>
        <time>2019-08-13T09:50:54Z</time>
      </trkpt>
      <trkpt lat="46.58042" lon="6.10798">
        <ele>1142.1</ele>
        <time>2019-08-13T09:51:00Z</time>
      </trkpt>
      <trkpt lat="46.58039" lon="6.10792">
        <ele>1142.2</ele>
        <time>2019-08-13T09:51:06Z</time>
      </trkpt>
      <trkpt lat="46.58036" lon="6.10787">
        <ele>1142</ele>
        <time>2019-08-13T09:51:13Z</time>
      </trkpt>
      <trkpt lat="46.58033" lon="6.10781">
        <ele>1141.1</ele>
        <time>2019-08-13T09:51:22Z</time>
      </trkpt>
      <trkpt lat="46.58028" lon="6.10778">
        <ele>1141.9</ele>
        <time>2019-08-13T09:51:32Z</time>
      </trkpt>
      <trkpt lat="46.58025" lon="6.10773">
        <ele>1143</ele>
        <time>2019-08-13T09:51:37Z</time>
      </trkpt>
      <trkpt lat="46.58021" lon="6.10769">
        <ele>1144.1</ele>
        <time>2019-08-13T09:51:41Z</time>
      </trkpt>
      <trkpt lat="46.58018" lon="6.10763">
        <ele>1146.3</ele>
        <time>2019-08-13T09:51:49Z</time>
      </trkpt>
      <trkpt lat="46.58017" lon="6.10756">
        <ele>1147.4</ele>
        <time>2019-08-13T09:51:53Z</time>
      </trkpt>
      <trkpt lat="46.58016" lon="6.10749">
        <ele>1148.3</ele>
        <time>2019-08-13T09:51:58Z</time>
      </trkpt>
      <trkpt lat="46.58008" lon="6.1074">
        <ele>1149.5</ele>
        <time>2019-08-13T09:52:18Z</time>
      </trkpt>
      <trkpt lat="46.58004" lon="6.10736">
        <ele>1149.1</ele>
        <time>2019-08-13T09:52:25Z</time>
      </trkpt>
      <trkpt lat="46.58001" lon="6.1073">
        <ele>1148.8</ele>
        <time>2019-08-13T09:52:29Z</time>
      </trkpt>
      <trkpt lat="46.57998" lon="6.10724">
        <ele>1148.3</ele>
        <time>2019-08-13T09:52:34Z</time>
      </trkpt>
      <trkpt lat="46.57994" lon="6.10721">
        <ele>1146.9</ele>
        <time>2019-08-13T09:52:45Z</time>
      </trkpt>
      <trkpt lat="46.5799" lon="6.10717">
        <ele>1146.5</ele>
        <time>2019-08-13T09:52:53Z</time>
      </trkpt>
      <trkpt lat="46.57986" lon="6.10713">
        <ele>1146.2</ele>
        <time>2019-08-13T09:53:03Z</time>
      </trkpt>
      <trkpt lat="46.57982" lon="6.1071">
        <ele>1146.1</ele>
        <time>2019-08-13T09:53:05Z</time>
      </trkpt>
      <trkpt lat="46.57976" lon="6.10708">
        <ele>1146</ele>
        <time>2019-08-13T09:53:07Z</time>
      </trkpt>
      <trkpt lat="46.57972" lon="6.10705">
        <ele>1145.9</ele>
        <time>2019-08-13T09:53:09Z</time>
      </trkpt>
      <trkpt lat="46.57967" lon="6.10703">
        <ele>1145.8</ele>
        <time>2019-08-13T09:53:17Z</time>
      </trkpt>
      <trkpt lat="46.57961" lon="6.10704">
        <ele>1145.9</ele>
        <time>2019-08-13T09:53:23Z</time>
      </trkpt>
      <trkpt lat="46.57958" lon="6.10699">
        <ele>1142.6</ele>
        <time>2019-08-13T09:53:46Z</time>
      </trkpt>
      <trkpt lat="46.57954" lon="6.10695">
        <ele>1141.4</ele>
        <time>2019-08-13T09:53:50Z</time>
      </trkpt>
      <trkpt lat="46.5795" lon="6.1069">
        <ele>1140.5</ele>
        <time>2019-08-13T09:53:55Z</time>
      </trkpt>
      <trkpt lat="46.57946" lon="6.10686">
        <ele>1139.8</ele>
        <time>2019-08-13T09:54:00Z</time>
      </trkpt>
      <trkpt lat="46.57943" lon="6.10679">
        <ele>1139.4</ele>
        <time>2019-08-13T09:54:06Z</time>
      </trkpt>
      <trkpt lat="46.5794" lon="6.10673">
        <ele>1139.3</ele>
        <time>2019-08-13T09:54:10Z</time>
      </trkpt>
      <trkpt lat="46.5794" lon="6.10666">
        <ele>1139.4</ele>
        <time>2019-08-13T09:54:18Z</time>
      </trkpt>
      <trkpt lat="46.5794" lon="6.10659">
        <ele>1139.7</ele>
        <time>2019-08-13T09:54:34Z</time>
      </trkpt>
      <trkpt lat="46.57939" lon="6.10652">
        <ele>1139.3</ele>
        <time>2019-08-13T09:54:53Z</time>
      </trkpt>
      <trkpt lat="46.57934" lon="6.10647">
        <ele>1138.8</ele>
        <time>2019-08-13T09:54:57Z</time>
      </trkpt>
      <trkpt lat="46.5793" lon="6.10644">
        <ele>1138.2</ele>
        <time>2019-08-13T09:55:02Z</time>
      </trkpt>
      <trkpt lat="46.57925" lon="6.1064">
        <ele>1137.9</ele>
        <time>2019-08-13T09:55:06Z</time>
      </trkpt>
      <trkpt lat="46.57921" lon="6.10636">
        <ele>1137.7</ele>
        <time>2019-08-13T09:55:10Z</time>
      </trkpt>
      <trkpt lat="46.57917" lon="6.10632">
        <ele>1137.7</ele>
        <time>2019-08-13T09:55:16Z</time>
      </trkpt>
      <trkpt lat="46.57911" lon="6.10624">
        <ele>1137.3</ele>
        <time>2019-08-13T09:55:44Z</time>
      </trkpt>
      <trkpt lat="46.57906" lon="6.10622">
        <ele>1136.1</ele>
        <time>2019-08-13T09:55:49Z</time>
      </trkpt>
      <trkpt lat="46.57902" lon="6.1062">
        <ele>1135.1</ele>
        <time>2019-08-13T09:55:54Z</time>
      </trkpt>
      <trkpt lat="46.57897" lon="6.10619">
        <ele>1134.2</ele>
        <time>2019-08-13T09:55:59Z</time>
      </trkpt>
      <trkpt lat="46.57892" lon="6.10617">
        <ele>1133.2</ele>
        <time>2019-08-13T09:56:05Z</time>
      </trkpt>
      <trkpt lat="46.57887" lon="6.10612">
        <ele>1132.7</ele>
        <time>2019-08-13T09:56:10Z</time>
      </trkpt>
      <trkpt lat="46.57884" lon="6.10607">
        <ele>1132.3</ele>
        <time>2019-08-13T09:56:14Z</time>
      </trkpt>
      <trkpt lat="46.57881" lon="6.10601">
        <ele>1131.6</ele>
        <time>2019-08-13T09:56:19Z</time>
      </trkpt>
      <trkpt lat="46.57876" lon="6.10597">
        <ele>1131.3</ele>
        <time>2019-08-13T09:56:23Z</time>
      </trkpt>
      <trkpt lat="46.57872" lon="6.10594">
        <ele>1131.1</ele>
        <time>2019-08-13T09:56:28Z</time>
      </trkpt>
      <trkpt lat="46.57869" lon="6.10589">
        <ele>1130.7</ele>
        <time>2019-08-13T09:56:35Z</time>
      </trkpt>
      <trkpt lat="46.57866" lon="6.10584">
        <ele>1130.6</ele>
        <time>2019-08-13T09:56:42Z</time>
      </trkpt>
      <trkpt lat="46.57862" lon="6.10579">
        <ele>1130.7</ele>
        <time>2019-08-13T09:56:47Z</time>
      </trkpt>
      <trkpt lat="46.57857" lon="6.10578">
        <ele>1130.9</ele>
        <time>2019-08-13T09:56:56Z</time>
      </trkpt>
      <trkpt lat="46.5785" lon="6.10582">
        <ele>1131.4</ele>
        <time>2019-08-13T09:57:19Z</time>
      </trkpt>
      <trkpt lat="46.57845" lon="6.10581">
        <ele>1130.7</ele>
        <time>2019-08-13T09:57:25Z</time>
      </trkpt>
      <trkpt lat="46.5784" lon="6.10581">
        <ele>1129.5</ele>
        <time>2019-08-13T09:57:43Z</time>
      </trkpt>
      <trkpt lat="46.57835" lon="6.1058">
        <ele>1127.8</ele>
        <time>2019-08-13T09:57:52Z</time>
      </trkpt>
      <trkpt lat="46.57831" lon="6.10577">
        <ele>1126.9</ele>
        <time>2019-08-13T09:57:59Z</time>
      </trkpt>
      <trkpt lat="46.57826" lon="6.10576">
        <ele>1126.6</ele>
        <time>2019-08-13T09:58:06Z</time>
      </trkpt>
      <trkpt lat="46.57822" lon="6.10574">
        <ele>1126.6</ele>
        <time>2019-08-13T09:58:11Z</time>
      </trkpt>
      <trkpt lat="46.57817" lon="6.10572">
        <ele>1126.7</ele>
        <time>2019-08-13T09:58:16Z</time>
      </trkpt>
      <trkpt lat="46.57813" lon="6.10569">
        <ele>1126.7</ele>
        <time>2019-08-13T09:58:21Z</time>
      </trkpt>
      <trkpt lat="46.57808" lon="6.10568">
        <ele>1127.1</ele>
        <time>2019-08-13T09:58:26Z</time>
      </trkpt>
      <trkpt lat="46.57803" lon="6.10568">
        <ele>1127.9</ele>
        <time>2019-08-13T09:58:32Z</time>
      </trkpt>
      <trkpt lat="46.57798" lon="6.10565">
        <ele>1128.7</ele>
        <time>2019-08-13T09:58:38Z</time>
      </trkpt>
      <trkpt lat="46.57794" lon="6.10563">
        <ele>1129.4</ele>
        <time>2019-08-13T09:58:43Z</time>
      </trkpt>
      <trkpt lat="46.57789" lon="6.10559">
        <ele>1130.1</ele>
        <time>2019-08-13T09:58:48Z</time>
      </trkpt>
      <trkpt lat="46.57785" lon="6.10554">
        <ele>1130.5</ele>
        <time>2019-08-13T09:58:53Z</time>
      </trkpt>
      <trkpt lat="46.57782" lon="6.1055">
        <ele>1131</ele>
        <time>2019-08-13T09:58:58Z</time>
      </trkpt>
      <trkpt lat="46.57778" lon="6.10545">
        <ele>1131.6</ele>
        <time>2019-08-13T09:59:03Z</time>
      </trkpt>
      <trkpt lat="46.57773" lon="6.10542">
        <ele>1131.8</ele>
        <time>2019-08-13T09:59:06Z</time>
      </trkpt>
      <trkpt lat="46.57768" lon="6.10537">
        <ele>1131.8</ele>
        <time>2019-08-13T09:59:10Z</time>
      </trkpt>
      <trkpt lat="46.57765" lon="6.10531">
        <ele>1131.8</ele>
        <time>2019-08-13T09:59:13Z</time>
      </trkpt>
      <trkpt lat="46.57762" lon="6.10526">
        <ele>1131.7</ele>
        <time>2019-08-13T09:59:16Z</time>
      </trkpt>
      <trkpt lat="46.57758" lon="6.10522">
        <ele>1131.9</ele>
        <time>2019-08-13T09:59:21Z</time>
      </trkpt>
      <trkpt lat="46.57755" lon="6.10517">
        <ele>1132.1</ele>
        <time>2019-08-13T09:59:26Z</time>
      </trkpt>
      <trkpt lat="46.57751" lon="6.10512">
        <ele>1132.4</ele>
        <time>2019-08-13T09:59:31Z</time>
      </trkpt>
      <trkpt lat="46.57748" lon="6.10507">
        <ele>1132.7</ele>
        <time>2019-08-13T09:59:36Z</time>
      </trkpt>
      <trkpt lat="46.57744" lon="6.10503">
        <ele>1133.1</ele>
        <time>2019-08-13T09:59:40Z</time>
      </trkpt>
      <trkpt lat="46.57741" lon="6.10498">
        <ele>1133.8</ele>
        <time>2019-08-13T09:59:45Z</time>
      </trkpt>
      <trkpt lat="46.57738" lon="6.10493">
        <ele>1134.4</ele>
        <time>2019-08-13T09:59:51Z</time>
      </trkpt>
      <trkpt lat="46.57735" lon="6.10488">
        <ele>1134.7</ele>
        <time>2019-08-13T09:59:56Z</time>
      </trkpt>
      <trkpt lat="46.57732" lon="6.10482">
        <ele>1135</ele>
        <time>2019-08-13T10:00:01Z</time>
      </trkpt>
      <trkpt lat="46.57728" lon="6.10477">
        <ele>1135.3</ele>
        <time>2019-08-13T10:00:06Z</time>
      </trkpt>
      <trkpt lat="46.57725" lon="6.10471">
        <ele>1135.2</ele>
        <time>2019-08-13T10:00:11Z</time>
      </trkpt>
      <trkpt lat="46.57722" lon="6.10465">
        <ele>1135.3</ele>
        <time>2019-08-13T10:00:16Z</time>
      </trkpt>
      <trkpt lat="46.57719" lon="6.1046">
        <ele>1135.2</ele>
        <time>2019-08-13T10:00:20Z</time>
      </trkpt>
      <trkpt lat="46.57717" lon="6.10454">
        <ele>1135</ele>
        <time>2019-08-13T10:00:24Z</time>
      </trkpt>
      <trkpt lat="46.57714" lon="6.10449">
        <ele>1134.9</ele>
        <time>2019-08-13T10:00:28Z</time>
      </trkpt>
      <trkpt lat="46.57711" lon="6.10443">
        <ele>1134.8</ele>
        <time>2019-08-13T10:00:32Z</time>
      </trkpt>
      <trkpt lat="46.57707" lon="6.10437">
        <ele>1134.6</ele>
        <time>2019-08-13T10:00:37Z</time>
      </trkpt>
      <trkpt lat="46.57703" lon="6.10432">
        <ele>1134.5</ele>
        <time>2019-08-13T10:00:41Z</time>
      </trkpt>
      <trkpt lat="46.57699" lon="6.10429">
        <ele>1134.3</ele>
        <time>2019-08-13T10:00:45Z</time>
      </trkpt>
      <trkpt lat="46.57695" lon="6.10423">
        <ele>1134</ele>
        <time>2019-08-13T10:00:52Z</time>
      </trkpt>
      <trkpt lat="46.57693" lon="6.10418">
        <ele>1133.8</ele>
        <time>2019-08-13T10:00:57Z</time>
      </trkpt>
      <trkpt lat="46.57689" lon="6.10412">
        <ele>1133.3</ele>
        <time>2019-08-13T10:01:02Z</time>
      </trkpt>
      <trkpt lat="46.57685" lon="6.10406">
        <ele>1133</ele>
        <time>2019-08-13T10:01:06Z</time>
      </trkpt>
      <trkpt lat="46.57681" lon="6.10402">
        <ele>1132.9</ele>
        <time>2019-08-13T10:01:10Z</time>
      </trkpt>
      <trkpt lat="46.57677" lon="6.10397">
        <ele>1133.1</ele>
        <time>2019-08-13T10:01:14Z</time>
      </trkpt>
      <trkpt lat="46.57672" lon="6.10393">
        <ele>1133.6</ele>
        <time>2019-08-13T10:01:19Z</time>
      </trkpt>
      <trkpt lat="46.57668" lon="6.1039">
        <ele>1134.8</ele>
        <time>2019-08-13T10:01:24Z</time>
      </trkpt>
      <trkpt lat="46.57665" lon="6.10384">
        <ele>1136.3</ele>
        <time>2019-08-13T10:01:30Z</time>
      </trkpt>
      <trkpt lat="46.57662" lon="6.10379">
        <ele>1136.8</ele>
        <time>2019-08-13T10:01:37Z</time>
      </trkpt>
      <trkpt lat="46.57657" lon="6.10374">
        <ele>1136.9</ele>
        <time>2019-08-13T10:01:43Z</time>
      </trkpt>
      <trkpt lat="46.57653" lon="6.1037">
        <ele>1137.1</ele>
        <time>2019-08-13T10:01:49Z</time>
      </trkpt>
      <trkpt lat="46.57649" lon="6.10366">
        <ele>1136.9</ele>
        <time>2019-08-13T10:01:54Z</time>
      </trkpt>
      <trkpt lat="46.57646" lon="6.1036">
        <ele>1136.7</ele>
        <time>2019-08-13T10:01:58Z</time>
      </trkpt>
      <trkpt lat="46.57643" lon="6.10354">
        <ele>1136.8</ele>
        <time>2019-08-13T10:02:02Z</time>
      </trkpt>
      <trkpt lat="46.57639" lon="6.10349">
        <ele>1137</ele>
        <time>2019-08-13T10:02:06Z</time>
      </trkpt>
      <trkpt lat="46.57636" lon="6.10344">
        <ele>1137.4</ele>
        <time>2019-08-13T10:02:10Z</time>
      </trkpt>
      <trkpt lat="46.57632" lon="6.10338">
        <ele>1138.1</ele>
        <time>2019-08-13T10:02:15Z</time>
      </trkpt>
      <trkpt lat="46.57628" lon="6.10333">
        <ele>1138.2</ele>
        <time>2019-08-13T10:02:21Z</time>
      </trkpt>
      <trkpt lat="46.57625" lon="6.10329">
        <ele>1137.3</ele>
        <time>2019-08-13T10:02:30Z</time>
      </trkpt>
      <trkpt lat="46.5762" lon="6.10326">
        <ele>1134</ele>
        <time>2019-08-13T10:02:54Z</time>
      </trkpt>
      <trkpt lat="46.57616" lon="6.10322">
        <ele>1133</ele>
        <time>2019-08-13T10:03:00Z</time>
      </trkpt>
      <trkpt lat="46.57611" lon="6.10319">
        <ele>1132.4</ele>
        <time>2019-08-13T10:03:05Z</time>
      </trkpt>
      <trkpt lat="46.57608" lon="6.10315">
        <ele>1132.1</ele>
        <time>2019-08-13T10:03:11Z</time>
      </trkpt>
      <trkpt lat="46.57604" lon="6.10311">
        <ele>1131.7</ele>
        <time>2019-08-13T10:03:17Z</time>
      </trkpt>
      <trkpt lat="46.57599" lon="6.10308">
        <ele>1131.5</ele>
        <time>2019-08-13T10:03:21Z</time>
      </trkpt>
      <trkpt lat="46.57594" lon="6.10306">
        <ele>1131.3</ele>
        <time>2019-08-13T10:03:26Z</time>
      </trkpt>
      <trkpt lat="46.57589" lon="6.10304">
        <ele>1130.9</ele>
        <time>2019-08-13T10:03:31Z</time>
      </trkpt>
      <trkpt lat="46.57585" lon="6.103">
        <ele>1130.5</ele>
        <time>2019-08-13T10:03:38Z</time>
      </trkpt>
      <trkpt lat="46.57582" lon="6.10296">
        <ele>1130</ele>
        <time>2019-08-13T10:03:43Z</time>
      </trkpt>
      <trkpt lat="46.57577" lon="6.10294">
        <ele>1129.5</ele>
        <time>2019-08-13T10:03:47Z</time>
      </trkpt>
      <trkpt lat="46.57572" lon="6.10292">
        <ele>1128.8</ele>
        <time>2019-08-13T10:03:54Z</time>
      </trkpt>
      <trkpt lat="46.57567" lon="6.10288">
        <ele>1128.8</ele>
        <time>2019-08-13T10:03:56Z</time>
      </trkpt>
      <trkpt lat="46.57562" lon="6.10285">
        <ele>1128.8</ele>
        <time>2019-08-13T10:03:59Z</time>
      </trkpt>
      <trkpt lat="46.57557" lon="6.10283">
        <ele>1128.9</ele>
        <time>2019-08-13T10:04:02Z</time>
      </trkpt>
      <trkpt lat="46.57553" lon="6.10279">
        <ele>1129.2</ele>
        <time>2019-08-13T10:04:08Z</time>
      </trkpt>
      <trkpt lat="46.5755" lon="6.10274">
        <ele>1129.5</ele>
        <time>2019-08-13T10:04:15Z</time>
      </trkpt>
      <trkpt lat="46.57545" lon="6.10271">
        <ele>1129.7</ele>
        <time>2019-08-13T10:04:22Z</time>
      </trkpt>
      <trkpt lat="46.57543" lon="6.10264">
        <ele>1129</ele>
        <time>2019-08-13T10:04:30Z</time>
      </trkpt>
      <trkpt lat="46.5754" lon="6.10258">
        <ele>1128.3</ele>
        <time>2019-08-13T10:04:34Z</time>
      </trkpt>
      <trkpt lat="46.57538" lon="6.10253">
        <ele>1127.9</ele>
        <time>2019-08-13T10:04:37Z</time>
      </trkpt>
      <trkpt lat="46.57534" lon="6.10247">
        <ele>1127.7</ele>
        <time>2019-08-13T10:04:41Z</time>
      </trkpt>
      <trkpt lat="46.57531" lon="6.1024">
        <ele>1127.8</ele>
        <time>2019-08-13T10:04:45Z</time>
      </trkpt>
      <trkpt lat="46.57529" lon="6.10234">
        <ele>1128.3</ele>
        <time>2019-08-13T10:04:50Z</time>
      </trkpt>
      <trkpt lat="46.57527" lon="6.10227">
        <ele>1128.9</ele>
        <time>2019-08-13T10:04:56Z</time>
      </trkpt>
      <trkpt lat="46.57525" lon="6.10219">
        <ele>1129.5</ele>
        <time>2019-08-13T10:05:00Z</time>
      </trkpt>
      <trkpt lat="46.57522" lon="6.10212">
        <ele>1130.1</ele>
        <time>2019-08-13T10:05:04Z</time>
      </trkpt>
      <trkpt lat="46.57522" lon="6.10204">
        <ele>1130.8</ele>
        <time>2019-08-13T10:05:09Z</time>
      </trkpt>
      <trkpt lat="46.57522" lon="6.10197">
        <ele>1131.5</ele>
        <time>2019-08-13T10:05:14Z</time>
      </trkpt>
      <trkpt lat="46.57521" lon="6.10189">
        <ele>1132.3</ele>
        <time>2019-08-13T10:05:22Z</time>
      </trkpt>
      <trkpt lat="46.5752" lon="6.10183">
        <ele>1132.5</ele>
        <time>2019-08-13T10:05:26Z</time>
      </trkpt>
      <trkpt lat="46.5752" lon="6.10175">
        <ele>1133.2</ele>
        <time>2019-08-13T10:05:34Z</time>
      </trkpt>
      <trkpt lat="46.57518" lon="6.10169">
        <ele>1133.8</ele>
        <time>2019-08-13T10:05:40Z</time>
      </trkpt>
      <trkpt lat="46.57518" lon="6.10161">
        <ele>1134.5</ele>
        <time>2019-08-13T10:05:57Z</time>
      </trkpt>
      <trkpt lat="46.57516" lon="6.10154">
        <ele>1134.4</ele>
        <time>2019-08-13T10:06:02Z</time>
      </trkpt>
      <trkpt lat="46.57515" lon="6.10148">
        <ele>1134.6</ele>
        <time>2019-08-13T10:06:11Z</time>
      </trkpt>
      <trkpt lat="46.57513" lon="6.1014">
        <ele>1134.7</ele>
        <time>2019-08-13T10:06:15Z</time>
      </trkpt>
      <trkpt lat="46.57511" lon="6.10133">
        <ele>1134.6</ele>
        <time>2019-08-13T10:06:19Z</time>
      </trkpt>
      <trkpt lat="46.57508" lon="6.10127">
        <ele>1134.5</ele>
        <time>2019-08-13T10:06:23Z</time>
      </trkpt>
      <trkpt lat="46.57506" lon="6.1012">
        <ele>1134.4</ele>
        <time>2019-08-13T10:06:27Z</time>
      </trkpt>
      <trkpt lat="46.57504" lon="6.10113">
        <ele>1134.4</ele>
        <time>2019-08-13T10:06:31Z</time>
      </trkpt>
      <trkpt lat="46.57503" lon="6.10106">
        <ele>1134.4</ele>
        <time>2019-08-13T10:06:36Z</time>
      </trkpt>
      <trkpt lat="46.57502" lon="6.10099">
        <ele>1134.3</ele>
        <time>2019-08-13T10:06:42Z</time>
      </trkpt>
      <trkpt lat="46.57503" lon="6.10092">
        <ele>1134.4</ele>
        <time>2019-08-13T10:06:47Z</time>
      </trkpt>
      <trkpt lat="46.57505" lon="6.10087">
        <ele>1134.5</ele>
        <time>2019-08-13T10:06:52Z</time>
      </trkpt>
      <trkpt lat="46.57509" lon="6.10081">
        <ele>1134.6</ele>
        <time>2019-08-13T10:06:59Z</time>
      </trkpt>
      <trkpt lat="46.57511" lon="6.10075">
        <ele>1134.8</ele>
        <time>2019-08-13T10:07:03Z</time>
      </trkpt>
      <trkpt lat="46.57514" lon="6.10069">
        <ele>1134.9</ele>
        <time>2019-08-13T10:07:07Z</time>
      </trkpt>
      <trkpt lat="46.57517" lon="6.10063">
        <ele>1135</ele>
        <time>2019-08-13T10:07:12Z</time>
      </trkpt>
      <trkpt lat="46.57517" lon="6.10055">
        <ele>1135.3</ele>
        <time>2019-08-13T10:07:25Z</time>
      </trkpt>
      <trkpt lat="46.57516" lon="6.10048">
        <ele>1135.4</ele>
        <time>2019-08-13T10:07:32Z</time>
      </trkpt>
      <trkpt lat="46.57514" lon="6.10041">
        <ele>1135.4</ele>
        <time>2019-08-13T10:07:38Z</time>
      </trkpt>
      <trkpt lat="46.57513" lon="6.10034">
        <ele>1135.4</ele>
        <time>2019-08-13T10:07:43Z</time>
      </trkpt>
      <trkpt lat="46.57511" lon="6.10027">
        <ele>1135.6</ele>
        <time>2019-08-13T10:07:49Z</time>
      </trkpt>
      <trkpt lat="46.57509" lon="6.10021">
        <ele>1135.6</ele>
        <time>2019-08-13T10:07:54Z</time>
      </trkpt>
      <trkpt lat="46.57507" lon="6.10014">
        <ele>1135.5</ele>
        <time>2019-08-13T10:07:59Z</time>
      </trkpt>
      <trkpt lat="46.57508" lon="6.10007">
        <ele>1136.2</ele>
        <time>2019-08-13T10:08:47Z</time>
      </trkpt>
      <trkpt lat="46.57505" lon="6.10001">
        <ele>1136</ele>
        <time>2019-08-13T10:08:53Z</time>
      </trkpt>
      <trkpt lat="46.57502" lon="6.09995">
        <ele>1135.7</ele>
        <time>2019-08-13T10:08:56Z</time>
      </trkpt>
      <trkpt lat="46.57501" lon="6.09989">
        <ele>1135.4</ele>
        <time>2019-08-13T10:09:00Z</time>
      </trkpt>
      <trkpt lat="46.57499" lon="6.09982">
        <ele>1135</ele>
        <time>2019-08-13T10:09:06Z</time>
      </trkpt>
      <trkpt lat="46.57498" lon="6.09975">
        <ele>1134.4</ele>
        <time>2019-08-13T10:09:12Z</time>
      </trkpt>
      <trkpt lat="46.57496" lon="6.09967">
        <ele>1133.8</ele>
        <time>2019-08-13T10:09:18Z</time>
      </trkpt>
      <trkpt lat="46.57493" lon="6.09961">
        <ele>1133.4</ele>
        <time>2019-08-13T10:09:22Z</time>
      </trkpt>
      <trkpt lat="46.5749" lon="6.09955">
        <ele>1133.1</ele>
        <time>2019-08-13T10:09:26Z</time>
      </trkpt>
      <trkpt lat="46.57487" lon="6.09948">
        <ele>1132.7</ele>
        <time>2019-08-13T10:09:31Z</time>
      </trkpt>
      <trkpt lat="46.57485" lon="6.09942">
        <ele>1132.3</ele>
        <time>2019-08-13T10:09:35Z</time>
      </trkpt>
      <trkpt lat="46.57484" lon="6.09935">
        <ele>1131.8</ele>
        <time>2019-08-13T10:09:40Z</time>
      </trkpt>
      <trkpt lat="46.57482" lon="6.09927">
        <ele>1131.5</ele>
        <time>2019-08-13T10:09:45Z</time>
      </trkpt>
      <trkpt lat="46.57481" lon="6.09921">
        <ele>1131.1</ele>
        <time>2019-08-13T10:09:53Z</time>
      </trkpt>
      <trkpt lat="46.57479" lon="6.09915">
        <ele>1130.6</ele>
        <time>2019-08-13T10:09:58Z</time>
      </trkpt>
      <trkpt lat="46.57477" lon="6.09907">
        <ele>1130.2</ele>
        <time>2019-08-13T10:10:03Z</time>
      </trkpt>
      <trkpt lat="46.57477" lon="6.09899">
        <ele>1130</ele>
        <time>2019-08-13T10:10:08Z</time>
      </trkpt>
      <trkpt lat="46.57476" lon="6.09892">
        <ele>1129.8</ele>
        <time>2019-08-13T10:10:13Z</time>
      </trkpt>
      <trkpt lat="46.57475" lon="6.09884">
        <ele>1129.7</ele>
        <time>2019-08-13T10:10:17Z</time>
      </trkpt>
      <trkpt lat="46.57474" lon="6.09878">
        <ele>1129.4</ele>
        <time>2019-08-13T10:10:21Z</time>
      </trkpt>
      <trkpt lat="46.57474" lon="6.0987">
        <ele>1129.2</ele>
        <time>2019-08-13T10:10:26Z</time>
      </trkpt>
      <trkpt lat="46.57475" lon="6.09864">
        <ele>1128.7</ele>
        <time>2019-08-13T10:10:32Z</time>
      </trkpt>
      <trkpt lat="46.57475" lon="6.09857">
        <ele>1128.3</ele>
        <time>2019-08-13T10:10:38Z</time>
      </trkpt>
      <trkpt lat="46.57475" lon="6.09849">
        <ele>1127.7</ele>
        <time>2019-08-13T10:10:46Z</time>
      </trkpt>
      <trkpt lat="46.57475" lon="6.09843">
        <ele>1127.3</ele>
        <time>2019-08-13T10:10:52Z</time>
      </trkpt>
      <trkpt lat="46.57475" lon="6.09836">
        <ele>1127.2</ele>
        <time>2019-08-13T10:10:55Z</time>
      </trkpt>
      <trkpt lat="46.57474" lon="6.09829">
        <ele>1127.1</ele>
        <time>2019-08-13T10:10:59Z</time>
      </trkpt>
      <trkpt lat="46.57474" lon="6.09822">
        <ele>1126.9</ele>
        <time>2019-08-13T10:11:05Z</time>
      </trkpt>
      <trkpt lat="46.57473" lon="6.09815">
        <ele>1126.5</ele>
        <time>2019-08-13T10:11:15Z</time>
      </trkpt>
      <trkpt lat="46.57478" lon="6.09815">
        <ele>1125.5</ele>
        <time>2019-08-13T10:11:43Z</time>
      </trkpt>
      <trkpt lat="46.5748" lon="6.0981">
        <ele>1125.3</ele>
        <time>2019-08-13T10:12:14Z</time>
      </trkpt>
      <trkpt lat="46.57476" lon="6.09806">
        <ele>1124.5</ele>
        <time>2019-08-13T10:12:24Z</time>
      </trkpt>
      <trkpt lat="46.57472" lon="6.09802">
        <ele>1123.8</ele>
        <time>2019-08-13T10:12:30Z</time>
      </trkpt>
      <trkpt lat="46.57469" lon="6.09798">
        <ele>1123.3</ele>
        <time>2019-08-13T10:12:35Z</time>
      </trkpt>
      <trkpt lat="46.57465" lon="6.09794">
        <ele>1122.7</ele>
        <time>2019-08-13T10:12:40Z</time>
      </trkpt>
      <trkpt lat="46.57461" lon="6.09791">
        <ele>1121.8</ele>
        <time>2019-08-13T10:12:46Z</time>
      </trkpt>
      <trkpt lat="46.57456" lon="6.09788">
        <ele>1121</ele>
        <time>2019-08-13T10:12:51Z</time>
      </trkpt>
      <trkpt lat="46.5745" lon="6.09786">
        <ele>1120.1</ele>
        <time>2019-08-13T10:12:56Z</time>
      </trkpt>
      <trkpt lat="46.57445" lon="6.09784">
        <ele>1118.7</ele>
        <time>2019-08-13T10:13:03Z</time>
      </trkpt>
      <trkpt lat="46.57441" lon="6.09782">
        <ele>1118.1</ele>
        <time>2019-08-13T10:13:07Z</time>
      </trkpt>
      <trkpt lat="46.57436" lon="6.09782">
        <ele>1117.5</ele>
        <time>2019-08-13T10:13:13Z</time>
      </trkpt>
      <trkpt lat="46.57432" lon="6.09779">
        <ele>1117.1</ele>
        <time>2019-08-13T10:13:21Z</time>
      </trkpt>
      <trkpt lat="46.57427" lon="6.09778">
        <ele>1116.9</ele>
        <time>2019-08-13T10:13:28Z</time>
      </trkpt>
      <trkpt lat="46.57422" lon="6.09777">
        <ele>1116.7</ele>
        <time>2019-08-13T10:13:36Z</time>
      </trkpt>
      <trkpt lat="46.57417" lon="6.09774">
        <ele>1116.5</ele>
        <time>2019-08-13T10:13:41Z</time>
      </trkpt>
      <trkpt lat="46.57412" lon="6.09773">
        <ele>1116.5</ele>
        <time>2019-08-13T10:13:48Z</time>
      </trkpt>
      <trkpt lat="46.57407" lon="6.09774">
        <ele>1116.1</ele>
        <time>2019-08-13T10:13:55Z</time>
      </trkpt>
      <trkpt lat="46.57402" lon="6.09771">
        <ele>1115.5</ele>
        <time>2019-08-13T10:14:01Z</time>
      </trkpt>
      <trkpt lat="46.57398" lon="6.09769">
        <ele>1115.2</ele>
        <time>2019-08-13T10:14:06Z</time>
      </trkpt>
      <trkpt lat="46.57393" lon="6.09765">
        <ele>1115</ele>
        <time>2019-08-13T10:14:12Z</time>
      </trkpt>
      <trkpt lat="46.57389" lon="6.09762">
        <ele>1115</ele>
        <time>2019-08-13T10:14:17Z</time>
      </trkpt>
      <trkpt lat="46.57384" lon="6.0976">
        <ele>1114.8</ele>
        <time>2019-08-13T10:14:22Z</time>
      </trkpt>
      <trkpt lat="46.57379" lon="6.09759">
        <ele>1114.5</ele>
        <time>2019-08-13T10:14:27Z</time>
      </trkpt>
      <trkpt lat="46.57375" lon="6.09757">
        <ele>1114.3</ele>
        <time>2019-08-13T10:14:31Z</time>
      </trkpt>
      <trkpt lat="46.57369" lon="6.09755">
        <ele>1113.8</ele>
        <time>2019-08-13T10:14:36Z</time>
      </trkpt>
      <trkpt lat="46.57364" lon="6.09754">
        <ele>1113.4</ele>
        <time>2019-08-13T10:14:41Z</time>
      </trkpt>
      <trkpt lat="46.57359" lon="6.09753">
        <ele>1113.1</ele>
        <time>2019-08-13T10:14:46Z</time>
      </trkpt>
      <trkpt lat="46.57355" lon="6.09756">
        <ele>1112.6</ele>
        <time>2019-08-13T10:14:51Z</time>
      </trkpt>
      <trkpt lat="46.57351" lon="6.0976">
        <ele>1112.2</ele>
        <time>2019-08-13T10:14:55Z</time>
      </trkpt>
      <trkpt lat="46.57347" lon="6.09765">
        <ele>1111.8</ele>
        <time>2019-08-13T10:14:59Z</time>
      </trkpt>
      <trkpt lat="46.57343" lon="6.09768">
        <ele>1111.1</ele>
        <time>2019-08-13T10:15:05Z</time>
      </trkpt>
      <trkpt lat="46.57338" lon="6.09769">
        <ele>1110.3</ele>
        <time>2019-08-13T10:15:11Z</time>
      </trkpt>
      <trkpt lat="46.57333" lon="6.09772">
        <ele>1109.2</ele>
        <time>2019-08-13T10:15:19Z</time>
      </trkpt>
      <trkpt lat="46.57329" lon="6.09777">
        <ele>1107.8</ele>
        <time>2019-08-13T10:15:26Z</time>
      </trkpt>
      <trkpt lat="46.57333" lon="6.09772">
        <ele>1105.7</ele>
        <time>2019-08-13T10:15:41Z</time>
      </trkpt>
      <trkpt lat="46.57338" lon="6.09769">
        <ele>1106</ele>
        <time>2019-08-13T10:15:47Z</time>
      </trkpt>
      <trkpt lat="46.57342" lon="6.09767">
        <ele>1106.5</ele>
        <time>2019-08-13T10:15:52Z</time>
      </trkpt>
      <trkpt lat="46.57346" lon="6.09763">
        <ele>1107.5</ele>
        <time>2019-08-13T10:15:58Z</time>
      </trkpt>
      <trkpt lat="46.57343" lon="6.09757">
        <ele>1108.7</ele>
        <time>2019-08-13T10:16:04Z</time>
      </trkpt>
      <trkpt lat="46.57339" lon="6.09753">
        <ele>1109.6</ele>
        <time>2019-08-13T10:16:09Z</time>
      </trkpt>
      <trkpt lat="46.57335" lon="6.09751">
        <ele>1110.2</ele>
        <time>2019-08-13T10:16:13Z</time>
      </trkpt>
      <trkpt lat="46.57329" lon="6.09748">
        <ele>1110.3</ele>
        <time>2019-08-13T10:16:17Z</time>
      </trkpt>
      <trkpt lat="46.57324" lon="6.09745">
        <ele>1110.2</ele>
        <time>2019-08-13T10:16:22Z</time>
      </trkpt>
      <trkpt lat="46.5732" lon="6.09743">
        <ele>1110</ele>
        <time>2019-08-13T10:16:27Z</time>
      </trkpt>
      <trkpt lat="46.57315" lon="6.09742">
        <ele>1109.6</ele>
        <time>2019-08-13T10:16:31Z</time>
      </trkpt>
      <trkpt lat="46.5731" lon="6.09738">
        <ele>1109.2</ele>
        <time>2019-08-13T10:16:35Z</time>
      </trkpt>
      <trkpt lat="46.57306" lon="6.09735">
        <ele>1108.7</ele>
        <time>2019-08-13T10:16:39Z</time>
      </trkpt>
      <trkpt lat="46.57302" lon="6.0973">
        <ele>1108.3</ele>
        <time>2019-08-13T10:16:44Z</time>
      </trkpt>
      <trkpt lat="46.57298" lon="6.09726">
        <ele>1108.1</ele>
        <time>2019-08-13T10:16:48Z</time>
      </trkpt>
      <trkpt lat="46.57295" lon="6.09721">
        <ele>1108.1</ele>
        <time>2019-08-13T10:16:52Z</time>
      </trkpt>
      <trkpt lat="46.57292" lon="6.09715">
        <ele>1108.6</ele>
        <time>2019-08-13T10:16:58Z</time>
      </trkpt>
      <trkpt lat="46.5729" lon="6.09709">
        <ele>1109.9</ele>
        <time>2019-08-13T10:17:08Z</time>
      </trkpt>
      <trkpt lat="46.57289" lon="6.09702">
        <ele>1110.7</ele>
        <time>2019-08-13T10:17:14Z</time>
      </trkpt>
      <trkpt lat="46.57287" lon="6.09696">
        <ele>1111.1</ele>
        <time>2019-08-13T10:17:18Z</time>
      </trkpt>
      <trkpt lat="46.57284" lon="6.0969">
        <ele>1111.4</ele>
        <time>2019-08-13T10:17:22Z</time>
      </trkpt>
      <trkpt lat="46.57283" lon="6.09683">
        <ele>1111.9</ele>
        <time>2019-08-13T10:17:27Z</time>
      </trkpt>
      <trkpt lat="46.5728" lon="6.09677">
        <ele>1112.5</ele>
        <time>2019-08-13T10:17:33Z</time>
      </trkpt>
      <trkpt lat="46.57277" lon="6.09671">
        <ele>1113</ele>
        <time>2019-08-13T10:17:38Z</time>
      </trkpt>
      <trkpt lat="46.57274" lon="6.09666">
        <ele>1113.4</ele>
        <time>2019-08-13T10:17:43Z</time>
      </trkpt>
      <trkpt lat="46.57272" lon="6.09658">
        <ele>1113.5</ele>
        <time>2019-08-13T10:17:51Z</time>
      </trkpt>
      <trkpt lat="46.5727" lon="6.09652">
        <ele>1113.5</ele>
        <time>2019-08-13T10:17:56Z</time>
      </trkpt>
      <trkpt lat="46.57268" lon="6.09646">
        <ele>1113.6</ele>
        <time>2019-08-13T10:18:00Z</time>
      </trkpt>
      <trkpt lat="46.57266" lon="6.09639">
        <ele>1113.9</ele>
        <time>2019-08-13T10:18:04Z</time>
      </trkpt>
      <trkpt lat="46.57263" lon="6.09631">
        <ele>1114.2</ele>
        <time>2019-08-13T10:18:08Z</time>
      </trkpt>
      <trkpt lat="46.57261" lon="6.09624">
        <ele>1114.4</ele>
        <time>2019-08-13T10:18:12Z</time>
      </trkpt>
      <trkpt lat="46.57259" lon="6.09618">
        <ele>1114.5</ele>
        <time>2019-08-13T10:18:17Z</time>
      </trkpt>
      <trkpt lat="46.57258" lon="6.09611">
        <ele>1114.7</ele>
        <time>2019-08-13T10:18:22Z</time>
      </trkpt>
      <trkpt lat="46.57256" lon="6.09605">
        <ele>1115</ele>
        <time>2019-08-13T10:18:35Z</time>
      </trkpt>
      <trkpt lat="46.57253" lon="6.096">
        <ele>1114.7</ele>
        <time>2019-08-13T10:18:48Z</time>
      </trkpt>
      <trkpt lat="46.57249" lon="6.09594">
        <ele>1114.2</ele>
        <time>2019-08-13T10:18:56Z</time>
      </trkpt>
      <trkpt lat="46.57246" lon="6.09589">
        <ele>1114</ele>
        <time>2019-08-13T10:19:01Z</time>
      </trkpt>
      <trkpt lat="46.57243" lon="6.09584">
        <ele>1113.6</ele>
        <time>2019-08-13T10:19:06Z</time>
      </trkpt>
      <trkpt lat="46.57241" lon="6.09578">
        <ele>1113.3</ele>
        <time>2019-08-13T10:19:11Z</time>
      </trkpt>
      <trkpt lat="46.57237" lon="6.09572">
        <ele>1113.3</ele>
        <time>2019-08-13T10:19:17Z</time>
      </trkpt>
      <trkpt lat="46.57234" lon="6.09567">
        <ele>1113</ele>
        <time>2019-08-13T10:19:22Z</time>
      </trkpt>
      <trkpt lat="46.5723" lon="6.09561">
        <ele>1112.7</ele>
        <time>2019-08-13T10:19:27Z</time>
      </trkpt>
      <trkpt lat="46.57227" lon="6.09554">
        <ele>1112.6</ele>
        <time>2019-08-13T10:19:31Z</time>
      </trkpt>
      <trkpt lat="46.57224" lon="6.09548">
        <ele>1112.5</ele>
        <time>2019-08-13T10:19:36Z</time>
      </trkpt>
      <trkpt lat="46.57221" lon="6.09542">
        <ele>1112.4</ele>
        <time>2019-08-13T10:19:41Z</time>
      </trkpt>
      <trkpt lat="46.57219" lon="6.09534">
        <ele>1112.4</ele>
        <time>2019-08-13T10:19:46Z</time>
      </trkpt>
      <trkpt lat="46.57217" lon="6.09526">
        <ele>1112.5</ele>
        <time>2019-08-13T10:19:50Z</time>
      </trkpt>
      <trkpt lat="46.57215" lon="6.0952">
        <ele>1112.6</ele>
        <time>2019-08-13T10:19:54Z</time>
      </trkpt>
      <trkpt lat="46.57213" lon="6.09513">
        <ele>1112.8</ele>
        <time>2019-08-13T10:19:59Z</time>
      </trkpt>
      <trkpt lat="46.57211" lon="6.09507">
        <ele>1113</ele>
        <time>2019-08-13T10:20:05Z</time>
      </trkpt>
      <trkpt lat="46.57208" lon="6.095">
        <ele>1113.2</ele>
        <time>2019-08-13T10:20:11Z</time>
      </trkpt>
      <trkpt lat="46.57206" lon="6.09494">
        <ele>1113.2</ele>
        <time>2019-08-13T10:20:18Z</time>
      </trkpt>
      <trkpt lat="46.57204" lon="6.09488">
        <ele>1112.7</ele>
        <time>2019-08-13T10:20:27Z</time>
      </trkpt>
      <trkpt lat="46.57201" lon="6.09482">
        <ele>1112.1</ele>
        <time>2019-08-13T10:20:33Z</time>
      </trkpt>
      <trkpt lat="46.57198" lon="6.09477">
        <ele>1111.7</ele>
        <time>2019-08-13T10:20:37Z</time>
      </trkpt>
      <trkpt lat="46.57195" lon="6.09471">
        <ele>1111.3</ele>
        <time>2019-08-13T10:20:41Z</time>
      </trkpt>
      <trkpt lat="46.57192" lon="6.09466">
        <ele>1110.6</ele>
        <time>2019-08-13T10:20:47Z</time>
      </trkpt>
      <trkpt lat="46.57188" lon="6.09461">
        <ele>1109.6</ele>
        <time>2019-08-13T10:20:53Z</time>
      </trkpt>
      <trkpt lat="46.57184" lon="6.09456">
        <ele>1108.7</ele>
        <time>2019-08-13T10:20:59Z</time>
      </trkpt>
      <trkpt lat="46.5718" lon="6.09452">
        <ele>1108.2</ele>
        <time>2019-08-13T10:21:04Z</time>
      </trkpt>
      <trkpt lat="46.57176" lon="6.09447">
        <ele>1107.9</ele>
        <time>2019-08-13T10:21:09Z</time>
      </trkpt>
      <trkpt lat="46.57172" lon="6.09443">
        <ele>1107.5</ele>
        <time>2019-08-13T10:21:14Z</time>
      </trkpt>
      <trkpt lat="46.57168" lon="6.09438">
        <ele>1106.9</ele>
        <time>2019-08-13T10:21:19Z</time>
      </trkpt>
      <trkpt lat="46.57163" lon="6.09434">
        <ele>1106</ele>
        <time>2019-08-13T10:21:25Z</time>
      </trkpt>
      <trkpt lat="46.57159" lon="6.09431">
        <ele>1105.3</ele>
        <time>2019-08-13T10:21:31Z</time>
      </trkpt>
      <trkpt lat="46.57154" lon="6.09428">
        <ele>1104.7</ele>
        <time>2019-08-13T10:21:36Z</time>
      </trkpt>
      <trkpt lat="46.5715" lon="6.09425">
        <ele>1104.3</ele>
        <time>2019-08-13T10:21:41Z</time>
      </trkpt>
      <trkpt lat="46.57147" lon="6.0942">
        <ele>1103.9</ele>
        <time>2019-08-13T10:21:45Z</time>
      </trkpt>
      <trkpt lat="46.57143" lon="6.09414">
        <ele>1103.3</ele>
        <time>2019-08-13T10:21:51Z</time>
      </trkpt>
      <trkpt lat="46.57138" lon="6.09408">
        <ele>1102.8</ele>
        <time>2019-08-13T10:21:56Z</time>
      </trkpt>
      <trkpt lat="46.57135" lon="6.09403">
        <ele>1102.3</ele>
        <time>2019-08-13T10:22:00Z</time>
      </trkpt>
      <trkpt lat="46.5713" lon="6.09398">
        <ele>1101.8</ele>
        <time>2019-08-13T10:22:05Z</time>
      </trkpt>
      <trkpt lat="46.57126" lon="6.09393">
        <ele>1101.4</ele>
        <time>2019-08-13T10:22:10Z</time>
      </trkpt>
      <trkpt lat="46.57123" lon="6.09389">
        <ele>1101</ele>
        <time>2019-08-13T10:22:15Z</time>
      </trkpt>
      <trkpt lat="46.57119" lon="6.09385">
        <ele>1100.6</ele>
        <time>2019-08-13T10:22:18Z</time>
      </trkpt>
      <trkpt lat="46.57116" lon="6.0938">
        <ele>1100.1</ele>
        <time>2019-08-13T10:22:22Z</time>
      </trkpt>
      <trkpt lat="46.57111" lon="6.09376">
        <ele>1099.6</ele>
        <time>2019-08-13T10:22:26Z</time>
      </trkpt>
      <trkpt lat="46.57108" lon="6.0937">
        <ele>1098.9</ele>
        <time>2019-08-13T10:22:36Z</time>
      </trkpt>
      <trkpt lat="46.57107" lon="6.09364">
        <ele>1098.5</ele>
        <time>2019-08-13T10:22:43Z</time>
      </trkpt>
      <trkpt lat="46.5711" lon="6.09357">
        <ele>1098.4</ele>
        <time>2019-08-13T10:22:48Z</time>
      </trkpt>
      <trkpt lat="46.57111" lon="6.09364">
        <ele>1099.4</ele>
        <time>2019-08-13T10:23:07Z</time>
      </trkpt>
      <trkpt lat="46.57114" lon="6.0937">
        <ele>1099.3</ele>
        <time>2019-08-13T10:23:12Z</time>
      </trkpt>
      <trkpt lat="46.57112" lon="6.09364">
        <ele>1098.4</ele>
        <time>2019-08-13T10:23:31Z</time>
      </trkpt>
      <trkpt lat="46.57112" lon="6.09371">
        <ele>1099.1</ele>
        <time>2019-08-13T10:23:53Z</time>
      </trkpt>
      <trkpt lat="46.57111" lon="6.09378">
        <ele>1099</ele>
        <time>2019-08-13T10:24:06Z</time>
      </trkpt>
      <trkpt lat="46.57107" lon="6.09377">
        <ele>1097.8</ele>
        <time>2019-08-13T10:24:33Z</time>
      </trkpt>
      <trkpt lat="46.57111" lon="6.0938">
        <ele>1095.1</ele>
        <time>2019-08-13T10:25:00Z</time>
      </trkpt>
      <trkpt lat="46.57107" lon="6.09378">
        <ele>1093.8</ele>
        <time>2019-08-13T10:25:26Z</time>
      </trkpt>
      <trkpt lat="46.57106" lon="6.0937">
        <ele>1094.3</ele>
        <time>2019-08-13T10:25:44Z</time>
      </trkpt>
      <trkpt lat="46.57108" lon="6.09364">
        <ele>1094.3</ele>
        <time>2019-08-13T10:25:54Z</time>
      </trkpt>
      <trkpt lat="46.57112" lon="6.09367">
        <ele>1094.7</ele>
        <time>2019-08-13T10:26:20Z</time>
      </trkpt>
      <trkpt lat="46.57109" lon="6.09362">
        <ele>1096.4</ele>
        <time>2019-08-13T10:28:34Z</time>
      </trkpt>
      <trkpt lat="46.57112" lon="6.09366">
        <ele>1096.2</ele>
        <time>2019-08-13T10:29:02Z</time>
      </trkpt>
      <trkpt lat="46.57108" lon="6.09367">
        <ele>1095.5</ele>
        <time>2019-08-13T10:32:14Z</time>
      </trkpt>
      <trkpt lat="46.57107" lon="6.0936">
        <ele>1096.5</ele>
        <time>2019-08-13T10:32:53Z</time>
      </trkpt>
      <trkpt lat="46.57111" lon="6.09363">
        <ele>1097.1</ele>
        <time>2019-08-13T10:34:27Z</time>
      </trkpt>
      <trkpt lat="46.5711" lon="6.09369">
        <ele>1092.6</ele>
        <time>2019-08-13T10:38:32Z</time>
      </trkpt>
      <trkpt lat="46.57113" lon="6.09363">
        <ele>1091.4</ele>
        <time>2019-08-13T10:39:23Z</time>
      </trkpt>
      <trkpt lat="46.57109" lon="6.09361">
        <ele>1090.6</ele>
        <time>2019-08-13T10:40:43Z</time>
      </trkpt>
      <trkpt lat="46.5711" lon="6.09367">
        <ele>1099.7</ele>
        <time>2019-08-13T10:57:25Z</time>
      </trkpt>
      <trkpt lat="46.57113" lon="6.09362">
        <ele>1100.2</ele>
        <time>2019-08-13T10:58:43Z</time>
      </trkpt>
      <trkpt lat="46.57109" lon="6.09367">
        <ele>1100.2</ele>
        <time>2019-08-13T10:59:08Z</time>
      </trkpt>
      <trkpt lat="46.57113" lon="6.09362">
        <ele>1100.8</ele>
        <time>2019-08-13T10:59:55Z</time>
      </trkpt>
      <trkpt lat="46.57108" lon="6.09366">
        <ele>1101.2</ele>
        <time>2019-08-13T11:00:50Z</time>
      </trkpt>
      <trkpt lat="46.57112" lon="6.09363">
        <ele>1100.5</ele>
        <time>2019-08-13T11:01:59Z</time>
      </trkpt>
      <trkpt lat="46.57108" lon="6.09366">
        <ele>1098.2</ele>
        <time>2019-08-13T11:08:18Z</time>
      </trkpt>
      <trkpt lat="46.57109" lon="6.09373">
        <ele>1100.7</ele>
        <time>2019-08-13T11:09:17Z</time>
      </trkpt>
      <trkpt lat="46.57113" lon="6.09374">
        <ele>1101.4</ele>
        <time>2019-08-13T11:09:51Z</time>
      </trkpt>
      <trkpt lat="46.57109" lon="6.09371">
        <ele>1100.9</ele>
        <time>2019-08-13T11:10:04Z</time>
      </trkpt>
      <trkpt lat="46.57105" lon="6.09368">
        <ele>1100.4</ele>
        <time>2019-08-13T11:10:08Z</time>
      </trkpt>
      <trkpt lat="46.571" lon="6.09366">
        <ele>1099.2</ele>
        <time>2019-08-13T11:10:15Z</time>
      </trkpt>
      <trkpt lat="46.57098" lon="6.0936">
        <ele>1098.2</ele>
        <time>2019-08-13T11:10:21Z</time>
      </trkpt>
      <trkpt lat="46.57096" lon="6.09354">
        <ele>1097.5</ele>
        <time>2019-08-13T11:10:26Z</time>
      </trkpt>
      <trkpt lat="46.57091" lon="6.09355">
        <ele>1096.5</ele>
        <time>2019-08-13T11:10:36Z</time>
      </trkpt>
      <trkpt lat="46.57086" lon="6.09353">
        <ele>1096.4</ele>
        <time>2019-08-13T11:10:41Z</time>
      </trkpt>
      <trkpt lat="46.57081" lon="6.0935">
        <ele>1096.6</ele>
        <time>2019-08-13T11:10:47Z</time>
      </trkpt>
      <trkpt lat="46.57078" lon="6.09345">
        <ele>1096.9</ele>
        <time>2019-08-13T11:10:52Z</time>
      </trkpt>
      <trkpt lat="46.57074" lon="6.09341">
        <ele>1097</ele>
        <time>2019-08-13T11:10:57Z</time>
      </trkpt>
      <trkpt lat="46.57071" lon="6.09335">
        <ele>1097</ele>
        <time>2019-08-13T11:11:03Z</time>
      </trkpt>
      <trkpt lat="46.57069" lon="6.09329">
        <ele>1096.9</ele>
        <time>2019-08-13T11:11:07Z</time>
      </trkpt>
      <trkpt lat="46.57066" lon="6.09323">
        <ele>1096.8</ele>
        <time>2019-08-13T11:11:14Z</time>
      </trkpt>
      <trkpt lat="46.57062" lon="6.09318">
        <ele>1096.6</ele>
        <time>2019-08-13T11:11:20Z</time>
      </trkpt>
      <trkpt lat="46.57061" lon="6.09312">
        <ele>1095.9</ele>
        <time>2019-08-13T11:11:30Z</time>
      </trkpt>
      <trkpt lat="46.57057" lon="6.09308">
        <ele>1095.6</ele>
        <time>2019-08-13T11:11:34Z</time>
      </trkpt>
      <trkpt lat="46.57052" lon="6.09304">
        <ele>1095.2</ele>
        <time>2019-08-13T11:11:40Z</time>
      </trkpt>
      <trkpt lat="46.57047" lon="6.093">
        <ele>1094.8</ele>
        <time>2019-08-13T11:11:45Z</time>
      </trkpt>
      <trkpt lat="46.57042" lon="6.09298">
        <ele>1094.1</ele>
        <time>2019-08-13T11:11:50Z</time>
      </trkpt>
      <trkpt lat="46.57038" lon="6.09294">
        <ele>1093.2</ele>
        <time>2019-08-13T11:11:57Z</time>
      </trkpt>
      <trkpt lat="46.57036" lon="6.09288">
        <ele>1092.3</ele>
        <time>2019-08-13T11:12:02Z</time>
      </trkpt>
      <trkpt lat="46.57033" lon="6.09283">
        <ele>1091.5</ele>
        <time>2019-08-13T11:12:07Z</time>
      </trkpt>
      <trkpt lat="46.57029" lon="6.09278">
        <ele>1091</ele>
        <time>2019-08-13T11:12:11Z</time>
      </trkpt>
      <trkpt lat="46.57025" lon="6.09274">
        <ele>1090.8</ele>
        <time>2019-08-13T11:12:16Z</time>
      </trkpt>
      <trkpt lat="46.57021" lon="6.09268">
        <ele>1090.6</ele>
        <time>2019-08-13T11:12:21Z</time>
      </trkpt>
      <trkpt lat="46.57018" lon="6.09263">
        <ele>1090.7</ele>
        <time>2019-08-13T11:12:28Z</time>
      </trkpt>
      <trkpt lat="46.57013" lon="6.09259">
        <ele>1090.6</ele>
        <time>2019-08-13T11:12:33Z</time>
      </trkpt>
      <trkpt lat="46.57009" lon="6.09256">
        <ele>1090.6</ele>
        <time>2019-08-13T11:12:37Z</time>
      </trkpt>
      <trkpt lat="46.57004" lon="6.09252">
        <ele>1090.5</ele>
        <time>2019-08-13T11:12:42Z</time>
      </trkpt>
      <trkpt lat="46.57" lon="6.09247">
        <ele>1090.6</ele>
        <time>2019-08-13T11:12:48Z</time>
      </trkpt>
      <trkpt lat="46.56996" lon="6.09243">
        <ele>1090.9</ele>
        <time>2019-08-13T11:12:52Z</time>
      </trkpt>
      <trkpt lat="46.56992" lon="6.09241">
        <ele>1091.4</ele>
        <time>2019-08-13T11:12:56Z</time>
      </trkpt>
      <trkpt lat="46.56987" lon="6.09239">
        <ele>1092.1</ele>
        <time>2019-08-13T11:13:02Z</time>
      </trkpt>
      <trkpt lat="46.56983" lon="6.09236">
        <ele>1093.1</ele>
        <time>2019-08-13T11:13:09Z</time>
      </trkpt>
      <trkpt lat="46.56979" lon="6.09234">
        <ele>1093.7</ele>
        <time>2019-08-13T11:13:15Z</time>
      </trkpt>
      <trkpt lat="46.56974" lon="6.09231">
        <ele>1094.1</ele>
        <time>2019-08-13T11:13:21Z</time>
      </trkpt>
      <trkpt lat="46.5697" lon="6.09227">
        <ele>1094.4</ele>
        <time>2019-08-13T11:13:25Z</time>
      </trkpt>
      <trkpt lat="46.56965" lon="6.09225">
        <ele>1094.7</ele>
        <time>2019-08-13T11:13:29Z</time>
      </trkpt>
      <trkpt lat="46.56961" lon="6.09222">
        <ele>1095</ele>
        <time>2019-08-13T11:13:35Z</time>
      </trkpt>
      <trkpt lat="46.56956" lon="6.09219">
        <ele>1095</ele>
        <time>2019-08-13T11:13:41Z</time>
      </trkpt>
      <trkpt lat="46.5695" lon="6.09218">
        <ele>1095.2</ele>
        <time>2019-08-13T11:13:45Z</time>
      </trkpt>
      <trkpt lat="46.56945" lon="6.09216">
        <ele>1095.6</ele>
        <time>2019-08-13T11:13:49Z</time>
      </trkpt>
      <trkpt lat="46.5694" lon="6.09215">
        <ele>1096.2</ele>
        <time>2019-08-13T11:13:53Z</time>
      </trkpt>
      <trkpt lat="46.56936" lon="6.09212">
        <ele>1097.1</ele>
        <time>2019-08-13T11:13:58Z</time>
      </trkpt>
      <trkpt lat="46.56931" lon="6.09209">
        <ele>1098.2</ele>
        <time>2019-08-13T11:14:04Z</time>
      </trkpt>
      <trkpt lat="46.56927" lon="6.09206">
        <ele>1098.9</ele>
        <time>2019-08-13T11:14:09Z</time>
      </trkpt>
      <trkpt lat="46.56921" lon="6.09203">
        <ele>1099.3</ele>
        <time>2019-08-13T11:14:14Z</time>
      </trkpt>
      <trkpt lat="46.56916" lon="6.092">
        <ele>1099.2</ele>
        <time>2019-08-13T11:14:21Z</time>
      </trkpt>
      <trkpt lat="46.56912" lon="6.09198">
        <ele>1099.1</ele>
        <time>2019-08-13T11:14:27Z</time>
      </trkpt>
      <trkpt lat="46.56907" lon="6.09196">
        <ele>1099.1</ele>
        <time>2019-08-13T11:14:32Z</time>
      </trkpt>
      <trkpt lat="46.56903" lon="6.09192">
        <ele>1099.2</ele>
        <time>2019-08-13T11:14:38Z</time>
      </trkpt>
      <trkpt lat="46.56899" lon="6.09187">
        <ele>1099.3</ele>
        <time>2019-08-13T11:14:42Z</time>
      </trkpt>
      <trkpt lat="46.56895" lon="6.09182">
        <ele>1099.4</ele>
        <time>2019-08-13T11:14:46Z</time>
      </trkpt>
      <trkpt lat="46.56891" lon="6.09177">
        <ele>1099.8</ele>
        <time>2019-08-13T11:14:52Z</time>
      </trkpt>
      <trkpt lat="46.56888" lon="6.0917">
        <ele>1100.3</ele>
        <time>2019-08-13T11:14:58Z</time>
      </trkpt>
      <trkpt lat="46.56886" lon="6.09164">
        <ele>1100.2</ele>
        <time>2019-08-13T11:15:04Z</time>
      </trkpt>
      <trkpt lat="46.56883" lon="6.09158">
        <ele>1099.6</ele>
        <time>2019-08-13T11:15:10Z</time>
      </trkpt>
      <trkpt lat="46.56879" lon="6.09153">
        <ele>1099.1</ele>
        <time>2019-08-13T11:15:16Z</time>
      </trkpt>
      <trkpt lat="46.56876" lon="6.09147">
        <ele>1098.7</ele>
        <time>2019-08-13T11:15:21Z</time>
      </trkpt>
      <trkpt lat="46.56872" lon="6.09142">
        <ele>1098.5</ele>
        <time>2019-08-13T11:15:27Z</time>
      </trkpt>
      <trkpt lat="46.5687" lon="6.09137">
        <ele>1098.2</ele>
        <time>2019-08-13T11:15:33Z</time>
      </trkpt>
      <trkpt lat="46.56867" lon="6.09131">
        <ele>1097.9</ele>
        <time>2019-08-13T11:15:39Z</time>
      </trkpt>
      <trkpt lat="46.56864" lon="6.09125">
        <ele>1097.5</ele>
        <time>2019-08-13T11:15:44Z</time>
      </trkpt>
      <trkpt lat="46.56862" lon="6.09119">
        <ele>1097.3</ele>
        <time>2019-08-13T11:15:48Z</time>
      </trkpt>
      <trkpt lat="46.56858" lon="6.09114">
        <ele>1097.2</ele>
        <time>2019-08-13T11:15:52Z</time>
      </trkpt>
      <trkpt lat="46.56855" lon="6.09108">
        <ele>1096.7</ele>
        <time>2019-08-13T11:15:58Z</time>
      </trkpt>
      <trkpt lat="46.56851" lon="6.09102">
        <ele>1096.5</ele>
        <time>2019-08-13T11:16:04Z</time>
      </trkpt>
      <trkpt lat="46.56848" lon="6.09097">
        <ele>1096.6</ele>
        <time>2019-08-13T11:16:08Z</time>
      </trkpt>
      <trkpt lat="46.56844" lon="6.09093">
        <ele>1096.8</ele>
        <time>2019-08-13T11:16:12Z</time>
      </trkpt>
      <trkpt lat="46.5684" lon="6.09088">
        <ele>1097</ele>
        <time>2019-08-13T11:16:16Z</time>
      </trkpt>
      <trkpt lat="46.56836" lon="6.09083">
        <ele>1097.4</ele>
        <time>2019-08-13T11:16:20Z</time>
      </trkpt>
      <trkpt lat="46.56833" lon="6.09078">
        <ele>1097.9</ele>
        <time>2019-08-13T11:16:24Z</time>
      </trkpt>
      <trkpt lat="46.5683" lon="6.09073">
        <ele>1098.3</ele>
        <time>2019-08-13T11:16:28Z</time>
      </trkpt>
      <trkpt lat="46.5683" lon="6.09066">
        <ele>1098.8</ele>
        <time>2019-08-13T11:16:34Z</time>
      </trkpt>
      <trkpt lat="46.56828" lon="6.09059">
        <ele>1099.2</ele>
        <time>2019-08-13T11:16:40Z</time>
      </trkpt>
      <trkpt lat="46.56826" lon="6.09053">
        <ele>1099.2</ele>
        <time>2019-08-13T11:16:45Z</time>
      </trkpt>
      <trkpt lat="46.56822" lon="6.09046">
        <ele>1099.2</ele>
        <time>2019-08-13T11:16:50Z</time>
      </trkpt>
      <trkpt lat="46.56821" lon="6.0904">
        <ele>1099.3</ele>
        <time>2019-08-13T11:16:54Z</time>
      </trkpt>
      <trkpt lat="46.56818" lon="6.09034">
        <ele>1099.6</ele>
        <time>2019-08-13T11:16:59Z</time>
      </trkpt>
      <trkpt lat="46.56815" lon="6.09028">
        <ele>1100.1</ele>
        <time>2019-08-13T11:17:04Z</time>
      </trkpt>
      <trkpt lat="46.56812" lon="6.09022">
        <ele>1100.5</ele>
        <time>2019-08-13T11:17:09Z</time>
      </trkpt>
      <trkpt lat="46.5681" lon="6.09016">
        <ele>1101</ele>
        <time>2019-08-13T11:17:14Z</time>
      </trkpt>
      <trkpt lat="46.56808" lon="6.0901">
        <ele>1101.7</ele>
        <time>2019-08-13T11:17:20Z</time>
      </trkpt>
      <trkpt lat="46.56806" lon="6.09004">
        <ele>1102.3</ele>
        <time>2019-08-13T11:17:26Z</time>
      </trkpt>
      <trkpt lat="46.56804" lon="6.08998">
        <ele>1102.5</ele>
        <time>2019-08-13T11:17:31Z</time>
      </trkpt>
      <trkpt lat="46.56803" lon="6.08991">
        <ele>1102.5</ele>
        <time>2019-08-13T11:17:35Z</time>
      </trkpt>
      <trkpt lat="46.56802" lon="6.08983">
        <ele>1102.3</ele>
        <time>2019-08-13T11:17:39Z</time>
      </trkpt>
      <trkpt lat="46.568" lon="6.08977">
        <ele>1102</ele>
        <time>2019-08-13T11:17:44Z</time>
      </trkpt>
      <trkpt lat="46.56798" lon="6.0897">
        <ele>1101.6</ele>
        <time>2019-08-13T11:17:49Z</time>
      </trkpt>
      <trkpt lat="46.56796" lon="6.08963">
        <ele>1101.2</ele>
        <time>2019-08-13T11:17:54Z</time>
      </trkpt>
      <trkpt lat="46.56794" lon="6.08956">
        <ele>1101</ele>
        <time>2019-08-13T11:17:59Z</time>
      </trkpt>
      <trkpt lat="46.56791" lon="6.0895">
        <ele>1100.9</ele>
        <time>2019-08-13T11:18:03Z</time>
      </trkpt>
      <trkpt lat="46.56787" lon="6.08945">
        <ele>1100.8</ele>
        <time>2019-08-13T11:18:08Z</time>
      </trkpt>
      <trkpt lat="46.56784" lon="6.0894">
        <ele>1100.7</ele>
        <time>2019-08-13T11:18:13Z</time>
      </trkpt>
      <trkpt lat="46.5678" lon="6.08936">
        <ele>1100.5</ele>
        <time>2019-08-13T11:18:18Z</time>
      </trkpt>
      <trkpt lat="46.56775" lon="6.08932">
        <ele>1100.3</ele>
        <time>2019-08-13T11:18:23Z</time>
      </trkpt>
      <trkpt lat="46.5677" lon="6.0893">
        <ele>1100.2</ele>
        <time>2019-08-13T11:18:28Z</time>
      </trkpt>
      <trkpt lat="46.56766" lon="6.08926">
        <ele>1100.2</ele>
        <time>2019-08-13T11:18:35Z</time>
      </trkpt>
      <trkpt lat="46.56765" lon="6.08919">
        <ele>1099.5</ele>
        <time>2019-08-13T11:18:48Z</time>
      </trkpt>
      <trkpt lat="46.56761" lon="6.08914">
        <ele>1099.4</ele>
        <time>2019-08-13T11:18:53Z</time>
      </trkpt>
      <trkpt lat="46.56757" lon="6.08909">
        <ele>1099.5</ele>
        <time>2019-08-13T11:18:57Z</time>
      </trkpt>
      <trkpt lat="46.56753" lon="6.08906">
        <ele>1099.4</ele>
        <time>2019-08-13T11:19:01Z</time>
      </trkpt>
      <trkpt lat="46.56749" lon="6.08902">
        <ele>1099.2</ele>
        <time>2019-08-13T11:19:06Z</time>
      </trkpt>
      <trkpt lat="46.56746" lon="6.08897">
        <ele>1099</ele>
        <time>2019-08-13T11:19:10Z</time>
      </trkpt>
      <trkpt lat="46.56743" lon="6.08891">
        <ele>1098.6</ele>
        <time>2019-08-13T11:19:15Z</time>
      </trkpt>
      <trkpt lat="46.56741" lon="6.08886">
        <ele>1097.9</ele>
        <time>2019-08-13T11:19:20Z</time>
      </trkpt>
      <trkpt lat="46.56738" lon="6.0888">
        <ele>1097.5</ele>
        <time>2019-08-13T11:19:24Z</time>
      </trkpt>
      <trkpt lat="46.56736" lon="6.08874">
        <ele>1097.1</ele>
        <time>2019-08-13T11:19:28Z</time>
      </trkpt>
      <trkpt lat="46.56734" lon="6.08866">
        <ele>1096.6</ele>
        <time>2019-08-13T11:19:34Z</time>
      </trkpt>
      <trkpt lat="46.56732" lon="6.08859">
        <ele>1096.2</ele>
        <time>2019-08-13T11:19:39Z</time>
      </trkpt>
      <trkpt lat="46.5673" lon="6.08853">
        <ele>1096.2</ele>
        <time>2019-08-13T11:19:44Z</time>
      </trkpt>
      <trkpt lat="46.56727" lon="6.08847">
        <ele>1096.4</ele>
        <time>2019-08-13T11:19:48Z</time>
      </trkpt>
      <trkpt lat="46.56723" lon="6.08825">
        <ele>1097.4</ele>
        <time>2019-08-13T11:19:59Z</time>
      </trkpt>
      <trkpt lat="46.5672" lon="6.08819">
        <ele>1097.6</ele>
        <time>2019-08-13T11:20:04Z</time>
      </trkpt>
      <trkpt lat="46.56718" lon="6.08812">
        <ele>1097.8</ele>
        <time>2019-08-13T11:20:09Z</time>
      </trkpt>
      <trkpt lat="46.56716" lon="6.08805">
        <ele>1097.9</ele>
        <time>2019-08-13T11:20:14Z</time>
      </trkpt>
      <trkpt lat="46.56713" lon="6.088">
        <ele>1098.2</ele>
        <time>2019-08-13T11:20:23Z</time>
      </trkpt>
      <trkpt lat="46.56711" lon="6.08794">
        <ele>1098.1</ele>
        <time>2019-08-13T11:20:29Z</time>
      </trkpt>
      <trkpt lat="46.56708" lon="6.08787">
        <ele>1097.9</ele>
        <time>2019-08-13T11:20:34Z</time>
      </trkpt>
      <trkpt lat="46.56705" lon="6.08781">
        <ele>1097.4</ele>
        <time>2019-08-13T11:20:39Z</time>
      </trkpt>
      <trkpt lat="46.56703" lon="6.08774">
        <ele>1096.7</ele>
        <time>2019-08-13T11:20:45Z</time>
      </trkpt>
      <trkpt lat="46.56701" lon="6.08768">
        <ele>1096.2</ele>
        <time>2019-08-13T11:20:48Z</time>
      </trkpt>
      <trkpt lat="46.56699" lon="6.08761">
        <ele>1095.6</ele>
        <time>2019-08-13T11:20:52Z</time>
      </trkpt>
      <trkpt lat="46.56696" lon="6.08755">
        <ele>1095.2</ele>
        <time>2019-08-13T11:20:56Z</time>
      </trkpt>
      <trkpt lat="46.56693" lon="6.08748">
        <ele>1094.6</ele>
        <time>2019-08-13T11:21:01Z</time>
      </trkpt>
      <trkpt lat="46.56691" lon="6.08742">
        <ele>1094.2</ele>
        <time>2019-08-13T11:21:07Z</time>
      </trkpt>
      <trkpt lat="46.56689" lon="6.08736">
        <ele>1093.6</ele>
        <time>2019-08-13T11:21:16Z</time>
      </trkpt>
      <trkpt lat="46.56687" lon="6.08729">
        <ele>1093.2</ele>
        <time>2019-08-13T11:21:21Z</time>
      </trkpt>
      <trkpt lat="46.56684" lon="6.08722">
        <ele>1093.1</ele>
        <time>2019-08-13T11:21:26Z</time>
      </trkpt>
      <trkpt lat="46.56681" lon="6.08716">
        <ele>1093.4</ele>
        <time>2019-08-13T11:21:31Z</time>
      </trkpt>
      <trkpt lat="46.56679" lon="6.08709">
        <ele>1093.4</ele>
        <time>2019-08-13T11:21:36Z</time>
      </trkpt>
      <trkpt lat="46.56676" lon="6.08702">
        <ele>1093.4</ele>
        <time>2019-08-13T11:21:40Z</time>
      </trkpt>
      <trkpt lat="46.56674" lon="6.08694">
        <ele>1093.4</ele>
        <time>2019-08-13T11:21:43Z</time>
      </trkpt>
      <trkpt lat="46.56671" lon="6.08687">
        <ele>1093.5</ele>
        <time>2019-08-13T11:21:48Z</time>
      </trkpt>
      <trkpt lat="46.56668" lon="6.08682">
        <ele>1093.7</ele>
        <time>2019-08-13T11:21:56Z</time>
      </trkpt>
      <trkpt lat="46.56664" lon="6.08677">
        <ele>1093.9</ele>
        <time>2019-08-13T11:22:01Z</time>
      </trkpt>
      <trkpt lat="46.5666" lon="6.0867">
        <ele>1094</ele>
        <time>2019-08-13T11:22:06Z</time>
      </trkpt>
      <trkpt lat="46.56658" lon="6.08663">
        <ele>1094.1</ele>
        <time>2019-08-13T11:22:10Z</time>
      </trkpt>
      <trkpt lat="46.56656" lon="6.08657">
        <ele>1094.3</ele>
        <time>2019-08-13T11:22:13Z</time>
      </trkpt>
      <trkpt lat="46.56653" lon="6.08651">
        <ele>1094.7</ele>
        <time>2019-08-13T11:22:17Z</time>
      </trkpt>
      <trkpt lat="46.56651" lon="6.08645">
        <ele>1095.3</ele>
        <time>2019-08-13T11:22:23Z</time>
      </trkpt>
      <trkpt lat="46.56648" lon="6.0864">
        <ele>1095.7</ele>
        <time>2019-08-13T11:22:29Z</time>
      </trkpt>
      <trkpt lat="46.56645" lon="6.08633">
        <ele>1096.1</ele>
        <time>2019-08-13T11:22:35Z</time>
      </trkpt>
      <trkpt lat="46.56643" lon="6.08626">
        <ele>1096.4</ele>
        <time>2019-08-13T11:22:40Z</time>
      </trkpt>
      <trkpt lat="46.5664" lon="6.08621">
        <ele>1096.4</ele>
        <time>2019-08-13T11:22:44Z</time>
      </trkpt>
      <trkpt lat="46.56638" lon="6.08615">
        <ele>1096.5</ele>
        <time>2019-08-13T11:22:48Z</time>
      </trkpt>
      <trkpt lat="46.56636" lon="6.08608">
        <ele>1096.4</ele>
        <time>2019-08-13T11:22:55Z</time>
      </trkpt>
      <trkpt lat="46.56635" lon="6.08601">
        <ele>1096.2</ele>
        <time>2019-08-13T11:23:01Z</time>
      </trkpt>
      <trkpt lat="46.56632" lon="6.08595">
        <ele>1095.8</ele>
        <time>2019-08-13T11:23:08Z</time>
      </trkpt>
      <trkpt lat="46.56629" lon="6.08589">
        <ele>1095.6</ele>
        <time>2019-08-13T11:23:12Z</time>
      </trkpt>
      <trkpt lat="46.56626" lon="6.08583">
        <ele>1095.2</ele>
        <time>2019-08-13T11:23:17Z</time>
      </trkpt>
      <trkpt lat="46.56623" lon="6.08577">
        <ele>1094.8</ele>
        <time>2019-08-13T11:23:22Z</time>
      </trkpt>
      <trkpt lat="46.5662" lon="6.0857">
        <ele>1094.3</ele>
        <time>2019-08-13T11:23:27Z</time>
      </trkpt>
      <trkpt lat="46.56618" lon="6.08563">
        <ele>1094</ele>
        <time>2019-08-13T11:23:31Z</time>
      </trkpt>
      <trkpt lat="46.56616" lon="6.08556">
        <ele>1093.8</ele>
        <time>2019-08-13T11:23:37Z</time>
      </trkpt>
      <trkpt lat="46.56613" lon="6.08549">
        <ele>1093.8</ele>
        <time>2019-08-13T11:23:41Z</time>
      </trkpt>
      <trkpt lat="46.56611" lon="6.08543">
        <ele>1093.6</ele>
        <time>2019-08-13T11:23:45Z</time>
      </trkpt>
      <trkpt lat="46.56609" lon="6.08536">
        <ele>1093</ele>
        <time>2019-08-13T11:23:51Z</time>
      </trkpt>
      <trkpt lat="46.56608" lon="6.08529">
        <ele>1092.5</ele>
        <time>2019-08-13T11:23:56Z</time>
      </trkpt>
      <trkpt lat="46.56605" lon="6.08524">
        <ele>1091.8</ele>
        <time>2019-08-13T11:24:01Z</time>
      </trkpt>
      <trkpt lat="46.56602" lon="6.08518">
        <ele>1091.5</ele>
        <time>2019-08-13T11:24:05Z</time>
      </trkpt>
      <trkpt lat="46.566" lon="6.08511">
        <ele>1091.4</ele>
        <time>2019-08-13T11:24:10Z</time>
      </trkpt>
      <trkpt lat="46.56599" lon="6.08504">
        <ele>1091.1</ele>
        <time>2019-08-13T11:24:15Z</time>
      </trkpt>
      <trkpt lat="46.56598" lon="6.08498">
        <ele>1091.1</ele>
        <time>2019-08-13T11:24:20Z</time>
      </trkpt>
      <trkpt lat="46.56597" lon="6.0849">
        <ele>1091.2</ele>
        <time>2019-08-13T11:24:25Z</time>
      </trkpt>
      <trkpt lat="46.56597" lon="6.08483">
        <ele>1091.4</ele>
        <time>2019-08-13T11:24:30Z</time>
      </trkpt>
      <trkpt lat="46.56596" lon="6.08476">
        <ele>1091.7</ele>
        <time>2019-08-13T11:24:35Z</time>
      </trkpt>
      <trkpt lat="46.56595" lon="6.08469">
        <ele>1092</ele>
        <time>2019-08-13T11:24:39Z</time>
      </trkpt>
      <trkpt lat="46.56595" lon="6.08461">
        <ele>1092.5</ele>
        <time>2019-08-13T11:24:44Z</time>
      </trkpt>
      <trkpt lat="46.56594" lon="6.08454">
        <ele>1093.1</ele>
        <time>2019-08-13T11:24:48Z</time>
      </trkpt>
      <trkpt lat="46.56594" lon="6.08447">
        <ele>1094</ele>
        <time>2019-08-13T11:24:53Z</time>
      </trkpt>
      <trkpt lat="46.56594" lon="6.08441">
        <ele>1095.7</ele>
        <time>2019-08-13T11:25:01Z</time>
      </trkpt>
      <trkpt lat="46.56597" lon="6.08434">
        <ele>1097</ele>
        <time>2019-08-13T11:25:10Z</time>
      </trkpt>
      <trkpt lat="46.56598" lon="6.08427">
        <ele>1097.5</ele>
        <time>2019-08-13T11:25:14Z</time>
      </trkpt>
      <trkpt lat="46.56601" lon="6.08421">
        <ele>1098.1</ele>
        <time>2019-08-13T11:25:20Z</time>
      </trkpt>
      <trkpt lat="46.56603" lon="6.08415">
        <ele>1098</ele>
        <time>2019-08-13T11:25:25Z</time>
      </trkpt>
      <trkpt lat="46.56606" lon="6.08409">
        <ele>1097.3</ele>
        <time>2019-08-13T11:25:30Z</time>
      </trkpt>
      <trkpt lat="46.56608" lon="6.08401">
        <ele>1096.4</ele>
        <time>2019-08-13T11:25:36Z</time>
      </trkpt>
      <trkpt lat="46.56611" lon="6.08395">
        <ele>1095.7</ele>
        <time>2019-08-13T11:25:41Z</time>
      </trkpt>
      <trkpt lat="46.56613" lon="6.08389">
        <ele>1095.1</ele>
        <time>2019-08-13T11:25:48Z</time>
      </trkpt>
      <trkpt lat="46.56615" lon="6.08382">
        <ele>1095</ele>
        <time>2019-08-13T11:25:54Z</time>
      </trkpt>
      <trkpt lat="46.56616" lon="6.08375">
        <ele>1094.8</ele>
        <time>2019-08-13T11:25:59Z</time>
      </trkpt>
      <trkpt lat="46.5662" lon="6.08361">
        <ele>1095.2</ele>
        <time>2019-08-13T11:26:12Z</time>
      </trkpt>
      <trkpt lat="46.56622" lon="6.08355">
        <ele>1095.3</ele>
        <time>2019-08-13T11:26:16Z</time>
      </trkpt>
      <trkpt lat="46.56623" lon="6.08348">
        <ele>1095.7</ele>
        <time>2019-08-13T11:26:21Z</time>
      </trkpt>
      <trkpt lat="46.56628" lon="6.08335">
        <ele>1097</ele>
        <time>2019-08-13T11:26:33Z</time>
      </trkpt>
      <trkpt lat="46.56632" lon="6.0833">
        <ele>1097</ele>
        <time>2019-08-13T11:26:38Z</time>
      </trkpt>
      <trkpt lat="46.56635" lon="6.08326">
        <ele>1096.8</ele>
        <time>2019-08-13T11:26:43Z</time>
      </trkpt>
      <trkpt lat="46.56639" lon="6.08321">
        <ele>1096.7</ele>
        <time>2019-08-13T11:26:46Z</time>
      </trkpt>
      <trkpt lat="46.56642" lon="6.08315">
        <ele>1096.5</ele>
        <time>2019-08-13T11:26:50Z</time>
      </trkpt>
      <trkpt lat="46.56646" lon="6.08309">
        <ele>1096.3</ele>
        <time>2019-08-13T11:26:54Z</time>
      </trkpt>
      <trkpt lat="46.5665" lon="6.08305">
        <ele>1096.2</ele>
        <time>2019-08-13T11:26:58Z</time>
      </trkpt>
      <trkpt lat="46.56653" lon="6.08299">
        <ele>1096</ele>
        <time>2019-08-13T11:27:02Z</time>
      </trkpt>
      <trkpt lat="46.56654" lon="6.08292">
        <ele>1095.4</ele>
        <time>2019-08-13T11:27:09Z</time>
      </trkpt>
      <trkpt lat="46.56656" lon="6.08284">
        <ele>1094.8</ele>
        <time>2019-08-13T11:27:14Z</time>
      </trkpt>
      <trkpt lat="46.56659" lon="6.08277">
        <ele>1094.2</ele>
        <time>2019-08-13T11:27:18Z</time>
      </trkpt>
      <trkpt lat="46.56661" lon="6.08272">
        <ele>1093.3</ele>
        <time>2019-08-13T11:27:23Z</time>
      </trkpt>
      <trkpt lat="46.56662" lon="6.08265">
        <ele>1092.3</ele>
        <time>2019-08-13T11:27:30Z</time>
      </trkpt>
      <trkpt lat="46.56664" lon="6.08258">
        <ele>1091.7</ele>
        <time>2019-08-13T11:27:35Z</time>
      </trkpt>
      <trkpt lat="46.56667" lon="6.08252">
        <ele>1091.2</ele>
        <time>2019-08-13T11:27:39Z</time>
      </trkpt>
      <trkpt lat="46.5667" lon="6.08247">
        <ele>1090.8</ele>
        <time>2019-08-13T11:27:43Z</time>
      </trkpt>
      <trkpt lat="46.56672" lon="6.08241">
        <ele>1090.5</ele>
        <time>2019-08-13T11:27:48Z</time>
      </trkpt>
      <trkpt lat="46.56674" lon="6.08233">
        <ele>1090.3</ele>
        <time>2019-08-13T11:27:53Z</time>
      </trkpt>
      <trkpt lat="46.56675" lon="6.08226">
        <ele>1090</ele>
        <time>2019-08-13T11:27:58Z</time>
      </trkpt>
      <trkpt lat="46.56676" lon="6.08219">
        <ele>1089.5</ele>
        <time>2019-08-13T11:28:03Z</time>
      </trkpt>
      <trkpt lat="46.56679" lon="6.08211">
        <ele>1089.1</ele>
        <time>2019-08-13T11:28:08Z</time>
      </trkpt>
      <trkpt lat="46.56682" lon="6.08206">
        <ele>1088.7</ele>
        <time>2019-08-13T11:28:13Z</time>
      </trkpt>
      <trkpt lat="46.56684" lon="6.08199">
        <ele>1088.5</ele>
        <time>2019-08-13T11:28:18Z</time>
      </trkpt>
      <trkpt lat="46.56687" lon="6.08193">
        <ele>1088.5</ele>
        <time>2019-08-13T11:28:24Z</time>
      </trkpt>
      <trkpt lat="46.56691" lon="6.08188">
        <ele>1088.6</ele>
        <time>2019-08-13T11:28:28Z</time>
      </trkpt>
      <trkpt lat="46.56693" lon="6.08182">
        <ele>1088.6</ele>
        <time>2019-08-13T11:28:33Z</time>
      </trkpt>
      <trkpt lat="46.56699" lon="6.08166">
        <ele>1088.3</ele>
        <time>2019-08-13T11:28:46Z</time>
      </trkpt>
      <trkpt lat="46.56702" lon="6.08161">
        <ele>1088.3</ele>
        <time>2019-08-13T11:28:50Z</time>
      </trkpt>
      <trkpt lat="46.56705" lon="6.08155">
        <ele>1088.3</ele>
        <time>2019-08-13T11:28:55Z</time>
      </trkpt>
      <trkpt lat="46.56708" lon="6.08149">
        <ele>1087.9</ele>
        <time>2019-08-13T11:29:00Z</time>
      </trkpt>
      <trkpt lat="46.56711" lon="6.08143">
        <ele>1087.4</ele>
        <time>2019-08-13T11:29:05Z</time>
      </trkpt>
      <trkpt lat="46.56714" lon="6.08137">
        <ele>1086.9</ele>
        <time>2019-08-13T11:29:10Z</time>
      </trkpt>
      <trkpt lat="46.56717" lon="6.08132">
        <ele>1086.5</ele>
        <time>2019-08-13T11:29:16Z</time>
      </trkpt>
      <trkpt lat="46.56721" lon="6.08126">
        <ele>1086.2</ele>
        <time>2019-08-13T11:29:22Z</time>
      </trkpt>
      <trkpt lat="46.56723" lon="6.08119">
        <ele>1085.9</ele>
        <time>2019-08-13T11:29:27Z</time>
      </trkpt>
      <trkpt lat="46.56724" lon="6.08113">
        <ele>1085.6</ele>
        <time>2019-08-13T11:29:31Z</time>
      </trkpt>
      <trkpt lat="46.56724" lon="6.08106">
        <ele>1085.3</ele>
        <time>2019-08-13T11:29:35Z</time>
      </trkpt>
      <trkpt lat="46.56726" lon="6.08099">
        <ele>1084.9</ele>
        <time>2019-08-13T11:29:39Z</time>
      </trkpt>
      <trkpt lat="46.56728" lon="6.08092">
        <ele>1084.4</ele>
        <time>2019-08-13T11:29:43Z</time>
      </trkpt>
      <trkpt lat="46.5673" lon="6.08086">
        <ele>1084.2</ele>
        <time>2019-08-13T11:29:48Z</time>
      </trkpt>
      <trkpt lat="46.56731" lon="6.08078">
        <ele>1084</ele>
        <time>2019-08-13T11:29:52Z</time>
      </trkpt>
      <trkpt lat="46.56733" lon="6.08072">
        <ele>1084</ele>
        <time>2019-08-13T11:29:56Z</time>
      </trkpt>
      <trkpt lat="46.56733" lon="6.08065">
        <ele>1084</ele>
        <time>2019-08-13T11:30:02Z</time>
      </trkpt>
      <trkpt lat="46.56732" lon="6.08058">
        <ele>1084</ele>
        <time>2019-08-13T11:30:06Z</time>
      </trkpt>
      <trkpt lat="46.56731" lon="6.0805">
        <ele>1084.1</ele>
        <time>2019-08-13T11:30:10Z</time>
      </trkpt>
      <trkpt lat="46.56729" lon="6.08044">
        <ele>1084.3</ele>
        <time>2019-08-13T11:30:14Z</time>
      </trkpt>
      <trkpt lat="46.56727" lon="6.08037">
        <ele>1084.4</ele>
        <time>2019-08-13T11:30:18Z</time>
      </trkpt>
      <trkpt lat="46.56725" lon="6.08031">
        <ele>1084.6</ele>
        <time>2019-08-13T11:30:22Z</time>
      </trkpt>
      <trkpt lat="46.56723" lon="6.08024">
        <ele>1084.8</ele>
        <time>2019-08-13T11:30:26Z</time>
      </trkpt>
      <trkpt lat="46.56721" lon="6.08018">
        <ele>1085.1</ele>
        <time>2019-08-13T11:30:30Z</time>
      </trkpt>
      <trkpt lat="46.56718" lon="6.08013">
        <ele>1085.4</ele>
        <time>2019-08-13T11:30:34Z</time>
      </trkpt>
      <trkpt lat="46.56714" lon="6.08009">
        <ele>1085.9</ele>
        <time>2019-08-13T11:30:38Z</time>
      </trkpt>
      <trkpt lat="46.5671" lon="6.08004">
        <ele>1086.5</ele>
        <time>2019-08-13T11:30:43Z</time>
      </trkpt>
      <trkpt lat="46.56707" lon="6.07998">
        <ele>1087.1</ele>
        <time>2019-08-13T11:30:48Z</time>
      </trkpt>
      <trkpt lat="46.56705" lon="6.07993">
        <ele>1087.5</ele>
        <time>2019-08-13T11:30:53Z</time>
      </trkpt>
      <trkpt lat="46.56703" lon="6.07986">
        <ele>1087.6</ele>
        <time>2019-08-13T11:30:58Z</time>
      </trkpt>
      <trkpt lat="46.567" lon="6.07981">
        <ele>1087.7</ele>
        <time>2019-08-13T11:31:03Z</time>
      </trkpt>
      <trkpt lat="46.56696" lon="6.07976">
        <ele>1087.8</ele>
        <time>2019-08-13T11:31:09Z</time>
      </trkpt>
      <trkpt lat="46.56692" lon="6.07972">
        <ele>1087.9</ele>
        <time>2019-08-13T11:31:13Z</time>
      </trkpt>
      <trkpt lat="46.56688" lon="6.07967">
        <ele>1088.1</ele>
        <time>2019-08-13T11:31:18Z</time>
      </trkpt>
      <trkpt lat="46.56686" lon="6.07962">
        <ele>1088.9</ele>
        <time>2019-08-13T11:31:26Z</time>
      </trkpt>
      <trkpt lat="46.56689" lon="6.07956">
        <ele>1090.6</ele>
        <time>2019-08-13T11:31:37Z</time>
      </trkpt>
      <trkpt lat="46.56692" lon="6.07951">
        <ele>1090.9</ele>
        <time>2019-08-13T11:31:43Z</time>
      </trkpt>
      <trkpt lat="46.56696" lon="6.07947">
        <ele>1091.3</ele>
        <time>2019-08-13T11:31:48Z</time>
      </trkpt>
      <trkpt lat="46.567" lon="6.07943">
        <ele>1091.6</ele>
        <time>2019-08-13T11:31:53Z</time>
      </trkpt>
      <trkpt lat="46.56704" lon="6.07939">
        <ele>1091.5</ele>
        <time>2019-08-13T11:31:58Z</time>
      </trkpt>
      <trkpt lat="46.56707" lon="6.07934">
        <ele>1091.3</ele>
        <time>2019-08-13T11:32:02Z</time>
      </trkpt>
      <trkpt lat="46.56711" lon="6.07929">
        <ele>1091.2</ele>
        <time>2019-08-13T11:32:06Z</time>
      </trkpt>
      <trkpt lat="46.56715" lon="6.07925">
        <ele>1091</ele>
        <time>2019-08-13T11:32:11Z</time>
      </trkpt>
      <trkpt lat="46.56719" lon="6.07921">
        <ele>1090.6</ele>
        <time>2019-08-13T11:32:17Z</time>
      </trkpt>
      <trkpt lat="46.56723" lon="6.07916">
        <ele>1089</ele>
        <time>2019-08-13T11:32:26Z</time>
      </trkpt>
      <trkpt lat="46.5673" lon="6.07907">
        <ele>1084.6</ele>
        <time>2019-08-13T11:32:47Z</time>
      </trkpt>
      <trkpt lat="46.56737" lon="6.079">
        <ele>1083.7</ele>
        <time>2019-08-13T11:32:58Z</time>
      </trkpt>
      <trkpt lat="46.5675" lon="6.07891">
        <ele>1081.8</ele>
        <time>2019-08-13T11:33:10Z</time>
      </trkpt>
      <trkpt lat="46.56755" lon="6.07885">
        <ele>1081.5</ele>
        <time>2019-08-13T11:33:13Z</time>
      </trkpt>
      <trkpt lat="46.56759" lon="6.07877">
        <ele>1081.4</ele>
        <time>2019-08-13T11:33:15Z</time>
      </trkpt>
      <trkpt lat="46.56764" lon="6.07869">
        <ele>1081.2</ele>
        <time>2019-08-13T11:33:17Z</time>
      </trkpt>
      <trkpt lat="46.56769" lon="6.07861">
        <ele>1081.1</ele>
        <time>2019-08-13T11:33:20Z</time>
      </trkpt>
      <trkpt lat="46.56772" lon="6.07855">
        <ele>1080.9</ele>
        <time>2019-08-13T11:33:23Z</time>
      </trkpt>
      <trkpt lat="46.56776" lon="6.07851">
        <ele>1080.9</ele>
        <time>2019-08-13T11:33:25Z</time>
      </trkpt>
      <trkpt lat="46.56779" lon="6.07845">
        <ele>1080.9</ele>
        <time>2019-08-13T11:33:27Z</time>
      </trkpt>
      <trkpt lat="46.56783" lon="6.07839">
        <ele>1081.3</ele>
        <time>2019-08-13T11:33:31Z</time>
      </trkpt>
      <trkpt lat="46.56786" lon="6.07833">
        <ele>1081.7</ele>
        <time>2019-08-13T11:33:36Z</time>
      </trkpt>
      <trkpt lat="46.5679" lon="6.07827">
        <ele>1082.1</ele>
        <time>2019-08-13T11:33:40Z</time>
      </trkpt>
      <trkpt lat="46.56794" lon="6.07822">
        <ele>1082.5</ele>
        <time>2019-08-13T11:33:44Z</time>
      </trkpt>
      <trkpt lat="46.56797" lon="6.07816">
        <ele>1083</ele>
        <time>2019-08-13T11:33:50Z</time>
      </trkpt>
      <trkpt lat="46.56801" lon="6.0781">
        <ele>1083.6</ele>
        <time>2019-08-13T11:33:55Z</time>
      </trkpt>
      <trkpt lat="46.56805" lon="6.07804">
        <ele>1084.1</ele>
        <time>2019-08-13T11:33:59Z</time>
      </trkpt>
      <trkpt lat="46.56808" lon="6.07799">
        <ele>1084.6</ele>
        <time>2019-08-13T11:34:03Z</time>
      </trkpt>
      <trkpt lat="46.56812" lon="6.07793">
        <ele>1085.5</ele>
        <time>2019-08-13T11:34:09Z</time>
      </trkpt>
      <trkpt lat="46.56815" lon="6.07788">
        <ele>1086.1</ele>
        <time>2019-08-13T11:34:13Z</time>
      </trkpt>
      <trkpt lat="46.56818" lon="6.07783">
        <ele>1086.5</ele>
        <time>2019-08-13T11:34:17Z</time>
      </trkpt>
      <trkpt lat="46.56821" lon="6.07778">
        <ele>1086.9</ele>
        <time>2019-08-13T11:34:22Z</time>
      </trkpt>
      <trkpt lat="46.56824" lon="6.07772">
        <ele>1087.3</ele>
        <time>2019-08-13T11:34:27Z</time>
      </trkpt>
      <trkpt lat="46.56828" lon="6.07768">
        <ele>1087.7</ele>
        <time>2019-08-13T11:34:31Z</time>
      </trkpt>
      <trkpt lat="46.56831" lon="6.07762">
        <ele>1088.3</ele>
        <time>2019-08-13T11:34:35Z</time>
      </trkpt>
      <trkpt lat="46.56833" lon="6.07757">
        <ele>1089.1</ele>
        <time>2019-08-13T11:34:40Z</time>
      </trkpt>
      <trkpt lat="46.56837" lon="6.07752">
        <ele>1089.9</ele>
        <time>2019-08-13T11:34:45Z</time>
      </trkpt>
      <trkpt lat="46.56841" lon="6.07747">
        <ele>1090.6</ele>
        <time>2019-08-13T11:34:50Z</time>
      </trkpt>
      <trkpt lat="46.56854" lon="6.07739">
        <ele>1091.5</ele>
        <time>2019-08-13T11:35:04Z</time>
      </trkpt>
      <trkpt lat="46.56861" lon="6.07737">
        <ele>1091.2</ele>
        <time>2019-08-13T11:35:12Z</time>
      </trkpt>
      <trkpt lat="46.56866" lon="6.07738">
        <ele>1091.1</ele>
        <time>2019-08-13T11:35:14Z</time>
      </trkpt>
      <trkpt lat="46.56871" lon="6.07738">
        <ele>1091</ele>
        <time>2019-08-13T11:35:18Z</time>
      </trkpt>
      <trkpt lat="46.56876" lon="6.07738">
        <ele>1091.2</ele>
        <time>2019-08-13T11:35:25Z</time>
      </trkpt>
      <trkpt lat="46.56892" lon="6.07741">
        <ele>1092</ele>
        <time>2019-08-13T11:35:33Z</time>
      </trkpt>
      <trkpt lat="46.56896" lon="6.07743">
        <ele>1092.6</ele>
        <time>2019-08-13T11:35:37Z</time>
      </trkpt>
      <trkpt lat="46.56901" lon="6.07746">
        <ele>1093.4</ele>
        <time>2019-08-13T11:35:42Z</time>
      </trkpt>
      <trkpt lat="46.56906" lon="6.0775">
        <ele>1093.9</ele>
        <time>2019-08-13T11:35:44Z</time>
      </trkpt>
      <trkpt lat="46.56911" lon="6.07752">
        <ele>1095</ele>
        <time>2019-08-13T11:35:48Z</time>
      </trkpt>
      <trkpt lat="46.56916" lon="6.07754">
        <ele>1096.9</ele>
        <time>2019-08-13T11:35:55Z</time>
      </trkpt>
      <trkpt lat="46.56921" lon="6.07758">
        <ele>1098.3</ele>
        <time>2019-08-13T11:36:00Z</time>
      </trkpt>
      <trkpt lat="46.56926" lon="6.07762">
        <ele>1099.4</ele>
        <time>2019-08-13T11:36:04Z</time>
      </trkpt>
      <trkpt lat="46.56931" lon="6.07765">
        <ele>1100.5</ele>
        <time>2019-08-13T11:36:08Z</time>
      </trkpt>
      <trkpt lat="46.56936" lon="6.07768">
        <ele>1101.6</ele>
        <time>2019-08-13T11:36:12Z</time>
      </trkpt>
      <trkpt lat="46.56941" lon="6.07771">
        <ele>1102.7</ele>
        <time>2019-08-13T11:36:17Z</time>
      </trkpt>
      <trkpt lat="46.56946" lon="6.07774">
        <ele>1103.7</ele>
        <time>2019-08-13T11:36:22Z</time>
      </trkpt>
      <trkpt lat="46.56951" lon="6.07775">
        <ele>1104.2</ele>
        <time>2019-08-13T11:36:27Z</time>
      </trkpt>
      <trkpt lat="46.56955" lon="6.07778">
        <ele>1104</ele>
        <time>2019-08-13T11:36:34Z</time>
      </trkpt>
      <trkpt lat="46.5696" lon="6.07781">
        <ele>1102.8</ele>
        <time>2019-08-13T11:36:44Z</time>
      </trkpt>
      <trkpt lat="46.56965" lon="6.07783">
        <ele>1101.6</ele>
        <time>2019-08-13T11:36:53Z</time>
      </trkpt>
      <trkpt lat="46.56969" lon="6.07784">
        <ele>1101.3</ele>
        <time>2019-08-13T11:36:58Z</time>
      </trkpt>
      <trkpt lat="46.56974" lon="6.07785">
        <ele>1101.3</ele>
        <time>2019-08-13T11:37:02Z</time>
      </trkpt>
      <trkpt lat="46.56979" lon="6.07787">
        <ele>1101.4</ele>
        <time>2019-08-13T11:37:05Z</time>
      </trkpt>
      <trkpt lat="46.56983" lon="6.07788">
        <ele>1101.6</ele>
        <time>2019-08-13T11:37:10Z</time>
      </trkpt>
      <trkpt lat="46.56988" lon="6.0779">
        <ele>1102.2</ele>
        <time>2019-08-13T11:37:16Z</time>
      </trkpt>
      <trkpt lat="46.56992" lon="6.07792">
        <ele>1102.6</ele>
        <time>2019-08-13T11:37:21Z</time>
      </trkpt>
      <trkpt lat="46.56998" lon="6.07785">
        <ele>1099.6</ele>
        <time>2019-08-13T11:38:25Z</time>
      </trkpt>
      <trkpt lat="46.56999" lon="6.07779">
        <ele>1097.7</ele>
        <time>2019-08-13T11:38:37Z</time>
      </trkpt>
      <trkpt lat="46.56997" lon="6.07773">
        <ele>1098.7</ele>
        <time>2019-08-13T11:39:04Z</time>
      </trkpt>
      <trkpt lat="46.56992" lon="6.07771">
        <ele>1099.2</ele>
        <time>2019-08-13T11:39:09Z</time>
      </trkpt>
      <trkpt lat="46.56986" lon="6.0777">
        <ele>1099.4</ele>
        <time>2019-08-13T11:39:11Z</time>
      </trkpt>
      <trkpt lat="46.56974" lon="6.07765">
        <ele>1101.2</ele>
        <time>2019-08-13T11:39:21Z</time>
      </trkpt>
      <trkpt lat="46.5697" lon="6.07762">
        <ele>1102.3</ele>
        <time>2019-08-13T11:39:27Z</time>
      </trkpt>
      <trkpt lat="46.56966" lon="6.07758">
        <ele>1103</ele>
        <time>2019-08-13T11:39:31Z</time>
      </trkpt>
      <trkpt lat="46.56958" lon="6.07748">
        <ele>1105.2</ele>
        <time>2019-08-13T11:39:41Z</time>
      </trkpt>
      <trkpt lat="46.56954" lon="6.07743">
        <ele>1105.8</ele>
        <time>2019-08-13T11:39:48Z</time>
      </trkpt>
      <trkpt lat="46.5695" lon="6.07738">
        <ele>1106.2</ele>
        <time>2019-08-13T11:39:53Z</time>
      </trkpt>
      <trkpt lat="46.56945" lon="6.07735">
        <ele>1106.6</ele>
        <time>2019-08-13T11:39:58Z</time>
      </trkpt>
      <trkpt lat="46.56941" lon="6.07732">
        <ele>1107.3</ele>
        <time>2019-08-13T11:40:05Z</time>
      </trkpt>
      <trkpt lat="46.56938" lon="6.07726">
        <ele>1107.9</ele>
        <time>2019-08-13T11:40:11Z</time>
      </trkpt>
      <trkpt lat="46.56934" lon="6.07722">
        <ele>1108.8</ele>
        <time>2019-08-13T11:40:16Z</time>
      </trkpt>
      <trkpt lat="46.56922" lon="6.07709">
        <ele>1112.9</ele>
        <time>2019-08-13T11:40:35Z</time>
      </trkpt>
      <trkpt lat="46.56916" lon="6.07708">
        <ele>1114.8</ele>
        <time>2019-08-13T11:40:47Z</time>
      </trkpt>
      <trkpt lat="46.56897" lon="6.07685">
        <ele>1118.3</ele>
        <time>2019-08-13T11:41:09Z</time>
      </trkpt>
      <trkpt lat="46.56893" lon="6.07681">
        <ele>1118.6</ele>
        <time>2019-08-13T11:41:14Z</time>
      </trkpt>
      <trkpt lat="46.56878" lon="6.07668">
        <ele>1118.9</ele>
        <time>2019-08-13T11:41:32Z</time>
      </trkpt>
      <trkpt lat="46.56873" lon="6.07665">
        <ele>1118.5</ele>
        <time>2019-08-13T11:41:38Z</time>
      </trkpt>
      <trkpt lat="46.56868" lon="6.07663">
        <ele>1118.5</ele>
        <time>2019-08-13T11:41:43Z</time>
      </trkpt>
      <trkpt lat="46.56865" lon="6.07658">
        <ele>1118.6</ele>
        <time>2019-08-13T11:41:45Z</time>
      </trkpt>
      <trkpt lat="46.56861" lon="6.07652">
        <ele>1118.8</ele>
        <time>2019-08-13T11:41:48Z</time>
      </trkpt>
      <trkpt lat="46.56858" lon="6.07647">
        <ele>1119.1</ele>
        <time>2019-08-13T11:41:54Z</time>
      </trkpt>
      <trkpt lat="46.56853" lon="6.07643">
        <ele>1119</ele>
        <time>2019-08-13T11:42:02Z</time>
      </trkpt>
      <trkpt lat="46.56849" lon="6.0764">
        <ele>1118.6</ele>
        <time>2019-08-13T11:42:06Z</time>
      </trkpt>
      <trkpt lat="46.56846" lon="6.07635">
        <ele>1117.7</ele>
        <time>2019-08-13T11:42:12Z</time>
      </trkpt>
      <trkpt lat="46.5686" lon="6.07628">
        <ele>1121</ele>
        <time>2019-08-13T11:43:23Z</time>
      </trkpt>
      <trkpt lat="46.56865" lon="6.07628">
        <ele>1121.2</ele>
        <time>2019-08-13T11:43:25Z</time>
      </trkpt>
      <trkpt lat="46.5687" lon="6.0763">
        <ele>1121.6</ele>
        <time>2019-08-13T11:43:28Z</time>
      </trkpt>
      <trkpt lat="46.56876" lon="6.07631">
        <ele>1122.4</ele>
        <time>2019-08-13T11:43:35Z</time>
      </trkpt>
      <trkpt lat="46.5688" lon="6.07633">
        <ele>1122.8</ele>
        <time>2019-08-13T11:43:39Z</time>
      </trkpt>
      <trkpt lat="46.56886" lon="6.07633">
        <ele>1123.3</ele>
        <time>2019-08-13T11:43:43Z</time>
      </trkpt>
      <trkpt lat="46.5689" lon="6.07634">
        <ele>1123.9</ele>
        <time>2019-08-13T11:43:47Z</time>
      </trkpt>
      <trkpt lat="46.56895" lon="6.07637">
        <ele>1125.9</ele>
        <time>2019-08-13T11:43:56Z</time>
      </trkpt>
      <trkpt lat="46.56899" lon="6.0764">
        <ele>1127.5</ele>
        <time>2019-08-13T11:44:03Z</time>
      </trkpt>
      <trkpt lat="46.56904" lon="6.07643">
        <ele>1128.8</ele>
        <time>2019-08-13T11:44:10Z</time>
      </trkpt>
      <trkpt lat="46.5691" lon="6.07645">
        <ele>1129.4</ele>
        <time>2019-08-13T11:44:14Z</time>
      </trkpt>
      <trkpt lat="46.56935" lon="6.07652">
        <ele>1129.6</ele>
        <time>2019-08-13T11:44:23Z</time>
      </trkpt>
      <trkpt lat="46.56937" lon="6.07657">
        <ele>1129.2</ele>
        <time>2019-08-13T11:44:27Z</time>
      </trkpt>
      <trkpt lat="46.56941" lon="6.07663">
        <ele>1128.3</ele>
        <time>2019-08-13T11:44:33Z</time>
      </trkpt>
      <trkpt lat="46.56944" lon="6.07669">
        <ele>1126.7</ele>
        <time>2019-08-13T11:44:40Z</time>
      </trkpt>
      <trkpt lat="46.56948" lon="6.07673">
        <ele>1125.4</ele>
        <time>2019-08-13T11:44:46Z</time>
      </trkpt>
      <trkpt lat="46.56952" lon="6.07677">
        <ele>1124.6</ele>
        <time>2019-08-13T11:44:52Z</time>
      </trkpt>
      <trkpt lat="46.56956" lon="6.07682">
        <ele>1123.9</ele>
        <time>2019-08-13T11:44:59Z</time>
      </trkpt>
      <trkpt lat="46.5696" lon="6.07686">
        <ele>1123.3</ele>
        <time>2019-08-13T11:45:06Z</time>
      </trkpt>
      <trkpt lat="46.56965" lon="6.07688">
        <ele>1123.2</ele>
        <time>2019-08-13T11:45:10Z</time>
      </trkpt>
      <trkpt lat="46.56975" lon="6.07701">
        <ele>1123.9</ele>
        <time>2019-08-13T11:45:30Z</time>
      </trkpt>
      <trkpt lat="46.5698" lon="6.07706">
        <ele>1123.9</ele>
        <time>2019-08-13T11:45:32Z</time>
      </trkpt>
      <trkpt lat="46.57001" lon="6.07705">
        <ele>1127.9</ele>
        <time>2019-08-13T11:49:59Z</time>
      </trkpt>
      <trkpt lat="46.5701" lon="6.07706">
        <ele>1125.9</ele>
        <time>2019-08-13T11:50:15Z</time>
      </trkpt>
      <trkpt lat="46.57015" lon="6.07708">
        <ele>1125.4</ele>
        <time>2019-08-13T11:50:22Z</time>
      </trkpt>
      <trkpt lat="46.5702" lon="6.0771">
        <ele>1125.5</ele>
        <time>2019-08-13T11:50:29Z</time>
      </trkpt>
      <trkpt lat="46.57025" lon="6.07714">
        <ele>1125.7</ele>
        <time>2019-08-13T11:50:32Z</time>
      </trkpt>
      <trkpt lat="46.5703" lon="6.07717">
        <ele>1126</ele>
        <time>2019-08-13T11:50:38Z</time>
      </trkpt>
      <trkpt lat="46.57033" lon="6.07722">
        <ele>1126</ele>
        <time>2019-08-13T11:50:41Z</time>
      </trkpt>
      <trkpt lat="46.57037" lon="6.07727">
        <ele>1126.2</ele>
        <time>2019-08-13T11:50:47Z</time>
      </trkpt>
      <trkpt lat="46.57042" lon="6.07731">
        <ele>1126.4</ele>
        <time>2019-08-13T11:50:52Z</time>
      </trkpt>
      <trkpt lat="46.57046" lon="6.07735">
        <ele>1126.5</ele>
        <time>2019-08-13T11:50:56Z</time>
      </trkpt>
      <trkpt lat="46.5705" lon="6.07738">
        <ele>1126.3</ele>
        <time>2019-08-13T11:51:00Z</time>
      </trkpt>
      <trkpt lat="46.57054" lon="6.07743">
        <ele>1125.9</ele>
        <time>2019-08-13T11:51:08Z</time>
      </trkpt>
      <trkpt lat="46.57057" lon="6.07747">
        <ele>1125.7</ele>
        <time>2019-08-13T11:51:18Z</time>
      </trkpt>
      <trkpt lat="46.57061" lon="6.07751">
        <ele>1125.7</ele>
        <time>2019-08-13T11:51:22Z</time>
      </trkpt>
      <trkpt lat="46.57067" lon="6.07753">
        <ele>1125.5</ele>
        <time>2019-08-13T11:51:25Z</time>
      </trkpt>
      <trkpt lat="46.57071" lon="6.07757">
        <ele>1125.2</ele>
        <time>2019-08-13T11:51:28Z</time>
      </trkpt>
      <trkpt lat="46.57075" lon="6.07761">
        <ele>1124.3</ele>
        <time>2019-08-13T11:51:36Z</time>
      </trkpt>
      <trkpt lat="46.57079" lon="6.07765">
        <ele>1123.9</ele>
        <time>2019-08-13T11:51:42Z</time>
      </trkpt>
      <trkpt lat="46.57088" lon="6.07778">
        <ele>1123.5</ele>
        <time>2019-08-13T11:51:57Z</time>
      </trkpt>
      <trkpt lat="46.5709" lon="6.07783">
        <ele>1123</ele>
        <time>2019-08-13T11:52:01Z</time>
      </trkpt>
      <trkpt lat="46.57093" lon="6.0779">
        <ele>1122.4</ele>
        <time>2019-08-13T11:52:06Z</time>
      </trkpt>
      <trkpt lat="46.57096" lon="6.07794">
        <ele>1122</ele>
        <time>2019-08-13T11:52:11Z</time>
      </trkpt>
      <trkpt lat="46.57099" lon="6.078">
        <ele>1121.6</ele>
        <time>2019-08-13T11:52:17Z</time>
      </trkpt>
      <trkpt lat="46.57102" lon="6.07807">
        <ele>1121.4</ele>
        <time>2019-08-13T11:52:21Z</time>
      </trkpt>
      <trkpt lat="46.57108" lon="6.07818">
        <ele>1121.2</ele>
        <time>2019-08-13T11:52:32Z</time>
      </trkpt>
      <trkpt lat="46.57109" lon="6.07825">
        <ele>1120.9</ele>
        <time>2019-08-13T11:52:39Z</time>
      </trkpt>
      <trkpt lat="46.57109" lon="6.07832">
        <ele>1120.8</ele>
        <time>2019-08-13T11:52:43Z</time>
      </trkpt>
      <trkpt lat="46.57117" lon="6.0785">
        <ele>1120.7</ele>
        <time>2019-08-13T11:52:59Z</time>
      </trkpt>
      <trkpt lat="46.57122" lon="6.07851">
        <ele>1120.7</ele>
        <time>2019-08-13T11:53:06Z</time>
      </trkpt>
      <trkpt lat="46.57126" lon="6.07849">
        <ele>1120.8</ele>
        <time>2019-08-13T11:53:13Z</time>
      </trkpt>
      <trkpt lat="46.57131" lon="6.0785">
        <ele>1121.3</ele>
        <time>2019-08-13T11:53:24Z</time>
      </trkpt>
      <trkpt lat="46.57134" lon="6.07844">
        <ele>1123</ele>
        <time>2019-08-13T11:53:42Z</time>
      </trkpt>
      <trkpt lat="46.57139" lon="6.07841">
        <ele>1125.2</ele>
        <time>2019-08-13T11:53:54Z</time>
      </trkpt>
      <trkpt lat="46.57143" lon="6.07838">
        <ele>1126</ele>
        <time>2019-08-13T11:54:00Z</time>
      </trkpt>
      <trkpt lat="46.57148" lon="6.07837">
        <ele>1126.4</ele>
        <time>2019-08-13T11:54:07Z</time>
      </trkpt>
      <trkpt lat="46.57154" lon="6.07838">
        <ele>1126.4</ele>
        <time>2019-08-13T11:54:11Z</time>
      </trkpt>
      <trkpt lat="46.57158" lon="6.07839">
        <ele>1126.3</ele>
        <time>2019-08-13T11:54:15Z</time>
      </trkpt>
      <trkpt lat="46.57164" lon="6.0784">
        <ele>1126.2</ele>
        <time>2019-08-13T11:54:19Z</time>
      </trkpt>
      <trkpt lat="46.57169" lon="6.07841">
        <ele>1126.1</ele>
        <time>2019-08-13T11:54:26Z</time>
      </trkpt>
      <trkpt lat="46.57173" lon="6.07842">
        <ele>1125.9</ele>
        <time>2019-08-13T11:54:31Z</time>
      </trkpt>
      <trkpt lat="46.57178" lon="6.07843">
        <ele>1125.8</ele>
        <time>2019-08-13T11:54:38Z</time>
      </trkpt>
      <trkpt lat="46.57183" lon="6.07843">
        <ele>1125.9</ele>
        <time>2019-08-13T11:54:50Z</time>
      </trkpt>
      <trkpt lat="46.57188" lon="6.07845">
        <ele>1126</ele>
        <time>2019-08-13T11:54:58Z</time>
      </trkpt>
      <trkpt lat="46.57193" lon="6.07847">
        <ele>1126.2</ele>
        <time>2019-08-13T11:55:04Z</time>
      </trkpt>
      <trkpt lat="46.57197" lon="6.0785">
        <ele>1126</ele>
        <time>2019-08-13T11:55:13Z</time>
      </trkpt>
      <trkpt lat="46.57202" lon="6.07849">
        <ele>1124.8</ele>
        <time>2019-08-13T11:55:22Z</time>
      </trkpt>
      <trkpt lat="46.57208" lon="6.07838">
        <ele>1121.1</ele>
        <time>2019-08-13T11:55:39Z</time>
      </trkpt>
      <trkpt lat="46.57212" lon="6.07834">
        <ele>1120.6</ele>
        <time>2019-08-13T11:55:42Z</time>
      </trkpt>
      <trkpt lat="46.57216" lon="6.0783">
        <ele>1119.9</ele>
        <time>2019-08-13T11:55:46Z</time>
      </trkpt>
      <trkpt lat="46.5722" lon="6.07825">
        <ele>1118.5</ele>
        <time>2019-08-13T11:55:52Z</time>
      </trkpt>
      <trkpt lat="46.57225" lon="6.07819">
        <ele>1109.2</ele>
        <time>2019-08-13T11:56:44Z</time>
      </trkpt>
      <trkpt lat="46.57229" lon="6.07813">
        <ele>1109.4</ele>
        <time>2019-08-13T11:56:50Z</time>
      </trkpt>
      <trkpt lat="46.57233" lon="6.07809">
        <ele>1109.8</ele>
        <time>2019-08-13T11:56:53Z</time>
      </trkpt>
      <trkpt lat="46.57246" lon="6.07802">
        <ele>1111.1</ele>
        <time>2019-08-13T11:57:04Z</time>
      </trkpt>
      <trkpt lat="46.57251" lon="6.07801">
        <ele>1111.4</ele>
        <time>2019-08-13T11:57:08Z</time>
      </trkpt>
      <trkpt lat="46.57264" lon="6.07804">
        <ele>1111.7</ele>
        <time>2019-08-13T11:57:23Z</time>
      </trkpt>
      <trkpt lat="46.57268" lon="6.07805">
        <ele>1112</ele>
        <time>2019-08-13T11:57:27Z</time>
      </trkpt>
      <trkpt lat="46.57273" lon="6.07803">
        <ele>1113</ele>
        <time>2019-08-13T11:57:35Z</time>
      </trkpt>
      <trkpt lat="46.57279" lon="6.07798">
        <ele>1113.5</ele>
        <time>2019-08-13T11:57:38Z</time>
      </trkpt>
      <trkpt lat="46.57285" lon="6.07794">
        <ele>1113.8</ele>
        <time>2019-08-13T11:57:40Z</time>
      </trkpt>
      <trkpt lat="46.57291" lon="6.0779">
        <ele>1114.2</ele>
        <time>2019-08-13T11:57:42Z</time>
      </trkpt>
      <trkpt lat="46.57294" lon="6.07786">
        <ele>1114.8</ele>
        <time>2019-08-13T11:57:46Z</time>
      </trkpt>
      <trkpt lat="46.57298" lon="6.0778">
        <ele>1115.7</ele>
        <time>2019-08-13T11:57:50Z</time>
      </trkpt>
      <trkpt lat="46.57301" lon="6.07773">
        <ele>1117.2</ele>
        <time>2019-08-13T11:57:59Z</time>
      </trkpt>
      <trkpt lat="46.57305" lon="6.07768">
        <ele>1117.8</ele>
        <time>2019-08-13T11:58:02Z</time>
      </trkpt>
      <trkpt lat="46.57307" lon="6.07761">
        <ele>1118.4</ele>
        <time>2019-08-13T11:58:05Z</time>
      </trkpt>
      <trkpt lat="46.57308" lon="6.07755">
        <ele>1119.5</ele>
        <time>2019-08-13T11:58:10Z</time>
      </trkpt>
      <trkpt lat="46.57312" lon="6.07749">
        <ele>1120.2</ele>
        <time>2019-08-13T11:58:13Z</time>
      </trkpt>
      <trkpt lat="46.57313" lon="6.07743">
        <ele>1121</ele>
        <time>2019-08-13T11:58:17Z</time>
      </trkpt>
      <trkpt lat="46.57315" lon="6.07735">
        <ele>1122</ele>
        <time>2019-08-13T11:58:22Z</time>
      </trkpt>
      <trkpt lat="46.57316" lon="6.07727">
        <ele>1122.5</ele>
        <time>2019-08-13T11:58:25Z</time>
      </trkpt>
      <trkpt lat="46.57321" lon="6.07718">
        <ele>1124.1</ele>
        <time>2019-08-13T11:58:37Z</time>
      </trkpt>
      <trkpt lat="46.57326" lon="6.07715">
        <ele>1124.1</ele>
        <time>2019-08-13T11:58:41Z</time>
      </trkpt>
      <trkpt lat="46.5733" lon="6.0771">
        <ele>1123.8</ele>
        <time>2019-08-13T11:58:47Z</time>
      </trkpt>
      <trkpt lat="46.57334" lon="6.07707">
        <ele>1123.6</ele>
        <time>2019-08-13T11:58:49Z</time>
      </trkpt>
      <trkpt lat="46.57338" lon="6.07703">
        <ele>1123.2</ele>
        <time>2019-08-13T11:58:54Z</time>
      </trkpt>
      <trkpt lat="46.57342" lon="6.07702">
        <ele>1122.9</ele>
        <time>2019-08-13T11:58:57Z</time>
      </trkpt>
      <trkpt lat="46.57347" lon="6.07697">
        <ele>1122.5</ele>
        <time>2019-08-13T11:59:02Z</time>
      </trkpt>
      <trkpt lat="46.57352" lon="6.07693">
        <ele>1122.2</ele>
        <time>2019-08-13T11:59:06Z</time>
      </trkpt>
      <trkpt lat="46.57356" lon="6.07689">
        <ele>1120.5</ele>
        <time>2019-08-13T11:59:17Z</time>
      </trkpt>
      <trkpt lat="46.57361" lon="6.07686">
        <ele>1119.8</ele>
        <time>2019-08-13T11:59:23Z</time>
      </trkpt>
      <trkpt lat="46.57373" lon="6.07685">
        <ele>1120.3</ele>
        <time>2019-08-13T11:59:46Z</time>
      </trkpt>
      <trkpt lat="46.5738" lon="6.07686">
        <ele>1120.5</ele>
        <time>2019-08-13T11:59:48Z</time>
      </trkpt>
      <trkpt lat="46.57385" lon="6.07687">
        <ele>1120.7</ele>
        <time>2019-08-13T11:59:52Z</time>
      </trkpt>
      <trkpt lat="46.5739" lon="6.0769">
        <ele>1121.4</ele>
        <time>2019-08-13T12:00:03Z</time>
      </trkpt>
      <trkpt lat="46.57394" lon="6.07692">
        <ele>1122.4</ele>
        <time>2019-08-13T12:00:12Z</time>
      </trkpt>
      <trkpt lat="46.57399" lon="6.07695">
        <ele>1123.2</ele>
        <time>2019-08-13T12:00:16Z</time>
      </trkpt>
      <trkpt lat="46.57403" lon="6.07698">
        <ele>1124</ele>
        <time>2019-08-13T12:00:21Z</time>
      </trkpt>
      <trkpt lat="46.57408" lon="6.07702">
        <ele>1124.3</ele>
        <time>2019-08-13T12:00:24Z</time>
      </trkpt>
      <trkpt lat="46.57412" lon="6.07706">
        <ele>1124.5</ele>
        <time>2019-08-13T12:00:26Z</time>
      </trkpt>
      <trkpt lat="46.57416" lon="6.0771">
        <ele>1124.7</ele>
        <time>2019-08-13T12:00:28Z</time>
      </trkpt>
      <trkpt lat="46.5742" lon="6.07714">
        <ele>1125</ele>
        <time>2019-08-13T12:00:35Z</time>
      </trkpt>
      <trkpt lat="46.57429" lon="6.07724">
        <ele>1125.7</ele>
        <time>2019-08-13T12:00:50Z</time>
      </trkpt>
      <trkpt lat="46.57434" lon="6.07728">
        <ele>1125.7</ele>
        <time>2019-08-13T12:00:53Z</time>
      </trkpt>
      <trkpt lat="46.57438" lon="6.07731">
        <ele>1125.5</ele>
        <time>2019-08-13T12:00:58Z</time>
      </trkpt>
      <trkpt lat="46.57442" lon="6.07735">
        <ele>1125.1</ele>
        <time>2019-08-13T12:01:04Z</time>
      </trkpt>
      <trkpt lat="46.57447" lon="6.07737">
        <ele>1124.8</ele>
        <time>2019-08-13T12:01:15Z</time>
      </trkpt>
      <trkpt lat="46.57458" lon="6.07732">
        <ele>1123.7</ele>
        <time>2019-08-13T12:01:31Z</time>
      </trkpt>
      <trkpt lat="46.57463" lon="6.07733">
        <ele>1123.1</ele>
        <time>2019-08-13T12:01:39Z</time>
      </trkpt>
      <trkpt lat="46.57467" lon="6.07737">
        <ele>1122.7</ele>
        <time>2019-08-13T12:01:44Z</time>
      </trkpt>
      <trkpt lat="46.57471" lon="6.07741">
        <ele>1122.4</ele>
        <time>2019-08-13T12:01:47Z</time>
      </trkpt>
      <trkpt lat="46.57483" lon="6.07749">
        <ele>1121.8</ele>
        <time>2019-08-13T12:01:56Z</time>
      </trkpt>
      <trkpt lat="46.57488" lon="6.07751">
        <ele>1121.7</ele>
        <time>2019-08-13T12:02:04Z</time>
      </trkpt>
      <trkpt lat="46.57492" lon="6.07755">
        <ele>1122.1</ele>
        <time>2019-08-13T12:02:09Z</time>
      </trkpt>
      <trkpt lat="46.57497" lon="6.07757">
        <ele>1123</ele>
        <time>2019-08-13T12:02:18Z</time>
      </trkpt>
      <trkpt lat="46.57502" lon="6.07756">
        <ele>1123.3</ele>
        <time>2019-08-13T12:02:20Z</time>
      </trkpt>
      <trkpt lat="46.57512" lon="6.07751">
        <ele>1125</ele>
        <time>2019-08-13T12:02:41Z</time>
      </trkpt>
      <trkpt lat="46.57524" lon="6.07746">
        <ele>1126.5</ele>
        <time>2019-08-13T12:03:06Z</time>
      </trkpt>
      <trkpt lat="46.57548" lon="6.07745">
        <ele>1128.1</ele>
        <time>2019-08-13T12:03:19Z</time>
      </trkpt>
      <trkpt lat="46.57553" lon="6.07745">
        <ele>1128.1</ele>
        <time>2019-08-13T12:03:24Z</time>
      </trkpt>
      <trkpt lat="46.57557" lon="6.07746">
        <ele>1126.9</ele>
        <time>2019-08-13T12:03:41Z</time>
      </trkpt>
      <trkpt lat="46.57564" lon="6.07748">
        <ele>1126.7</ele>
        <time>2019-08-13T12:03:46Z</time>
      </trkpt>
      <trkpt lat="46.57569" lon="6.07752">
        <ele>1126.7</ele>
        <time>2019-08-13T12:03:48Z</time>
      </trkpt>
      <trkpt lat="46.57574" lon="6.07755">
        <ele>1126.9</ele>
        <time>2019-08-13T12:03:53Z</time>
      </trkpt>
      <trkpt lat="46.57579" lon="6.07759">
        <ele>1128.3</ele>
        <time>2019-08-13T12:04:05Z</time>
      </trkpt>
      <trkpt lat="46.57584" lon="6.07764">
        <ele>1128.7</ele>
        <time>2019-08-13T12:04:07Z</time>
      </trkpt>
      <trkpt lat="46.57588" lon="6.07769">
        <ele>1129.4</ele>
        <time>2019-08-13T12:04:11Z</time>
      </trkpt>
      <trkpt lat="46.57592" lon="6.07773">
        <ele>1130.6</ele>
        <time>2019-08-13T12:04:17Z</time>
      </trkpt>
      <trkpt lat="46.57597" lon="6.07777">
        <ele>1132.4</ele>
        <time>2019-08-13T12:04:25Z</time>
      </trkpt>
      <trkpt lat="46.57601" lon="6.0778">
        <ele>1133</ele>
        <time>2019-08-13T12:04:28Z</time>
      </trkpt>
      <trkpt lat="46.57606" lon="6.07782">
        <ele>1133.7</ele>
        <time>2019-08-13T12:04:32Z</time>
      </trkpt>
      <trkpt lat="46.5761" lon="6.07785">
        <ele>1134.5</ele>
        <time>2019-08-13T12:04:38Z</time>
      </trkpt>
      <trkpt lat="46.57615" lon="6.07785">
        <ele>1134.9</ele>
        <time>2019-08-13T12:04:45Z</time>
      </trkpt>
      <trkpt lat="46.57619" lon="6.07789">
        <ele>1135</ele>
        <time>2019-08-13T12:04:50Z</time>
      </trkpt>
      <trkpt lat="46.57623" lon="6.07793">
        <ele>1135</ele>
        <time>2019-08-13T12:04:54Z</time>
      </trkpt>
      <trkpt lat="46.57626" lon="6.07798">
        <ele>1134.6</ele>
        <time>2019-08-13T12:05:00Z</time>
      </trkpt>
      <trkpt lat="46.57631" lon="6.07801">
        <ele>1134</ele>
        <time>2019-08-13T12:05:05Z</time>
      </trkpt>
      <trkpt lat="46.57634" lon="6.07807">
        <ele>1133.3</ele>
        <time>2019-08-13T12:05:09Z</time>
      </trkpt>
      <trkpt lat="46.57636" lon="6.07813">
        <ele>1132.1</ele>
        <time>2019-08-13T12:05:17Z</time>
      </trkpt>
      <trkpt lat="46.5764" lon="6.07819">
        <ele>1131.6</ele>
        <time>2019-08-13T12:05:23Z</time>
      </trkpt>
      <trkpt lat="46.57642" lon="6.07826">
        <ele>1131</ele>
        <time>2019-08-13T12:05:29Z</time>
      </trkpt>
      <trkpt lat="46.57643" lon="6.07833">
        <ele>1130.5</ele>
        <time>2019-08-13T12:05:33Z</time>
      </trkpt>
      <trkpt lat="46.57644" lon="6.0784">
        <ele>1129.9</ele>
        <time>2019-08-13T12:05:38Z</time>
      </trkpt>
      <trkpt lat="46.57645" lon="6.07847">
        <ele>1129</ele>
        <time>2019-08-13T12:05:44Z</time>
      </trkpt>
      <trkpt lat="46.57648" lon="6.07853">
        <ele>1128.5</ele>
        <time>2019-08-13T12:05:48Z</time>
      </trkpt>
      <trkpt lat="46.57659" lon="6.07874">
        <ele>1126.1</ele>
        <time>2019-08-13T12:06:06Z</time>
      </trkpt>
      <trkpt lat="46.5766" lon="6.07881">
        <ele>1125.6</ele>
        <time>2019-08-13T12:06:14Z</time>
      </trkpt>
      <trkpt lat="46.57663" lon="6.07888">
        <ele>1125.1</ele>
        <time>2019-08-13T12:06:19Z</time>
      </trkpt>
      <trkpt lat="46.57666" lon="6.07893">
        <ele>1124.7</ele>
        <time>2019-08-13T12:06:24Z</time>
      </trkpt>
      <trkpt lat="46.57669" lon="6.07899">
        <ele>1124.2</ele>
        <time>2019-08-13T12:06:30Z</time>
      </trkpt>
      <trkpt lat="46.57672" lon="6.07905">
        <ele>1123.8</ele>
        <time>2019-08-13T12:06:35Z</time>
      </trkpt>
      <trkpt lat="46.57682" lon="6.07915">
        <ele>1122.4</ele>
        <time>2019-08-13T12:06:48Z</time>
      </trkpt>
      <trkpt lat="46.57691" lon="6.07928">
        <ele>1122.8</ele>
        <time>2019-08-13T12:07:02Z</time>
      </trkpt>
      <trkpt lat="46.57694" lon="6.07934">
        <ele>1123.1</ele>
        <time>2019-08-13T12:07:07Z</time>
      </trkpt>
      <trkpt lat="46.57696" lon="6.0794">
        <ele>1124.1</ele>
        <time>2019-08-13T12:07:14Z</time>
      </trkpt>
      <trkpt lat="46.57698" lon="6.07946">
        <ele>1125.5</ele>
        <time>2019-08-13T12:07:20Z</time>
      </trkpt>
      <trkpt lat="46.57697" lon="6.07953">
        <ele>1126.9</ele>
        <time>2019-08-13T12:07:26Z</time>
      </trkpt>
      <trkpt lat="46.57694" lon="6.0796">
        <ele>1128.2</ele>
        <time>2019-08-13T12:07:32Z</time>
      </trkpt>
      <trkpt lat="46.57696" lon="6.07968">
        <ele>1128.8</ele>
        <time>2019-08-13T12:07:35Z</time>
      </trkpt>
      <trkpt lat="46.57699" lon="6.07974">
        <ele>1129.6</ele>
        <time>2019-08-13T12:07:40Z</time>
      </trkpt>
      <trkpt lat="46.577" lon="6.0798">
        <ele>1130.3</ele>
        <time>2019-08-13T12:07:46Z</time>
      </trkpt>
      <trkpt lat="46.57699" lon="6.07987">
        <ele>1130.9</ele>
        <time>2019-08-13T12:07:53Z</time>
      </trkpt>
      <trkpt lat="46.57702" lon="6.07992">
        <ele>1130.8</ele>
        <time>2019-08-13T12:08:00Z</time>
      </trkpt>
      <trkpt lat="46.57708" lon="6.08003">
        <ele>1128.3</ele>
        <time>2019-08-13T12:08:29Z</time>
      </trkpt>
      <trkpt lat="46.57711" lon="6.0801">
        <ele>1128</ele>
        <time>2019-08-13T12:08:36Z</time>
      </trkpt>
      <trkpt lat="46.57714" lon="6.08016">
        <ele>1127.8</ele>
        <time>2019-08-13T12:08:40Z</time>
      </trkpt>
      <trkpt lat="46.57716" lon="6.08022">
        <ele>1127.6</ele>
        <time>2019-08-13T12:08:44Z</time>
      </trkpt>
      <trkpt lat="46.57719" lon="6.08027">
        <ele>1127.4</ele>
        <time>2019-08-13T12:08:48Z</time>
      </trkpt>
      <trkpt lat="46.57723" lon="6.08032">
        <ele>1127.4</ele>
        <time>2019-08-13T12:08:55Z</time>
      </trkpt>
      <trkpt lat="46.57726" lon="6.08037">
        <ele>1127.5</ele>
        <time>2019-08-13T12:09:03Z</time>
      </trkpt>
      <trkpt lat="46.57728" lon="6.08045">
        <ele>1127.5</ele>
        <time>2019-08-13T12:09:09Z</time>
      </trkpt>
      <trkpt lat="46.57729" lon="6.08051">
        <ele>1127.3</ele>
        <time>2019-08-13T12:09:14Z</time>
      </trkpt>
      <trkpt lat="46.5773" lon="6.08058">
        <ele>1127</ele>
        <time>2019-08-13T12:09:20Z</time>
      </trkpt>
      <trkpt lat="46.57727" lon="6.08065">
        <ele>1127</ele>
        <time>2019-08-13T12:09:25Z</time>
      </trkpt>
      <trkpt lat="46.57726" lon="6.08071">
        <ele>1127</ele>
        <time>2019-08-13T12:09:30Z</time>
      </trkpt>
      <trkpt lat="46.57726" lon="6.08079">
        <ele>1126.9</ele>
        <time>2019-08-13T12:09:36Z</time>
      </trkpt>
      <trkpt lat="46.57726" lon="6.08086">
        <ele>1126.5</ele>
        <time>2019-08-13T12:09:43Z</time>
      </trkpt>
      <trkpt lat="46.57728" lon="6.08093">
        <ele>1126.2</ele>
        <time>2019-08-13T12:09:46Z</time>
      </trkpt>
      <trkpt lat="46.57731" lon="6.08098">
        <ele>1125.9</ele>
        <time>2019-08-13T12:09:52Z</time>
      </trkpt>
      <trkpt lat="46.57735" lon="6.08102">
        <ele>1125.6</ele>
        <time>2019-08-13T12:09:55Z</time>
      </trkpt>
      <trkpt lat="46.57739" lon="6.08106">
        <ele>1125.2</ele>
        <time>2019-08-13T12:09:59Z</time>
      </trkpt>
      <trkpt lat="46.57744" lon="6.08112">
        <ele>1124.3</ele>
        <time>2019-08-13T12:10:05Z</time>
      </trkpt>
      <trkpt lat="46.57747" lon="6.08118">
        <ele>1123.7</ele>
        <time>2019-08-13T12:10:11Z</time>
      </trkpt>
      <trkpt lat="46.57749" lon="6.08124">
        <ele>1123.4</ele>
        <time>2019-08-13T12:10:15Z</time>
      </trkpt>
      <trkpt lat="46.57755" lon="6.08139">
        <ele>1121.8</ele>
        <time>2019-08-13T12:10:30Z</time>
      </trkpt>
      <trkpt lat="46.57758" lon="6.08145">
        <ele>1121.8</ele>
        <time>2019-08-13T12:10:35Z</time>
      </trkpt>
      <trkpt lat="46.5776" lon="6.08152">
        <ele>1122</ele>
        <time>2019-08-13T12:10:44Z</time>
      </trkpt>
      <trkpt lat="46.5776" lon="6.08158">
        <ele>1122.3</ele>
        <time>2019-08-13T12:10:48Z</time>
      </trkpt>
      <trkpt lat="46.5776" lon="6.08165">
        <ele>1122.4</ele>
        <time>2019-08-13T12:10:53Z</time>
      </trkpt>
      <trkpt lat="46.5776" lon="6.08172">
        <ele>1122.6</ele>
        <time>2019-08-13T12:11:00Z</time>
      </trkpt>
      <trkpt lat="46.57761" lon="6.0818">
        <ele>1123.2</ele>
        <time>2019-08-13T12:11:07Z</time>
      </trkpt>
      <trkpt lat="46.5776" lon="6.08187">
        <ele>1124</ele>
        <time>2019-08-13T12:11:13Z</time>
      </trkpt>
      <trkpt lat="46.57763" lon="6.08194">
        <ele>1124.2</ele>
        <time>2019-08-13T12:11:15Z</time>
      </trkpt>
      <trkpt lat="46.57762" lon="6.08202">
        <ele>1124.6</ele>
        <time>2019-08-13T12:11:17Z</time>
      </trkpt>
      <trkpt lat="46.57761" lon="6.08209">
        <ele>1125.5</ele>
        <time>2019-08-13T12:11:23Z</time>
      </trkpt>
      <trkpt lat="46.57769" lon="6.08225">
        <ele>1127.2</ele>
        <time>2019-08-13T12:11:38Z</time>
      </trkpt>
      <trkpt lat="46.5777" lon="6.08233">
        <ele>1127.6</ele>
        <time>2019-08-13T12:11:46Z</time>
      </trkpt>
      <trkpt lat="46.57773" lon="6.08239">
        <ele>1127.5</ele>
        <time>2019-08-13T12:11:52Z</time>
      </trkpt>
      <trkpt lat="46.57775" lon="6.08246">
        <ele>1127.4</ele>
        <time>2019-08-13T12:11:58Z</time>
      </trkpt>
      <trkpt lat="46.57776" lon="6.08253">
        <ele>1127.2</ele>
        <time>2019-08-13T12:12:03Z</time>
      </trkpt>
      <trkpt lat="46.57779" lon="6.08259">
        <ele>1127.6</ele>
        <time>2019-08-13T12:12:10Z</time>
      </trkpt>
      <trkpt lat="46.5778" lon="6.08267">
        <ele>1128.1</ele>
        <time>2019-08-13T12:12:19Z</time>
      </trkpt>
      <trkpt lat="46.57781" lon="6.08275">
        <ele>1128.2</ele>
        <time>2019-08-13T12:12:23Z</time>
      </trkpt>
      <trkpt lat="46.57783" lon="6.08283">
        <ele>1128.5</ele>
        <time>2019-08-13T12:12:27Z</time>
      </trkpt>
      <trkpt lat="46.57787" lon="6.08289">
        <ele>1128.7</ele>
        <time>2019-08-13T12:12:30Z</time>
      </trkpt>
      <trkpt lat="46.5779" lon="6.08294">
        <ele>1129.1</ele>
        <time>2019-08-13T12:12:38Z</time>
      </trkpt>
      <trkpt lat="46.57793" lon="6.08301">
        <ele>1128.9</ele>
        <time>2019-08-13T12:12:45Z</time>
      </trkpt>
      <trkpt lat="46.57797" lon="6.08305">
        <ele>1129</ele>
        <time>2019-08-13T12:12:49Z</time>
      </trkpt>
      <trkpt lat="46.57801" lon="6.08308">
        <ele>1128.9</ele>
        <time>2019-08-13T12:12:54Z</time>
      </trkpt>
      <trkpt lat="46.57806" lon="6.08308">
        <ele>1128.8</ele>
        <time>2019-08-13T12:13:01Z</time>
      </trkpt>
      <trkpt lat="46.57811" lon="6.08309">
        <ele>1128.7</ele>
        <time>2019-08-13T12:13:06Z</time>
      </trkpt>
      <trkpt lat="46.57815" lon="6.08307">
        <ele>1128.3</ele>
        <time>2019-08-13T12:13:14Z</time>
      </trkpt>
      <trkpt lat="46.57821" lon="6.08307">
        <ele>1127.1</ele>
        <time>2019-08-13T12:13:25Z</time>
      </trkpt>
      <trkpt lat="46.57827" lon="6.08309">
        <ele>1126</ele>
        <time>2019-08-13T12:13:30Z</time>
      </trkpt>
      <trkpt lat="46.57831" lon="6.08311">
        <ele>1124.5</ele>
        <time>2019-08-13T12:13:36Z</time>
      </trkpt>
      <trkpt lat="46.57835" lon="6.08314">
        <ele>1123.1</ele>
        <time>2019-08-13T12:13:45Z</time>
      </trkpt>
      <trkpt lat="46.5784" lon="6.08315">
        <ele>1122.1</ele>
        <time>2019-08-13T12:13:50Z</time>
      </trkpt>
      <trkpt lat="46.57845" lon="6.08315">
        <ele>1120.3</ele>
        <time>2019-08-13T12:13:57Z</time>
      </trkpt>
      <trkpt lat="46.57849" lon="6.08317">
        <ele>1118.6</ele>
        <time>2019-08-13T12:14:04Z</time>
      </trkpt>
      <trkpt lat="46.57854" lon="6.0832">
        <ele>1117.6</ele>
        <time>2019-08-13T12:14:10Z</time>
      </trkpt>
      <trkpt lat="46.57859" lon="6.08321">
        <ele>1117.2</ele>
        <time>2019-08-13T12:14:15Z</time>
      </trkpt>
      <trkpt lat="46.57864" lon="6.08324">
        <ele>1117</ele>
        <time>2019-08-13T12:14:19Z</time>
      </trkpt>
      <trkpt lat="46.57868" lon="6.08327">
        <ele>1116.7</ele>
        <time>2019-08-13T12:14:24Z</time>
      </trkpt>
      <trkpt lat="46.57873" lon="6.0833">
        <ele>1116.4</ele>
        <time>2019-08-13T12:14:29Z</time>
      </trkpt>
      <trkpt lat="46.57877" lon="6.08329">
        <ele>1115.7</ele>
        <time>2019-08-13T12:14:37Z</time>
      </trkpt>
      <trkpt lat="46.57882" lon="6.08327">
        <ele>1114.9</ele>
        <time>2019-08-13T12:14:44Z</time>
      </trkpt>
      <trkpt lat="46.57887" lon="6.08327">
        <ele>1114.5</ele>
        <time>2019-08-13T12:14:48Z</time>
      </trkpt>
      <trkpt lat="46.57902" lon="6.08326">
        <ele>1112.8</ele>
        <time>2019-08-13T12:15:27Z</time>
      </trkpt>
      <trkpt lat="46.57908" lon="6.08327">
        <ele>1112.6</ele>
        <time>2019-08-13T12:15:32Z</time>
      </trkpt>
      <trkpt lat="46.57914" lon="6.08329">
        <ele>1112.2</ele>
        <time>2019-08-13T12:15:39Z</time>
      </trkpt>
      <trkpt lat="46.5792" lon="6.08333">
        <ele>1111.9</ele>
        <time>2019-08-13T12:15:47Z</time>
      </trkpt>
      <trkpt lat="46.57929" lon="6.08339">
        <ele>1111.4</ele>
        <time>2019-08-13T12:15:52Z</time>
      </trkpt>
      <trkpt lat="46.57937" lon="6.08346">
        <ele>1111.1</ele>
        <time>2019-08-13T12:15:54Z</time>
      </trkpt>
      <trkpt lat="46.57941" lon="6.0835">
        <ele>1110.8</ele>
        <time>2019-08-13T12:15:56Z</time>
      </trkpt>
      <trkpt lat="46.57946" lon="6.08353">
        <ele>1110.5</ele>
        <time>2019-08-13T12:15:59Z</time>
      </trkpt>
      <trkpt lat="46.5795" lon="6.08357">
        <ele>1110.1</ele>
        <time>2019-08-13T12:16:02Z</time>
      </trkpt>
      <trkpt lat="46.57955" lon="6.08361">
        <ele>1109.6</ele>
        <time>2019-08-13T12:16:06Z</time>
      </trkpt>
      <trkpt lat="46.57957" lon="6.08366">
        <ele>1109.1</ele>
        <time>2019-08-13T12:16:14Z</time>
      </trkpt>
      <trkpt lat="46.5796" lon="6.08374">
        <ele>1109.2</ele>
        <time>2019-08-13T12:16:20Z</time>
      </trkpt>
      <trkpt lat="46.57964" lon="6.08379">
        <ele>1109.3</ele>
        <time>2019-08-13T12:16:26Z</time>
      </trkpt>
      <trkpt lat="46.5797" lon="6.08381">
        <ele>1109.2</ele>
        <time>2019-08-13T12:16:30Z</time>
      </trkpt>
      <trkpt lat="46.57974" lon="6.08383">
        <ele>1108.7</ele>
        <time>2019-08-13T12:16:36Z</time>
      </trkpt>
      <trkpt lat="46.57978" lon="6.08386">
        <ele>1107.5</ele>
        <time>2019-08-13T12:16:45Z</time>
      </trkpt>
      <trkpt lat="46.57989" lon="6.08391">
        <ele>1105.7</ele>
        <time>2019-08-13T12:16:54Z</time>
      </trkpt>
      <trkpt lat="46.57994" lon="6.08392">
        <ele>1105.6</ele>
        <time>2019-08-13T12:17:00Z</time>
      </trkpt>
      <trkpt lat="46.58" lon="6.08396">
        <ele>1105.5</ele>
        <time>2019-08-13T12:17:08Z</time>
      </trkpt>
      <trkpt lat="46.58004" lon="6.084">
        <ele>1105.5</ele>
        <time>2019-08-13T12:17:12Z</time>
      </trkpt>
      <trkpt lat="46.58009" lon="6.08403">
        <ele>1105.4</ele>
        <time>2019-08-13T12:17:16Z</time>
      </trkpt>
      <trkpt lat="46.58014" lon="6.08407">
        <ele>1105.5</ele>
        <time>2019-08-13T12:17:20Z</time>
      </trkpt>
      <trkpt lat="46.58019" lon="6.08411">
        <ele>1105.6</ele>
        <time>2019-08-13T12:17:23Z</time>
      </trkpt>
      <trkpt lat="46.58023" lon="6.08415">
        <ele>1105.9</ele>
        <time>2019-08-13T12:17:26Z</time>
      </trkpt>
      <trkpt lat="46.58028" lon="6.0842">
        <ele>1106.3</ele>
        <time>2019-08-13T12:17:32Z</time>
      </trkpt>
      <trkpt lat="46.58033" lon="6.08423">
        <ele>1106.5</ele>
        <time>2019-08-13T12:17:36Z</time>
      </trkpt>
      <trkpt lat="46.58037" lon="6.08428">
        <ele>1106.7</ele>
        <time>2019-08-13T12:17:42Z</time>
      </trkpt>
      <trkpt lat="46.58041" lon="6.08432">
        <ele>1106.9</ele>
        <time>2019-08-13T12:17:46Z</time>
      </trkpt>
      <trkpt lat="46.58052" lon="6.08441">
        <ele>1107.1</ele>
        <time>2019-08-13T12:17:59Z</time>
      </trkpt>
      <trkpt lat="46.58056" lon="6.08445">
        <ele>1107.2</ele>
        <time>2019-08-13T12:18:04Z</time>
      </trkpt>
      <trkpt lat="46.5806" lon="6.0845">
        <ele>1107.4</ele>
        <time>2019-08-13T12:18:10Z</time>
      </trkpt>
      <trkpt lat="46.58063" lon="6.08455">
        <ele>1107.8</ele>
        <time>2019-08-13T12:18:20Z</time>
      </trkpt>
      <trkpt lat="46.58065" lon="6.08462">
        <ele>1108.3</ele>
        <time>2019-08-13T12:18:28Z</time>
      </trkpt>
      <trkpt lat="46.58068" lon="6.08467">
        <ele>1109</ele>
        <time>2019-08-13T12:18:37Z</time>
      </trkpt>
      <trkpt lat="46.58072" lon="6.0847">
        <ele>1109.2</ele>
        <time>2019-08-13T12:18:42Z</time>
      </trkpt>
      <trkpt lat="46.58075" lon="6.08475">
        <ele>1109.1</ele>
        <time>2019-08-13T12:18:47Z</time>
      </trkpt>
      <trkpt lat="46.58085" lon="6.08483">
        <ele>1107.3</ele>
        <time>2019-08-13T12:19:04Z</time>
      </trkpt>
      <trkpt lat="46.58087" lon="6.08489">
        <ele>1107.3</ele>
        <time>2019-08-13T12:19:09Z</time>
      </trkpt>
      <trkpt lat="46.58089" lon="6.08497">
        <ele>1107.6</ele>
        <time>2019-08-13T12:19:15Z</time>
      </trkpt>
      <trkpt lat="46.58088" lon="6.08505">
        <ele>1108.2</ele>
        <time>2019-08-13T12:19:21Z</time>
      </trkpt>
      <trkpt lat="46.58088" lon="6.08511">
        <ele>1108.4</ele>
        <time>2019-08-13T12:19:25Z</time>
      </trkpt>
      <trkpt lat="46.58088" lon="6.08519">
        <ele>1108.7</ele>
        <time>2019-08-13T12:19:30Z</time>
      </trkpt>
      <trkpt lat="46.58087" lon="6.08525">
        <ele>1109.1</ele>
        <time>2019-08-13T12:19:37Z</time>
      </trkpt>
      <trkpt lat="46.58085" lon="6.08533">
        <ele>1109.5</ele>
        <time>2019-08-13T12:19:45Z</time>
      </trkpt>
      <trkpt lat="46.58084" lon="6.08539">
        <ele>1109.6</ele>
        <time>2019-08-13T12:19:49Z</time>
      </trkpt>
      <trkpt lat="46.58083" lon="6.08546">
        <ele>1109.5</ele>
        <time>2019-08-13T12:19:54Z</time>
      </trkpt>
      <trkpt lat="46.58078" lon="6.08552">
        <ele>1109.2</ele>
        <time>2019-08-13T12:19:59Z</time>
      </trkpt>
      <trkpt lat="46.58074" lon="6.08555">
        <ele>1108.9</ele>
        <time>2019-08-13T12:20:03Z</time>
      </trkpt>
      <trkpt lat="46.58072" lon="6.08562">
        <ele>1108.5</ele>
        <time>2019-08-13T12:20:08Z</time>
      </trkpt>
      <trkpt lat="46.58068" lon="6.08566">
        <ele>1107.7</ele>
        <time>2019-08-13T12:20:16Z</time>
      </trkpt>
      <trkpt lat="46.58062" lon="6.08581">
        <ele>1107.6</ele>
        <time>2019-08-13T12:20:32Z</time>
      </trkpt>
      <trkpt lat="46.58059" lon="6.08587">
        <ele>1107.9</ele>
        <time>2019-08-13T12:20:36Z</time>
      </trkpt>
      <trkpt lat="46.58056" lon="6.08592">
        <ele>1108</ele>
        <time>2019-08-13T12:20:40Z</time>
      </trkpt>
      <trkpt lat="46.58055" lon="6.08599">
        <ele>1107.9</ele>
        <time>2019-08-13T12:20:48Z</time>
      </trkpt>
      <trkpt lat="46.58056" lon="6.08609">
        <ele>1107</ele>
        <time>2019-08-13T12:20:59Z</time>
      </trkpt>
      <trkpt lat="46.58057" lon="6.08616">
        <ele>1107.3</ele>
        <time>2019-08-13T12:21:05Z</time>
      </trkpt>
      <trkpt lat="46.58054" lon="6.0862">
        <ele>1107.5</ele>
        <time>2019-08-13T12:21:09Z</time>
      </trkpt>
      <trkpt lat="46.58053" lon="6.08627">
        <ele>1107.9</ele>
        <time>2019-08-13T12:21:13Z</time>
      </trkpt>
      <trkpt lat="46.58053" lon="6.08634">
        <ele>1108.4</ele>
        <time>2019-08-13T12:21:18Z</time>
      </trkpt>
      <trkpt lat="46.58052" lon="6.08641">
        <ele>1109.3</ele>
        <time>2019-08-13T12:21:25Z</time>
      </trkpt>
      <trkpt lat="46.5805" lon="6.08649">
        <ele>1115.5</ele>
        <time>2019-08-13T12:22:28Z</time>
      </trkpt>
      <trkpt lat="46.58048" lon="6.08656">
        <ele>1116.9</ele>
        <time>2019-08-13T12:22:34Z</time>
      </trkpt>
      <trkpt lat="46.58049" lon="6.08664">
        <ele>1117.5</ele>
        <time>2019-08-13T12:22:38Z</time>
      </trkpt>
      <trkpt lat="46.58049" lon="6.08672">
        <ele>1117.7</ele>
        <time>2019-08-13T12:22:42Z</time>
      </trkpt>
      <trkpt lat="46.58053" lon="6.08676">
        <ele>1117.7</ele>
        <time>2019-08-13T12:22:47Z</time>
      </trkpt>
      <trkpt lat="46.58057" lon="6.08679">
        <ele>1117.3</ele>
        <time>2019-08-13T12:22:52Z</time>
      </trkpt>
      <trkpt lat="46.58062" lon="6.08682">
        <ele>1116.8</ele>
        <time>2019-08-13T12:22:57Z</time>
      </trkpt>
      <trkpt lat="46.58067" lon="6.08685">
        <ele>1115.9</ele>
        <time>2019-08-13T12:23:02Z</time>
      </trkpt>
      <trkpt lat="46.58071" lon="6.08688">
        <ele>1115.2</ele>
        <time>2019-08-13T12:23:06Z</time>
      </trkpt>
      <trkpt lat="46.58076" lon="6.08692">
        <ele>1114.3</ele>
        <time>2019-08-13T12:23:11Z</time>
      </trkpt>
      <trkpt lat="46.5808" lon="6.08696">
        <ele>1113.4</ele>
        <time>2019-08-13T12:23:16Z</time>
      </trkpt>
      <trkpt lat="46.58085" lon="6.08699">
        <ele>1112.5</ele>
        <time>2019-08-13T12:23:21Z</time>
      </trkpt>
      <trkpt lat="46.58089" lon="6.08703">
        <ele>1111.7</ele>
        <time>2019-08-13T12:23:26Z</time>
      </trkpt>
      <trkpt lat="46.58093" lon="6.08709">
        <ele>1110.6</ele>
        <time>2019-08-13T12:23:32Z</time>
      </trkpt>
      <trkpt lat="46.58097" lon="6.08712">
        <ele>1109.9</ele>
        <time>2019-08-13T12:23:36Z</time>
      </trkpt>
      <trkpt lat="46.58101" lon="6.08715">
        <ele>1109.5</ele>
        <time>2019-08-13T12:23:39Z</time>
      </trkpt>
      <trkpt lat="46.58106" lon="6.08718">
        <ele>1109</ele>
        <time>2019-08-13T12:23:43Z</time>
      </trkpt>
      <trkpt lat="46.5811" lon="6.08721">
        <ele>1108.8</ele>
        <time>2019-08-13T12:23:47Z</time>
      </trkpt>
      <trkpt lat="46.58115" lon="6.08724">
        <ele>1108.6</ele>
        <time>2019-08-13T12:23:51Z</time>
      </trkpt>
      <trkpt lat="46.58119" lon="6.08725">
        <ele>1108.3</ele>
        <time>2019-08-13T12:23:57Z</time>
      </trkpt>
      <trkpt lat="46.58123" lon="6.08723">
        <ele>1107.9</ele>
        <time>2019-08-13T12:24:06Z</time>
      </trkpt>
      <trkpt lat="46.58128" lon="6.08719">
        <ele>1107.7</ele>
        <time>2019-08-13T12:24:22Z</time>
      </trkpt>
      <trkpt lat="46.58132" lon="6.08716">
        <ele>1107.8</ele>
        <time>2019-08-13T12:24:28Z</time>
      </trkpt>
      <trkpt lat="46.58137" lon="6.08713">
        <ele>1107.9</ele>
        <time>2019-08-13T12:24:34Z</time>
      </trkpt>
      <trkpt lat="46.58141" lon="6.08711">
        <ele>1108.1</ele>
        <time>2019-08-13T12:24:40Z</time>
      </trkpt>
      <trkpt lat="46.58145" lon="6.08708">
        <ele>1108.2</ele>
        <time>2019-08-13T12:24:44Z</time>
      </trkpt>
      <trkpt lat="46.58151" lon="6.08707">
        <ele>1108.1</ele>
        <time>2019-08-13T12:24:50Z</time>
      </trkpt>
      <trkpt lat="46.58156" lon="6.08706">
        <ele>1107.9</ele>
        <time>2019-08-13T12:24:55Z</time>
      </trkpt>
      <trkpt lat="46.58162" lon="6.08706">
        <ele>1107.6</ele>
        <time>2019-08-13T12:25:00Z</time>
      </trkpt>
      <trkpt lat="46.58167" lon="6.08708">
        <ele>1107.1</ele>
        <time>2019-08-13T12:25:05Z</time>
      </trkpt>
      <trkpt lat="46.58171" lon="6.0871">
        <ele>1106.9</ele>
        <time>2019-08-13T12:25:10Z</time>
      </trkpt>
      <trkpt lat="46.58176" lon="6.08713">
        <ele>1107</ele>
        <time>2019-08-13T12:25:14Z</time>
      </trkpt>
      <trkpt lat="46.58181" lon="6.08717">
        <ele>1107</ele>
        <time>2019-08-13T12:25:19Z</time>
      </trkpt>
      <trkpt lat="46.58184" lon="6.08722">
        <ele>1106.9</ele>
        <time>2019-08-13T12:25:24Z</time>
      </trkpt>
      <trkpt lat="46.58187" lon="6.08727">
        <ele>1106.4</ele>
        <time>2019-08-13T12:25:29Z</time>
      </trkpt>
      <trkpt lat="46.58192" lon="6.08732">
        <ele>1105.8</ele>
        <time>2019-08-13T12:25:34Z</time>
      </trkpt>
      <trkpt lat="46.58196" lon="6.08735">
        <ele>1105.6</ele>
        <time>2019-08-13T12:25:38Z</time>
      </trkpt>
      <trkpt lat="46.582" lon="6.08738">
        <ele>1105.6</ele>
        <time>2019-08-13T12:25:43Z</time>
      </trkpt>
      <trkpt lat="46.58204" lon="6.08742">
        <ele>1105.6</ele>
        <time>2019-08-13T12:25:48Z</time>
      </trkpt>
      <trkpt lat="46.58207" lon="6.08749">
        <ele>1105.4</ele>
        <time>2019-08-13T12:25:54Z</time>
      </trkpt>
      <trkpt lat="46.5821" lon="6.08756">
        <ele>1105.1</ele>
        <time>2019-08-13T12:25:58Z</time>
      </trkpt>
      <trkpt lat="46.58212" lon="6.08761">
        <ele>1104.7</ele>
        <time>2019-08-13T12:26:02Z</time>
      </trkpt>
      <trkpt lat="46.58214" lon="6.08768">
        <ele>1104.3</ele>
        <time>2019-08-13T12:26:07Z</time>
      </trkpt>
      <trkpt lat="46.58217" lon="6.08775">
        <ele>1103.9</ele>
        <time>2019-08-13T12:26:13Z</time>
      </trkpt>
      <trkpt lat="46.5822" lon="6.08781">
        <ele>1103.7</ele>
        <time>2019-08-13T12:26:18Z</time>
      </trkpt>
      <trkpt lat="46.58221" lon="6.08787">
        <ele>1103.4</ele>
        <time>2019-08-13T12:26:23Z</time>
      </trkpt>
      <trkpt lat="46.58222" lon="6.08794">
        <ele>1103.5</ele>
        <time>2019-08-13T12:26:29Z</time>
      </trkpt>
      <trkpt lat="46.58218" lon="6.088">
        <ele>1103.8</ele>
        <time>2019-08-13T12:26:34Z</time>
      </trkpt>
      <trkpt lat="46.58214" lon="6.08804">
        <ele>1103.9</ele>
        <time>2019-08-13T12:26:38Z</time>
      </trkpt>
      <trkpt lat="46.58211" lon="6.08809">
        <ele>1103.7</ele>
        <time>2019-08-13T12:26:42Z</time>
      </trkpt>
      <trkpt lat="46.58209" lon="6.08815">
        <ele>1103.4</ele>
        <time>2019-08-13T12:26:48Z</time>
      </trkpt>
      <trkpt lat="46.58208" lon="6.08821">
        <ele>1103.1</ele>
        <time>2019-08-13T12:26:53Z</time>
      </trkpt>
      <trkpt lat="46.58208" lon="6.08828">
        <ele>1102.7</ele>
        <time>2019-08-13T12:26:58Z</time>
      </trkpt>
      <trkpt lat="46.58207" lon="6.08835">
        <ele>1102.3</ele>
        <time>2019-08-13T12:27:03Z</time>
      </trkpt>
      <trkpt lat="46.58207" lon="6.08841">
        <ele>1102</ele>
        <time>2019-08-13T12:27:09Z</time>
      </trkpt>
      <trkpt lat="46.58208" lon="6.08848">
        <ele>1102.2</ele>
        <time>2019-08-13T12:27:15Z</time>
      </trkpt>
      <trkpt lat="46.58208" lon="6.08855">
        <ele>1102.8</ele>
        <time>2019-08-13T12:27:21Z</time>
      </trkpt>
      <trkpt lat="46.5821" lon="6.08862">
        <ele>1103.1</ele>
        <time>2019-08-13T12:27:26Z</time>
      </trkpt>
      <trkpt lat="46.58211" lon="6.0887">
        <ele>1103.3</ele>
        <time>2019-08-13T12:27:30Z</time>
      </trkpt>
      <trkpt lat="46.58211" lon="6.08878">
        <ele>1103.4</ele>
        <time>2019-08-13T12:27:34Z</time>
      </trkpt>
      <trkpt lat="46.58213" lon="6.08884">
        <ele>1103.4</ele>
        <time>2019-08-13T12:27:38Z</time>
      </trkpt>
      <trkpt lat="46.58215" lon="6.08891">
        <ele>1103.2</ele>
        <time>2019-08-13T12:27:44Z</time>
      </trkpt>
      <trkpt lat="46.58217" lon="6.08897">
        <ele>1102.9</ele>
        <time>2019-08-13T12:27:50Z</time>
      </trkpt>
      <trkpt lat="46.58217" lon="6.08904">
        <ele>1102.2</ele>
        <time>2019-08-13T12:27:56Z</time>
      </trkpt>
      <trkpt lat="46.58219" lon="6.08911">
        <ele>1101.7</ele>
        <time>2019-08-13T12:28:01Z</time>
      </trkpt>
      <trkpt lat="46.5822" lon="6.08917">
        <ele>1101.3</ele>
        <time>2019-08-13T12:28:06Z</time>
      </trkpt>
      <trkpt lat="46.58222" lon="6.08924">
        <ele>1100.8</ele>
        <time>2019-08-13T12:28:12Z</time>
      </trkpt>
      <trkpt lat="46.58222" lon="6.08932">
        <ele>1100.1</ele>
        <time>2019-08-13T12:28:18Z</time>
      </trkpt>
      <trkpt lat="46.58223" lon="6.08939">
        <ele>1100</ele>
        <time>2019-08-13T12:28:22Z</time>
      </trkpt>
      <trkpt lat="46.58224" lon="6.08947">
        <ele>1100</ele>
        <time>2019-08-13T12:28:26Z</time>
      </trkpt>
      <trkpt lat="46.58225" lon="6.08954">
        <ele>1100.3</ele>
        <time>2019-08-13T12:28:30Z</time>
      </trkpt>
      <trkpt lat="46.58226" lon="6.08962">
        <ele>1101</ele>
        <time>2019-08-13T12:28:35Z</time>
      </trkpt>
      <trkpt lat="46.58224" lon="6.08969">
        <ele>1101.7</ele>
        <time>2019-08-13T12:28:42Z</time>
      </trkpt>
      <trkpt lat="46.58223" lon="6.08976">
        <ele>1102.4</ele>
        <time>2019-08-13T12:28:49Z</time>
      </trkpt>
      <trkpt lat="46.58223" lon="6.08983">
        <ele>1102.8</ele>
        <time>2019-08-13T12:28:54Z</time>
      </trkpt>
      <trkpt lat="46.58223" lon="6.08991">
        <ele>1103.5</ele>
        <time>2019-08-13T12:28:59Z</time>
      </trkpt>
      <trkpt lat="46.58222" lon="6.08999">
        <ele>1104.1</ele>
        <time>2019-08-13T12:29:04Z</time>
      </trkpt>
      <trkpt lat="46.58222" lon="6.09005">
        <ele>1104.6</ele>
        <time>2019-08-13T12:29:08Z</time>
      </trkpt>
      <trkpt lat="46.58222" lon="6.09012">
        <ele>1105.4</ele>
        <time>2019-08-13T12:29:14Z</time>
      </trkpt>
      <trkpt lat="46.5822" lon="6.09019">
        <ele>1106.4</ele>
        <time>2019-08-13T12:29:22Z</time>
      </trkpt>
      <trkpt lat="46.5822" lon="6.09025">
        <ele>1106.8</ele>
        <time>2019-08-13T12:29:28Z</time>
      </trkpt>
      <trkpt lat="46.58217" lon="6.09031">
        <ele>1108</ele>
        <time>2019-08-13T12:29:39Z</time>
      </trkpt>
      <trkpt lat="46.58217" lon="6.09039">
        <ele>1108.4</ele>
        <time>2019-08-13T12:29:45Z</time>
      </trkpt>
      <trkpt lat="46.58218" lon="6.09046">
        <ele>1108.6</ele>
        <time>2019-08-13T12:29:51Z</time>
      </trkpt>
      <trkpt lat="46.58219" lon="6.09054">
        <ele>1108.6</ele>
        <time>2019-08-13T12:29:57Z</time>
      </trkpt>
      <trkpt lat="46.5822" lon="6.0906">
        <ele>1108.4</ele>
        <time>2019-08-13T12:30:02Z</time>
      </trkpt>
      <trkpt lat="46.58222" lon="6.09068">
        <ele>1108.1</ele>
        <time>2019-08-13T12:30:05Z</time>
      </trkpt>
      <trkpt lat="46.58223" lon="6.09076">
        <ele>1107.7</ele>
        <time>2019-08-13T12:30:10Z</time>
      </trkpt>
      <trkpt lat="46.58224" lon="6.09082">
        <ele>1107.2</ele>
        <time>2019-08-13T12:30:14Z</time>
      </trkpt>
      <trkpt lat="46.58226" lon="6.0909">
        <ele>1106.6</ele>
        <time>2019-08-13T12:30:19Z</time>
      </trkpt>
      <trkpt lat="46.58228" lon="6.09096">
        <ele>1106</ele>
        <time>2019-08-13T12:30:23Z</time>
      </trkpt>
      <trkpt lat="46.58229" lon="6.09102">
        <ele>1105</ele>
        <time>2019-08-13T12:30:28Z</time>
      </trkpt>
      <trkpt lat="46.5823" lon="6.09109">
        <ele>1104.2</ele>
        <time>2019-08-13T12:30:35Z</time>
      </trkpt>
      <trkpt lat="46.5823" lon="6.09117">
        <ele>1104.1</ele>
        <time>2019-08-13T12:30:40Z</time>
      </trkpt>
      <trkpt lat="46.5823" lon="6.09124">
        <ele>1104.2</ele>
        <time>2019-08-13T12:30:44Z</time>
      </trkpt>
      <trkpt lat="46.58232" lon="6.09131">
        <ele>1104.7</ele>
        <time>2019-08-13T12:30:48Z</time>
      </trkpt>
      <trkpt lat="46.58232" lon="6.09139">
        <ele>1105.4</ele>
        <time>2019-08-13T12:30:52Z</time>
      </trkpt>
      <trkpt lat="46.58234" lon="6.09147">
        <ele>1106.3</ele>
        <time>2019-08-13T12:30:57Z</time>
      </trkpt>
      <trkpt lat="46.58236" lon="6.09154">
        <ele>1107.1</ele>
        <time>2019-08-13T12:31:02Z</time>
      </trkpt>
      <trkpt lat="46.58238" lon="6.0916">
        <ele>1108</ele>
        <time>2019-08-13T12:31:07Z</time>
      </trkpt>
      <trkpt lat="46.58238" lon="6.09167">
        <ele>1110.6</ele>
        <time>2019-08-13T12:31:26Z</time>
      </trkpt>
      <trkpt lat="46.5824" lon="6.09174">
        <ele>1111.1</ele>
        <time>2019-08-13T12:31:32Z</time>
      </trkpt>
      <trkpt lat="46.58242" lon="6.0918">
        <ele>1110.7</ele>
        <time>2019-08-13T12:31:36Z</time>
      </trkpt>
      <trkpt lat="46.58245" lon="6.09187">
        <ele>1110</ele>
        <time>2019-08-13T12:31:40Z</time>
      </trkpt>
      <trkpt lat="46.58247" lon="6.09194">
        <ele>1109.3</ele>
        <time>2019-08-13T12:31:43Z</time>
      </trkpt>
      <trkpt lat="46.58249" lon="6.09202">
        <ele>1108.6</ele>
        <time>2019-08-13T12:31:47Z</time>
      </trkpt>
      <trkpt lat="46.58251" lon="6.09208">
        <ele>1108.3</ele>
        <time>2019-08-13T12:31:52Z</time>
      </trkpt>
      <trkpt lat="46.58253" lon="6.09215">
        <ele>1108.8</ele>
        <time>2019-08-13T12:31:58Z</time>
      </trkpt>
      <trkpt lat="46.58255" lon="6.09221">
        <ele>1109.9</ele>
        <time>2019-08-13T12:32:04Z</time>
      </trkpt>
      <trkpt lat="46.58257" lon="6.09228">
        <ele>1110.5</ele>
        <time>2019-08-13T12:32:10Z</time>
      </trkpt>
      <trkpt lat="46.58259" lon="6.09235">
        <ele>1109.9</ele>
        <time>2019-08-13T12:32:17Z</time>
      </trkpt>
      <trkpt lat="46.58261" lon="6.09243">
        <ele>1109.3</ele>
        <time>2019-08-13T12:32:21Z</time>
      </trkpt>
      <trkpt lat="46.58262" lon="6.0925">
        <ele>1108.6</ele>
        <time>2019-08-13T12:32:26Z</time>
      </trkpt>
      <trkpt lat="46.58264" lon="6.09256">
        <ele>1107.5</ele>
        <time>2019-08-13T12:32:33Z</time>
      </trkpt>
      <trkpt lat="46.58266" lon="6.09262">
        <ele>1107.1</ele>
        <time>2019-08-13T12:32:38Z</time>
      </trkpt>
      <trkpt lat="46.58268" lon="6.09269">
        <ele>1106.7</ele>
        <time>2019-08-13T12:32:42Z</time>
      </trkpt>
      <trkpt lat="46.5827" lon="6.09275">
        <ele>1106.1</ele>
        <time>2019-08-13T12:32:48Z</time>
      </trkpt>
      <trkpt lat="46.58273" lon="6.09282">
        <ele>1105.7</ele>
        <time>2019-08-13T12:32:53Z</time>
      </trkpt>
      <trkpt lat="46.58275" lon="6.09288">
        <ele>1105.3</ele>
        <time>2019-08-13T12:32:57Z</time>
      </trkpt>
      <trkpt lat="46.58279" lon="6.09293">
        <ele>1104.8</ele>
        <time>2019-08-13T12:33:01Z</time>
      </trkpt>
      <trkpt lat="46.58283" lon="6.09296">
        <ele>1104.6</ele>
        <time>2019-08-13T12:33:05Z</time>
      </trkpt>
      <trkpt lat="46.58287" lon="6.09301">
        <ele>1104.5</ele>
        <time>2019-08-13T12:33:10Z</time>
      </trkpt>
      <trkpt lat="46.5829" lon="6.09306">
        <ele>1104.6</ele>
        <time>2019-08-13T12:33:14Z</time>
      </trkpt>
      <trkpt lat="46.58293" lon="6.09312">
        <ele>1104.7</ele>
        <time>2019-08-13T12:33:17Z</time>
      </trkpt>
      <trkpt lat="46.58297" lon="6.09318">
        <ele>1104.9</ele>
        <time>2019-08-13T12:33:21Z</time>
      </trkpt>
      <trkpt lat="46.583" lon="6.09323">
        <ele>1105.4</ele>
        <time>2019-08-13T12:33:28Z</time>
      </trkpt>
      <trkpt lat="46.58303" lon="6.0933">
        <ele>1105.8</ele>
        <time>2019-08-13T12:33:33Z</time>
      </trkpt>
      <trkpt lat="46.58306" lon="6.09336">
        <ele>1105.9</ele>
        <time>2019-08-13T12:33:36Z</time>
      </trkpt>
      <trkpt lat="46.58309" lon="6.09341">
        <ele>1106.4</ele>
        <time>2019-08-13T12:33:43Z</time>
      </trkpt>
      <trkpt lat="46.58312" lon="6.09345">
        <ele>1106.4</ele>
        <time>2019-08-13T12:33:47Z</time>
      </trkpt>
      <trkpt lat="46.58315" lon="6.0935">
        <ele>1106.2</ele>
        <time>2019-08-13T12:33:51Z</time>
      </trkpt>
      <trkpt lat="46.58318" lon="6.09356">
        <ele>1105.9</ele>
        <time>2019-08-13T12:33:56Z</time>
      </trkpt>
      <trkpt lat="46.5832" lon="6.09363">
        <ele>1105.7</ele>
        <time>2019-08-13T12:34:01Z</time>
      </trkpt>
      <trkpt lat="46.58322" lon="6.09369">
        <ele>1105.8</ele>
        <time>2019-08-13T12:34:06Z</time>
      </trkpt>
      <trkpt lat="46.58325" lon="6.09375">
        <ele>1105.9</ele>
        <time>2019-08-13T12:34:12Z</time>
      </trkpt>
      <trkpt lat="46.58328" lon="6.09381">
        <ele>1105.9</ele>
        <time>2019-08-13T12:34:17Z</time>
      </trkpt>
      <trkpt lat="46.58331" lon="6.09386">
        <ele>1106</ele>
        <time>2019-08-13T12:34:22Z</time>
      </trkpt>
      <trkpt lat="46.58334" lon="6.09392">
        <ele>1106.1</ele>
        <time>2019-08-13T12:34:26Z</time>
      </trkpt>
      <trkpt lat="46.58336" lon="6.09399">
        <ele>1106.4</ele>
        <time>2019-08-13T12:34:31Z</time>
      </trkpt>
      <trkpt lat="46.58338" lon="6.09405">
        <ele>1107</ele>
        <time>2019-08-13T12:34:36Z</time>
      </trkpt>
      <trkpt lat="46.58341" lon="6.09412">
        <ele>1107.7</ele>
        <time>2019-08-13T12:34:41Z</time>
      </trkpt>
      <trkpt lat="46.58344" lon="6.09417">
        <ele>1108.2</ele>
        <time>2019-08-13T12:34:45Z</time>
      </trkpt>
      <trkpt lat="46.58346" lon="6.09423">
        <ele>1108.7</ele>
        <time>2019-08-13T12:34:49Z</time>
      </trkpt>
      <trkpt lat="46.58348" lon="6.0943">
        <ele>1109.1</ele>
        <time>2019-08-13T12:34:53Z</time>
      </trkpt>
      <trkpt lat="46.5835" lon="6.09436">
        <ele>1109.4</ele>
        <time>2019-08-13T12:34:58Z</time>
      </trkpt>
      <trkpt lat="46.58352" lon="6.09444">
        <ele>1109.4</ele>
        <time>2019-08-13T12:35:04Z</time>
      </trkpt>
      <trkpt lat="46.58354" lon="6.0945">
        <ele>1109.3</ele>
        <time>2019-08-13T12:35:09Z</time>
      </trkpt>
      <trkpt lat="46.58356" lon="6.09457">
        <ele>1109.4</ele>
        <time>2019-08-13T12:35:14Z</time>
      </trkpt>
      <trkpt lat="46.58355" lon="6.09465">
        <ele>1109.7</ele>
        <time>2019-08-13T12:35:20Z</time>
      </trkpt>
      <trkpt lat="46.58356" lon="6.09472">
        <ele>1109.8</ele>
        <time>2019-08-13T12:35:25Z</time>
      </trkpt>
      <trkpt lat="46.58358" lon="6.09479">
        <ele>1109.8</ele>
        <time>2019-08-13T12:35:32Z</time>
      </trkpt>
      <trkpt lat="46.58361" lon="6.09485">
        <ele>1110.3</ele>
        <time>2019-08-13T12:35:36Z</time>
      </trkpt>
      <trkpt lat="46.58363" lon="6.09492">
        <ele>1110.9</ele>
        <time>2019-08-13T12:35:40Z</time>
      </trkpt>
      <trkpt lat="46.58365" lon="6.09499">
        <ele>1111.6</ele>
        <time>2019-08-13T12:35:44Z</time>
      </trkpt>
      <trkpt lat="46.58367" lon="6.09506">
        <ele>1113</ele>
        <time>2019-08-13T12:35:49Z</time>
      </trkpt>
      <trkpt lat="46.58368" lon="6.09513">
        <ele>1114.8</ele>
        <time>2019-08-13T12:35:55Z</time>
      </trkpt>
      <trkpt lat="46.5837" lon="6.09519">
        <ele>1116.2</ele>
        <time>2019-08-13T12:36:01Z</time>
      </trkpt>
      <trkpt lat="46.58372" lon="6.09525">
        <ele>1117.1</ele>
        <time>2019-08-13T12:36:06Z</time>
      </trkpt>
      <trkpt lat="46.58374" lon="6.09532">
        <ele>1117.6</ele>
        <time>2019-08-13T12:36:11Z</time>
      </trkpt>
      <trkpt lat="46.58376" lon="6.09538">
        <ele>1117.4</ele>
        <time>2019-08-13T12:36:16Z</time>
      </trkpt>
      <trkpt lat="46.58378" lon="6.09545">
        <ele>1117</ele>
        <time>2019-08-13T12:36:21Z</time>
      </trkpt>
      <trkpt lat="46.58381" lon="6.0955">
        <ele>1116.3</ele>
        <time>2019-08-13T12:36:27Z</time>
      </trkpt>
      <trkpt lat="46.58386" lon="6.09552">
        <ele>1113.8</ele>
        <time>2019-08-13T12:36:38Z</time>
      </trkpt>
      <trkpt lat="46.58391" lon="6.0955">
        <ele>1111.7</ele>
        <time>2019-08-13T12:36:45Z</time>
      </trkpt>
      <trkpt lat="46.58395" lon="6.09546">
        <ele>1110.2</ele>
        <time>2019-08-13T12:36:51Z</time>
      </trkpt>
      <trkpt lat="46.58396" lon="6.09539">
        <ele>1109.1</ele>
        <time>2019-08-13T12:36:57Z</time>
      </trkpt>
      <trkpt lat="46.58395" lon="6.09533">
        <ele>1108.2</ele>
        <time>2019-08-13T12:37:02Z</time>
      </trkpt>
      <trkpt lat="46.58393" lon="6.09526">
        <ele>1107.4</ele>
        <time>2019-08-13T12:37:07Z</time>
      </trkpt>
      <trkpt lat="46.58391" lon="6.0952">
        <ele>1107</ele>
        <time>2019-08-13T12:37:12Z</time>
      </trkpt>
      <trkpt lat="46.58388" lon="6.09514">
        <ele>1106.6</ele>
        <time>2019-08-13T12:37:17Z</time>
      </trkpt>
      <trkpt lat="46.58386" lon="6.09508">
        <ele>1106.4</ele>
        <time>2019-08-13T12:37:22Z</time>
      </trkpt>
      <trkpt lat="46.58383" lon="6.09503">
        <ele>1106.5</ele>
        <time>2019-08-13T12:37:26Z</time>
      </trkpt>
      <trkpt lat="46.58379" lon="6.09498">
        <ele>1106.9</ele>
        <time>2019-08-13T12:37:29Z</time>
      </trkpt>
      <trkpt lat="46.58376" lon="6.09492">
        <ele>1107.6</ele>
        <time>2019-08-13T12:37:32Z</time>
      </trkpt>
      <trkpt lat="46.58373" lon="6.09487">
        <ele>1109.1</ele>
        <time>2019-08-13T12:37:37Z</time>
      </trkpt>
      <trkpt lat="46.58371" lon="6.0948">
        <ele>1113.7</ele>
        <time>2019-08-13T12:37:52Z</time>
      </trkpt>
      <trkpt lat="46.58369" lon="6.09474">
        <ele>1114.5</ele>
        <time>2019-08-13T12:37:56Z</time>
      </trkpt>
      <trkpt lat="46.58368" lon="6.09467">
        <ele>1115.4</ele>
        <time>2019-08-13T12:38:01Z</time>
      </trkpt>
      <trkpt lat="46.58368" lon="6.09459">
        <ele>1116.1</ele>
        <time>2019-08-13T12:38:05Z</time>
      </trkpt>
      <trkpt lat="46.58367" lon="6.09452">
        <ele>1116.6</ele>
        <time>2019-08-13T12:38:09Z</time>
      </trkpt>
      <trkpt lat="46.58367" lon="6.09444">
        <ele>1117</ele>
        <time>2019-08-13T12:38:13Z</time>
      </trkpt>
      <trkpt lat="46.58368" lon="6.09437">
        <ele>1117</ele>
        <time>2019-08-13T12:38:17Z</time>
      </trkpt>
      <trkpt lat="46.58369" lon="6.09431">
        <ele>1116.8</ele>
        <time>2019-08-13T12:38:22Z</time>
      </trkpt>
      <trkpt lat="46.5837" lon="6.09424">
        <ele>1116.6</ele>
        <time>2019-08-13T12:38:26Z</time>
      </trkpt>
      <trkpt lat="46.58372" lon="6.09418">
        <ele>1116.3</ele>
        <time>2019-08-13T12:38:31Z</time>
      </trkpt>
      <trkpt lat="46.58372" lon="6.0941">
        <ele>1116.1</ele>
        <time>2019-08-13T12:38:37Z</time>
      </trkpt>
      <trkpt lat="46.58372" lon="6.09402">
        <ele>1116.2</ele>
        <time>2019-08-13T12:38:44Z</time>
      </trkpt>
      <trkpt lat="46.58372" lon="6.09395">
        <ele>1116.2</ele>
        <time>2019-08-13T12:38:48Z</time>
      </trkpt>
      <trkpt lat="46.58374" lon="6.09389">
        <ele>1116.3</ele>
        <time>2019-08-13T12:38:53Z</time>
      </trkpt>
      <trkpt lat="46.58375" lon="6.09382">
        <ele>1116.5</ele>
        <time>2019-08-13T12:38:58Z</time>
      </trkpt>
      <trkpt lat="46.58375" lon="6.09375">
        <ele>1116.7</ele>
        <time>2019-08-13T12:39:03Z</time>
      </trkpt>
      <trkpt lat="46.58375" lon="6.09368">
        <ele>1116.4</ele>
        <time>2019-08-13T12:39:08Z</time>
      </trkpt>
      <trkpt lat="46.58376" lon="6.09361">
        <ele>1115.7</ele>
        <time>2019-08-13T12:39:14Z</time>
      </trkpt>
      <trkpt lat="46.58376" lon="6.09354">
        <ele>1114.8</ele>
        <time>2019-08-13T12:39:20Z</time>
      </trkpt>
      <trkpt lat="46.58377" lon="6.09348">
        <ele>1114.3</ele>
        <time>2019-08-13T12:39:25Z</time>
      </trkpt>
      <trkpt lat="46.58378" lon="6.09341">
        <ele>1113.9</ele>
        <time>2019-08-13T12:39:30Z</time>
      </trkpt>
      <trkpt lat="46.58379" lon="6.09334">
        <ele>1113.8</ele>
        <time>2019-08-13T12:39:34Z</time>
      </trkpt>
      <trkpt lat="46.5838" lon="6.09327">
        <ele>1113.9</ele>
        <time>2019-08-13T12:39:39Z</time>
      </trkpt>
      <trkpt lat="46.58382" lon="6.09321">
        <ele>1114.2</ele>
        <time>2019-08-13T12:39:45Z</time>
      </trkpt>
      <trkpt lat="46.58381" lon="6.09314">
        <ele>1114.1</ele>
        <time>2019-08-13T12:39:51Z</time>
      </trkpt>
      <trkpt lat="46.58381" lon="6.09308">
        <ele>1114</ele>
        <time>2019-08-13T12:39:56Z</time>
      </trkpt>
      <trkpt lat="46.58381" lon="6.093">
        <ele>1113.6</ele>
        <time>2019-08-13T12:40:00Z</time>
      </trkpt>
      <trkpt lat="46.58384" lon="6.09294">
        <ele>1113.2</ele>
        <time>2019-08-13T12:40:04Z</time>
      </trkpt>
      <trkpt lat="46.58387" lon="6.0928">
        <ele>1111.2</ele>
        <time>2019-08-13T12:40:18Z</time>
      </trkpt>
      <trkpt lat="46.58388" lon="6.09272">
        <ele>1110.2</ele>
        <time>2019-08-13T12:40:24Z</time>
      </trkpt>
      <trkpt lat="46.58388" lon="6.09265">
        <ele>1109.5</ele>
        <time>2019-08-13T12:40:29Z</time>
      </trkpt>
      <trkpt lat="46.58389" lon="6.09258">
        <ele>1108.7</ele>
        <time>2019-08-13T12:40:36Z</time>
      </trkpt>
      <trkpt lat="46.58388" lon="6.09241">
        <ele>1106.2</ele>
        <time>2019-08-13T12:40:47Z</time>
      </trkpt>
      <trkpt lat="46.58389" lon="6.09234">
        <ele>1105.6</ele>
        <time>2019-08-13T12:40:51Z</time>
      </trkpt>
      <trkpt lat="46.5839" lon="6.09227">
        <ele>1105</ele>
        <time>2019-08-13T12:40:55Z</time>
      </trkpt>
      <trkpt lat="46.58391" lon="6.09219">
        <ele>1104.4</ele>
        <time>2019-08-13T12:41:00Z</time>
      </trkpt>
      <trkpt lat="46.58392" lon="6.09212">
        <ele>1103.8</ele>
        <time>2019-08-13T12:41:05Z</time>
      </trkpt>
      <trkpt lat="46.58393" lon="6.09205">
        <ele>1103.1</ele>
        <time>2019-08-13T12:41:09Z</time>
      </trkpt>
      <trkpt lat="46.58395" lon="6.09198">
        <ele>1102.4</ele>
        <time>2019-08-13T12:41:15Z</time>
      </trkpt>
      <trkpt lat="46.58395" lon="6.09191">
        <ele>1102.2</ele>
        <time>2019-08-13T12:41:20Z</time>
      </trkpt>
      <trkpt lat="46.58395" lon="6.09183">
        <ele>1102</ele>
        <time>2019-08-13T12:41:26Z</time>
      </trkpt>
      <trkpt lat="46.58395" lon="6.09176">
        <ele>1101.6</ele>
        <time>2019-08-13T12:41:31Z</time>
      </trkpt>
      <trkpt lat="46.58395" lon="6.09169">
        <ele>1101</ele>
        <time>2019-08-13T12:41:37Z</time>
      </trkpt>
      <trkpt lat="46.58395" lon="6.09162">
        <ele>1100.7</ele>
        <time>2019-08-13T12:41:41Z</time>
      </trkpt>
      <trkpt lat="46.58395" lon="6.09155">
        <ele>1100.2</ele>
        <time>2019-08-13T12:41:45Z</time>
      </trkpt>
      <trkpt lat="46.58396" lon="6.09148">
        <ele>1099.9</ele>
        <time>2019-08-13T12:41:49Z</time>
      </trkpt>
      <trkpt lat="46.58398" lon="6.09142">
        <ele>1099.5</ele>
        <time>2019-08-13T12:41:54Z</time>
      </trkpt>
      <trkpt lat="46.58399" lon="6.09127">
        <ele>1097.9</ele>
        <time>2019-08-13T12:42:06Z</time>
      </trkpt>
      <trkpt lat="46.58402" lon="6.09106">
        <ele>1095.9</ele>
        <time>2019-08-13T12:42:20Z</time>
      </trkpt>
      <trkpt lat="46.58402" lon="6.09099">
        <ele>1095.5</ele>
        <time>2019-08-13T12:42:24Z</time>
      </trkpt>
      <trkpt lat="46.58403" lon="6.09092">
        <ele>1095.2</ele>
        <time>2019-08-13T12:42:28Z</time>
      </trkpt>
      <trkpt lat="46.58404" lon="6.09085">
        <ele>1094.9</ele>
        <time>2019-08-13T12:42:32Z</time>
      </trkpt>
      <trkpt lat="46.58404" lon="6.09079">
        <ele>1094.7</ele>
        <time>2019-08-13T12:42:36Z</time>
      </trkpt>
      <trkpt lat="46.58406" lon="6.09072">
        <ele>1094.5</ele>
        <time>2019-08-13T12:42:43Z</time>
      </trkpt>
      <trkpt lat="46.58405" lon="6.09064">
        <ele>1094.5</ele>
        <time>2019-08-13T12:42:48Z</time>
      </trkpt>
      <trkpt lat="46.58405" lon="6.09057">
        <ele>1094.4</ele>
        <time>2019-08-13T12:42:54Z</time>
      </trkpt>
      <trkpt lat="46.58407" lon="6.0905">
        <ele>1094.7</ele>
        <time>2019-08-13T12:43:00Z</time>
      </trkpt>
      <trkpt lat="46.5841" lon="6.0903">
        <ele>1095.4</ele>
        <time>2019-08-13T12:43:15Z</time>
      </trkpt>
      <trkpt lat="46.58411" lon="6.09023">
        <ele>1095.1</ele>
        <time>2019-08-13T12:43:20Z</time>
      </trkpt>
      <trkpt lat="46.58412" lon="6.09016">
        <ele>1094.6</ele>
        <time>2019-08-13T12:43:25Z</time>
      </trkpt>
      <trkpt lat="46.58414" lon="6.09009">
        <ele>1094.1</ele>
        <time>2019-08-13T12:43:29Z</time>
      </trkpt>
      <trkpt lat="46.58415" lon="6.09002">
        <ele>1093.4</ele>
        <time>2019-08-13T12:43:33Z</time>
      </trkpt>
      <trkpt lat="46.58415" lon="6.08996">
        <ele>1092.9</ele>
        <time>2019-08-13T12:43:38Z</time>
      </trkpt>
      <trkpt lat="46.58416" lon="6.08989">
        <ele>1092.7</ele>
        <time>2019-08-13T12:43:42Z</time>
      </trkpt>
      <trkpt lat="46.58417" lon="6.08981">
        <ele>1092.7</ele>
        <time>2019-08-13T12:43:47Z</time>
      </trkpt>
      <trkpt lat="46.58417" lon="6.08973">
        <ele>1093.1</ele>
        <time>2019-08-13T12:43:52Z</time>
      </trkpt>
      <trkpt lat="46.58416" lon="6.08965">
        <ele>1093.7</ele>
        <time>2019-08-13T12:43:56Z</time>
      </trkpt>
      <trkpt lat="46.58416" lon="6.08959">
        <ele>1094.3</ele>
        <time>2019-08-13T12:44:00Z</time>
      </trkpt>
      <trkpt lat="46.58416" lon="6.08951">
        <ele>1095.9</ele>
        <time>2019-08-13T12:44:07Z</time>
      </trkpt>
      <trkpt lat="46.58417" lon="6.08945">
        <ele>1096.8</ele>
        <time>2019-08-13T12:44:11Z</time>
      </trkpt>
      <trkpt lat="46.58418" lon="6.08938">
        <ele>1097.7</ele>
        <time>2019-08-13T12:44:16Z</time>
      </trkpt>
      <trkpt lat="46.5842" lon="6.08931">
        <ele>1098.5</ele>
        <time>2019-08-13T12:44:22Z</time>
      </trkpt>
      <trkpt lat="46.58422" lon="6.08925">
        <ele>1099.3</ele>
        <time>2019-08-13T12:44:27Z</time>
      </trkpt>
      <trkpt lat="46.58425" lon="6.08919">
        <ele>1100.1</ele>
        <time>2019-08-13T12:44:33Z</time>
      </trkpt>
      <trkpt lat="46.58427" lon="6.08912">
        <ele>1100.7</ele>
        <time>2019-08-13T12:44:38Z</time>
      </trkpt>
      <trkpt lat="46.5843" lon="6.08905">
        <ele>1101.2</ele>
        <time>2019-08-13T12:44:43Z</time>
      </trkpt>
      <trkpt lat="46.58432" lon="6.08898">
        <ele>1102</ele>
        <time>2019-08-13T12:44:49Z</time>
      </trkpt>
      <trkpt lat="46.58435" lon="6.08891">
        <ele>1102.6</ele>
        <time>2019-08-13T12:44:54Z</time>
      </trkpt>
      <trkpt lat="46.58438" lon="6.08884">
        <ele>1102.8</ele>
        <time>2019-08-13T12:44:59Z</time>
      </trkpt>
      <trkpt lat="46.58439" lon="6.08877">
        <ele>1102.8</ele>
        <time>2019-08-13T12:45:04Z</time>
      </trkpt>
      <trkpt lat="46.58441" lon="6.0887">
        <ele>1102.7</ele>
        <time>2019-08-13T12:45:10Z</time>
      </trkpt>
      <trkpt lat="46.58443" lon="6.08864">
        <ele>1102.7</ele>
        <time>2019-08-13T12:45:15Z</time>
      </trkpt>
      <trkpt lat="46.58445" lon="6.08857">
        <ele>1102.7</ele>
        <time>2019-08-13T12:45:21Z</time>
      </trkpt>
      <trkpt lat="46.58448" lon="6.08851">
        <ele>1102.6</ele>
        <time>2019-08-13T12:45:27Z</time>
      </trkpt>
      <trkpt lat="46.5845" lon="6.08846">
        <ele>1102.7</ele>
        <time>2019-08-13T12:45:32Z</time>
      </trkpt>
      <trkpt lat="46.58452" lon="6.0884">
        <ele>1102.8</ele>
        <time>2019-08-13T12:45:37Z</time>
      </trkpt>
      <trkpt lat="46.58453" lon="6.08832">
        <ele>1102.8</ele>
        <time>2019-08-13T12:45:42Z</time>
      </trkpt>
      <trkpt lat="46.58456" lon="6.08825">
        <ele>1102.9</ele>
        <time>2019-08-13T12:45:47Z</time>
      </trkpt>
      <trkpt lat="46.58458" lon="6.08819">
        <ele>1102.9</ele>
        <time>2019-08-13T12:45:52Z</time>
      </trkpt>
      <trkpt lat="46.5846" lon="6.08813">
        <ele>1102.8</ele>
        <time>2019-08-13T12:45:57Z</time>
      </trkpt>
      <trkpt lat="46.58462" lon="6.08805">
        <ele>1102.3</ele>
        <time>2019-08-13T12:46:02Z</time>
      </trkpt>
      <trkpt lat="46.58463" lon="6.08798">
        <ele>1101.9</ele>
        <time>2019-08-13T12:46:06Z</time>
      </trkpt>
      <trkpt lat="46.58464" lon="6.08791">
        <ele>1101.6</ele>
        <time>2019-08-13T12:46:11Z</time>
      </trkpt>
      <trkpt lat="46.58467" lon="6.08785">
        <ele>1101.6</ele>
        <time>2019-08-13T12:46:17Z</time>
      </trkpt>
      <trkpt lat="46.58469" lon="6.08779">
        <ele>1101.8</ele>
        <time>2019-08-13T12:46:21Z</time>
      </trkpt>
      <trkpt lat="46.58471" lon="6.08773">
        <ele>1102</ele>
        <time>2019-08-13T12:46:25Z</time>
      </trkpt>
      <trkpt lat="46.58474" lon="6.08766">
        <ele>1102.4</ele>
        <time>2019-08-13T12:46:31Z</time>
      </trkpt>
      <trkpt lat="46.58476" lon="6.0876">
        <ele>1102.2</ele>
        <time>2019-08-13T12:46:36Z</time>
      </trkpt>
      <trkpt lat="46.58477" lon="6.08753">
        <ele>1101.9</ele>
        <time>2019-08-13T12:46:41Z</time>
      </trkpt>
      <trkpt lat="46.58478" lon="6.08736">
        <ele>1101</ele>
        <time>2019-08-13T12:46:52Z</time>
      </trkpt>
      <trkpt lat="46.58478" lon="6.08729">
        <ele>1101</ele>
        <time>2019-08-13T12:46:56Z</time>
      </trkpt>
      <trkpt lat="46.58479" lon="6.08721">
        <ele>1101.1</ele>
        <time>2019-08-13T12:47:01Z</time>
      </trkpt>
      <trkpt lat="46.58479" lon="6.08714">
        <ele>1101.2</ele>
        <time>2019-08-13T12:47:05Z</time>
      </trkpt>
      <trkpt lat="46.5848" lon="6.08707">
        <ele>1101.5</ele>
        <time>2019-08-13T12:47:10Z</time>
      </trkpt>
      <trkpt lat="46.58482" lon="6.08702">
        <ele>1101.4</ele>
        <time>2019-08-13T12:47:18Z</time>
      </trkpt>
      <trkpt lat="46.58486" lon="6.08697">
        <ele>1101.3</ele>
        <time>2019-08-13T12:47:23Z</time>
      </trkpt>
      <trkpt lat="46.58489" lon="6.08692">
        <ele>1101.4</ele>
        <time>2019-08-13T12:47:27Z</time>
      </trkpt>
      <trkpt lat="46.58492" lon="6.08685">
        <ele>1101.7</ele>
        <time>2019-08-13T12:47:32Z</time>
      </trkpt>
      <trkpt lat="46.58496" lon="6.08681">
        <ele>1102.5</ele>
        <time>2019-08-13T12:47:38Z</time>
      </trkpt>
      <trkpt lat="46.58501" lon="6.0868">
        <ele>1103.3</ele>
        <time>2019-08-13T12:47:43Z</time>
      </trkpt>
      <trkpt lat="46.58505" lon="6.08678">
        <ele>1104</ele>
        <time>2019-08-13T12:47:48Z</time>
      </trkpt>
      <trkpt lat="46.5851" lon="6.08676">
        <ele>1104.5</ele>
        <time>2019-08-13T12:47:54Z</time>
      </trkpt>
      <trkpt lat="46.58515" lon="6.08673">
        <ele>1104.9</ele>
        <time>2019-08-13T12:48:00Z</time>
      </trkpt>
      <trkpt lat="46.58519" lon="6.08671">
        <ele>1105.1</ele>
        <time>2019-08-13T12:48:05Z</time>
      </trkpt>
      <trkpt lat="46.58523" lon="6.08667">
        <ele>1105.2</ele>
        <time>2019-08-13T12:48:11Z</time>
      </trkpt>
      <trkpt lat="46.58528" lon="6.08662">
        <ele>1105.2</ele>
        <time>2019-08-13T12:48:16Z</time>
      </trkpt>
      <trkpt lat="46.58531" lon="6.08656">
        <ele>1105.3</ele>
        <time>2019-08-13T12:48:20Z</time>
      </trkpt>
      <trkpt lat="46.58534" lon="6.08652">
        <ele>1105.5</ele>
        <time>2019-08-13T12:48:27Z</time>
      </trkpt>
      <trkpt lat="46.58534" lon="6.08646">
        <ele>1105.7</ele>
        <time>2019-08-13T12:48:38Z</time>
      </trkpt>
      <trkpt lat="46.58534" lon="6.08638">
        <ele>1105.8</ele>
        <time>2019-08-13T12:48:44Z</time>
      </trkpt>
      <trkpt lat="46.58537" lon="6.08631">
        <ele>1105.9</ele>
        <time>2019-08-13T12:48:52Z</time>
      </trkpt>
      <trkpt lat="46.5854" lon="6.08626">
        <ele>1105.8</ele>
        <time>2019-08-13T12:48:58Z</time>
      </trkpt>
      <trkpt lat="46.58541" lon="6.08604">
        <ele>1104.3</ele>
        <time>2019-08-13T12:49:20Z</time>
      </trkpt>
      <trkpt lat="46.58543" lon="6.08598">
        <ele>1104</ele>
        <time>2019-08-13T12:49:23Z</time>
      </trkpt>
      <trkpt lat="46.58544" lon="6.08591">
        <ele>1103.7</ele>
        <time>2019-08-13T12:49:27Z</time>
      </trkpt>
      <trkpt lat="46.58549" lon="6.08573">
        <ele>1101.1</ele>
        <time>2019-08-13T12:49:45Z</time>
      </trkpt>
      <trkpt lat="46.58551" lon="6.08567">
        <ele>1100.6</ele>
        <time>2019-08-13T12:49:50Z</time>
      </trkpt>
      <trkpt lat="46.58552" lon="6.0856">
        <ele>1100.3</ele>
        <time>2019-08-13T12:49:56Z</time>
      </trkpt>
      <trkpt lat="46.58553" lon="6.08553">
        <ele>1099.9</ele>
        <time>2019-08-13T12:50:01Z</time>
      </trkpt>
      <trkpt lat="46.58555" lon="6.0854">
        <ele>1101.8</ele>
        <time>2019-08-13T12:50:28Z</time>
      </trkpt>
      <trkpt lat="46.58555" lon="6.08531">
        <ele>1102.7</ele>
        <time>2019-08-13T12:50:31Z</time>
      </trkpt>
      <trkpt lat="46.58556" lon="6.08522">
        <ele>1103.6</ele>
        <time>2019-08-13T12:50:34Z</time>
      </trkpt>
      <trkpt lat="46.58557" lon="6.08514">
        <ele>1104.5</ele>
        <time>2019-08-13T12:50:37Z</time>
      </trkpt>
      <trkpt lat="46.58559" lon="6.08508">
        <ele>1107</ele>
        <time>2019-08-13T12:50:47Z</time>
      </trkpt>
      <trkpt lat="46.58562" lon="6.08501">
        <ele>1108.4</ele>
        <time>2019-08-13T12:50:53Z</time>
      </trkpt>
      <trkpt lat="46.58563" lon="6.08495">
        <ele>1109.8</ele>
        <time>2019-08-13T12:50:58Z</time>
      </trkpt>
      <trkpt lat="46.58567" lon="6.0849">
        <ele>1111.9</ele>
        <time>2019-08-13T12:51:06Z</time>
      </trkpt>
      <trkpt lat="46.58568" lon="6.08481">
        <ele>1112.4</ele>
        <time>2019-08-13T12:51:08Z</time>
      </trkpt>
      <trkpt lat="46.58569" lon="6.08471">
        <ele>1112.9</ele>
        <time>2019-08-13T12:51:10Z</time>
      </trkpt>
      <trkpt lat="46.58569" lon="6.08465">
        <ele>1113.3</ele>
        <time>2019-08-13T12:51:12Z</time>
      </trkpt>
      <trkpt lat="46.58569" lon="6.08457">
        <ele>1113.7</ele>
        <time>2019-08-13T12:51:16Z</time>
      </trkpt>
      <trkpt lat="46.58571" lon="6.08451">
        <ele>1113.8</ele>
        <time>2019-08-13T12:51:23Z</time>
      </trkpt>
      <trkpt lat="46.58576" lon="6.08447">
        <ele>1113.5</ele>
        <time>2019-08-13T12:51:30Z</time>
      </trkpt>
      <trkpt lat="46.5858" lon="6.08443">
        <ele>1113.1</ele>
        <time>2019-08-13T12:51:36Z</time>
      </trkpt>
      <trkpt lat="46.58584" lon="6.08438">
        <ele>1112.6</ele>
        <time>2019-08-13T12:51:43Z</time>
      </trkpt>
      <trkpt lat="46.58587" lon="6.08433">
        <ele>1112</ele>
        <time>2019-08-13T12:51:51Z</time>
      </trkpt>
      <trkpt lat="46.58592" lon="6.08431">
        <ele>1111.8</ele>
        <time>2019-08-13T12:52:11Z</time>
      </trkpt>
      <trkpt lat="46.586" lon="6.0842">
        <ele>1109.9</ele>
        <time>2019-08-13T12:52:22Z</time>
      </trkpt>
      <trkpt lat="46.58602" lon="6.08414">
        <ele>1108.4</ele>
        <time>2019-08-13T12:52:28Z</time>
      </trkpt>
      <trkpt lat="46.58605" lon="6.08408">
        <ele>1106.9</ele>
        <time>2019-08-13T12:52:33Z</time>
      </trkpt>
      <trkpt lat="46.58608" lon="6.08403">
        <ele>1105.5</ele>
        <time>2019-08-13T12:52:38Z</time>
      </trkpt>
      <trkpt lat="46.58618" lon="6.08394">
        <ele>1101.9</ele>
        <time>2019-08-13T12:52:49Z</time>
      </trkpt>
      <trkpt lat="46.58621" lon="6.08387">
        <ele>1101.3</ele>
        <time>2019-08-13T12:52:53Z</time>
      </trkpt>
      <trkpt lat="46.58624" lon="6.0838">
        <ele>1101.2</ele>
        <time>2019-08-13T12:52:55Z</time>
      </trkpt>
      <trkpt lat="46.58626" lon="6.08373">
        <ele>1101.2</ele>
        <time>2019-08-13T12:52:58Z</time>
      </trkpt>
      <trkpt lat="46.58628" lon="6.08367">
        <ele>1102</ele>
        <time>2019-08-13T12:53:04Z</time>
      </trkpt>
      <trkpt lat="46.5863" lon="6.08359">
        <ele>1102.5</ele>
        <time>2019-08-13T12:53:07Z</time>
      </trkpt>
      <trkpt lat="46.58631" lon="6.08352">
        <ele>1103.3</ele>
        <time>2019-08-13T12:53:12Z</time>
      </trkpt>
      <trkpt lat="46.58632" lon="6.08345">
        <ele>1104</ele>
        <time>2019-08-13T12:53:16Z</time>
      </trkpt>
      <trkpt lat="46.58632" lon="6.08337">
        <ele>1104.9</ele>
        <time>2019-08-13T12:53:21Z</time>
      </trkpt>
      <trkpt lat="46.58632" lon="6.0833">
        <ele>1105.4</ele>
        <time>2019-08-13T12:53:24Z</time>
      </trkpt>
      <trkpt lat="46.58632" lon="6.08323">
        <ele>1105.9</ele>
        <time>2019-08-13T12:53:27Z</time>
      </trkpt>
      <trkpt lat="46.58631" lon="6.08316">
        <ele>1106.3</ele>
        <time>2019-08-13T12:53:30Z</time>
      </trkpt>
      <trkpt lat="46.5863" lon="6.08307">
        <ele>1106.7</ele>
        <time>2019-08-13T12:53:33Z</time>
      </trkpt>
      <trkpt lat="46.58631" lon="6.083">
        <ele>1107.1</ele>
        <time>2019-08-13T12:53:36Z</time>
      </trkpt>
      <trkpt lat="46.58633" lon="6.08295">
        <ele>1107.7</ele>
        <time>2019-08-13T12:53:44Z</time>
      </trkpt>
      <trkpt lat="46.58636" lon="6.08289">
        <ele>1108.2</ele>
        <time>2019-08-13T12:53:51Z</time>
      </trkpt>
      <trkpt lat="46.58639" lon="6.08283">
        <ele>1109</ele>
        <time>2019-08-13T12:53:57Z</time>
      </trkpt>
      <trkpt lat="46.58642" lon="6.08277">
        <ele>1109.6</ele>
        <time>2019-08-13T12:54:03Z</time>
      </trkpt>
      <trkpt lat="46.58645" lon="6.08272">
        <ele>1109.7</ele>
        <time>2019-08-13T12:54:09Z</time>
      </trkpt>
      <trkpt lat="46.58649" lon="6.08266">
        <ele>1109.6</ele>
        <time>2019-08-13T12:54:13Z</time>
      </trkpt>
      <trkpt lat="46.58652" lon="6.0826">
        <ele>1109.6</ele>
        <time>2019-08-13T12:54:19Z</time>
      </trkpt>
      <trkpt lat="46.58654" lon="6.08254">
        <ele>1109.5</ele>
        <time>2019-08-13T12:54:27Z</time>
      </trkpt>
      <trkpt lat="46.58654" lon="6.08247">
        <ele>1109.9</ele>
        <time>2019-08-13T12:54:33Z</time>
      </trkpt>
      <trkpt lat="46.58655" lon="6.0824">
        <ele>1110.4</ele>
        <time>2019-08-13T12:54:38Z</time>
      </trkpt>
      <trkpt lat="46.58656" lon="6.08233">
        <ele>1110.7</ele>
        <time>2019-08-13T12:54:42Z</time>
      </trkpt>
      <trkpt lat="46.58659" lon="6.08224">
        <ele>1110.8</ele>
        <time>2019-08-13T12:54:45Z</time>
      </trkpt>
      <trkpt lat="46.58661" lon="6.08217">
        <ele>1110.7</ele>
        <time>2019-08-13T12:54:50Z</time>
      </trkpt>
      <trkpt lat="46.58666" lon="6.08205">
        <ele>1106.9</ele>
        <time>2019-08-13T12:55:15Z</time>
      </trkpt>
      <trkpt lat="46.5868" lon="6.08189">
        <ele>1105.6</ele>
        <time>2019-08-13T12:55:31Z</time>
      </trkpt>
      <trkpt lat="46.58682" lon="6.08183">
        <ele>1105.5</ele>
        <time>2019-08-13T12:55:35Z</time>
      </trkpt>
      <trkpt lat="46.58685" lon="6.08177">
        <ele>1105.5</ele>
        <time>2019-08-13T12:55:41Z</time>
      </trkpt>
      <trkpt lat="46.5869" lon="6.08175">
        <ele>1105.3</ele>
        <time>2019-08-13T12:55:52Z</time>
      </trkpt>
      <trkpt lat="46.58694" lon="6.08169">
        <ele>1105.3</ele>
        <time>2019-08-13T12:55:55Z</time>
      </trkpt>
      <trkpt lat="46.58697" lon="6.08164">
        <ele>1105.3</ele>
        <time>2019-08-13T12:55:57Z</time>
      </trkpt>
      <trkpt lat="46.587" lon="6.08157">
        <ele>1105.4</ele>
        <time>2019-08-13T12:56:00Z</time>
      </trkpt>
      <trkpt lat="46.58703" lon="6.08151">
        <ele>1105.7</ele>
        <time>2019-08-13T12:56:05Z</time>
      </trkpt>
      <trkpt lat="46.58704" lon="6.08143">
        <ele>1106</ele>
        <time>2019-08-13T12:56:10Z</time>
      </trkpt>
      <trkpt lat="46.58707" lon="6.08138">
        <ele>1106.3</ele>
        <time>2019-08-13T12:56:18Z</time>
      </trkpt>
      <trkpt lat="46.58709" lon="6.08132">
        <ele>1106.7</ele>
        <time>2019-08-13T12:56:28Z</time>
      </trkpt>
      <trkpt lat="46.58711" lon="6.08125">
        <ele>1106.7</ele>
        <time>2019-08-13T12:56:32Z</time>
      </trkpt>
      <trkpt lat="46.58715" lon="6.08119">
        <ele>1106.6</ele>
        <time>2019-08-13T12:56:36Z</time>
      </trkpt>
      <trkpt lat="46.58718" lon="6.08112">
        <ele>1106.4</ele>
        <time>2019-08-13T12:56:40Z</time>
      </trkpt>
      <trkpt lat="46.58718" lon="6.08103">
        <ele>1106.2</ele>
        <time>2019-08-13T12:56:42Z</time>
      </trkpt>
      <trkpt lat="46.58718" lon="6.08095">
        <ele>1106.2</ele>
        <time>2019-08-13T12:56:44Z</time>
      </trkpt>
      <trkpt lat="46.58718" lon="6.08089">
        <ele>1106</ele>
        <time>2019-08-13T12:56:47Z</time>
      </trkpt>
      <trkpt lat="46.5872" lon="6.08082">
        <ele>1105.6</ele>
        <time>2019-08-13T12:56:52Z</time>
      </trkpt>
      <trkpt lat="46.58723" lon="6.08076">
        <ele>1105.2</ele>
        <time>2019-08-13T12:56:57Z</time>
      </trkpt>
      <trkpt lat="46.58724" lon="6.08068">
        <ele>1104.7</ele>
        <time>2019-08-13T12:57:03Z</time>
      </trkpt>
      <trkpt lat="46.58729" lon="6.08054">
        <ele>1103.9</ele>
        <time>2019-08-13T12:57:14Z</time>
      </trkpt>
      <trkpt lat="46.58732" lon="6.08048">
        <ele>1103.6</ele>
        <time>2019-08-13T12:57:19Z</time>
      </trkpt>
      <trkpt lat="46.58737" lon="6.08033">
        <ele>1102.8</ele>
        <time>2019-08-13T12:57:29Z</time>
      </trkpt>
      <trkpt lat="46.58741" lon="6.08028">
        <ele>1103</ele>
        <time>2019-08-13T12:57:33Z</time>
      </trkpt>
      <trkpt lat="46.58744" lon="6.08022">
        <ele>1103.8</ele>
        <time>2019-08-13T12:57:41Z</time>
      </trkpt>
      <trkpt lat="46.58748" lon="6.08014">
        <ele>1103.7</ele>
        <time>2019-08-13T12:59:02Z</time>
      </trkpt>
      <trkpt lat="46.58752" lon="6.08008">
        <ele>1103.5</ele>
        <time>2019-08-13T12:59:07Z</time>
      </trkpt>
      <trkpt lat="46.58755" lon="6.08004">
        <ele>1103</ele>
        <time>2019-08-13T12:59:11Z</time>
      </trkpt>
      <trkpt lat="46.5876" lon="6.07999">
        <ele>1102.1</ele>
        <time>2019-08-13T12:59:16Z</time>
      </trkpt>
      <trkpt lat="46.58763" lon="6.07994">
        <ele>1101</ele>
        <time>2019-08-13T12:59:21Z</time>
      </trkpt>
      <trkpt lat="46.58766" lon="6.07987">
        <ele>1099.7</ele>
        <time>2019-08-13T12:59:28Z</time>
      </trkpt>
      <trkpt lat="46.5877" lon="6.07981">
        <ele>1099.6</ele>
        <time>2019-08-13T12:59:33Z</time>
      </trkpt>
      <trkpt lat="46.58774" lon="6.07976">
        <ele>1099.8</ele>
        <time>2019-08-13T12:59:39Z</time>
      </trkpt>
      <trkpt lat="46.58779" lon="6.07971">
        <ele>1099.9</ele>
        <time>2019-08-13T12:59:42Z</time>
      </trkpt>
      <trkpt lat="46.58782" lon="6.07966">
        <ele>1100.1</ele>
        <time>2019-08-13T12:59:45Z</time>
      </trkpt>
      <trkpt lat="46.58784" lon="6.0796">
        <ele>1100.2</ele>
        <time>2019-08-13T12:59:49Z</time>
      </trkpt>
      <trkpt lat="46.58786" lon="6.07952">
        <ele>1100.3</ele>
        <time>2019-08-13T12:59:53Z</time>
      </trkpt>
      <trkpt lat="46.58787" lon="6.07945">
        <ele>1100.3</ele>
        <time>2019-08-13T12:59:56Z</time>
      </trkpt>
      <trkpt lat="46.58788" lon="6.07937">
        <ele>1100.1</ele>
        <time>2019-08-13T13:00:00Z</time>
      </trkpt>
      <trkpt lat="46.58791" lon="6.07931">
        <ele>1099.5</ele>
        <time>2019-08-13T13:00:05Z</time>
      </trkpt>
      <trkpt lat="46.58792" lon="6.07925">
        <ele>1098.8</ele>
        <time>2019-08-13T13:00:09Z</time>
      </trkpt>
      <trkpt lat="46.58796" lon="6.07919">
        <ele>1097.9</ele>
        <time>2019-08-13T13:00:13Z</time>
      </trkpt>
      <trkpt lat="46.58799" lon="6.07913">
        <ele>1096.8</ele>
        <time>2019-08-13T13:00:18Z</time>
      </trkpt>
      <trkpt lat="46.58802" lon="6.07909">
        <ele>1095.9</ele>
        <time>2019-08-13T13:00:22Z</time>
      </trkpt>
      <trkpt lat="46.58805" lon="6.07903">
        <ele>1094.8</ele>
        <time>2019-08-13T13:00:28Z</time>
      </trkpt>
      <trkpt lat="46.58808" lon="6.07896">
        <ele>1094</ele>
        <time>2019-08-13T13:00:33Z</time>
      </trkpt>
      <trkpt lat="46.5881" lon="6.07889">
        <ele>1093.5</ele>
        <time>2019-08-13T13:00:38Z</time>
      </trkpt>
      <trkpt lat="46.58813" lon="6.07883">
        <ele>1092.8</ele>
        <time>2019-08-13T13:00:43Z</time>
      </trkpt>
      <trkpt lat="46.58816" lon="6.07877">
        <ele>1092.2</ele>
        <time>2019-08-13T13:00:49Z</time>
      </trkpt>
      <trkpt lat="46.58819" lon="6.07871">
        <ele>1091.7</ele>
        <time>2019-08-13T13:00:55Z</time>
      </trkpt>
      <trkpt lat="46.58821" lon="6.07865">
        <ele>1090.9</ele>
        <time>2019-08-13T13:01:02Z</time>
      </trkpt>
      <trkpt lat="46.58825" lon="6.07859">
        <ele>1089.9</ele>
        <time>2019-08-13T13:01:08Z</time>
      </trkpt>
      <trkpt lat="46.58828" lon="6.07852">
        <ele>1089.2</ele>
        <time>2019-08-13T13:01:12Z</time>
      </trkpt>
      <trkpt lat="46.58831" lon="6.07847">
        <ele>1088.6</ele>
        <time>2019-08-13T13:01:16Z</time>
      </trkpt>
      <trkpt lat="46.58833" lon="6.07841">
        <ele>1088.1</ele>
        <time>2019-08-13T13:01:20Z</time>
      </trkpt>
      <trkpt lat="46.58836" lon="6.07837">
        <ele>1087.4</ele>
        <time>2019-08-13T13:01:25Z</time>
      </trkpt>
      <trkpt lat="46.58844" lon="6.0782">
        <ele>1085.9</ele>
        <time>2019-08-13T13:01:38Z</time>
      </trkpt>
      <trkpt lat="46.58846" lon="6.07814">
        <ele>1085.9</ele>
        <time>2019-08-13T13:01:42Z</time>
      </trkpt>
      <trkpt lat="46.58847" lon="6.07806">
        <ele>1085.9</ele>
        <time>2019-08-13T13:01:47Z</time>
      </trkpt>
      <trkpt lat="46.58843" lon="6.07803">
        <ele>1086.6</ele>
        <time>2019-08-13T13:02:01Z</time>
      </trkpt>
      <trkpt lat="46.58839" lon="6.07797">
        <ele>1087.2</ele>
        <time>2019-08-13T13:02:08Z</time>
      </trkpt>
      <trkpt lat="46.5884" lon="6.07791">
        <ele>1090.5</ele>
        <time>2019-08-13T13:02:24Z</time>
      </trkpt>
      <trkpt lat="46.58845" lon="6.07789">
        <ele>1091.2</ele>
        <time>2019-08-13T13:02:32Z</time>
      </trkpt>
      <trkpt lat="46.58848" lon="6.07794">
        <ele>1093</ele>
        <time>2019-08-13T13:02:51Z</time>
      </trkpt>
      <trkpt lat="46.58844" lon="6.07794">
        <ele>1093.7</ele>
        <time>2019-08-13T13:03:01Z</time>
      </trkpt>
      <trkpt lat="46.58839" lon="6.07797">
        <ele>1093.5</ele>
        <time>2019-08-13T13:03:08Z</time>
      </trkpt>
      <trkpt lat="46.58839" lon="6.0779">
        <ele>1093.8</ele>
        <time>2019-08-13T13:03:23Z</time>
      </trkpt>
      <trkpt lat="46.58842" lon="6.07785">
        <ele>1095</ele>
        <time>2019-08-13T13:03:33Z</time>
      </trkpt>
      <trkpt lat="46.58846" lon="6.07779">
        <ele>1095.7</ele>
        <time>2019-08-13T13:03:37Z</time>
      </trkpt>
      <trkpt lat="46.58849" lon="6.07774">
        <ele>1096.6</ele>
        <time>2019-08-13T13:03:42Z</time>
      </trkpt>
      <trkpt lat="46.58852" lon="6.07771">
        <ele>1097.2</ele>
        <time>2019-08-13T13:03:47Z</time>
      </trkpt>
      <trkpt lat="46.58856" lon="6.07766">
        <ele>1097.3</ele>
        <time>2019-08-13T13:03:51Z</time>
      </trkpt>
      <trkpt lat="46.5886" lon="6.07761">
        <ele>1097.1</ele>
        <time>2019-08-13T13:03:55Z</time>
      </trkpt>
      <trkpt lat="46.58863" lon="6.07757">
        <ele>1096.4</ele>
        <time>2019-08-13T13:04:02Z</time>
      </trkpt>
      <trkpt lat="46.58868" lon="6.07753">
        <ele>1096</ele>
        <time>2019-08-13T13:04:09Z</time>
      </trkpt>
      <trkpt lat="46.58873" lon="6.07739">
        <ele>1094.2</ele>
        <time>2019-08-13T13:04:22Z</time>
      </trkpt>
      <trkpt lat="46.58876" lon="6.07734">
        <ele>1093.2</ele>
        <time>2019-08-13T13:04:29Z</time>
      </trkpt>
      <trkpt lat="46.5888" lon="6.0773">
        <ele>1092.7</ele>
        <time>2019-08-13T13:04:35Z</time>
      </trkpt>
      <trkpt lat="46.58885" lon="6.07727">
        <ele>1092.4</ele>
        <time>2019-08-13T13:04:40Z</time>
      </trkpt>
      <trkpt lat="46.58894" lon="6.07718">
        <ele>1090.9</ele>
        <time>2019-08-13T13:04:53Z</time>
      </trkpt>
      <trkpt lat="46.58895" lon="6.07712">
        <ele>1090.5</ele>
        <time>2019-08-13T13:04:57Z</time>
      </trkpt>
      <trkpt lat="46.58898" lon="6.07706">
        <ele>1089.8</ele>
        <time>2019-08-13T13:05:06Z</time>
      </trkpt>
      <trkpt lat="46.58897" lon="6.07699">
        <ele>1089.9</ele>
        <time>2019-08-13T13:05:14Z</time>
      </trkpt>
      <trkpt lat="46.58898" lon="6.07692">
        <ele>1090.2</ele>
        <time>2019-08-13T13:05:21Z</time>
      </trkpt>
      <trkpt lat="46.58901" lon="6.07688">
        <ele>1090.7</ele>
        <time>2019-08-13T13:05:28Z</time>
      </trkpt>
      <trkpt lat="46.58904" lon="6.07683">
        <ele>1091.6</ele>
        <time>2019-08-13T13:05:38Z</time>
      </trkpt>
      <trkpt lat="46.58905" lon="6.0766">
        <ele>1091.7</ele>
        <time>2019-08-13T13:05:54Z</time>
      </trkpt>
      <trkpt lat="46.58905" lon="6.07653">
        <ele>1091.3</ele>
        <time>2019-08-13T13:06:00Z</time>
      </trkpt>
      <trkpt lat="46.58908" lon="6.07647">
        <ele>1090.5</ele>
        <time>2019-08-13T13:06:09Z</time>
      </trkpt>
      <trkpt lat="46.58913" lon="6.07647">
        <ele>1089.6</ele>
        <time>2019-08-13T13:06:17Z</time>
      </trkpt>
      <trkpt lat="46.58919" lon="6.07628">
        <ele>1088</ele>
        <time>2019-08-13T13:06:29Z</time>
      </trkpt>
      <trkpt lat="46.58919" lon="6.0762">
        <ele>1087.9</ele>
        <time>2019-08-13T13:06:33Z</time>
      </trkpt>
      <trkpt lat="46.58919" lon="6.07613">
        <ele>1087.9</ele>
        <time>2019-08-13T13:06:37Z</time>
      </trkpt>
      <trkpt lat="46.5892" lon="6.07606">
        <ele>1088</ele>
        <time>2019-08-13T13:06:42Z</time>
      </trkpt>
      <trkpt lat="46.58923" lon="6.076">
        <ele>1088.4</ele>
        <time>2019-08-13T13:06:49Z</time>
      </trkpt>
      <trkpt lat="46.58925" lon="6.07594">
        <ele>1088.9</ele>
        <time>2019-08-13T13:06:57Z</time>
      </trkpt>
      <trkpt lat="46.58927" lon="6.07587">
        <ele>1089.3</ele>
        <time>2019-08-13T13:07:04Z</time>
      </trkpt>
      <trkpt lat="46.5893" lon="6.07573">
        <ele>1089.1</ele>
        <time>2019-08-13T13:07:20Z</time>
      </trkpt>
      <trkpt lat="46.5893" lon="6.07566">
        <ele>1089.1</ele>
        <time>2019-08-13T13:07:29Z</time>
      </trkpt>
      <trkpt lat="46.5893" lon="6.0756">
        <ele>1089.1</ele>
        <time>2019-08-13T13:07:38Z</time>
      </trkpt>
      <trkpt lat="46.58932" lon="6.07553">
        <ele>1088.9</ele>
        <time>2019-08-13T13:07:44Z</time>
      </trkpt>
      <trkpt lat="46.58932" lon="6.07547">
        <ele>1088.5</ele>
        <time>2019-08-13T13:07:50Z</time>
      </trkpt>
      <trkpt lat="46.58933" lon="6.0754">
        <ele>1088.1</ele>
        <time>2019-08-13T13:07:54Z</time>
      </trkpt>
      <trkpt lat="46.58934" lon="6.07534">
        <ele>1087.8</ele>
        <time>2019-08-13T13:08:04Z</time>
      </trkpt>
      <trkpt lat="46.58936" lon="6.07527">
        <ele>1087.9</ele>
        <time>2019-08-13T13:08:08Z</time>
      </trkpt>
      <trkpt lat="46.58937" lon="6.0752">
        <ele>1088.2</ele>
        <time>2019-08-13T13:08:11Z</time>
      </trkpt>
      <trkpt lat="46.58938" lon="6.07514">
        <ele>1088.4</ele>
        <time>2019-08-13T13:08:16Z</time>
      </trkpt>
      <trkpt lat="46.58941" lon="6.07509">
        <ele>1088.9</ele>
        <time>2019-08-13T13:08:25Z</time>
      </trkpt>
      <trkpt lat="46.58942" lon="6.07502">
        <ele>1089.1</ele>
        <time>2019-08-13T13:08:28Z</time>
      </trkpt>
      <trkpt lat="46.58943" lon="6.07495">
        <ele>1089.5</ele>
        <time>2019-08-13T13:08:35Z</time>
      </trkpt>
      <trkpt lat="46.58945" lon="6.07488">
        <ele>1090</ele>
        <time>2019-08-13T13:08:42Z</time>
      </trkpt>
      <trkpt lat="46.58943" lon="6.07482">
        <ele>1090.7</ele>
        <time>2019-08-13T13:08:49Z</time>
      </trkpt>
      <trkpt lat="46.58939" lon="6.07478">
        <ele>1091.5</ele>
        <time>2019-08-13T13:09:00Z</time>
      </trkpt>
      <trkpt lat="46.58941" lon="6.07471">
        <ele>1098</ele>
        <time>2019-08-13T13:09:18Z</time>
      </trkpt>
      <trkpt lat="46.58947" lon="6.07455">
        <ele>1104</ele>
        <time>2019-08-13T13:09:33Z</time>
      </trkpt>
      <trkpt lat="46.58948" lon="6.07447">
        <ele>1105.4</ele>
        <time>2019-08-13T13:09:38Z</time>
      </trkpt>
      <trkpt lat="46.58949" lon="6.0744">
        <ele>1106.4</ele>
        <time>2019-08-13T13:09:42Z</time>
      </trkpt>
      <trkpt lat="46.58949" lon="6.07434">
        <ele>1107.4</ele>
        <time>2019-08-13T13:09:48Z</time>
      </trkpt>
      <trkpt lat="46.58951" lon="6.07427">
        <ele>1108</ele>
        <time>2019-08-13T13:09:55Z</time>
      </trkpt>
      <trkpt lat="46.58953" lon="6.0742">
        <ele>1107.9</ele>
        <time>2019-08-13T13:10:03Z</time>
      </trkpt>
      <trkpt lat="46.58953" lon="6.07412">
        <ele>1107.7</ele>
        <time>2019-08-13T13:10:11Z</time>
      </trkpt>
      <trkpt lat="46.58955" lon="6.07406">
        <ele>1107.6</ele>
        <time>2019-08-13T13:10:17Z</time>
      </trkpt>
      <trkpt lat="46.58958" lon="6.07401">
        <ele>1107.1</ele>
        <time>2019-08-13T13:10:24Z</time>
      </trkpt>
      <trkpt lat="46.58963" lon="6.07397">
        <ele>1106.6</ele>
        <time>2019-08-13T13:10:29Z</time>
      </trkpt>
      <trkpt lat="46.58966" lon="6.07391">
        <ele>1106.1</ele>
        <time>2019-08-13T13:10:37Z</time>
      </trkpt>
      <trkpt lat="46.58969" lon="6.07384">
        <ele>1105.6</ele>
        <time>2019-08-13T13:10:41Z</time>
      </trkpt>
      <trkpt lat="46.58969" lon="6.07378">
        <ele>1104.6</ele>
        <time>2019-08-13T13:10:47Z</time>
      </trkpt>
      <trkpt lat="46.58971" lon="6.07371">
        <ele>1102.9</ele>
        <time>2019-08-13T13:10:55Z</time>
      </trkpt>
      <trkpt lat="46.58972" lon="6.07365">
        <ele>1101.8</ele>
        <time>2019-08-13T13:11:00Z</time>
      </trkpt>
      <trkpt lat="46.58973" lon="6.07358">
        <ele>1100.4</ele>
        <time>2019-08-13T13:11:06Z</time>
      </trkpt>
      <trkpt lat="46.58974" lon="6.07336">
        <ele>1094.8</ele>
        <time>2019-08-13T13:11:29Z</time>
      </trkpt>
      <trkpt lat="46.58974" lon="6.07329">
        <ele>1094.6</ele>
        <time>2019-08-13T13:11:33Z</time>
      </trkpt>
      <trkpt lat="46.58976" lon="6.07322">
        <ele>1094.3</ele>
        <time>2019-08-13T13:11:38Z</time>
      </trkpt>
      <trkpt lat="46.58978" lon="6.07315">
        <ele>1094.1</ele>
        <time>2019-08-13T13:11:44Z</time>
      </trkpt>
      <trkpt lat="46.58982" lon="6.07299">
        <ele>1093.4</ele>
        <time>2019-08-13T13:12:01Z</time>
      </trkpt>
      <trkpt lat="46.5898" lon="6.07292">
        <ele>1093.2</ele>
        <time>2019-08-13T13:12:06Z</time>
      </trkpt>
      <trkpt lat="46.58983" lon="6.07275">
        <ele>1094.2</ele>
        <time>2019-08-13T13:12:20Z</time>
      </trkpt>
      <trkpt lat="46.58982" lon="6.07269">
        <ele>1094.6</ele>
        <time>2019-08-13T13:12:22Z</time>
      </trkpt>
      <trkpt lat="46.58982" lon="6.07262">
        <ele>1095.8</ele>
        <time>2019-08-13T13:12:26Z</time>
      </trkpt>
      <trkpt lat="46.58983" lon="6.07253">
        <ele>1099.2</ele>
        <time>2019-08-13T13:12:35Z</time>
      </trkpt>
      <trkpt lat="46.58983" lon="6.07246">
        <ele>1100.4</ele>
        <time>2019-08-13T13:12:38Z</time>
      </trkpt>
      <trkpt lat="46.58982" lon="6.07239">
        <ele>1101.7</ele>
        <time>2019-08-13T13:12:41Z</time>
      </trkpt>
      <trkpt lat="46.5898" lon="6.07231">
        <ele>1102.7</ele>
        <time>2019-08-13T13:12:44Z</time>
      </trkpt>
      <trkpt lat="46.58977" lon="6.07225">
        <ele>1103.3</ele>
        <time>2019-08-13T13:12:46Z</time>
      </trkpt>
      <trkpt lat="46.58973" lon="6.07219">
        <ele>1104.2</ele>
        <time>2019-08-13T13:12:49Z</time>
      </trkpt>
      <trkpt lat="46.58971" lon="6.07213">
        <ele>1105.4</ele>
        <time>2019-08-13T13:12:54Z</time>
      </trkpt>
      <trkpt lat="46.5897" lon="6.07207">
        <ele>1106.1</ele>
        <time>2019-08-13T13:12:58Z</time>
      </trkpt>
      <trkpt lat="46.5897" lon="6.07199">
        <ele>1106.5</ele>
        <time>2019-08-13T13:13:02Z</time>
      </trkpt>
      <trkpt lat="46.5897" lon="6.07192">
        <ele>1106.8</ele>
        <time>2019-08-13T13:13:08Z</time>
      </trkpt>
      <trkpt lat="46.58972" lon="6.07185">
        <ele>1106.3</ele>
        <time>2019-08-13T13:13:18Z</time>
      </trkpt>
      <trkpt lat="46.58972" lon="6.07178">
        <ele>1105.7</ele>
        <time>2019-08-13T13:13:23Z</time>
      </trkpt>
      <trkpt lat="46.58975" lon="6.07172">
        <ele>1105</ele>
        <time>2019-08-13T13:13:28Z</time>
      </trkpt>
      <trkpt lat="46.58979" lon="6.07168">
        <ele>1104.1</ele>
        <time>2019-08-13T13:13:38Z</time>
      </trkpt>
      <trkpt lat="46.58984" lon="6.07158">
        <ele>1104.6</ele>
        <time>2019-08-13T13:13:59Z</time>
      </trkpt>
      <trkpt lat="46.58985" lon="6.07152">
        <ele>1104.2</ele>
        <time>2019-08-13T13:14:07Z</time>
      </trkpt>
      <trkpt lat="46.58989" lon="6.07149">
        <ele>1103.8</ele>
        <time>2019-08-13T13:14:11Z</time>
      </trkpt>
      <trkpt lat="46.58992" lon="6.07131">
        <ele>1101.2</ele>
        <time>2019-08-13T13:14:28Z</time>
      </trkpt>
      <trkpt lat="46.58991" lon="6.07123">
        <ele>1100.4</ele>
        <time>2019-08-13T13:14:35Z</time>
      </trkpt>
      <trkpt lat="46.58992" lon="6.07116">
        <ele>1099</ele>
        <time>2019-08-13T13:14:46Z</time>
      </trkpt>
      <trkpt lat="46.58993" lon="6.07109">
        <ele>1098.5</ele>
        <time>2019-08-13T13:14:50Z</time>
      </trkpt>
      <trkpt lat="46.58994" lon="6.07101">
        <ele>1097.9</ele>
        <time>2019-08-13T13:14:56Z</time>
      </trkpt>
      <trkpt lat="46.58996" lon="6.07095">
        <ele>1097</ele>
        <time>2019-08-13T13:15:03Z</time>
      </trkpt>
      <trkpt lat="46.58999" lon="6.07089">
        <ele>1096.7</ele>
        <time>2019-08-13T13:15:07Z</time>
      </trkpt>
      <trkpt lat="46.59003" lon="6.07084">
        <ele>1095.7</ele>
        <time>2019-08-13T13:15:15Z</time>
      </trkpt>
      <trkpt lat="46.59006" lon="6.07078">
        <ele>1094.9</ele>
        <time>2019-08-13T13:15:20Z</time>
      </trkpt>
      <trkpt lat="46.59008" lon="6.07072">
        <ele>1093.7</ele>
        <time>2019-08-13T13:15:26Z</time>
      </trkpt>
      <trkpt lat="46.59011" lon="6.07064">
        <ele>1092.3</ele>
        <time>2019-08-13T13:15:34Z</time>
      </trkpt>
      <trkpt lat="46.59013" lon="6.07057">
        <ele>1091.7</ele>
        <time>2019-08-13T13:15:40Z</time>
      </trkpt>
      <trkpt lat="46.59014" lon="6.07049">
        <ele>1091.8</ele>
        <time>2019-08-13T13:15:43Z</time>
      </trkpt>
      <trkpt lat="46.59014" lon="6.07041">
        <ele>1092</ele>
        <time>2019-08-13T13:15:46Z</time>
      </trkpt>
      <trkpt lat="46.59015" lon="6.07033">
        <ele>1092.7</ele>
        <time>2019-08-13T13:15:50Z</time>
      </trkpt>
      <trkpt lat="46.59016" lon="6.07026">
        <ele>1094.2</ele>
        <time>2019-08-13T13:15:55Z</time>
      </trkpt>
      <trkpt lat="46.59018" lon="6.07018">
        <ele>1096.5</ele>
        <time>2019-08-13T13:16:02Z</time>
      </trkpt>
      <trkpt lat="46.59019" lon="6.07011">
        <ele>1098.1</ele>
        <time>2019-08-13T13:16:06Z</time>
      </trkpt>
      <trkpt lat="46.59019" lon="6.07005">
        <ele>1100</ele>
        <time>2019-08-13T13:16:11Z</time>
      </trkpt>
      <trkpt lat="46.5902" lon="6.06998">
        <ele>1101.7</ele>
        <time>2019-08-13T13:16:16Z</time>
      </trkpt>
      <trkpt lat="46.59022" lon="6.06992">
        <ele>1103.4</ele>
        <time>2019-08-13T13:16:21Z</time>
      </trkpt>
      <trkpt lat="46.59022" lon="6.06984">
        <ele>1104.9</ele>
        <time>2019-08-13T13:16:27Z</time>
      </trkpt>
      <trkpt lat="46.59023" lon="6.06978">
        <ele>1106.5</ele>
        <time>2019-08-13T13:16:35Z</time>
      </trkpt>
      <trkpt lat="46.59026" lon="6.06972">
        <ele>1107.3</ele>
        <time>2019-08-13T13:16:42Z</time>
      </trkpt>
      <trkpt lat="46.59029" lon="6.06967">
        <ele>1108</ele>
        <time>2019-08-13T13:16:50Z</time>
      </trkpt>
      <trkpt lat="46.59032" lon="6.06961">
        <ele>1108.6</ele>
        <time>2019-08-13T13:16:58Z</time>
      </trkpt>
      <trkpt lat="46.59035" lon="6.06956">
        <ele>1108.8</ele>
        <time>2019-08-13T13:17:03Z</time>
      </trkpt>
      <trkpt lat="46.59038" lon="6.06952">
        <ele>1108.7</ele>
        <time>2019-08-13T13:17:09Z</time>
      </trkpt>
      <trkpt lat="46.59042" lon="6.06947">
        <ele>1108.4</ele>
        <time>2019-08-13T13:17:15Z</time>
      </trkpt>
      <trkpt lat="46.59046" lon="6.06942">
        <ele>1107.8</ele>
        <time>2019-08-13T13:17:21Z</time>
      </trkpt>
      <trkpt lat="46.59047" lon="6.06935">
        <ele>1107</ele>
        <time>2019-08-13T13:17:26Z</time>
      </trkpt>
      <trkpt lat="46.59049" lon="6.06928">
        <ele>1105.9</ele>
        <time>2019-08-13T13:17:31Z</time>
      </trkpt>
      <trkpt lat="46.5905" lon="6.06921">
        <ele>1104.9</ele>
        <time>2019-08-13T13:17:35Z</time>
      </trkpt>
      <trkpt lat="46.59051" lon="6.06914">
        <ele>1103.5</ele>
        <time>2019-08-13T13:17:40Z</time>
      </trkpt>
      <trkpt lat="46.59053" lon="6.06908">
        <ele>1100.9</ele>
        <time>2019-08-13T13:17:51Z</time>
      </trkpt>
      <trkpt lat="46.59057" lon="6.06902">
        <ele>1099.4</ele>
        <time>2019-08-13T13:17:59Z</time>
      </trkpt>
      <trkpt lat="46.59058" lon="6.06895">
        <ele>1098.5</ele>
        <time>2019-08-13T13:18:04Z</time>
      </trkpt>
      <trkpt lat="46.59059" lon="6.06888">
        <ele>1097.6</ele>
        <time>2019-08-13T13:18:09Z</time>
      </trkpt>
      <trkpt lat="46.59061" lon="6.06876">
        <ele>1094.1</ele>
        <time>2019-08-13T13:18:23Z</time>
      </trkpt>
      <trkpt lat="46.59062" lon="6.06867">
        <ele>1093.2</ele>
        <time>2019-08-13T13:18:27Z</time>
      </trkpt>
      <trkpt lat="46.59063" lon="6.0686">
        <ele>1092</ele>
        <time>2019-08-13T13:18:31Z</time>
      </trkpt>
      <trkpt lat="46.59064" lon="6.06853">
        <ele>1090.7</ele>
        <time>2019-08-13T13:18:35Z</time>
      </trkpt>
      <trkpt lat="46.59062" lon="6.06839">
        <ele>1086.8</ele>
        <time>2019-08-13T13:18:52Z</time>
      </trkpt>
      <trkpt lat="46.59062" lon="6.06832">
        <ele>1086.1</ele>
        <time>2019-08-13T13:18:57Z</time>
      </trkpt>
      <trkpt lat="46.59061" lon="6.06825">
        <ele>1085.3</ele>
        <time>2019-08-13T13:19:03Z</time>
      </trkpt>
      <trkpt lat="46.59061" lon="6.06818">
        <ele>1084.7</ele>
        <time>2019-08-13T13:19:08Z</time>
      </trkpt>
      <trkpt lat="46.59063" lon="6.06811">
        <ele>1084.2</ele>
        <time>2019-08-13T13:19:13Z</time>
      </trkpt>
      <trkpt lat="46.59066" lon="6.06805">
        <ele>1083.8</ele>
        <time>2019-08-13T13:19:19Z</time>
      </trkpt>
      <trkpt lat="46.59069" lon="6.06799">
        <ele>1083.3</ele>
        <time>2019-08-13T13:19:24Z</time>
      </trkpt>
      <trkpt lat="46.59071" lon="6.06793">
        <ele>1082.1</ele>
        <time>2019-08-13T13:19:31Z</time>
      </trkpt>
      <trkpt lat="46.59076" lon="6.06778">
        <ele>1078.8</ele>
        <time>2019-08-13T13:19:42Z</time>
      </trkpt>
      <trkpt lat="46.59077" lon="6.06771">
        <ele>1078.3</ele>
        <time>2019-08-13T13:19:48Z</time>
      </trkpt>
      <trkpt lat="46.59078" lon="6.06762">
        <ele>1078.6</ele>
        <time>2019-08-13T13:19:51Z</time>
      </trkpt>
      <trkpt lat="46.59077" lon="6.06754">
        <ele>1079.1</ele>
        <time>2019-08-13T13:19:54Z</time>
      </trkpt>
      <trkpt lat="46.59076" lon="6.06745">
        <ele>1080</ele>
        <time>2019-08-13T13:19:57Z</time>
      </trkpt>
      <trkpt lat="46.59074" lon="6.06737">
        <ele>1080.9</ele>
        <time>2019-08-13T13:20:00Z</time>
      </trkpt>
      <trkpt lat="46.59073" lon="6.06729">
        <ele>1082.1</ele>
        <time>2019-08-13T13:20:03Z</time>
      </trkpt>
      <trkpt lat="46.59073" lon="6.06721">
        <ele>1084.4</ele>
        <time>2019-08-13T13:20:08Z</time>
      </trkpt>
      <trkpt lat="46.59071" lon="6.06713">
        <ele>1086.4</ele>
        <time>2019-08-13T13:20:12Z</time>
      </trkpt>
      <trkpt lat="46.5907" lon="6.06707">
        <ele>1088.7</ele>
        <time>2019-08-13T13:20:17Z</time>
      </trkpt>
      <trkpt lat="46.59072" lon="6.067">
        <ele>1090.4</ele>
        <time>2019-08-13T13:20:22Z</time>
      </trkpt>
      <trkpt lat="46.59075" lon="6.06694">
        <ele>1091.6</ele>
        <time>2019-08-13T13:20:27Z</time>
      </trkpt>
      <trkpt lat="46.59076" lon="6.06687">
        <ele>1092.3</ele>
        <time>2019-08-13T13:20:33Z</time>
      </trkpt>
      <trkpt lat="46.5908" lon="6.06682">
        <ele>1092.4</ele>
        <time>2019-08-13T13:20:42Z</time>
      </trkpt>
      <trkpt lat="46.59083" lon="6.06677">
        <ele>1092.2</ele>
        <time>2019-08-13T13:20:47Z</time>
      </trkpt>
      <trkpt lat="46.59087" lon="6.06673">
        <ele>1091.9</ele>
        <time>2019-08-13T13:20:52Z</time>
      </trkpt>
      <trkpt lat="46.5909" lon="6.06668">
        <ele>1091.5</ele>
        <time>2019-08-13T13:20:57Z</time>
      </trkpt>
      <trkpt lat="46.59094" lon="6.06662">
        <ele>1091.1</ele>
        <time>2019-08-13T13:21:05Z</time>
      </trkpt>
      <trkpt lat="46.59096" lon="6.06657">
        <ele>1090.7</ele>
        <time>2019-08-13T13:21:11Z</time>
      </trkpt>
      <trkpt lat="46.59099" lon="6.06651">
        <ele>1090.1</ele>
        <time>2019-08-13T13:21:17Z</time>
      </trkpt>
      <trkpt lat="46.59103" lon="6.06645">
        <ele>1089.8</ele>
        <time>2019-08-13T13:21:24Z</time>
      </trkpt>
      <trkpt lat="46.59106" lon="6.06641">
        <ele>1089.5</ele>
        <time>2019-08-13T13:21:32Z</time>
      </trkpt>
      <trkpt lat="46.5911" lon="6.06636">
        <ele>1089.2</ele>
        <time>2019-08-13T13:21:38Z</time>
      </trkpt>
      <trkpt lat="46.59115" lon="6.06632">
        <ele>1088.7</ele>
        <time>2019-08-13T13:21:45Z</time>
      </trkpt>
      <trkpt lat="46.59119" lon="6.06627">
        <ele>1088.3</ele>
        <time>2019-08-13T13:21:49Z</time>
      </trkpt>
      <trkpt lat="46.59122" lon="6.06622">
        <ele>1088</ele>
        <time>2019-08-13T13:21:55Z</time>
      </trkpt>
      <trkpt lat="46.59133" lon="6.06609">
        <ele>1085.2</ele>
        <time>2019-08-13T13:22:11Z</time>
      </trkpt>
      <trkpt lat="46.59139" lon="6.06601">
        <ele>1084.2</ele>
        <time>2019-08-13T13:22:23Z</time>
      </trkpt>
      <trkpt lat="46.59143" lon="6.06597">
        <ele>1083.9</ele>
        <time>2019-08-13T13:22:29Z</time>
      </trkpt>
      <trkpt lat="46.59147" lon="6.06592">
        <ele>1083.7</ele>
        <time>2019-08-13T13:22:35Z</time>
      </trkpt>
      <trkpt lat="46.5915" lon="6.06586">
        <ele>1083.3</ele>
        <time>2019-08-13T13:22:40Z</time>
      </trkpt>
      <trkpt lat="46.59148" lon="6.0658">
        <ele>1082.3</ele>
        <time>2019-08-13T13:22:53Z</time>
      </trkpt>
      <trkpt lat="46.59148" lon="6.06573">
        <ele>1082.1</ele>
        <time>2019-08-13T13:23:01Z</time>
      </trkpt>
      <trkpt lat="46.59145" lon="6.06567">
        <ele>1082.3</ele>
        <time>2019-08-13T13:23:10Z</time>
      </trkpt>
      <trkpt lat="46.59142" lon="6.06562">
        <ele>1082.6</ele>
        <time>2019-08-13T13:23:15Z</time>
      </trkpt>
      <trkpt lat="46.59141" lon="6.06555">
        <ele>1082.9</ele>
        <time>2019-08-13T13:23:20Z</time>
      </trkpt>
      <trkpt lat="46.59142" lon="6.06548">
        <ele>1083.1</ele>
        <time>2019-08-13T13:23:27Z</time>
      </trkpt>
      <trkpt lat="46.59141" lon="6.0654">
        <ele>1082.7</ele>
        <time>2019-08-13T13:23:35Z</time>
      </trkpt>
      <trkpt lat="46.5914" lon="6.06533">
        <ele>1082.2</ele>
        <time>2019-08-13T13:23:41Z</time>
      </trkpt>
      <trkpt lat="46.5914" lon="6.0652">
        <ele>1081.2</ele>
        <time>2019-08-13T13:23:50Z</time>
      </trkpt>
      <trkpt lat="46.59138" lon="6.06513">
        <ele>1080.7</ele>
        <time>2019-08-13T13:23:57Z</time>
      </trkpt>
      <trkpt lat="46.59134" lon="6.06507">
        <ele>1080.5</ele>
        <time>2019-08-13T13:24:02Z</time>
      </trkpt>
      <trkpt lat="46.59131" lon="6.06503">
        <ele>1080.5</ele>
        <time>2019-08-13T13:24:06Z</time>
      </trkpt>
      <trkpt lat="46.59126" lon="6.06499">
        <ele>1080.5</ele>
        <time>2019-08-13T13:24:11Z</time>
      </trkpt>
      <trkpt lat="46.59122" lon="6.06495">
        <ele>1080.5</ele>
        <time>2019-08-13T13:24:16Z</time>
      </trkpt>
      <trkpt lat="46.59117" lon="6.06492">
        <ele>1080.5</ele>
        <time>2019-08-13T13:24:22Z</time>
      </trkpt>
      <trkpt lat="46.59107" lon="6.0648">
        <ele>1083</ele>
        <time>2019-08-13T13:24:38Z</time>
      </trkpt>
      <trkpt lat="46.59104" lon="6.06475">
        <ele>1083.7</ele>
        <time>2019-08-13T13:24:43Z</time>
      </trkpt>
      <trkpt lat="46.591" lon="6.06471">
        <ele>1084.3</ele>
        <time>2019-08-13T13:24:47Z</time>
      </trkpt>
      <trkpt lat="46.59095" lon="6.06466">
        <ele>1084.9</ele>
        <time>2019-08-13T13:24:51Z</time>
      </trkpt>
      <trkpt lat="46.59088" lon="6.06457">
        <ele>1086.1</ele>
        <time>2019-08-13T13:25:02Z</time>
      </trkpt>
      <trkpt lat="46.59085" lon="6.06451">
        <ele>1086.4</ele>
        <time>2019-08-13T13:25:09Z</time>
      </trkpt>
      <trkpt lat="46.59081" lon="6.06446">
        <ele>1086.8</ele>
        <time>2019-08-13T13:25:14Z</time>
      </trkpt>
      <trkpt lat="46.59078" lon="6.06441">
        <ele>1087</ele>
        <time>2019-08-13T13:25:18Z</time>
      </trkpt>
      <trkpt lat="46.59074" lon="6.06436">
        <ele>1087.2</ele>
        <time>2019-08-13T13:25:22Z</time>
      </trkpt>
      <trkpt lat="46.5907" lon="6.06433">
        <ele>1087.8</ele>
        <time>2019-08-13T13:25:27Z</time>
      </trkpt>
      <trkpt lat="46.59067" lon="6.06427">
        <ele>1088.5</ele>
        <time>2019-08-13T13:25:31Z</time>
      </trkpt>
      <trkpt lat="46.59064" lon="6.06421">
        <ele>1089.1</ele>
        <time>2019-08-13T13:25:35Z</time>
      </trkpt>
      <trkpt lat="46.59061" lon="6.06413">
        <ele>1089.9</ele>
        <time>2019-08-13T13:25:41Z</time>
      </trkpt>
      <trkpt lat="46.59059" lon="6.06407">
        <ele>1090.8</ele>
        <time>2019-08-13T13:25:47Z</time>
      </trkpt>
      <trkpt lat="46.59056" lon="6.06401">
        <ele>1091.6</ele>
        <time>2019-08-13T13:25:52Z</time>
      </trkpt>
      <trkpt lat="46.59054" lon="6.06395">
        <ele>1092.7</ele>
        <time>2019-08-13T13:26:00Z</time>
      </trkpt>
      <trkpt lat="46.59051" lon="6.06389">
        <ele>1093</ele>
        <time>2019-08-13T13:26:07Z</time>
      </trkpt>
      <trkpt lat="46.59049" lon="6.06382">
        <ele>1092.7</ele>
        <time>2019-08-13T13:26:15Z</time>
      </trkpt>
      <trkpt lat="46.59046" lon="6.06374">
        <ele>1091.8</ele>
        <time>2019-08-13T13:26:22Z</time>
      </trkpt>
      <trkpt lat="46.59043" lon="6.06367">
        <ele>1091.3</ele>
        <time>2019-08-13T13:26:26Z</time>
      </trkpt>
      <trkpt lat="46.5904" lon="6.06359">
        <ele>1090.8</ele>
        <time>2019-08-13T13:26:30Z</time>
      </trkpt>
      <trkpt lat="46.59038" lon="6.06352">
        <ele>1090.5</ele>
        <time>2019-08-13T13:26:33Z</time>
      </trkpt>
      <trkpt lat="46.59034" lon="6.06348">
        <ele>1090.2</ele>
        <time>2019-08-13T13:26:36Z</time>
      </trkpt>
      <trkpt lat="46.5903" lon="6.06344">
        <ele>1089.9</ele>
        <time>2019-08-13T13:26:40Z</time>
      </trkpt>
      <trkpt lat="46.59026" lon="6.0634">
        <ele>1089.9</ele>
        <time>2019-08-13T13:26:44Z</time>
      </trkpt>
      <trkpt lat="46.59021" lon="6.06338">
        <ele>1089.9</ele>
        <time>2019-08-13T13:26:50Z</time>
      </trkpt>
      <trkpt lat="46.59016" lon="6.06337">
        <ele>1090.1</ele>
        <time>2019-08-13T13:26:55Z</time>
      </trkpt>
      <trkpt lat="46.59011" lon="6.06336">
        <ele>1090.5</ele>
        <time>2019-08-13T13:26:59Z</time>
      </trkpt>
      <trkpt lat="46.59007" lon="6.06333">
        <ele>1091.3</ele>
        <time>2019-08-13T13:27:06Z</time>
      </trkpt>
      <trkpt lat="46.59002" lon="6.0633">
        <ele>1091.8</ele>
        <time>2019-08-13T13:27:12Z</time>
      </trkpt>
      <trkpt lat="46.58997" lon="6.06328">
        <ele>1091.9</ele>
        <time>2019-08-13T13:27:15Z</time>
      </trkpt>
      <trkpt lat="46.58992" lon="6.06326">
        <ele>1092.1</ele>
        <time>2019-08-13T13:27:19Z</time>
      </trkpt>
      <trkpt lat="46.58987" lon="6.06324">
        <ele>1092.4</ele>
        <time>2019-08-13T13:27:23Z</time>
      </trkpt>
      <trkpt lat="46.58983" lon="6.06322">
        <ele>1092.6</ele>
        <time>2019-08-13T13:27:26Z</time>
      </trkpt>
      <trkpt lat="46.58978" lon="6.0632">
        <ele>1092.9</ele>
        <time>2019-08-13T13:27:31Z</time>
      </trkpt>
      <trkpt lat="46.58972" lon="6.06316">
        <ele>1093.2</ele>
        <time>2019-08-13T13:27:35Z</time>
      </trkpt>
      <trkpt lat="46.58967" lon="6.06313">
        <ele>1093.7</ele>
        <time>2019-08-13T13:27:40Z</time>
      </trkpt>
      <trkpt lat="46.58961" lon="6.06311">
        <ele>1094.1</ele>
        <time>2019-08-13T13:27:45Z</time>
      </trkpt>
      <trkpt lat="46.58957" lon="6.06307">
        <ele>1094.6</ele>
        <time>2019-08-13T13:27:51Z</time>
      </trkpt>
      <trkpt lat="46.58953" lon="6.06303">
        <ele>1094.9</ele>
        <time>2019-08-13T13:27:56Z</time>
      </trkpt>
      <trkpt lat="46.58949" lon="6.06299">
        <ele>1095</ele>
        <time>2019-08-13T13:28:01Z</time>
      </trkpt>
      <trkpt lat="46.58945" lon="6.06295">
        <ele>1094.9</ele>
        <time>2019-08-13T13:28:09Z</time>
      </trkpt>
      <trkpt lat="46.58936" lon="6.06291">
        <ele>1095.2</ele>
        <time>2019-08-13T13:28:23Z</time>
      </trkpt>
      <trkpt lat="46.58931" lon="6.06293">
        <ele>1095.5</ele>
        <time>2019-08-13T13:28:27Z</time>
      </trkpt>
      <trkpt lat="46.58926" lon="6.06294">
        <ele>1095.7</ele>
        <time>2019-08-13T13:28:34Z</time>
      </trkpt>
      <trkpt lat="46.58921" lon="6.06294">
        <ele>1096.3</ele>
        <time>2019-08-13T13:28:40Z</time>
      </trkpt>
      <trkpt lat="46.58915" lon="6.06294">
        <ele>1097.1</ele>
        <time>2019-08-13T13:28:44Z</time>
      </trkpt>
      <trkpt lat="46.5891" lon="6.06297">
        <ele>1097.8</ele>
        <time>2019-08-13T13:28:47Z</time>
      </trkpt>
      <trkpt lat="46.58905" lon="6.06299">
        <ele>1098.6</ele>
        <time>2019-08-13T13:28:50Z</time>
      </trkpt>
      <trkpt lat="46.589" lon="6.06301">
        <ele>1099.5</ele>
        <time>2019-08-13T13:28:53Z</time>
      </trkpt>
      <trkpt lat="46.58895" lon="6.06303">
        <ele>1100.7</ele>
        <time>2019-08-13T13:28:57Z</time>
      </trkpt>
      <trkpt lat="46.58891" lon="6.06304">
        <ele>1102</ele>
        <time>2019-08-13T13:29:01Z</time>
      </trkpt>
      <trkpt lat="46.58885" lon="6.06305">
        <ele>1103.6</ele>
        <time>2019-08-13T13:29:06Z</time>
      </trkpt>
      <trkpt lat="46.58881" lon="6.06305">
        <ele>1105.4</ele>
        <time>2019-08-13T13:29:13Z</time>
      </trkpt>
      <trkpt lat="46.58875" lon="6.06306">
        <ele>1106.5</ele>
        <time>2019-08-13T13:29:19Z</time>
      </trkpt>
      <trkpt lat="46.58871" lon="6.06305">
        <ele>1107.2</ele>
        <time>2019-08-13T13:29:24Z</time>
      </trkpt>
      <trkpt lat="46.58866" lon="6.06305">
        <ele>1107.3</ele>
        <time>2019-08-13T13:29:31Z</time>
      </trkpt>
      <trkpt lat="46.58861" lon="6.06303">
        <ele>1107.1</ele>
        <time>2019-08-13T13:29:37Z</time>
      </trkpt>
      <trkpt lat="46.58856" lon="6.06302">
        <ele>1106.9</ele>
        <time>2019-08-13T13:29:44Z</time>
      </trkpt>
      <trkpt lat="46.58851" lon="6.06303">
        <ele>1106.3</ele>
        <time>2019-08-13T13:29:51Z</time>
      </trkpt>
      <trkpt lat="46.58846" lon="6.06301">
        <ele>1105.6</ele>
        <time>2019-08-13T13:29:57Z</time>
      </trkpt>
      <trkpt lat="46.58841" lon="6.06299">
        <ele>1104.6</ele>
        <time>2019-08-13T13:30:06Z</time>
      </trkpt>
      <trkpt lat="46.58837" lon="6.06294">
        <ele>1103.7</ele>
        <time>2019-08-13T13:30:14Z</time>
      </trkpt>
      <trkpt lat="46.58834" lon="6.06289">
        <ele>1102.8</ele>
        <time>2019-08-13T13:30:22Z</time>
      </trkpt>
      <trkpt lat="46.58822" lon="6.06276">
        <ele>1107</ele>
        <time>2019-08-13T13:31:02Z</time>
      </trkpt>
      <trkpt lat="46.58816" lon="6.06272">
        <ele>1107.4</ele>
        <time>2019-08-13T13:31:04Z</time>
      </trkpt>
      <trkpt lat="46.58805" lon="6.06266">
        <ele>1110.3</ele>
        <time>2019-08-13T13:31:16Z</time>
      </trkpt>
      <trkpt lat="46.58801" lon="6.06263">
        <ele>1111.2</ele>
        <time>2019-08-13T13:31:21Z</time>
      </trkpt>
      <trkpt lat="46.58796" lon="6.06259">
        <ele>1111.9</ele>
        <time>2019-08-13T13:31:26Z</time>
      </trkpt>
      <trkpt lat="46.58786" lon="6.06252">
        <ele>1112.9</ele>
        <time>2019-08-13T13:31:39Z</time>
      </trkpt>
      <trkpt lat="46.58781" lon="6.0625">
        <ele>1112.9</ele>
        <time>2019-08-13T13:31:42Z</time>
      </trkpt>
      <trkpt lat="46.58776" lon="6.0625">
        <ele>1113</ele>
        <time>2019-08-13T13:31:46Z</time>
      </trkpt>
      <trkpt lat="46.58772" lon="6.06247">
        <ele>1113.2</ele>
        <time>2019-08-13T13:31:51Z</time>
      </trkpt>
      <trkpt lat="46.58768" lon="6.06243">
        <ele>1113.4</ele>
        <time>2019-08-13T13:31:55Z</time>
      </trkpt>
      <trkpt lat="46.58763" lon="6.06242">
        <ele>1113.4</ele>
        <time>2019-08-13T13:32:00Z</time>
      </trkpt>
      <trkpt lat="46.58759" lon="6.06239">
        <ele>1113.4</ele>
        <time>2019-08-13T13:32:04Z</time>
      </trkpt>
      <trkpt lat="46.58756" lon="6.06233">
        <ele>1113.2</ele>
        <time>2019-08-13T13:32:08Z</time>
      </trkpt>
      <trkpt lat="46.58752" lon="6.06229">
        <ele>1108.7</ele>
        <time>2019-08-13T13:32:34Z</time>
      </trkpt>
      <trkpt lat="46.58749" lon="6.06224">
        <ele>1106.6</ele>
        <time>2019-08-13T13:32:41Z</time>
      </trkpt>
      <trkpt lat="46.58745" lon="6.06218">
        <ele>1104.7</ele>
        <time>2019-08-13T13:32:47Z</time>
      </trkpt>
      <trkpt lat="46.58743" lon="6.06212">
        <ele>1103.3</ele>
        <time>2019-08-13T13:32:52Z</time>
      </trkpt>
      <trkpt lat="46.58741" lon="6.06206">
        <ele>1101.7</ele>
        <time>2019-08-13T13:32:58Z</time>
      </trkpt>
      <trkpt lat="46.58739" lon="6.062">
        <ele>1099.8</ele>
        <time>2019-08-13T13:33:05Z</time>
      </trkpt>
      <trkpt lat="46.58736" lon="6.06194">
        <ele>1098.1</ele>
        <time>2019-08-13T13:33:11Z</time>
      </trkpt>
      <trkpt lat="46.58736" lon="6.06187">
        <ele>1095.2</ele>
        <time>2019-08-13T13:33:19Z</time>
      </trkpt>
      <trkpt lat="46.58734" lon="6.0618">
        <ele>1093</ele>
        <time>2019-08-13T13:33:25Z</time>
      </trkpt>
      <trkpt lat="46.58731" lon="6.06174">
        <ele>1091.2</ele>
        <time>2019-08-13T13:33:31Z</time>
      </trkpt>
      <trkpt lat="46.58727" lon="6.06169">
        <ele>1089.4</ele>
        <time>2019-08-13T13:33:37Z</time>
      </trkpt>
      <trkpt lat="46.58724" lon="6.06164">
        <ele>1087.3</ele>
        <time>2019-08-13T13:33:43Z</time>
      </trkpt>
      <trkpt lat="46.58721" lon="6.06158">
        <ele>1085.1</ele>
        <time>2019-08-13T13:33:50Z</time>
      </trkpt>
      <trkpt lat="46.58719" lon="6.06152">
        <ele>1084.2</ele>
        <time>2019-08-13T13:33:54Z</time>
      </trkpt>
      <trkpt lat="46.58716" lon="6.06145">
        <ele>1083.4</ele>
        <time>2019-08-13T13:33:58Z</time>
      </trkpt>
      <trkpt lat="46.58714" lon="6.06139">
        <ele>1082.4</ele>
        <time>2019-08-13T13:34:03Z</time>
      </trkpt>
      <trkpt lat="46.5871" lon="6.06134">
        <ele>1081.6</ele>
        <time>2019-08-13T13:34:07Z</time>
      </trkpt>
      <trkpt lat="46.58706" lon="6.06128">
        <ele>1080.6</ele>
        <time>2019-08-13T13:34:12Z</time>
      </trkpt>
      <trkpt lat="46.58702" lon="6.06124">
        <ele>1079.8</ele>
        <time>2019-08-13T13:34:17Z</time>
      </trkpt>
      <trkpt lat="46.58698" lon="6.0612">
        <ele>1079.1</ele>
        <time>2019-08-13T13:34:22Z</time>
      </trkpt>
      <trkpt lat="46.58694" lon="6.06116">
        <ele>1078.7</ele>
        <time>2019-08-13T13:34:26Z</time>
      </trkpt>
      <trkpt lat="46.5869" lon="6.06112">
        <ele>1078.6</ele>
        <time>2019-08-13T13:34:29Z</time>
      </trkpt>
      <trkpt lat="46.58686" lon="6.06108">
        <ele>1078.6</ele>
        <time>2019-08-13T13:34:32Z</time>
      </trkpt>
      <trkpt lat="46.58682" lon="6.06104">
        <ele>1078.7</ele>
        <time>2019-08-13T13:34:36Z</time>
      </trkpt>
      <trkpt lat="46.58677" lon="6.06101">
        <ele>1079.1</ele>
        <time>2019-08-13T13:34:41Z</time>
      </trkpt>
      <trkpt lat="46.58672" lon="6.06101">
        <ele>1079.9</ele>
        <time>2019-08-13T13:34:47Z</time>
      </trkpt>
      <trkpt lat="46.58667" lon="6.06101">
        <ele>1080.7</ele>
        <time>2019-08-13T13:34:53Z</time>
      </trkpt>
      <trkpt lat="46.58663" lon="6.061">
        <ele>1081.3</ele>
        <time>2019-08-13T13:34:58Z</time>
      </trkpt>
      <trkpt lat="46.58657" lon="6.06099">
        <ele>1081.6</ele>
        <time>2019-08-13T13:35:02Z</time>
      </trkpt>
      <trkpt lat="46.58652" lon="6.06097">
        <ele>1082</ele>
        <time>2019-08-13T13:35:07Z</time>
      </trkpt>
      <trkpt lat="46.58648" lon="6.06096">
        <ele>1082.6</ele>
        <time>2019-08-13T13:35:13Z</time>
      </trkpt>
      <trkpt lat="46.58643" lon="6.06096">
        <ele>1083.4</ele>
        <time>2019-08-13T13:35:19Z</time>
      </trkpt>
      <trkpt lat="46.58638" lon="6.06094">
        <ele>1083.8</ele>
        <time>2019-08-13T13:35:23Z</time>
      </trkpt>
      <trkpt lat="46.58633" lon="6.06093">
        <ele>1084.1</ele>
        <time>2019-08-13T13:35:27Z</time>
      </trkpt>
      <trkpt lat="46.58628" lon="6.06092">
        <ele>1084.5</ele>
        <time>2019-08-13T13:35:32Z</time>
      </trkpt>
      <trkpt lat="46.58622" lon="6.06089">
        <ele>1084.9</ele>
        <time>2019-08-13T13:35:37Z</time>
      </trkpt>
      <trkpt lat="46.58618" lon="6.06087">
        <ele>1085.3</ele>
        <time>2019-08-13T13:35:41Z</time>
      </trkpt>
      <trkpt lat="46.58612" lon="6.06088">
        <ele>1085.8</ele>
        <time>2019-08-13T13:35:47Z</time>
      </trkpt>
      <trkpt lat="46.58606" lon="6.06086">
        <ele>1086</ele>
        <time>2019-08-13T13:35:51Z</time>
      </trkpt>
      <trkpt lat="46.58601" lon="6.06084">
        <ele>1086.2</ele>
        <time>2019-08-13T13:35:56Z</time>
      </trkpt>
      <trkpt lat="46.58597" lon="6.06082">
        <ele>1086.3</ele>
        <time>2019-08-13T13:36:02Z</time>
      </trkpt>
      <trkpt lat="46.58593" lon="6.06086">
        <ele>1085.8</ele>
        <time>2019-08-13T13:36:12Z</time>
      </trkpt>
      <trkpt lat="46.58589" lon="6.06089">
        <ele>1085.1</ele>
        <time>2019-08-13T13:36:22Z</time>
      </trkpt>
      <trkpt lat="46.58584" lon="6.06093">
        <ele>1084.8</ele>
        <time>2019-08-13T13:36:28Z</time>
      </trkpt>
      <trkpt lat="46.5858" lon="6.06095">
        <ele>1084.3</ele>
        <time>2019-08-13T13:36:33Z</time>
      </trkpt>
      <trkpt lat="46.58575" lon="6.06093">
        <ele>1083.9</ele>
        <time>2019-08-13T13:36:38Z</time>
      </trkpt>
      <trkpt lat="46.5857" lon="6.06089">
        <ele>1083.6</ele>
        <time>2019-08-13T13:36:42Z</time>
      </trkpt>
      <trkpt lat="46.58566" lon="6.06084">
        <ele>1083.3</ele>
        <time>2019-08-13T13:36:47Z</time>
      </trkpt>
      <trkpt lat="46.58562" lon="6.0608">
        <ele>1083.3</ele>
        <time>2019-08-13T13:36:51Z</time>
      </trkpt>
      <trkpt lat="46.58561" lon="6.06074">
        <ele>1083.3</ele>
        <time>2019-08-13T13:36:58Z</time>
      </trkpt>
      <trkpt lat="46.58559" lon="6.06067">
        <ele>1083.4</ele>
        <time>2019-08-13T13:37:08Z</time>
      </trkpt>
      <trkpt lat="46.58563" lon="6.06063">
        <ele>1081.5</ele>
        <time>2019-08-13T13:37:23Z</time>
      </trkpt>
      <trkpt lat="46.58567" lon="6.06066">
        <ele>1079.8</ele>
        <time>2019-08-13T13:37:40Z</time>
      </trkpt>
      <trkpt lat="46.58563" lon="6.06069">
        <ele>1079.4</ele>
        <time>2019-08-13T13:37:56Z</time>
      </trkpt>
      <trkpt lat="46.58565" lon="6.06075">
        <ele>1075.5</ele>
        <time>2019-08-13T13:38:12Z</time>
      </trkpt>
    </trkseg>
  </trk>
</gpx>